<?xml version="1.0" encoding="UTF-8" standalone="no" ?>
<gpx xmlns="http://www.topografix.com/GPX/1/1" xmlns:xsi="http://www.w3.org/2001/XMLSchema-instance" xsi:schemaLocation="http://www.topografix.com/GPX/1/1 http://www.topografix.com/GPX/1/1/gpx.xsd" version="1.1" creator="VisuGPX - https://www.visugpx.com">
  <metadata>
    <name>Pornichet 04/06/2020</name>
    <desc><![CDATA[Sortie VTT du jeudi 04 juin 2020]]></desc>
  </metadata>
  <trk>
    <name><![CDATA[Pornichet Cyclisme]]></name>
    <trkseg>
      <trkpt lat="47.26406" lon="-2.31559">
        <ele>26.39999961853</ele>
        <time>2020-06-04T07:20:51.000Z</time>
      </trkpt>
      <trkpt lat="47.26405" lon="-2.31569">
        <ele>26.39999961853</ele>
        <time>2020-06-04T07:20:54.000Z</time>
      </trkpt>
      <trkpt lat="47.26405" lon="-2.31573">
        <ele>25.799999237061</ele>
        <time>2020-06-04T07:20:55.000Z</time>
      </trkpt>
      <trkpt lat="47.26405" lon="-2.31577">
        <ele>25.200000762939</ele>
        <time>2020-06-04T07:20:56.000Z</time>
      </trkpt>
      <trkpt lat="47.26406" lon="-2.31581">
        <ele>23.799999237061</ele>
        <time>2020-06-04T07:20:57.000Z</time>
      </trkpt>
      <trkpt lat="47.26407" lon="-2.31601">
        <ele>23.799999237061</ele>
        <time>2020-06-04T07:21:02.000Z</time>
      </trkpt>
      <trkpt lat="47.26408" lon="-2.31633">
        <ele>23.799999237061</ele>
        <time>2020-06-04T07:21:09.000Z</time>
      </trkpt>
      <trkpt lat="47.26408" lon="-2.31654">
        <ele>23.799999237061</ele>
        <time>2020-06-04T07:21:14.000Z</time>
      </trkpt>
      <trkpt lat="47.26406" lon="-2.31655">
        <ele>23.799999237061</ele>
        <time>2020-06-04T07:21:15.000Z</time>
      </trkpt>
      <trkpt lat="47.26401" lon="-2.31657">
        <ele>23.799999237061</ele>
        <time>2020-06-04T07:21:18.000Z</time>
      </trkpt>
      <trkpt lat="47.26398" lon="-2.31659">
        <ele>23.799999237061</ele>
        <time>2020-06-04T07:21:19.000Z</time>
      </trkpt>
      <trkpt lat="47.26386" lon="-2.31665">
        <ele>23.799999237061</ele>
        <time>2020-06-04T07:21:23.000Z</time>
      </trkpt>
      <trkpt lat="47.26365" lon="-2.31675">
        <ele>23.799999237061</ele>
        <time>2020-06-04T07:21:29.000Z</time>
      </trkpt>
      <trkpt lat="47.26345" lon="-2.31684">
        <ele>24</ele>
        <time>2020-06-04T07:21:34.000Z</time>
      </trkpt>
      <trkpt lat="47.26342" lon="-2.31686">
        <ele>24</ele>
        <time>2020-06-04T07:21:35.000Z</time>
      </trkpt>
      <trkpt lat="47.2634" lon="-2.31688">
        <ele>24.200000762939</ele>
        <time>2020-06-04T07:21:36.000Z</time>
      </trkpt>
      <trkpt lat="47.26337" lon="-2.3169">
        <ele>24.39999961853</ele>
        <time>2020-06-04T07:21:37.000Z</time>
      </trkpt>
      <trkpt lat="47.26335" lon="-2.31693">
        <ele>24.39999961853</ele>
        <time>2020-06-04T07:21:38.000Z</time>
      </trkpt>
      <trkpt lat="47.26335" lon="-2.31697">
        <ele>24.39999961853</ele>
        <time>2020-06-04T07:21:39.000Z</time>
      </trkpt>
      <trkpt lat="47.26334" lon="-2.317">
        <ele>24.39999961853</ele>
        <time>2020-06-04T07:21:40.000Z</time>
      </trkpt>
      <trkpt lat="47.26322" lon="-2.31708">
        <ele>24</ele>
        <time>2020-06-04T07:21:44.000Z</time>
      </trkpt>
      <trkpt lat="47.26319" lon="-2.3171">
        <ele>23</ele>
        <time>2020-06-04T07:21:45.000Z</time>
      </trkpt>
      <trkpt lat="47.26315" lon="-2.31712">
        <ele>22.60000038147</ele>
        <time>2020-06-04T07:21:46.000Z</time>
      </trkpt>
      <trkpt lat="47.26312" lon="-2.31713">
        <ele>22.200000762939</ele>
        <time>2020-06-04T07:21:47.000Z</time>
      </trkpt>
      <trkpt lat="47.26305" lon="-2.31711">
        <ele>22.200000762939</ele>
        <time>2020-06-04T07:21:49.000Z</time>
      </trkpt>
      <trkpt lat="47.26297" lon="-2.31702">
        <ele>22.200000762939</ele>
        <time>2020-06-04T07:21:53.000Z</time>
      </trkpt>
      <trkpt lat="47.26294" lon="-2.31701">
        <ele>22.200000762939</ele>
        <time>2020-06-04T07:21:57.000Z</time>
      </trkpt>
      <trkpt lat="47.26288" lon="-2.31696">
        <ele>22.200000762939</ele>
        <time>2020-06-04T07:22:18.000Z</time>
      </trkpt>
      <trkpt lat="47.26285" lon="-2.31689">
        <ele>22.200000762939</ele>
        <time>2020-06-04T07:22:21.000Z</time>
      </trkpt>
      <trkpt lat="47.2628" lon="-2.31674">
        <ele>22.200000762939</ele>
        <time>2020-06-04T07:22:26.000Z</time>
      </trkpt>
      <trkpt lat="47.26277" lon="-2.31669">
        <ele>22.200000762939</ele>
        <time>2020-06-04T07:22:28.000Z</time>
      </trkpt>
      <trkpt lat="47.26268" lon="-2.31651">
        <ele>22.200000762939</ele>
        <time>2020-06-04T07:22:34.000Z</time>
      </trkpt>
      <trkpt lat="47.26255" lon="-2.3163">
        <ele>22.200000762939</ele>
        <time>2020-06-04T07:22:39.000Z</time>
      </trkpt>
      <trkpt lat="47.2623" lon="-2.31607">
        <ele>22.200000762939</ele>
        <time>2020-06-04T07:22:46.000Z</time>
      </trkpt>
      <trkpt lat="47.26206" lon="-2.31602">
        <ele>22.200000762939</ele>
        <time>2020-06-04T07:22:51.000Z</time>
      </trkpt>
      <trkpt lat="47.26171" lon="-2.31606">
        <ele>22.200000762939</ele>
        <time>2020-06-04T07:22:59.000Z</time>
      </trkpt>
      <trkpt lat="47.26144" lon="-2.31613">
        <ele>22.200000762939</ele>
        <time>2020-06-04T07:23:06.000Z</time>
      </trkpt>
      <trkpt lat="47.26118" lon="-2.31613">
        <ele>22.200000762939</ele>
        <time>2020-06-04T07:23:13.000Z</time>
      </trkpt>
      <trkpt lat="47.26108" lon="-2.31611">
        <ele>22.200000762939</ele>
        <time>2020-06-04T07:23:16.000Z</time>
      </trkpt>
      <trkpt lat="47.26105" lon="-2.31607">
        <ele>22.200000762939</ele>
        <time>2020-06-04T07:23:17.000Z</time>
      </trkpt>
      <trkpt lat="47.26103" lon="-2.31603">
        <ele>22.200000762939</ele>
        <time>2020-06-04T07:23:18.000Z</time>
      </trkpt>
      <trkpt lat="47.26088" lon="-2.31584">
        <ele>22.200000762939</ele>
        <time>2020-06-04T07:23:25.000Z</time>
      </trkpt>
      <trkpt lat="47.26075" lon="-2.31572">
        <ele>22.200000762939</ele>
        <time>2020-06-04T07:23:32.000Z</time>
      </trkpt>
      <trkpt lat="47.26069" lon="-2.31556">
        <ele>22.200000762939</ele>
        <time>2020-06-04T07:23:36.000Z</time>
      </trkpt>
      <trkpt lat="47.2605" lon="-2.31523">
        <ele>22.200000762939</ele>
        <time>2020-06-04T07:23:44.000Z</time>
      </trkpt>
      <trkpt lat="47.2604" lon="-2.31513">
        <ele>22.200000762939</ele>
        <time>2020-06-04T07:23:48.000Z</time>
      </trkpt>
      <trkpt lat="47.26038" lon="-2.31514">
        <ele>22.200000762939</ele>
        <time>2020-06-04T07:23:49.000Z</time>
      </trkpt>
      <trkpt lat="47.26033" lon="-2.31525">
        <ele>22.200000762939</ele>
        <time>2020-06-04T07:23:52.000Z</time>
      </trkpt>
      <trkpt lat="47.26031" lon="-2.3153">
        <ele>22.200000762939</ele>
        <time>2020-06-04T07:23:53.000Z</time>
      </trkpt>
      <trkpt lat="47.26019" lon="-2.31559">
        <ele>22.200000762939</ele>
        <time>2020-06-04T07:23:59.000Z</time>
      </trkpt>
      <trkpt lat="47.2601" lon="-2.3156">
        <ele>22.200000762939</ele>
        <time>2020-06-04T07:24:02.000Z</time>
      </trkpt>
      <trkpt lat="47.26008" lon="-2.31559">
        <ele>22.200000762939</ele>
        <time>2020-06-04T07:24:03.000Z</time>
      </trkpt>
      <trkpt lat="47.25996" lon="-2.31546">
        <ele>22.200000762939</ele>
        <time>2020-06-04T07:24:07.000Z</time>
      </trkpt>
      <trkpt lat="47.25994" lon="-2.31541">
        <ele>22.200000762939</ele>
        <time>2020-06-04T07:24:08.000Z</time>
      </trkpt>
      <trkpt lat="47.25982" lon="-2.31518">
        <ele>22.200000762939</ele>
        <time>2020-06-04T07:24:13.000Z</time>
      </trkpt>
      <trkpt lat="47.25978" lon="-2.31508">
        <ele>22.200000762939</ele>
        <time>2020-06-04T07:24:15.000Z</time>
      </trkpt>
      <trkpt lat="47.25975" lon="-2.31498">
        <ele>22.60000038147</ele>
        <time>2020-06-04T07:24:17.000Z</time>
      </trkpt>
      <trkpt lat="47.25973" lon="-2.31493">
        <ele>23</ele>
        <time>2020-06-04T07:24:18.000Z</time>
      </trkpt>
      <trkpt lat="47.25971" lon="-2.31489">
        <ele>23.39999961853</ele>
        <time>2020-06-04T07:24:19.000Z</time>
      </trkpt>
      <trkpt lat="47.25968" lon="-2.31485">
        <ele>23.799999237061</ele>
        <time>2020-06-04T07:24:20.000Z</time>
      </trkpt>
      <trkpt lat="47.25965" lon="-2.31481">
        <ele>24.200000762939</ele>
        <time>2020-06-04T07:24:21.000Z</time>
      </trkpt>
      <trkpt lat="47.25942" lon="-2.31459">
        <ele>24.200000762939</ele>
        <time>2020-06-04T07:24:28.000Z</time>
      </trkpt>
      <trkpt lat="47.2593" lon="-2.31464">
        <ele>24.200000762939</ele>
        <time>2020-06-04T07:24:32.000Z</time>
      </trkpt>
      <trkpt lat="47.25921" lon="-2.31485">
        <ele>24.200000762939</ele>
        <time>2020-06-04T07:24:37.000Z</time>
      </trkpt>
      <trkpt lat="47.25912" lon="-2.31506">
        <ele>24.200000762939</ele>
        <time>2020-06-04T07:24:44.000Z</time>
      </trkpt>
      <trkpt lat="47.25913" lon="-2.31507">
        <ele>24.200000762939</ele>
        <time>2020-06-04T07:24:46.000Z</time>
      </trkpt>
      <trkpt lat="47.25912" lon="-2.31511">
        <ele>24.200000762939</ele>
        <time>2020-06-04T07:24:49.000Z</time>
      </trkpt>
      <trkpt lat="47.25911" lon="-2.31513">
        <ele>24.200000762939</ele>
        <time>2020-06-04T07:24:50.000Z</time>
      </trkpt>
      <trkpt lat="47.25904" lon="-2.31524">
        <ele>24.200000762939</ele>
        <time>2020-06-04T07:24:53.000Z</time>
      </trkpt>
      <trkpt lat="47.25891" lon="-2.31557">
        <ele>24.200000762939</ele>
        <time>2020-06-04T07:25:00.000Z</time>
      </trkpt>
      <trkpt lat="47.2588" lon="-2.31577">
        <ele>24.60000038147</ele>
        <time>2020-06-04T07:25:05.000Z</time>
      </trkpt>
      <trkpt lat="47.25877" lon="-2.3158">
        <ele>25</ele>
        <time>2020-06-04T07:25:06.000Z</time>
      </trkpt>
      <trkpt lat="47.25874" lon="-2.31583">
        <ele>25.39999961853</ele>
        <time>2020-06-04T07:25:07.000Z</time>
      </trkpt>
      <trkpt lat="47.25871" lon="-2.31585">
        <ele>25.799999237061</ele>
        <time>2020-06-04T07:25:08.000Z</time>
      </trkpt>
      <trkpt lat="47.25868" lon="-2.31588">
        <ele>26.39999961853</ele>
        <time>2020-06-04T07:25:09.000Z</time>
      </trkpt>
      <trkpt lat="47.25854" lon="-2.31602">
        <ele>26.39999961853</ele>
        <time>2020-06-04T07:25:14.000Z</time>
      </trkpt>
      <trkpt lat="47.25843" lon="-2.31611">
        <ele>26.799999237061</ele>
        <time>2020-06-04T07:25:18.000Z</time>
      </trkpt>
      <trkpt lat="47.2584" lon="-2.31613">
        <ele>27.200000762939</ele>
        <time>2020-06-04T07:25:19.000Z</time>
      </trkpt>
      <trkpt lat="47.25837" lon="-2.31615">
        <ele>27.60000038147</ele>
        <time>2020-06-04T07:25:20.000Z</time>
      </trkpt>
      <trkpt lat="47.25834" lon="-2.31618">
        <ele>28</ele>
        <time>2020-06-04T07:25:21.000Z</time>
      </trkpt>
      <trkpt lat="47.25831" lon="-2.3162">
        <ele>28.39999961853</ele>
        <time>2020-06-04T07:25:22.000Z</time>
      </trkpt>
      <trkpt lat="47.25822" lon="-2.31628">
        <ele>28.39999961853</ele>
        <time>2020-06-04T07:25:25.000Z</time>
      </trkpt>
      <trkpt lat="47.25813" lon="-2.31635">
        <ele>28.39999961853</ele>
        <time>2020-06-04T07:25:28.000Z</time>
      </trkpt>
      <trkpt lat="47.2578" lon="-2.31661">
        <ele>28.39999961853</ele>
        <time>2020-06-04T07:25:37.000Z</time>
      </trkpt>
      <trkpt lat="47.25748" lon="-2.31687">
        <ele>28.39999961853</ele>
        <time>2020-06-04T07:25:44.000Z</time>
      </trkpt>
      <trkpt lat="47.25734" lon="-2.31701">
        <ele>28</ele>
        <time>2020-06-04T07:25:48.000Z</time>
      </trkpt>
      <trkpt lat="47.25732" lon="-2.31704">
        <ele>27.39999961853</ele>
        <time>2020-06-04T07:25:49.000Z</time>
      </trkpt>
      <trkpt lat="47.25729" lon="-2.31705">
        <ele>27</ele>
        <time>2020-06-04T07:25:50.000Z</time>
      </trkpt>
      <trkpt lat="47.25726" lon="-2.31703">
        <ele>26.200000762939</ele>
        <time>2020-06-04T07:25:51.000Z</time>
      </trkpt>
      <trkpt lat="47.25723" lon="-2.317">
        <ele>26.200000762939</ele>
        <time>2020-06-04T07:25:52.000Z</time>
      </trkpt>
      <trkpt lat="47.25716" lon="-2.31695">
        <ele>26.200000762939</ele>
        <time>2020-06-04T07:25:54.000Z</time>
      </trkpt>
      <trkpt lat="47.25698" lon="-2.31684">
        <ele>26.200000762939</ele>
        <time>2020-06-04T07:25:59.000Z</time>
      </trkpt>
      <trkpt lat="47.25682" lon="-2.31679">
        <ele>26.200000762939</ele>
        <time>2020-06-04T07:26:04.000Z</time>
      </trkpt>
      <trkpt lat="47.25675" lon="-2.31679">
        <ele>26.200000762939</ele>
        <time>2020-06-04T07:26:08.000Z</time>
      </trkpt>
      <trkpt lat="47.25673" lon="-2.3168">
        <ele>26.60000038147</ele>
        <time>2020-06-04T07:26:09.000Z</time>
      </trkpt>
      <trkpt lat="47.2567" lon="-2.31682">
        <ele>27</ele>
        <time>2020-06-04T07:26:10.000Z</time>
      </trkpt>
      <trkpt lat="47.25669" lon="-2.31684">
        <ele>27.39999961853</ele>
        <time>2020-06-04T07:26:11.000Z</time>
      </trkpt>
      <trkpt lat="47.25666" lon="-2.31687">
        <ele>28</ele>
        <time>2020-06-04T07:26:12.000Z</time>
      </trkpt>
      <trkpt lat="47.25664" lon="-2.3169">
        <ele>28.39999961853</ele>
        <time>2020-06-04T07:26:13.000Z</time>
      </trkpt>
      <trkpt lat="47.25653" lon="-2.31703">
        <ele>28.39999961853</ele>
        <time>2020-06-04T07:26:17.000Z</time>
      </trkpt>
      <trkpt lat="47.25635" lon="-2.31721">
        <ele>28.799999237061</ele>
        <time>2020-06-04T07:26:23.000Z</time>
      </trkpt>
      <trkpt lat="47.25634" lon="-2.31724">
        <ele>29.200000762939</ele>
        <time>2020-06-04T07:26:24.000Z</time>
      </trkpt>
      <trkpt lat="47.25633" lon="-2.3173">
        <ele>29.60000038147</ele>
        <time>2020-06-04T07:26:25.000Z</time>
      </trkpt>
      <trkpt lat="47.25631" lon="-2.31736">
        <ele>30</ele>
        <time>2020-06-04T07:26:26.000Z</time>
      </trkpt>
      <trkpt lat="47.25629" lon="-2.31742">
        <ele>30.39999961853</ele>
        <time>2020-06-04T07:26:27.000Z</time>
      </trkpt>
      <trkpt lat="47.25625" lon="-2.31754">
        <ele>30.39999961853</ele>
        <time>2020-06-04T07:26:29.000Z</time>
      </trkpt>
      <trkpt lat="47.25613" lon="-2.31766">
        <ele>30.39999961853</ele>
        <time>2020-06-04T07:26:32.000Z</time>
      </trkpt>
      <trkpt lat="47.25593" lon="-2.31768">
        <ele>30.39999961853</ele>
        <time>2020-06-04T07:26:36.000Z</time>
      </trkpt>
      <trkpt lat="47.25579" lon="-2.31775">
        <ele>30.39999961853</ele>
        <time>2020-06-04T07:26:39.000Z</time>
      </trkpt>
      <trkpt lat="47.25572" lon="-2.31781">
        <ele>30.39999961853</ele>
        <time>2020-06-04T07:26:41.000Z</time>
      </trkpt>
      <trkpt lat="47.2557" lon="-2.31785">
        <ele>30.799999237061</ele>
        <time>2020-06-04T07:26:42.000Z</time>
      </trkpt>
      <trkpt lat="47.25568" lon="-2.3179">
        <ele>31.39999961853</ele>
        <time>2020-06-04T07:26:43.000Z</time>
      </trkpt>
      <trkpt lat="47.25566" lon="-2.31795">
        <ele>31.799999237061</ele>
        <time>2020-06-04T07:26:44.000Z</time>
      </trkpt>
      <trkpt lat="47.25563" lon="-2.318">
        <ele>32.200000762939</ele>
        <time>2020-06-04T07:26:45.000Z</time>
      </trkpt>
      <trkpt lat="47.2556" lon="-2.31803">
        <ele>32.599998474121</ele>
        <time>2020-06-04T07:26:46.000Z</time>
      </trkpt>
      <trkpt lat="47.25549" lon="-2.31808">
        <ele>32.599998474121</ele>
        <time>2020-06-04T07:26:49.000Z</time>
      </trkpt>
      <trkpt lat="47.25546" lon="-2.31809">
        <ele>32.599998474121</ele>
        <time>2020-06-04T07:26:50.000Z</time>
      </trkpt>
      <trkpt lat="47.25538" lon="-2.31811">
        <ele>33</ele>
        <time>2020-06-04T07:26:52.000Z</time>
      </trkpt>
      <trkpt lat="47.25535" lon="-2.31812">
        <ele>33.400001525879</ele>
        <time>2020-06-04T07:26:53.000Z</time>
      </trkpt>
      <trkpt lat="47.25532" lon="-2.31812">
        <ele>33.799999237061</ele>
        <time>2020-06-04T07:26:54.000Z</time>
      </trkpt>
      <trkpt lat="47.25529" lon="-2.31813">
        <ele>34.200000762939</ele>
        <time>2020-06-04T07:26:55.000Z</time>
      </trkpt>
      <trkpt lat="47.25527" lon="-2.31815">
        <ele>34.599998474121</ele>
        <time>2020-06-04T07:26:56.000Z</time>
      </trkpt>
      <trkpt lat="47.25521" lon="-2.31822">
        <ele>34.599998474121</ele>
        <time>2020-06-04T07:27:01.000Z</time>
      </trkpt>
      <trkpt lat="47.25519" lon="-2.31822">
        <ele>34.599998474121</ele>
        <time>2020-06-04T07:27:05.000Z</time>
      </trkpt>
      <trkpt lat="47.2552" lon="-2.3182">
        <ele>34.599998474121</ele>
        <time>2020-06-04T07:37:54.000Z</time>
      </trkpt>
      <trkpt lat="47.2552" lon="-2.3182">
        <ele>34.599998474121</ele>
        <time>2020-06-04T07:37:55.000Z</time>
      </trkpt>
      <trkpt lat="47.25525" lon="-2.31815">
        <ele>34.599998474121</ele>
        <time>2020-06-04T07:38:04.000Z</time>
      </trkpt>
      <trkpt lat="47.25527" lon="-2.31814">
        <ele>34.599998474121</ele>
        <time>2020-06-04T07:38:05.000Z</time>
      </trkpt>
      <trkpt lat="47.25537" lon="-2.31811">
        <ele>34.599998474121</ele>
        <time>2020-06-04T07:38:08.000Z</time>
      </trkpt>
      <trkpt lat="47.25547" lon="-2.31807">
        <ele>34.599998474121</ele>
        <time>2020-06-04T07:38:11.000Z</time>
      </trkpt>
      <trkpt lat="47.25559" lon="-2.31796">
        <ele>34.599998474121</ele>
        <time>2020-06-04T07:38:16.000Z</time>
      </trkpt>
      <trkpt lat="47.25572" lon="-2.31773">
        <ele>34.599998474121</ele>
        <time>2020-06-04T07:38:21.000Z</time>
      </trkpt>
      <trkpt lat="47.25575" lon="-2.3177">
        <ele>34.599998474121</ele>
        <time>2020-06-04T07:38:22.000Z</time>
      </trkpt>
      <trkpt lat="47.25578" lon="-2.31766">
        <ele>34.200000762939</ele>
        <time>2020-06-04T07:38:23.000Z</time>
      </trkpt>
      <trkpt lat="47.2558" lon="-2.31762">
        <ele>33.799999237061</ele>
        <time>2020-06-04T07:38:24.000Z</time>
      </trkpt>
      <trkpt lat="47.25582" lon="-2.31761">
        <ele>33.400001525879</ele>
        <time>2020-06-04T07:38:25.000Z</time>
      </trkpt>
      <trkpt lat="47.25583" lon="-2.3176">
        <ele>32.799999237061</ele>
        <time>2020-06-04T07:38:26.000Z</time>
      </trkpt>
      <trkpt lat="47.25583" lon="-2.31759">
        <ele>32.400001525879</ele>
        <time>2020-06-04T07:38:27.000Z</time>
      </trkpt>
      <trkpt lat="47.25584" lon="-2.31757">
        <ele>32</ele>
        <time>2020-06-04T07:38:28.000Z</time>
      </trkpt>
      <trkpt lat="47.25584" lon="-2.31755">
        <ele>31.39999961853</ele>
        <time>2020-06-04T07:38:29.000Z</time>
      </trkpt>
      <trkpt lat="47.25585" lon="-2.31752">
        <ele>31</ele>
        <time>2020-06-04T07:38:30.000Z</time>
      </trkpt>
      <trkpt lat="47.25586" lon="-2.31749">
        <ele>30.60000038147</ele>
        <time>2020-06-04T07:38:31.000Z</time>
      </trkpt>
      <trkpt lat="47.25586" lon="-2.31745">
        <ele>30</ele>
        <time>2020-06-04T07:38:32.000Z</time>
      </trkpt>
      <trkpt lat="47.25589" lon="-2.3173">
        <ele>30</ele>
        <time>2020-06-04T07:38:36.000Z</time>
      </trkpt>
      <trkpt lat="47.256" lon="-2.31711">
        <ele>30</ele>
        <time>2020-06-04T07:38:41.000Z</time>
      </trkpt>
      <trkpt lat="47.25604" lon="-2.31709">
        <ele>30</ele>
        <time>2020-06-04T07:38:42.000Z</time>
      </trkpt>
      <trkpt lat="47.25617" lon="-2.31711">
        <ele>30</ele>
        <time>2020-06-04T07:38:45.000Z</time>
      </trkpt>
      <trkpt lat="47.25635" lon="-2.31705">
        <ele>30</ele>
        <time>2020-06-04T07:38:49.000Z</time>
      </trkpt>
      <trkpt lat="47.25639" lon="-2.31703">
        <ele>30</ele>
        <time>2020-06-04T07:38:50.000Z</time>
      </trkpt>
      <trkpt lat="47.25653" lon="-2.31684">
        <ele>30</ele>
        <time>2020-06-04T07:38:54.000Z</time>
      </trkpt>
      <trkpt lat="47.25661" lon="-2.31665">
        <ele>29.60000038147</ele>
        <time>2020-06-04T07:38:57.000Z</time>
      </trkpt>
      <trkpt lat="47.25664" lon="-2.31662">
        <ele>29.200000762939</ele>
        <time>2020-06-04T07:38:58.000Z</time>
      </trkpt>
      <trkpt lat="47.25668" lon="-2.31662">
        <ele>28.799999237061</ele>
        <time>2020-06-04T07:38:59.000Z</time>
      </trkpt>
      <trkpt lat="47.25672" lon="-2.31665">
        <ele>28.39999961853</ele>
        <time>2020-06-04T07:39:00.000Z</time>
      </trkpt>
      <trkpt lat="47.25676" lon="-2.31669">
        <ele>28</ele>
        <time>2020-06-04T07:39:01.000Z</time>
      </trkpt>
      <trkpt lat="47.25681" lon="-2.31672">
        <ele>28</ele>
        <time>2020-06-04T07:39:02.000Z</time>
      </trkpt>
      <trkpt lat="47.25702" lon="-2.31683">
        <ele>27.60000038147</ele>
        <time>2020-06-04T07:39:06.000Z</time>
      </trkpt>
      <trkpt lat="47.25707" lon="-2.31686">
        <ele>27.200000762939</ele>
        <time>2020-06-04T07:39:07.000Z</time>
      </trkpt>
      <trkpt lat="47.25713" lon="-2.3169">
        <ele>26.799999237061</ele>
        <time>2020-06-04T07:39:08.000Z</time>
      </trkpt>
      <trkpt lat="47.25717" lon="-2.31694">
        <ele>26.200000762939</ele>
        <time>2020-06-04T07:39:09.000Z</time>
      </trkpt>
      <trkpt lat="47.25723" lon="-2.31697">
        <ele>25.799999237061</ele>
        <time>2020-06-04T07:39:10.000Z</time>
      </trkpt>
      <trkpt lat="47.25728" lon="-2.31699">
        <ele>25.799999237061</ele>
        <time>2020-06-04T07:39:11.000Z</time>
      </trkpt>
      <trkpt lat="47.25744" lon="-2.3169">
        <ele>25.799999237061</ele>
        <time>2020-06-04T07:39:14.000Z</time>
      </trkpt>
      <trkpt lat="47.25748" lon="-2.31686">
        <ele>25.799999237061</ele>
        <time>2020-06-04T07:39:15.000Z</time>
      </trkpt>
      <trkpt lat="47.25773" lon="-2.31665">
        <ele>25.799999237061</ele>
        <time>2020-06-04T07:39:21.000Z</time>
      </trkpt>
      <trkpt lat="47.25809" lon="-2.31637">
        <ele>25.799999237061</ele>
        <time>2020-06-04T07:39:30.000Z</time>
      </trkpt>
      <trkpt lat="47.25829" lon="-2.31621">
        <ele>26.200000762939</ele>
        <time>2020-06-04T07:39:35.000Z</time>
      </trkpt>
      <trkpt lat="47.25833" lon="-2.31617">
        <ele>26.60000038147</ele>
        <time>2020-06-04T07:39:36.000Z</time>
      </trkpt>
      <trkpt lat="47.25837" lon="-2.31614">
        <ele>27</ele>
        <time>2020-06-04T07:39:37.000Z</time>
      </trkpt>
      <trkpt lat="47.25841" lon="-2.3161">
        <ele>27.39999961853</ele>
        <time>2020-06-04T07:39:38.000Z</time>
      </trkpt>
      <trkpt lat="47.25845" lon="-2.31607">
        <ele>27.799999237061</ele>
        <time>2020-06-04T07:39:39.000Z</time>
      </trkpt>
      <trkpt lat="47.25849" lon="-2.31603">
        <ele>27.799999237061</ele>
        <time>2020-06-04T07:39:40.000Z</time>
      </trkpt>
      <trkpt lat="47.25875" lon="-2.31579">
        <ele>27.39999961853</ele>
        <time>2020-06-04T07:39:46.000Z</time>
      </trkpt>
      <trkpt lat="47.25879" lon="-2.31574">
        <ele>27</ele>
        <time>2020-06-04T07:39:47.000Z</time>
      </trkpt>
      <trkpt lat="47.25883" lon="-2.31569">
        <ele>26.60000038147</ele>
        <time>2020-06-04T07:39:48.000Z</time>
      </trkpt>
      <trkpt lat="47.25887" lon="-2.31562">
        <ele>26</ele>
        <time>2020-06-04T07:39:49.000Z</time>
      </trkpt>
      <trkpt lat="47.2589" lon="-2.31555">
        <ele>25.60000038147</ele>
        <time>2020-06-04T07:39:50.000Z</time>
      </trkpt>
      <trkpt lat="47.25892" lon="-2.31548">
        <ele>25.60000038147</ele>
        <time>2020-06-04T07:39:51.000Z</time>
      </trkpt>
      <trkpt lat="47.25898" lon="-2.31531">
        <ele>25.200000762939</ele>
        <time>2020-06-04T07:39:54.000Z</time>
      </trkpt>
      <trkpt lat="47.259" lon="-2.31527">
        <ele>24.799999237061</ele>
        <time>2020-06-04T07:39:55.000Z</time>
      </trkpt>
      <trkpt lat="47.25901" lon="-2.31524">
        <ele>24.39999961853</ele>
        <time>2020-06-04T07:39:56.000Z</time>
      </trkpt>
      <trkpt lat="47.25903" lon="-2.31521">
        <ele>24</ele>
        <time>2020-06-04T07:39:57.000Z</time>
      </trkpt>
      <trkpt lat="47.25904" lon="-2.31518">
        <ele>23.60000038147</ele>
        <time>2020-06-04T07:39:58.000Z</time>
      </trkpt>
      <trkpt lat="47.25908" lon="-2.31514">
        <ele>23.60000038147</ele>
        <time>2020-06-04T07:40:01.000Z</time>
      </trkpt>
      <trkpt lat="47.25911" lon="-2.31507">
        <ele>23.60000038147</ele>
        <time>2020-06-04T07:40:05.000Z</time>
      </trkpt>
      <trkpt lat="47.25911" lon="-2.31505">
        <ele>23.60000038147</ele>
        <time>2020-06-04T07:40:07.000Z</time>
      </trkpt>
      <trkpt lat="47.2591" lon="-2.31505">
        <ele>23.60000038147</ele>
        <time>2020-06-04T07:40:08.000Z</time>
      </trkpt>
      <trkpt lat="47.25911" lon="-2.31502">
        <ele>23.60000038147</ele>
        <time>2020-06-04T07:40:11.000Z</time>
      </trkpt>
      <trkpt lat="47.25913" lon="-2.31494">
        <ele>23.60000038147</ele>
        <time>2020-06-04T07:40:13.000Z</time>
      </trkpt>
      <trkpt lat="47.25921" lon="-2.31466">
        <ele>23.60000038147</ele>
        <time>2020-06-04T07:40:17.000Z</time>
      </trkpt>
      <trkpt lat="47.25927" lon="-2.31458">
        <ele>23.60000038147</ele>
        <time>2020-06-04T07:40:19.000Z</time>
      </trkpt>
      <trkpt lat="47.25929" lon="-2.31457">
        <ele>23.60000038147</ele>
        <time>2020-06-04T07:40:20.000Z</time>
      </trkpt>
      <trkpt lat="47.25938" lon="-2.31464">
        <ele>23.60000038147</ele>
        <time>2020-06-04T07:40:23.000Z</time>
      </trkpt>
      <trkpt lat="47.25941" lon="-2.31468">
        <ele>23.60000038147</ele>
        <time>2020-06-04T07:40:24.000Z</time>
      </trkpt>
      <trkpt lat="47.25957" lon="-2.31485">
        <ele>23.60000038147</ele>
        <time>2020-06-04T07:40:27.000Z</time>
      </trkpt>
      <trkpt lat="47.2597" lon="-2.31511">
        <ele>23.60000038147</ele>
        <time>2020-06-04T07:40:30.000Z</time>
      </trkpt>
      <trkpt lat="47.25975" lon="-2.31519">
        <ele>23.60000038147</ele>
        <time>2020-06-04T07:40:31.000Z</time>
      </trkpt>
      <trkpt lat="47.25984" lon="-2.31532">
        <ele>23.200000762939</ele>
        <time>2020-06-04T07:40:33.000Z</time>
      </trkpt>
      <trkpt lat="47.25989" lon="-2.31538">
        <ele>22.799999237061</ele>
        <time>2020-06-04T07:40:34.000Z</time>
      </trkpt>
      <trkpt lat="47.25993" lon="-2.31544">
        <ele>22.39999961853</ele>
        <time>2020-06-04T07:40:35.000Z</time>
      </trkpt>
      <trkpt lat="47.25997" lon="-2.31549">
        <ele>22</ele>
        <time>2020-06-04T07:40:36.000Z</time>
      </trkpt>
      <trkpt lat="47.26" lon="-2.31554">
        <ele>21.39999961853</ele>
        <time>2020-06-04T07:40:37.000Z</time>
      </trkpt>
      <trkpt lat="47.26007" lon="-2.31561">
        <ele>21.39999961853</ele>
        <time>2020-06-04T07:40:39.000Z</time>
      </trkpt>
      <trkpt lat="47.26011" lon="-2.31561">
        <ele>21.39999961853</ele>
        <time>2020-06-04T07:40:40.000Z</time>
      </trkpt>
      <trkpt lat="47.26022" lon="-2.31547">
        <ele>21.39999961853</ele>
        <time>2020-06-04T07:40:43.000Z</time>
      </trkpt>
      <trkpt lat="47.26028" lon="-2.3153">
        <ele>21.39999961853</ele>
        <time>2020-06-04T07:40:46.000Z</time>
      </trkpt>
      <trkpt lat="47.26032" lon="-2.31519">
        <ele>21.39999961853</ele>
        <time>2020-06-04T07:40:48.000Z</time>
      </trkpt>
      <trkpt lat="47.26038" lon="-2.31514">
        <ele>21.39999961853</ele>
        <time>2020-06-04T07:40:50.000Z</time>
      </trkpt>
      <trkpt lat="47.26041" lon="-2.31517">
        <ele>21.39999961853</ele>
        <time>2020-06-04T07:40:51.000Z</time>
      </trkpt>
      <trkpt lat="47.26052" lon="-2.31533">
        <ele>21.39999961853</ele>
        <time>2020-06-04T07:40:54.000Z</time>
      </trkpt>
      <trkpt lat="47.26063" lon="-2.31551">
        <ele>21.39999961853</ele>
        <time>2020-06-04T07:40:57.000Z</time>
      </trkpt>
      <trkpt lat="47.26071" lon="-2.31569">
        <ele>21.39999961853</ele>
        <time>2020-06-04T07:41:00.000Z</time>
      </trkpt>
      <trkpt lat="47.26076" lon="-2.31576">
        <ele>21</ele>
        <time>2020-06-04T07:41:02.000Z</time>
      </trkpt>
      <trkpt lat="47.26079" lon="-2.31578">
        <ele>20.60000038147</ele>
        <time>2020-06-04T07:41:03.000Z</time>
      </trkpt>
      <trkpt lat="47.26083" lon="-2.3158">
        <ele>20.200000762939</ele>
        <time>2020-06-04T07:41:04.000Z</time>
      </trkpt>
      <trkpt lat="47.26086" lon="-2.31584">
        <ele>19.39999961853</ele>
        <time>2020-06-04T07:41:05.000Z</time>
      </trkpt>
      <trkpt lat="47.26089" lon="-2.31589">
        <ele>19.39999961853</ele>
        <time>2020-06-04T07:41:06.000Z</time>
      </trkpt>
      <trkpt lat="47.26096" lon="-2.31599">
        <ele>19.39999961853</ele>
        <time>2020-06-04T07:41:08.000Z</time>
      </trkpt>
      <trkpt lat="47.26102" lon="-2.31608">
        <ele>19.39999961853</ele>
        <time>2020-06-04T07:41:10.000Z</time>
      </trkpt>
      <trkpt lat="47.26113" lon="-2.31614">
        <ele>19.39999961853</ele>
        <time>2020-06-04T07:41:13.000Z</time>
      </trkpt>
      <trkpt lat="47.26135" lon="-2.31612">
        <ele>19.39999961853</ele>
        <time>2020-06-04T07:41:18.000Z</time>
      </trkpt>
      <trkpt lat="47.26144" lon="-2.3161">
        <ele>19.39999961853</ele>
        <time>2020-06-04T07:41:20.000Z</time>
      </trkpt>
      <trkpt lat="47.26164" lon="-2.316">
        <ele>19.39999961853</ele>
        <time>2020-06-04T07:41:25.000Z</time>
      </trkpt>
      <trkpt lat="47.26168" lon="-2.31599">
        <ele>19.39999961853</ele>
        <time>2020-06-04T07:41:26.000Z</time>
      </trkpt>
      <trkpt lat="47.26189" lon="-2.31593">
        <ele>19.39999961853</ele>
        <time>2020-06-04T07:41:31.000Z</time>
      </trkpt>
      <trkpt lat="47.26214" lon="-2.31588">
        <ele>19.39999961853</ele>
        <time>2020-06-04T07:41:37.000Z</time>
      </trkpt>
      <trkpt lat="47.26218" lon="-2.31589">
        <ele>19.39999961853</ele>
        <time>2020-06-04T07:41:38.000Z</time>
      </trkpt>
      <trkpt lat="47.26237" lon="-2.31603">
        <ele>19.39999961853</ele>
        <time>2020-06-04T07:41:43.000Z</time>
      </trkpt>
      <trkpt lat="47.26244" lon="-2.31612">
        <ele>19.39999961853</ele>
        <time>2020-06-04T07:41:45.000Z</time>
      </trkpt>
      <trkpt lat="47.26257" lon="-2.3163">
        <ele>19.39999961853</ele>
        <time>2020-06-04T07:41:49.000Z</time>
      </trkpt>
      <trkpt lat="47.2627" lon="-2.31657">
        <ele>19.39999961853</ele>
        <time>2020-06-04T07:41:55.000Z</time>
      </trkpt>
      <trkpt lat="47.26291" lon="-2.31698">
        <ele>19.39999961853</ele>
        <time>2020-06-04T07:42:04.000Z</time>
      </trkpt>
      <trkpt lat="47.263" lon="-2.31719">
        <ele>19.39999961853</ele>
        <time>2020-06-04T07:42:10.000Z</time>
      </trkpt>
      <trkpt lat="47.26303" lon="-2.31744">
        <ele>19.39999961853</ele>
        <time>2020-06-04T07:42:15.000Z</time>
      </trkpt>
      <trkpt lat="47.26308" lon="-2.31781">
        <ele>19.39999961853</ele>
        <time>2020-06-04T07:42:22.000Z</time>
      </trkpt>
      <trkpt lat="47.26309" lon="-2.31801">
        <ele>19.39999961853</ele>
        <time>2020-06-04T07:42:25.000Z</time>
      </trkpt>
      <trkpt lat="47.26308" lon="-2.31816">
        <ele>19.39999961853</ele>
        <time>2020-06-04T07:42:27.000Z</time>
      </trkpt>
      <trkpt lat="47.26306" lon="-2.31837">
        <ele>19</ele>
        <time>2020-06-04T07:42:30.000Z</time>
      </trkpt>
      <trkpt lat="47.26305" lon="-2.31845">
        <ele>18.60000038147</ele>
        <time>2020-06-04T07:42:31.000Z</time>
      </trkpt>
      <trkpt lat="47.26305" lon="-2.31851">
        <ele>18.200000762939</ele>
        <time>2020-06-04T07:42:32.000Z</time>
      </trkpt>
      <trkpt lat="47.26304" lon="-2.31858">
        <ele>17.799999237061</ele>
        <time>2020-06-04T07:42:33.000Z</time>
      </trkpt>
      <trkpt lat="47.26303" lon="-2.31865">
        <ele>17.39999961853</ele>
        <time>2020-06-04T07:42:34.000Z</time>
      </trkpt>
      <trkpt lat="47.26302" lon="-2.31871">
        <ele>17.39999961853</ele>
        <time>2020-06-04T07:42:35.000Z</time>
      </trkpt>
      <trkpt lat="47.263" lon="-2.31897">
        <ele>17.39999961853</ele>
        <time>2020-06-04T07:42:39.000Z</time>
      </trkpt>
      <trkpt lat="47.263" lon="-2.3191">
        <ele>17.39999961853</ele>
        <time>2020-06-04T07:42:41.000Z</time>
      </trkpt>
      <trkpt lat="47.26303" lon="-2.31927">
        <ele>17.39999961853</ele>
        <time>2020-06-04T07:42:44.000Z</time>
      </trkpt>
      <trkpt lat="47.26305" lon="-2.3193">
        <ele>17.39999961853</ele>
        <time>2020-06-04T07:42:45.000Z</time>
      </trkpt>
      <trkpt lat="47.26314" lon="-2.3193">
        <ele>17.39999961853</ele>
        <time>2020-06-04T07:42:48.000Z</time>
      </trkpt>
      <trkpt lat="47.26317" lon="-2.3193">
        <ele>17.39999961853</ele>
        <time>2020-06-04T07:42:49.000Z</time>
      </trkpt>
      <trkpt lat="47.26328" lon="-2.31929">
        <ele>17.39999961853</ele>
        <time>2020-06-04T07:42:52.000Z</time>
      </trkpt>
      <trkpt lat="47.26335" lon="-2.31933">
        <ele>17.39999961853</ele>
        <time>2020-06-04T07:42:54.000Z</time>
      </trkpt>
      <trkpt lat="47.26345" lon="-2.31954">
        <ele>17.39999961853</ele>
        <time>2020-06-04T07:42:58.000Z</time>
      </trkpt>
      <trkpt lat="47.26347" lon="-2.3196">
        <ele>17.39999961853</ele>
        <time>2020-06-04T07:42:59.000Z</time>
      </trkpt>
      <trkpt lat="47.26355" lon="-2.31976">
        <ele>17.799999237061</ele>
        <time>2020-06-04T07:43:02.000Z</time>
      </trkpt>
      <trkpt lat="47.26358" lon="-2.3198">
        <ele>18.200000762939</ele>
        <time>2020-06-04T07:43:03.000Z</time>
      </trkpt>
      <trkpt lat="47.26362" lon="-2.31983">
        <ele>18.60000038147</ele>
        <time>2020-06-04T07:43:04.000Z</time>
      </trkpt>
      <trkpt lat="47.26367" lon="-2.31985">
        <ele>19.200000762939</ele>
        <time>2020-06-04T07:43:05.000Z</time>
      </trkpt>
      <trkpt lat="47.26373" lon="-2.31985">
        <ele>19.60000038147</ele>
        <time>2020-06-04T07:43:06.000Z</time>
      </trkpt>
      <trkpt lat="47.26382" lon="-2.31987">
        <ele>19.60000038147</ele>
        <time>2020-06-04T07:43:08.000Z</time>
      </trkpt>
      <trkpt lat="47.26393" lon="-2.31989">
        <ele>20</ele>
        <time>2020-06-04T07:43:11.000Z</time>
      </trkpt>
      <trkpt lat="47.26397" lon="-2.3199">
        <ele>20.39999961853</ele>
        <time>2020-06-04T07:43:12.000Z</time>
      </trkpt>
      <trkpt lat="47.26401" lon="-2.31992">
        <ele>21</ele>
        <time>2020-06-04T07:43:13.000Z</time>
      </trkpt>
      <trkpt lat="47.26404" lon="-2.31993">
        <ele>21.39999961853</ele>
        <time>2020-06-04T07:43:14.000Z</time>
      </trkpt>
      <trkpt lat="47.26408" lon="-2.31994">
        <ele>21.799999237061</ele>
        <time>2020-06-04T07:43:15.000Z</time>
      </trkpt>
      <trkpt lat="47.26424" lon="-2.31996">
        <ele>22.39999961853</ele>
        <time>2020-06-04T07:43:19.000Z</time>
      </trkpt>
      <trkpt lat="47.26428" lon="-2.31997">
        <ele>22.799999237061</ele>
        <time>2020-06-04T07:43:20.000Z</time>
      </trkpt>
      <trkpt lat="47.26432" lon="-2.31997">
        <ele>23.200000762939</ele>
        <time>2020-06-04T07:43:21.000Z</time>
      </trkpt>
      <trkpt lat="47.26436" lon="-2.31997">
        <ele>23.60000038147</ele>
        <time>2020-06-04T07:43:22.000Z</time>
      </trkpt>
      <trkpt lat="47.26439" lon="-2.31998">
        <ele>24</ele>
        <time>2020-06-04T07:43:23.000Z</time>
      </trkpt>
      <trkpt lat="47.26449" lon="-2.31998">
        <ele>24</ele>
        <time>2020-06-04T07:43:26.000Z</time>
      </trkpt>
      <trkpt lat="47.26459" lon="-2.31997">
        <ele>24.39999961853</ele>
        <time>2020-06-04T07:43:29.000Z</time>
      </trkpt>
      <trkpt lat="47.26462" lon="-2.31996">
        <ele>24.799999237061</ele>
        <time>2020-06-04T07:43:30.000Z</time>
      </trkpt>
      <trkpt lat="47.26465" lon="-2.31996">
        <ele>25.200000762939</ele>
        <time>2020-06-04T07:43:31.000Z</time>
      </trkpt>
      <trkpt lat="47.26468" lon="-2.31996">
        <ele>25.60000038147</ele>
        <time>2020-06-04T07:43:32.000Z</time>
      </trkpt>
      <trkpt lat="47.26471" lon="-2.31996">
        <ele>26</ele>
        <time>2020-06-04T07:43:33.000Z</time>
      </trkpt>
      <trkpt lat="47.26489" lon="-2.31998">
        <ele>26</ele>
        <time>2020-06-04T07:43:40.000Z</time>
      </trkpt>
      <trkpt lat="47.26497" lon="-2.31998">
        <ele>26.39999961853</ele>
        <time>2020-06-04T07:43:43.000Z</time>
      </trkpt>
      <trkpt lat="47.265" lon="-2.31998">
        <ele>26.799999237061</ele>
        <time>2020-06-04T07:43:44.000Z</time>
      </trkpt>
      <trkpt lat="47.26501" lon="-2.31997">
        <ele>27.200000762939</ele>
        <time>2020-06-04T07:43:45.000Z</time>
      </trkpt>
      <trkpt lat="47.26503" lon="-2.31997">
        <ele>27.60000038147</ele>
        <time>2020-06-04T07:43:46.000Z</time>
      </trkpt>
      <trkpt lat="47.26505" lon="-2.31996">
        <ele>28</ele>
        <time>2020-06-04T07:43:47.000Z</time>
      </trkpt>
      <trkpt lat="47.26513" lon="-2.31996">
        <ele>28.60000038147</ele>
        <time>2020-06-04T07:43:51.000Z</time>
      </trkpt>
      <trkpt lat="47.26515" lon="-2.31997">
        <ele>29</ele>
        <time>2020-06-04T07:43:52.000Z</time>
      </trkpt>
      <trkpt lat="47.26517" lon="-2.31998">
        <ele>29.39999961853</ele>
        <time>2020-06-04T07:43:53.000Z</time>
      </trkpt>
      <trkpt lat="47.26519" lon="-2.31998">
        <ele>29.799999237061</ele>
        <time>2020-06-04T07:43:54.000Z</time>
      </trkpt>
      <trkpt lat="47.26521" lon="-2.31999">
        <ele>30.200000762939</ele>
        <time>2020-06-04T07:43:55.000Z</time>
      </trkpt>
      <trkpt lat="47.26526" lon="-2.32001">
        <ele>30.200000762939</ele>
        <time>2020-06-04T07:43:58.000Z</time>
      </trkpt>
      <trkpt lat="47.2653" lon="-2.32007">
        <ele>30.200000762939</ele>
        <time>2020-06-04T07:44:00.000Z</time>
      </trkpt>
      <trkpt lat="47.26539" lon="-2.32018">
        <ele>30.200000762939</ele>
        <time>2020-06-04T07:44:05.000Z</time>
      </trkpt>
      <trkpt lat="47.2654" lon="-2.32021">
        <ele>30.200000762939</ele>
        <time>2020-06-04T07:44:06.000Z</time>
      </trkpt>
      <trkpt lat="47.26541" lon="-2.32024">
        <ele>30.60000038147</ele>
        <time>2020-06-04T07:44:07.000Z</time>
      </trkpt>
      <trkpt lat="47.26542" lon="-2.32027">
        <ele>31</ele>
        <time>2020-06-04T07:44:08.000Z</time>
      </trkpt>
      <trkpt lat="47.26542" lon="-2.3203">
        <ele>31.39999961853</ele>
        <time>2020-06-04T07:44:09.000Z</time>
      </trkpt>
      <trkpt lat="47.26544" lon="-2.32033">
        <ele>31.799999237061</ele>
        <time>2020-06-04T07:44:10.000Z</time>
      </trkpt>
      <trkpt lat="47.26545" lon="-2.32035">
        <ele>32.200000762939</ele>
        <time>2020-06-04T07:44:11.000Z</time>
      </trkpt>
      <trkpt lat="47.26547" lon="-2.32037">
        <ele>32.200000762939</ele>
        <time>2020-06-04T07:44:12.000Z</time>
      </trkpt>
      <trkpt lat="47.26557" lon="-2.32032">
        <ele>32.200000762939</ele>
        <time>2020-06-04T07:44:16.000Z</time>
      </trkpt>
      <trkpt lat="47.26574" lon="-2.32025">
        <ele>32.599998474121</ele>
        <time>2020-06-04T07:44:21.000Z</time>
      </trkpt>
      <trkpt lat="47.26578" lon="-2.32024">
        <ele>33</ele>
        <time>2020-06-04T07:44:22.000Z</time>
      </trkpt>
      <trkpt lat="47.26581" lon="-2.32023">
        <ele>33.799999237061</ele>
        <time>2020-06-04T07:44:23.000Z</time>
      </trkpt>
      <trkpt lat="47.26584" lon="-2.32022">
        <ele>34.400001525879</ele>
        <time>2020-06-04T07:44:24.000Z</time>
      </trkpt>
      <trkpt lat="47.26601" lon="-2.32015">
        <ele>34.799999237061</ele>
        <time>2020-06-04T07:44:29.000Z</time>
      </trkpt>
      <trkpt lat="47.26604" lon="-2.32013">
        <ele>35.200000762939</ele>
        <time>2020-06-04T07:44:30.000Z</time>
      </trkpt>
      <trkpt lat="47.26608" lon="-2.32012">
        <ele>35.599998474121</ele>
        <time>2020-06-04T07:44:31.000Z</time>
      </trkpt>
      <trkpt lat="47.26612" lon="-2.32012">
        <ele>36</ele>
        <time>2020-06-04T07:44:32.000Z</time>
      </trkpt>
      <trkpt lat="47.26615" lon="-2.32011">
        <ele>36.400001525879</ele>
        <time>2020-06-04T07:44:33.000Z</time>
      </trkpt>
      <trkpt lat="47.26626" lon="-2.32007">
        <ele>36.799999237061</ele>
        <time>2020-06-04T07:44:36.000Z</time>
      </trkpt>
      <trkpt lat="47.2663" lon="-2.32006">
        <ele>37.200000762939</ele>
        <time>2020-06-04T07:44:37.000Z</time>
      </trkpt>
      <trkpt lat="47.26633" lon="-2.32005">
        <ele>37.599998474121</ele>
        <time>2020-06-04T07:44:38.000Z</time>
      </trkpt>
      <trkpt lat="47.26637" lon="-2.32004">
        <ele>38</ele>
        <time>2020-06-04T07:44:39.000Z</time>
      </trkpt>
      <trkpt lat="47.2664" lon="-2.32003">
        <ele>38.400001525879</ele>
        <time>2020-06-04T07:44:40.000Z</time>
      </trkpt>
      <trkpt lat="47.26643" lon="-2.32004">
        <ele>38.400001525879</ele>
        <time>2020-06-04T07:44:41.000Z</time>
      </trkpt>
      <trkpt lat="47.26645" lon="-2.32006">
        <ele>38.400001525879</ele>
        <time>2020-06-04T07:44:42.000Z</time>
      </trkpt>
      <trkpt lat="47.26651" lon="-2.32019">
        <ele>38.400001525879</ele>
        <time>2020-06-04T07:44:45.000Z</time>
      </trkpt>
      <trkpt lat="47.26654" lon="-2.32029">
        <ele>38.400001525879</ele>
        <time>2020-06-04T07:44:47.000Z</time>
      </trkpt>
      <trkpt lat="47.26663" lon="-2.32066">
        <ele>38.400001525879</ele>
        <time>2020-06-04T07:44:53.000Z</time>
      </trkpt>
      <trkpt lat="47.26675" lon="-2.32116">
        <ele>38.400001525879</ele>
        <time>2020-06-04T07:45:00.000Z</time>
      </trkpt>
      <trkpt lat="47.26677" lon="-2.3212">
        <ele>38.400001525879</ele>
        <time>2020-06-04T07:45:01.000Z</time>
      </trkpt>
      <trkpt lat="47.26682" lon="-2.3212">
        <ele>38</ele>
        <time>2020-06-04T07:45:03.000Z</time>
      </trkpt>
      <trkpt lat="47.26684" lon="-2.32117">
        <ele>37.599998474121</ele>
        <time>2020-06-04T07:45:04.000Z</time>
      </trkpt>
      <trkpt lat="47.26685" lon="-2.32112">
        <ele>37.200000762939</ele>
        <time>2020-06-04T07:45:05.000Z</time>
      </trkpt>
      <trkpt lat="47.26685" lon="-2.32108">
        <ele>36.799999237061</ele>
        <time>2020-06-04T07:45:06.000Z</time>
      </trkpt>
      <trkpt lat="47.26685" lon="-2.32102">
        <ele>36.400001525879</ele>
        <time>2020-06-04T07:45:07.000Z</time>
      </trkpt>
      <trkpt lat="47.26685" lon="-2.32085">
        <ele>36.400001525879</ele>
        <time>2020-06-04T07:45:10.000Z</time>
      </trkpt>
      <trkpt lat="47.26685" lon="-2.32076">
        <ele>36.400001525879</ele>
        <time>2020-06-04T07:45:12.000Z</time>
      </trkpt>
      <trkpt lat="47.26685" lon="-2.32054">
        <ele>36.400001525879</ele>
        <time>2020-06-04T07:45:18.000Z</time>
      </trkpt>
      <trkpt lat="47.26687" lon="-2.32032">
        <ele>36.400001525879</ele>
        <time>2020-06-04T07:45:24.000Z</time>
      </trkpt>
      <trkpt lat="47.26696" lon="-2.32012">
        <ele>36.400001525879</ele>
        <time>2020-06-04T07:45:29.000Z</time>
      </trkpt>
      <trkpt lat="47.26711" lon="-2.31996">
        <ele>36.400001525879</ele>
        <time>2020-06-04T07:45:34.000Z</time>
      </trkpt>
      <trkpt lat="47.26724" lon="-2.31979">
        <ele>36</ele>
        <time>2020-06-04T07:45:38.000Z</time>
      </trkpt>
      <trkpt lat="47.26728" lon="-2.31975">
        <ele>35.599998474121</ele>
        <time>2020-06-04T07:45:39.000Z</time>
      </trkpt>
      <trkpt lat="47.26734" lon="-2.31969">
        <ele>35.200000762939</ele>
        <time>2020-06-04T07:45:40.000Z</time>
      </trkpt>
      <trkpt lat="47.26738" lon="-2.31964">
        <ele>34.799999237061</ele>
        <time>2020-06-04T07:45:41.000Z</time>
      </trkpt>
      <trkpt lat="47.26743" lon="-2.31958">
        <ele>34.200000762939</ele>
        <time>2020-06-04T07:45:42.000Z</time>
      </trkpt>
      <trkpt lat="47.26756" lon="-2.31945">
        <ele>34.200000762939</ele>
        <time>2020-06-04T07:45:45.000Z</time>
      </trkpt>
      <trkpt lat="47.26759" lon="-2.31946">
        <ele>34.200000762939</ele>
        <time>2020-06-04T07:45:46.000Z</time>
      </trkpt>
      <trkpt lat="47.26767" lon="-2.31955">
        <ele>34.200000762939</ele>
        <time>2020-06-04T07:45:48.000Z</time>
      </trkpt>
      <trkpt lat="47.26778" lon="-2.31975">
        <ele>33.799999237061</ele>
        <time>2020-06-04T07:45:51.000Z</time>
      </trkpt>
      <trkpt lat="47.26782" lon="-2.31982">
        <ele>33.400001525879</ele>
        <time>2020-06-04T07:45:52.000Z</time>
      </trkpt>
      <trkpt lat="47.26787" lon="-2.3199">
        <ele>33</ele>
        <time>2020-06-04T07:45:53.000Z</time>
      </trkpt>
      <trkpt lat="47.26791" lon="-2.31997">
        <ele>32.400001525879</ele>
        <time>2020-06-04T07:45:54.000Z</time>
      </trkpt>
      <trkpt lat="47.26796" lon="-2.32005">
        <ele>32</ele>
        <time>2020-06-04T07:45:55.000Z</time>
      </trkpt>
      <trkpt lat="47.26805" lon="-2.32023">
        <ele>32</ele>
        <time>2020-06-04T07:45:57.000Z</time>
      </trkpt>
      <trkpt lat="47.26809" lon="-2.32033">
        <ele>32</ele>
        <time>2020-06-04T07:45:58.000Z</time>
      </trkpt>
      <trkpt lat="47.26818" lon="-2.32066">
        <ele>31.60000038147</ele>
        <time>2020-06-04T07:46:01.000Z</time>
      </trkpt>
      <trkpt lat="47.26821" lon="-2.32077">
        <ele>31</ele>
        <time>2020-06-04T07:46:02.000Z</time>
      </trkpt>
      <trkpt lat="47.26824" lon="-2.32087">
        <ele>30.60000038147</ele>
        <time>2020-06-04T07:46:03.000Z</time>
      </trkpt>
      <trkpt lat="47.26827" lon="-2.32098">
        <ele>30.200000762939</ele>
        <time>2020-06-04T07:46:04.000Z</time>
      </trkpt>
      <trkpt lat="47.26829" lon="-2.32109">
        <ele>29.60000038147</ele>
        <time>2020-06-04T07:46:05.000Z</time>
      </trkpt>
      <trkpt lat="47.26848" lon="-2.32172">
        <ele>29.60000038147</ele>
        <time>2020-06-04T07:46:11.000Z</time>
      </trkpt>
      <trkpt lat="47.26859" lon="-2.32201">
        <ele>29.200000762939</ele>
        <time>2020-06-04T07:46:14.000Z</time>
      </trkpt>
      <trkpt lat="47.26863" lon="-2.32211">
        <ele>28.799999237061</ele>
        <time>2020-06-04T07:46:15.000Z</time>
      </trkpt>
      <trkpt lat="47.26868" lon="-2.32221">
        <ele>28.39999961853</ele>
        <time>2020-06-04T07:46:16.000Z</time>
      </trkpt>
      <trkpt lat="47.26872" lon="-2.3223">
        <ele>28</ele>
        <time>2020-06-04T07:46:17.000Z</time>
      </trkpt>
      <trkpt lat="47.26878" lon="-2.32239">
        <ele>27.60000038147</ele>
        <time>2020-06-04T07:46:18.000Z</time>
      </trkpt>
      <trkpt lat="47.26893" lon="-2.32265">
        <ele>27.200000762939</ele>
        <time>2020-06-04T07:46:21.000Z</time>
      </trkpt>
      <trkpt lat="47.26899" lon="-2.32274">
        <ele>26.799999237061</ele>
        <time>2020-06-04T07:46:22.000Z</time>
      </trkpt>
      <trkpt lat="47.26904" lon="-2.32284">
        <ele>26.200000762939</ele>
        <time>2020-06-04T07:46:23.000Z</time>
      </trkpt>
      <trkpt lat="47.26908" lon="-2.32294">
        <ele>25.799999237061</ele>
        <time>2020-06-04T07:46:24.000Z</time>
      </trkpt>
      <trkpt lat="47.26913" lon="-2.32305">
        <ele>25.39999961853</ele>
        <time>2020-06-04T07:46:25.000Z</time>
      </trkpt>
      <trkpt lat="47.26916" lon="-2.32314">
        <ele>25</ele>
        <time>2020-06-04T07:46:26.000Z</time>
      </trkpt>
      <trkpt lat="47.26918" lon="-2.32323">
        <ele>24.60000038147</ele>
        <time>2020-06-04T07:46:27.000Z</time>
      </trkpt>
      <trkpt lat="47.26921" lon="-2.32331">
        <ele>24</ele>
        <time>2020-06-04T07:46:28.000Z</time>
      </trkpt>
      <trkpt lat="47.26923" lon="-2.32338">
        <ele>23.60000038147</ele>
        <time>2020-06-04T07:46:29.000Z</time>
      </trkpt>
      <trkpt lat="47.26927" lon="-2.32344">
        <ele>23.200000762939</ele>
        <time>2020-06-04T07:46:30.000Z</time>
      </trkpt>
      <trkpt lat="47.26931" lon="-2.32351">
        <ele>23.200000762939</ele>
        <time>2020-06-04T07:46:31.000Z</time>
      </trkpt>
      <trkpt lat="47.26937" lon="-2.32366">
        <ele>23.200000762939</ele>
        <time>2020-06-04T07:46:33.000Z</time>
      </trkpt>
      <trkpt lat="47.26942" lon="-2.32383">
        <ele>23.200000762939</ele>
        <time>2020-06-04T07:46:35.000Z</time>
      </trkpt>
      <trkpt lat="47.26965" lon="-2.32442">
        <ele>23.200000762939</ele>
        <time>2020-06-04T07:46:42.000Z</time>
      </trkpt>
      <trkpt lat="47.26975" lon="-2.32456">
        <ele>22.799999237061</ele>
        <time>2020-06-04T07:46:44.000Z</time>
      </trkpt>
      <trkpt lat="47.2698" lon="-2.32463">
        <ele>22.39999961853</ele>
        <time>2020-06-04T07:46:45.000Z</time>
      </trkpt>
      <trkpt lat="47.26984" lon="-2.32471">
        <ele>22</ele>
        <time>2020-06-04T07:46:46.000Z</time>
      </trkpt>
      <trkpt lat="47.26988" lon="-2.32479">
        <ele>21.60000038147</ele>
        <time>2020-06-04T07:46:47.000Z</time>
      </trkpt>
      <trkpt lat="47.26992" lon="-2.32486">
        <ele>21.200000762939</ele>
        <time>2020-06-04T07:46:48.000Z</time>
      </trkpt>
      <trkpt lat="47.27003" lon="-2.32506">
        <ele>21.200000762939</ele>
        <time>2020-06-04T07:46:51.000Z</time>
      </trkpt>
      <trkpt lat="47.27008" lon="-2.32509">
        <ele>21.200000762939</ele>
        <time>2020-06-04T07:46:52.000Z</time>
      </trkpt>
      <trkpt lat="47.27013" lon="-2.32509">
        <ele>20.799999237061</ele>
        <time>2020-06-04T07:46:53.000Z</time>
      </trkpt>
      <trkpt lat="47.27019" lon="-2.32508">
        <ele>20.39999961853</ele>
        <time>2020-06-04T07:46:54.000Z</time>
      </trkpt>
      <trkpt lat="47.27025" lon="-2.32506">
        <ele>19.799999237061</ele>
        <time>2020-06-04T07:46:55.000Z</time>
      </trkpt>
      <trkpt lat="47.27029" lon="-2.32499">
        <ele>19.39999961853</ele>
        <time>2020-06-04T07:46:56.000Z</time>
      </trkpt>
      <trkpt lat="47.27033" lon="-2.32491">
        <ele>19</ele>
        <time>2020-06-04T07:46:57.000Z</time>
      </trkpt>
      <trkpt lat="47.27037" lon="-2.32466">
        <ele>19</ele>
        <time>2020-06-04T07:47:00.000Z</time>
      </trkpt>
      <trkpt lat="47.27034" lon="-2.32443">
        <ele>19</ele>
        <time>2020-06-04T07:47:02.000Z</time>
      </trkpt>
      <trkpt lat="47.27031" lon="-2.32421">
        <ele>19</ele>
        <time>2020-06-04T07:47:04.000Z</time>
      </trkpt>
      <trkpt lat="47.27028" lon="-2.3237">
        <ele>19</ele>
        <time>2020-06-04T07:47:09.000Z</time>
      </trkpt>
      <trkpt lat="47.27027" lon="-2.32361">
        <ele>19</ele>
        <time>2020-06-04T07:47:10.000Z</time>
      </trkpt>
      <trkpt lat="47.27024" lon="-2.32324">
        <ele>19</ele>
        <time>2020-06-04T07:47:14.000Z</time>
      </trkpt>
      <trkpt lat="47.27023" lon="-2.32258">
        <ele>19</ele>
        <time>2020-06-04T07:47:21.000Z</time>
      </trkpt>
      <trkpt lat="47.27018" lon="-2.32208">
        <ele>19</ele>
        <time>2020-06-04T07:47:27.000Z</time>
      </trkpt>
      <trkpt lat="47.27012" lon="-2.32192">
        <ele>19</ele>
        <time>2020-06-04T07:47:29.000Z</time>
      </trkpt>
      <trkpt lat="47.27004" lon="-2.32178">
        <ele>19</ele>
        <time>2020-06-04T07:47:31.000Z</time>
      </trkpt>
      <trkpt lat="47.26996" lon="-2.32164">
        <ele>19</ele>
        <time>2020-06-04T07:47:33.000Z</time>
      </trkpt>
      <trkpt lat="47.26993" lon="-2.32158">
        <ele>19</ele>
        <time>2020-06-04T07:47:34.000Z</time>
      </trkpt>
      <trkpt lat="47.2699" lon="-2.32146">
        <ele>19</ele>
        <time>2020-06-04T07:47:36.000Z</time>
      </trkpt>
      <trkpt lat="47.26996" lon="-2.32129">
        <ele>19</ele>
        <time>2020-06-04T07:47:40.000Z</time>
      </trkpt>
      <trkpt lat="47.27008" lon="-2.32105">
        <ele>19</ele>
        <time>2020-06-04T07:47:45.000Z</time>
      </trkpt>
      <trkpt lat="47.2701" lon="-2.3209">
        <ele>19</ele>
        <time>2020-06-04T07:47:47.000Z</time>
      </trkpt>
      <trkpt lat="47.27012" lon="-2.32067">
        <ele>19</ele>
        <time>2020-06-04T07:47:50.000Z</time>
      </trkpt>
      <trkpt lat="47.27011" lon="-2.32045">
        <ele>19</ele>
        <time>2020-06-04T07:47:53.000Z</time>
      </trkpt>
      <trkpt lat="47.2701" lon="-2.32033">
        <ele>19.39999961853</ele>
        <time>2020-06-04T07:47:55.000Z</time>
      </trkpt>
      <trkpt lat="47.27009" lon="-2.32027">
        <ele>19.799999237061</ele>
        <time>2020-06-04T07:47:56.000Z</time>
      </trkpt>
      <trkpt lat="47.27008" lon="-2.3202">
        <ele>20.200000762939</ele>
        <time>2020-06-04T07:47:57.000Z</time>
      </trkpt>
      <trkpt lat="47.27007" lon="-2.32014">
        <ele>20.60000038147</ele>
        <time>2020-06-04T07:47:58.000Z</time>
      </trkpt>
      <trkpt lat="47.27006" lon="-2.32009">
        <ele>21.200000762939</ele>
        <time>2020-06-04T07:47:59.000Z</time>
      </trkpt>
      <trkpt lat="47.27004" lon="-2.31997">
        <ele>21.200000762939</ele>
        <time>2020-06-04T07:48:01.000Z</time>
      </trkpt>
      <trkpt lat="47.27006" lon="-2.31984">
        <ele>21.200000762939</ele>
        <time>2020-06-04T07:48:03.000Z</time>
      </trkpt>
      <trkpt lat="47.27009" lon="-2.31981">
        <ele>21.200000762939</ele>
        <time>2020-06-04T07:48:04.000Z</time>
      </trkpt>
      <trkpt lat="47.27023" lon="-2.31971">
        <ele>21.60000038147</ele>
        <time>2020-06-04T07:48:08.000Z</time>
      </trkpt>
      <trkpt lat="47.27028" lon="-2.31968">
        <ele>22</ele>
        <time>2020-06-04T07:48:09.000Z</time>
      </trkpt>
      <trkpt lat="47.27032" lon="-2.31965">
        <ele>22.39999961853</ele>
        <time>2020-06-04T07:48:10.000Z</time>
      </trkpt>
      <trkpt lat="47.27037" lon="-2.31963">
        <ele>22.799999237061</ele>
        <time>2020-06-04T07:48:11.000Z</time>
      </trkpt>
      <trkpt lat="47.27041" lon="-2.3196">
        <ele>23.200000762939</ele>
        <time>2020-06-04T07:48:12.000Z</time>
      </trkpt>
      <trkpt lat="47.27045" lon="-2.31959">
        <ele>23.200000762939</ele>
        <time>2020-06-04T07:48:13.000Z</time>
      </trkpt>
      <trkpt lat="47.27054" lon="-2.31958">
        <ele>23.200000762939</ele>
        <time>2020-06-04T07:48:15.000Z</time>
      </trkpt>
      <trkpt lat="47.27071" lon="-2.31956">
        <ele>23.200000762939</ele>
        <time>2020-06-04T07:48:18.000Z</time>
      </trkpt>
      <trkpt lat="47.27082" lon="-2.31956">
        <ele>23.200000762939</ele>
        <time>2020-06-04T07:48:20.000Z</time>
      </trkpt>
      <trkpt lat="47.27093" lon="-2.31959">
        <ele>22.799999237061</ele>
        <time>2020-06-04T07:48:22.000Z</time>
      </trkpt>
      <trkpt lat="47.27098" lon="-2.31961">
        <ele>22.200000762939</ele>
        <time>2020-06-04T07:48:23.000Z</time>
      </trkpt>
      <trkpt lat="47.27104" lon="-2.31963">
        <ele>21.799999237061</ele>
        <time>2020-06-04T07:48:24.000Z</time>
      </trkpt>
      <trkpt lat="47.27109" lon="-2.31966">
        <ele>21.39999961853</ele>
        <time>2020-06-04T07:48:25.000Z</time>
      </trkpt>
      <trkpt lat="47.27115" lon="-2.31969">
        <ele>21</ele>
        <time>2020-06-04T07:48:26.000Z</time>
      </trkpt>
      <trkpt lat="47.27144" lon="-2.3199">
        <ele>21</ele>
        <time>2020-06-04T07:48:31.000Z</time>
      </trkpt>
      <trkpt lat="47.27155" lon="-2.31995">
        <ele>21</ele>
        <time>2020-06-04T07:48:33.000Z</time>
      </trkpt>
      <trkpt lat="47.27164" lon="-2.3199">
        <ele>21</ele>
        <time>2020-06-04T07:48:35.000Z</time>
      </trkpt>
      <trkpt lat="47.27174" lon="-2.31974">
        <ele>21</ele>
        <time>2020-06-04T07:48:38.000Z</time>
      </trkpt>
      <trkpt lat="47.27177" lon="-2.3197">
        <ele>21</ele>
        <time>2020-06-04T07:48:39.000Z</time>
      </trkpt>
      <trkpt lat="47.27195" lon="-2.31947">
        <ele>21</ele>
        <time>2020-06-04T07:48:45.000Z</time>
      </trkpt>
      <trkpt lat="47.27209" lon="-2.31924">
        <ele>21</ele>
        <time>2020-06-04T07:48:51.000Z</time>
      </trkpt>
      <trkpt lat="47.27216" lon="-2.31915">
        <ele>21</ele>
        <time>2020-06-04T07:48:56.000Z</time>
      </trkpt>
      <trkpt lat="47.27219" lon="-2.31914">
        <ele>21</ele>
        <time>2020-06-04T07:48:59.000Z</time>
      </trkpt>
      <trkpt lat="47.2722" lon="-2.31914">
        <ele>21</ele>
        <time>2020-06-04T07:49:00.000Z</time>
      </trkpt>
      <trkpt lat="47.27221" lon="-2.31915">
        <ele>21</ele>
        <time>2020-06-04T07:49:12.000Z</time>
      </trkpt>
      <trkpt lat="47.27227" lon="-2.31918">
        <ele>21</ele>
        <time>2020-06-04T07:49:15.000Z</time>
      </trkpt>
      <trkpt lat="47.27244" lon="-2.31926">
        <ele>21</ele>
        <time>2020-06-04T07:49:20.000Z</time>
      </trkpt>
      <trkpt lat="47.27269" lon="-2.31934">
        <ele>21</ele>
        <time>2020-06-04T07:49:27.000Z</time>
      </trkpt>
      <trkpt lat="47.27285" lon="-2.31944">
        <ele>21</ele>
        <time>2020-06-04T07:49:31.000Z</time>
      </trkpt>
      <trkpt lat="47.2729" lon="-2.31947">
        <ele>21</ele>
        <time>2020-06-04T07:49:32.000Z</time>
      </trkpt>
      <trkpt lat="47.27294" lon="-2.31951">
        <ele>21</ele>
        <time>2020-06-04T07:49:33.000Z</time>
      </trkpt>
      <trkpt lat="47.27315" lon="-2.31968">
        <ele>21</ele>
        <time>2020-06-04T07:49:37.000Z</time>
      </trkpt>
      <trkpt lat="47.27356" lon="-2.32007">
        <ele>21</ele>
        <time>2020-06-04T07:49:45.000Z</time>
      </trkpt>
      <trkpt lat="47.27397" lon="-2.32048">
        <ele>21</ele>
        <time>2020-06-04T07:49:54.000Z</time>
      </trkpt>
      <trkpt lat="47.27425" lon="-2.32076">
        <ele>21</ele>
        <time>2020-06-04T07:50:01.000Z</time>
      </trkpt>
      <trkpt lat="47.27433" lon="-2.32084">
        <ele>21.39999961853</ele>
        <time>2020-06-04T07:50:03.000Z</time>
      </trkpt>
      <trkpt lat="47.27437" lon="-2.32088">
        <ele>22</ele>
        <time>2020-06-04T07:50:04.000Z</time>
      </trkpt>
      <trkpt lat="47.2744" lon="-2.32093">
        <ele>22.39999961853</ele>
        <time>2020-06-04T07:50:05.000Z</time>
      </trkpt>
      <trkpt lat="47.27444" lon="-2.32098">
        <ele>22.799999237061</ele>
        <time>2020-06-04T07:50:06.000Z</time>
      </trkpt>
      <trkpt lat="47.27448" lon="-2.32103">
        <ele>23.200000762939</ele>
        <time>2020-06-04T07:50:07.000Z</time>
      </trkpt>
      <trkpt lat="47.27456" lon="-2.32113">
        <ele>23.200000762939</ele>
        <time>2020-06-04T07:50:09.000Z</time>
      </trkpt>
      <trkpt lat="47.27492" lon="-2.32162">
        <ele>23.200000762939</ele>
        <time>2020-06-04T07:50:18.000Z</time>
      </trkpt>
      <trkpt lat="47.275" lon="-2.32172">
        <ele>23.799999237061</ele>
        <time>2020-06-04T07:50:20.000Z</time>
      </trkpt>
      <trkpt lat="47.27504" lon="-2.32177">
        <ele>24.200000762939</ele>
        <time>2020-06-04T07:50:21.000Z</time>
      </trkpt>
      <trkpt lat="47.27508" lon="-2.32182">
        <ele>24.799999237061</ele>
        <time>2020-06-04T07:50:22.000Z</time>
      </trkpt>
      <trkpt lat="47.27511" lon="-2.32187">
        <ele>25.39999961853</ele>
        <time>2020-06-04T07:50:23.000Z</time>
      </trkpt>
      <trkpt lat="47.27514" lon="-2.32191">
        <ele>26</ele>
        <time>2020-06-04T07:50:24.000Z</time>
      </trkpt>
      <trkpt lat="47.27539" lon="-2.32221">
        <ele>26</ele>
        <time>2020-06-04T07:50:32.000Z</time>
      </trkpt>
      <trkpt lat="47.27543" lon="-2.32224">
        <ele>26.39999961853</ele>
        <time>2020-06-04T07:50:33.000Z</time>
      </trkpt>
      <trkpt lat="47.27546" lon="-2.32227">
        <ele>26.799999237061</ele>
        <time>2020-06-04T07:50:34.000Z</time>
      </trkpt>
      <trkpt lat="47.2755" lon="-2.32231">
        <ele>27.200000762939</ele>
        <time>2020-06-04T07:50:35.000Z</time>
      </trkpt>
      <trkpt lat="47.27554" lon="-2.32234">
        <ele>27.60000038147</ele>
        <time>2020-06-04T07:50:36.000Z</time>
      </trkpt>
      <trkpt lat="47.27557" lon="-2.32237">
        <ele>28</ele>
        <time>2020-06-04T07:50:37.000Z</time>
      </trkpt>
      <trkpt lat="47.27565" lon="-2.32242">
        <ele>28</ele>
        <time>2020-06-04T07:50:39.000Z</time>
      </trkpt>
      <trkpt lat="47.27569" lon="-2.32245">
        <ele>28.39999961853</ele>
        <time>2020-06-04T07:50:40.000Z</time>
      </trkpt>
      <trkpt lat="47.27573" lon="-2.32248">
        <ele>28.799999237061</ele>
        <time>2020-06-04T07:50:41.000Z</time>
      </trkpt>
      <trkpt lat="47.27576" lon="-2.32252">
        <ele>29.200000762939</ele>
        <time>2020-06-04T07:50:42.000Z</time>
      </trkpt>
      <trkpt lat="47.2758" lon="-2.32255">
        <ele>29.60000038147</ele>
        <time>2020-06-04T07:50:43.000Z</time>
      </trkpt>
      <trkpt lat="47.27583" lon="-2.32258">
        <ele>30</ele>
        <time>2020-06-04T07:50:44.000Z</time>
      </trkpt>
      <trkpt lat="47.27589" lon="-2.32265">
        <ele>30</ele>
        <time>2020-06-04T07:50:46.000Z</time>
      </trkpt>
      <trkpt lat="47.2761" lon="-2.32284">
        <ele>30</ele>
        <time>2020-06-04T07:50:53.000Z</time>
      </trkpt>
      <trkpt lat="47.27613" lon="-2.32289">
        <ele>30.39999961853</ele>
        <time>2020-06-04T07:50:55.000Z</time>
      </trkpt>
      <trkpt lat="47.27615" lon="-2.32291">
        <ele>30.799999237061</ele>
        <time>2020-06-04T07:50:56.000Z</time>
      </trkpt>
      <trkpt lat="47.27617" lon="-2.32293">
        <ele>31.799999237061</ele>
        <time>2020-06-04T07:50:57.000Z</time>
      </trkpt>
      <trkpt lat="47.27619" lon="-2.32295">
        <ele>32.200000762939</ele>
        <time>2020-06-04T07:50:58.000Z</time>
      </trkpt>
      <trkpt lat="47.27623" lon="-2.32298">
        <ele>32.200000762939</ele>
        <time>2020-06-04T07:51:00.000Z</time>
      </trkpt>
      <trkpt lat="47.27635" lon="-2.32303">
        <ele>32.200000762939</ele>
        <time>2020-06-04T07:51:06.000Z</time>
      </trkpt>
      <trkpt lat="47.27648" lon="-2.32308">
        <ele>32.200000762939</ele>
        <time>2020-06-04T07:51:13.000Z</time>
      </trkpt>
      <trkpt lat="47.27663" lon="-2.32314">
        <ele>32.200000762939</ele>
        <time>2020-06-04T07:51:20.000Z</time>
      </trkpt>
      <trkpt lat="47.27666" lon="-2.32315">
        <ele>32.599998474121</ele>
        <time>2020-06-04T07:51:21.000Z</time>
      </trkpt>
      <trkpt lat="47.2767" lon="-2.32316">
        <ele>33</ele>
        <time>2020-06-04T07:51:22.000Z</time>
      </trkpt>
      <trkpt lat="47.27674" lon="-2.32318">
        <ele>33.799999237061</ele>
        <time>2020-06-04T07:51:23.000Z</time>
      </trkpt>
      <trkpt lat="47.27679" lon="-2.32321">
        <ele>34.200000762939</ele>
        <time>2020-06-04T07:51:24.000Z</time>
      </trkpt>
      <trkpt lat="47.27687" lon="-2.32325">
        <ele>34.200000762939</ele>
        <time>2020-06-04T07:51:26.000Z</time>
      </trkpt>
      <trkpt lat="47.27704" lon="-2.32337">
        <ele>34.200000762939</ele>
        <time>2020-06-04T07:51:31.000Z</time>
      </trkpt>
      <trkpt lat="47.27706" lon="-2.3234">
        <ele>34.200000762939</ele>
        <time>2020-06-04T07:51:32.000Z</time>
      </trkpt>
      <trkpt lat="47.27728" lon="-2.32355">
        <ele>34.200000762939</ele>
        <time>2020-06-04T07:51:38.000Z</time>
      </trkpt>
      <trkpt lat="47.27732" lon="-2.32359">
        <ele>34.200000762939</ele>
        <time>2020-06-04T07:51:39.000Z</time>
      </trkpt>
      <trkpt lat="47.27749" lon="-2.32369">
        <ele>34.200000762939</ele>
        <time>2020-06-04T07:51:43.000Z</time>
      </trkpt>
      <trkpt lat="47.27771" lon="-2.32382">
        <ele>34.200000762939</ele>
        <time>2020-06-04T07:51:48.000Z</time>
      </trkpt>
      <trkpt lat="47.27791" lon="-2.32379">
        <ele>34.200000762939</ele>
        <time>2020-06-04T07:51:53.000Z</time>
      </trkpt>
      <trkpt lat="47.27812" lon="-2.32377">
        <ele>34.200000762939</ele>
        <time>2020-06-04T07:51:57.000Z</time>
      </trkpt>
      <trkpt lat="47.27817" lon="-2.32376">
        <ele>34.200000762939</ele>
        <time>2020-06-04T07:51:58.000Z</time>
      </trkpt>
      <trkpt lat="47.27838" lon="-2.32374">
        <ele>34.200000762939</ele>
        <time>2020-06-04T07:52:04.000Z</time>
      </trkpt>
      <trkpt lat="47.27852" lon="-2.3238">
        <ele>34.200000762939</ele>
        <time>2020-06-04T07:52:09.000Z</time>
      </trkpt>
      <trkpt lat="47.2787" lon="-2.32386">
        <ele>34.200000762939</ele>
        <time>2020-06-04T07:52:14.000Z</time>
      </trkpt>
      <trkpt lat="47.27874" lon="-2.32387">
        <ele>33.799999237061</ele>
        <time>2020-06-04T07:52:15.000Z</time>
      </trkpt>
      <trkpt lat="47.27878" lon="-2.32386">
        <ele>33.200000762939</ele>
        <time>2020-06-04T07:52:16.000Z</time>
      </trkpt>
      <trkpt lat="47.27882" lon="-2.32384">
        <ele>32.799999237061</ele>
        <time>2020-06-04T07:52:17.000Z</time>
      </trkpt>
      <trkpt lat="47.27886" lon="-2.32384">
        <ele>32.400001525879</ele>
        <time>2020-06-04T07:52:18.000Z</time>
      </trkpt>
      <trkpt lat="47.2789" lon="-2.32384">
        <ele>32</ele>
        <time>2020-06-04T07:52:19.000Z</time>
      </trkpt>
      <trkpt lat="47.27905" lon="-2.32385">
        <ele>32</ele>
        <time>2020-06-04T07:52:23.000Z</time>
      </trkpt>
      <trkpt lat="47.27915" lon="-2.3239">
        <ele>32</ele>
        <time>2020-06-04T07:52:28.000Z</time>
      </trkpt>
      <trkpt lat="47.27919" lon="-2.32393">
        <ele>32</ele>
        <time>2020-06-04T07:52:32.000Z</time>
      </trkpt>
      <trkpt lat="47.27927" lon="-2.32395">
        <ele>32</ele>
        <time>2020-06-04T07:52:45.000Z</time>
      </trkpt>
      <trkpt lat="47.27945" lon="-2.324">
        <ele>32</ele>
        <time>2020-06-04T07:52:50.000Z</time>
      </trkpt>
      <trkpt lat="47.27975" lon="-2.32411">
        <ele>32</ele>
        <time>2020-06-04T07:52:56.000Z</time>
      </trkpt>
      <trkpt lat="47.27982" lon="-2.32412">
        <ele>32</ele>
        <time>2020-06-04T07:52:57.000Z</time>
      </trkpt>
      <trkpt lat="47.28003" lon="-2.32419">
        <ele>32</ele>
        <time>2020-06-04T07:53:00.000Z</time>
      </trkpt>
      <trkpt lat="47.28055" lon="-2.32428">
        <ele>32</ele>
        <time>2020-06-04T07:53:08.000Z</time>
      </trkpt>
      <trkpt lat="47.28082" lon="-2.3243">
        <ele>32</ele>
        <time>2020-06-04T07:53:13.000Z</time>
      </trkpt>
      <trkpt lat="47.28086" lon="-2.32431">
        <ele>32</ele>
        <time>2020-06-04T07:53:14.000Z</time>
      </trkpt>
      <trkpt lat="47.28096" lon="-2.32439">
        <ele>32</ele>
        <time>2020-06-04T07:53:17.000Z</time>
      </trkpt>
      <trkpt lat="47.28099" lon="-2.32441">
        <ele>31.60000038147</ele>
        <time>2020-06-04T07:53:18.000Z</time>
      </trkpt>
      <trkpt lat="47.28101" lon="-2.32443">
        <ele>31.200000762939</ele>
        <time>2020-06-04T07:53:19.000Z</time>
      </trkpt>
      <trkpt lat="47.28103" lon="-2.32444">
        <ele>30.799999237061</ele>
        <time>2020-06-04T07:53:20.000Z</time>
      </trkpt>
      <trkpt lat="47.28107" lon="-2.32447">
        <ele>30.39999961853</ele>
        <time>2020-06-04T07:53:21.000Z</time>
      </trkpt>
      <trkpt lat="47.2811" lon="-2.32449">
        <ele>30</ele>
        <time>2020-06-04T07:53:22.000Z</time>
      </trkpt>
      <trkpt lat="47.28128" lon="-2.3245">
        <ele>30</ele>
        <time>2020-06-04T07:53:27.000Z</time>
      </trkpt>
      <trkpt lat="47.28149" lon="-2.32446">
        <ele>30</ele>
        <time>2020-06-04T07:53:32.000Z</time>
      </trkpt>
      <trkpt lat="47.28172" lon="-2.32446">
        <ele>30</ele>
        <time>2020-06-04T07:53:38.000Z</time>
      </trkpt>
      <trkpt lat="47.28191" lon="-2.32451">
        <ele>30</ele>
        <time>2020-06-04T07:53:42.000Z</time>
      </trkpt>
      <trkpt lat="47.282" lon="-2.32455">
        <ele>30</ele>
        <time>2020-06-04T07:53:44.000Z</time>
      </trkpt>
      <trkpt lat="47.28211" lon="-2.32464">
        <ele>30</ele>
        <time>2020-06-04T07:53:46.000Z</time>
      </trkpt>
      <trkpt lat="47.28226" lon="-2.3248">
        <ele>30</ele>
        <time>2020-06-04T07:53:49.000Z</time>
      </trkpt>
      <trkpt lat="47.28252" lon="-2.32508">
        <ele>30</ele>
        <time>2020-06-04T07:53:54.000Z</time>
      </trkpt>
      <trkpt lat="47.28264" lon="-2.32514">
        <ele>30</ele>
        <time>2020-06-04T07:53:56.000Z</time>
      </trkpt>
      <trkpt lat="47.28275" lon="-2.32516">
        <ele>30</ele>
        <time>2020-06-04T07:53:58.000Z</time>
      </trkpt>
      <trkpt lat="47.28294" lon="-2.32516">
        <ele>30</ele>
        <time>2020-06-04T07:54:01.000Z</time>
      </trkpt>
      <trkpt lat="47.2833" lon="-2.32517">
        <ele>30</ele>
        <time>2020-06-04T07:54:07.000Z</time>
      </trkpt>
      <trkpt lat="47.28345" lon="-2.3252">
        <ele>30</ele>
        <time>2020-06-04T07:54:10.000Z</time>
      </trkpt>
      <trkpt lat="47.2835" lon="-2.32526">
        <ele>30</ele>
        <time>2020-06-04T07:54:12.000Z</time>
      </trkpt>
      <trkpt lat="47.28351" lon="-2.3253">
        <ele>29.60000038147</ele>
        <time>2020-06-04T07:54:13.000Z</time>
      </trkpt>
      <trkpt lat="47.28353" lon="-2.32535">
        <ele>29</ele>
        <time>2020-06-04T07:54:14.000Z</time>
      </trkpt>
      <trkpt lat="47.28354" lon="-2.3254">
        <ele>28.60000038147</ele>
        <time>2020-06-04T07:54:15.000Z</time>
      </trkpt>
      <trkpt lat="47.28355" lon="-2.32545">
        <ele>27.799999237061</ele>
        <time>2020-06-04T07:54:16.000Z</time>
      </trkpt>
      <trkpt lat="47.28363" lon="-2.32569">
        <ele>27.799999237061</ele>
        <time>2020-06-04T07:54:22.000Z</time>
      </trkpt>
      <trkpt lat="47.28374" lon="-2.32567">
        <ele>27.799999237061</ele>
        <time>2020-06-04T07:54:25.000Z</time>
      </trkpt>
      <trkpt lat="47.28387" lon="-2.32576">
        <ele>27.799999237061</ele>
        <time>2020-06-04T07:54:28.000Z</time>
      </trkpt>
      <trkpt lat="47.28398" lon="-2.32595">
        <ele>27.799999237061</ele>
        <time>2020-06-04T07:54:32.000Z</time>
      </trkpt>
      <trkpt lat="47.28401" lon="-2.326">
        <ele>27.799999237061</ele>
        <time>2020-06-04T07:54:33.000Z</time>
      </trkpt>
      <trkpt lat="47.28404" lon="-2.32611">
        <ele>27.799999237061</ele>
        <time>2020-06-04T07:54:35.000Z</time>
      </trkpt>
      <trkpt lat="47.28404" lon="-2.32616">
        <ele>27.799999237061</ele>
        <time>2020-06-04T07:54:36.000Z</time>
      </trkpt>
      <trkpt lat="47.28401" lon="-2.32633">
        <ele>27.799999237061</ele>
        <time>2020-06-04T07:54:39.000Z</time>
      </trkpt>
      <trkpt lat="47.28399" lon="-2.32644">
        <ele>27.799999237061</ele>
        <time>2020-06-04T07:54:41.000Z</time>
      </trkpt>
      <trkpt lat="47.28394" lon="-2.32672">
        <ele>27.799999237061</ele>
        <time>2020-06-04T07:54:46.000Z</time>
      </trkpt>
      <trkpt lat="47.28385" lon="-2.32715">
        <ele>27.799999237061</ele>
        <time>2020-06-04T07:54:52.000Z</time>
      </trkpt>
      <trkpt lat="47.28375" lon="-2.32767">
        <ele>27.799999237061</ele>
        <time>2020-06-04T07:54:59.000Z</time>
      </trkpt>
      <trkpt lat="47.28371" lon="-2.32791">
        <ele>27.799999237061</ele>
        <time>2020-06-04T07:55:03.000Z</time>
      </trkpt>
      <trkpt lat="47.28371" lon="-2.32796">
        <ele>27.799999237061</ele>
        <time>2020-06-04T07:55:04.000Z</time>
      </trkpt>
      <trkpt lat="47.28369" lon="-2.32831">
        <ele>27.799999237061</ele>
        <time>2020-06-04T07:55:09.000Z</time>
      </trkpt>
      <trkpt lat="47.28369" lon="-2.32887">
        <ele>27.799999237061</ele>
        <time>2020-06-04T07:55:16.000Z</time>
      </trkpt>
      <trkpt lat="47.28368" lon="-2.32904">
        <ele>27.799999237061</ele>
        <time>2020-06-04T07:55:18.000Z</time>
      </trkpt>
      <trkpt lat="47.28361" lon="-2.32928">
        <ele>27.799999237061</ele>
        <time>2020-06-04T07:55:21.000Z</time>
      </trkpt>
      <trkpt lat="47.28338" lon="-2.32952">
        <ele>27.799999237061</ele>
        <time>2020-06-04T07:55:25.000Z</time>
      </trkpt>
      <trkpt lat="47.28332" lon="-2.32957">
        <ele>27.799999237061</ele>
        <time>2020-06-04T07:55:26.000Z</time>
      </trkpt>
      <trkpt lat="47.28294" lon="-2.32987">
        <ele>27.799999237061</ele>
        <time>2020-06-04T07:55:32.000Z</time>
      </trkpt>
      <trkpt lat="47.28259" lon="-2.33015">
        <ele>27.39999961853</ele>
        <time>2020-06-04T07:55:38.000Z</time>
      </trkpt>
      <trkpt lat="47.28253" lon="-2.3302">
        <ele>27</ele>
        <time>2020-06-04T07:55:39.000Z</time>
      </trkpt>
      <trkpt lat="47.28248" lon="-2.33024">
        <ele>26.39999961853</ele>
        <time>2020-06-04T07:55:40.000Z</time>
      </trkpt>
      <trkpt lat="47.28242" lon="-2.33028">
        <ele>26</ele>
        <time>2020-06-04T07:55:41.000Z</time>
      </trkpt>
      <trkpt lat="47.28237" lon="-2.33033">
        <ele>25.60000038147</ele>
        <time>2020-06-04T07:55:42.000Z</time>
      </trkpt>
      <trkpt lat="47.28227" lon="-2.33044">
        <ele>25.60000038147</ele>
        <time>2020-06-04T07:55:44.000Z</time>
      </trkpt>
      <trkpt lat="47.28221" lon="-2.33051">
        <ele>25.60000038147</ele>
        <time>2020-06-04T07:55:45.000Z</time>
      </trkpt>
      <trkpt lat="47.28201" lon="-2.33089">
        <ele>25.60000038147</ele>
        <time>2020-06-04T07:55:50.000Z</time>
      </trkpt>
      <trkpt lat="47.28195" lon="-2.33106">
        <ele>25.60000038147</ele>
        <time>2020-06-04T07:55:52.000Z</time>
      </trkpt>
      <trkpt lat="47.28191" lon="-2.33135">
        <ele>25.60000038147</ele>
        <time>2020-06-04T07:55:55.000Z</time>
      </trkpt>
      <trkpt lat="47.2819" lon="-2.33143">
        <ele>25.60000038147</ele>
        <time>2020-06-04T07:55:56.000Z</time>
      </trkpt>
      <trkpt lat="47.2819" lon="-2.33174">
        <ele>25.60000038147</ele>
        <time>2020-06-04T07:56:00.000Z</time>
      </trkpt>
      <trkpt lat="47.28188" lon="-2.33232">
        <ele>25.60000038147</ele>
        <time>2020-06-04T07:56:07.000Z</time>
      </trkpt>
      <trkpt lat="47.28177" lon="-2.33298">
        <ele>25.60000038147</ele>
        <time>2020-06-04T07:56:15.000Z</time>
      </trkpt>
      <trkpt lat="47.28175" lon="-2.33306">
        <ele>25.60000038147</ele>
        <time>2020-06-04T07:56:16.000Z</time>
      </trkpt>
      <trkpt lat="47.28163" lon="-2.33335">
        <ele>26.60000038147</ele>
        <time>2020-06-04T07:56:20.000Z</time>
      </trkpt>
      <trkpt lat="47.2816" lon="-2.33342">
        <ele>27</ele>
        <time>2020-06-04T07:56:21.000Z</time>
      </trkpt>
      <trkpt lat="47.28157" lon="-2.33349">
        <ele>27.39999961853</ele>
        <time>2020-06-04T07:56:22.000Z</time>
      </trkpt>
      <trkpt lat="47.28154" lon="-2.33355">
        <ele>27.799999237061</ele>
        <time>2020-06-04T07:56:23.000Z</time>
      </trkpt>
      <trkpt lat="47.28141" lon="-2.33383">
        <ele>27.799999237061</ele>
        <time>2020-06-04T07:56:27.000Z</time>
      </trkpt>
      <trkpt lat="47.2812" lon="-2.33432">
        <ele>27.799999237061</ele>
        <time>2020-06-04T07:56:34.000Z</time>
      </trkpt>
      <trkpt lat="47.28117" lon="-2.33438">
        <ele>28.200000762939</ele>
        <time>2020-06-04T07:56:35.000Z</time>
      </trkpt>
      <trkpt lat="47.28114" lon="-2.33444">
        <ele>28.60000038147</ele>
        <time>2020-06-04T07:56:36.000Z</time>
      </trkpt>
      <trkpt lat="47.28111" lon="-2.3345">
        <ele>29</ele>
        <time>2020-06-04T07:56:37.000Z</time>
      </trkpt>
      <trkpt lat="47.28108" lon="-2.33457">
        <ele>29.39999961853</ele>
        <time>2020-06-04T07:56:38.000Z</time>
      </trkpt>
      <trkpt lat="47.28105" lon="-2.33463">
        <ele>29.799999237061</ele>
        <time>2020-06-04T07:56:39.000Z</time>
      </trkpt>
      <trkpt lat="47.28099" lon="-2.33476">
        <ele>29.799999237061</ele>
        <time>2020-06-04T07:56:41.000Z</time>
      </trkpt>
      <trkpt lat="47.28085" lon="-2.33503">
        <ele>29.799999237061</ele>
        <time>2020-06-04T07:56:46.000Z</time>
      </trkpt>
      <trkpt lat="47.28079" lon="-2.33511">
        <ele>29.799999237061</ele>
        <time>2020-06-04T07:56:48.000Z</time>
      </trkpt>
      <trkpt lat="47.28076" lon="-2.33516">
        <ele>29.799999237061</ele>
        <time>2020-06-04T07:56:49.000Z</time>
      </trkpt>
      <trkpt lat="47.28073" lon="-2.3353">
        <ele>29.799999237061</ele>
        <time>2020-06-04T07:56:52.000Z</time>
      </trkpt>
      <trkpt lat="47.28073" lon="-2.33539">
        <ele>29.799999237061</ele>
        <time>2020-06-04T07:56:54.000Z</time>
      </trkpt>
      <trkpt lat="47.28076" lon="-2.33553">
        <ele>29.799999237061</ele>
        <time>2020-06-04T07:56:57.000Z</time>
      </trkpt>
      <trkpt lat="47.28085" lon="-2.3359">
        <ele>29.799999237061</ele>
        <time>2020-06-04T07:57:04.000Z</time>
      </trkpt>
      <trkpt lat="47.28093" lon="-2.33621">
        <ele>29.799999237061</ele>
        <time>2020-06-04T07:57:10.000Z</time>
      </trkpt>
      <trkpt lat="47.28094" lon="-2.33638">
        <ele>29.799999237061</ele>
        <time>2020-06-04T07:57:15.000Z</time>
      </trkpt>
      <trkpt lat="47.28099" lon="-2.33655">
        <ele>30.200000762939</ele>
        <time>2020-06-04T07:57:20.000Z</time>
      </trkpt>
      <trkpt lat="47.28101" lon="-2.33661">
        <ele>30.60000038147</ele>
        <time>2020-06-04T07:57:21.000Z</time>
      </trkpt>
      <trkpt lat="47.28104" lon="-2.33666">
        <ele>31</ele>
        <time>2020-06-04T07:57:22.000Z</time>
      </trkpt>
      <trkpt lat="47.28107" lon="-2.33671">
        <ele>31.39999961853</ele>
        <time>2020-06-04T07:57:23.000Z</time>
      </trkpt>
      <trkpt lat="47.2811" lon="-2.33675">
        <ele>32</ele>
        <time>2020-06-04T07:57:24.000Z</time>
      </trkpt>
      <trkpt lat="47.28117" lon="-2.33683">
        <ele>32</ele>
        <time>2020-06-04T07:57:26.000Z</time>
      </trkpt>
      <trkpt lat="47.28136" lon="-2.33711">
        <ele>32</ele>
        <time>2020-06-04T07:57:32.000Z</time>
      </trkpt>
      <trkpt lat="47.28153" lon="-2.33736">
        <ele>32</ele>
        <time>2020-06-04T07:57:38.000Z</time>
      </trkpt>
      <trkpt lat="47.28166" lon="-2.33749">
        <ele>32</ele>
        <time>2020-06-04T07:57:43.000Z</time>
      </trkpt>
      <trkpt lat="47.28172" lon="-2.33757">
        <ele>32</ele>
        <time>2020-06-04T07:57:49.000Z</time>
      </trkpt>
      <trkpt lat="47.28185" lon="-2.33774">
        <ele>32</ele>
        <time>2020-06-04T07:57:55.000Z</time>
      </trkpt>
      <trkpt lat="47.28209" lon="-2.33794">
        <ele>32</ele>
        <time>2020-06-04T07:58:01.000Z</time>
      </trkpt>
      <trkpt lat="47.28233" lon="-2.33806">
        <ele>32</ele>
        <time>2020-06-04T07:58:06.000Z</time>
      </trkpt>
      <trkpt lat="47.28239" lon="-2.33811">
        <ele>32</ele>
        <time>2020-06-04T07:58:07.000Z</time>
      </trkpt>
      <trkpt lat="47.28257" lon="-2.33821">
        <ele>32</ele>
        <time>2020-06-04T07:58:12.000Z</time>
      </trkpt>
      <trkpt lat="47.28264" lon="-2.33833">
        <ele>32</ele>
        <time>2020-06-04T07:58:16.000Z</time>
      </trkpt>
      <trkpt lat="47.28268" lon="-2.33845">
        <ele>32.400001525879</ele>
        <time>2020-06-04T07:58:20.000Z</time>
      </trkpt>
      <trkpt lat="47.28269" lon="-2.33846">
        <ele>32.799999237061</ele>
        <time>2020-06-04T07:58:21.000Z</time>
      </trkpt>
      <trkpt lat="47.2827" lon="-2.33848">
        <ele>33.200000762939</ele>
        <time>2020-06-04T07:58:22.000Z</time>
      </trkpt>
      <trkpt lat="47.2827" lon="-2.33851">
        <ele>34</ele>
        <time>2020-06-04T07:58:23.000Z</time>
      </trkpt>
      <trkpt lat="47.28274" lon="-2.33862">
        <ele>34</ele>
        <time>2020-06-04T07:58:26.000Z</time>
      </trkpt>
      <trkpt lat="47.28284" lon="-2.33886">
        <ele>34</ele>
        <time>2020-06-04T07:58:33.000Z</time>
      </trkpt>
      <trkpt lat="47.28293" lon="-2.33907">
        <ele>34</ele>
        <time>2020-06-04T07:58:40.000Z</time>
      </trkpt>
      <trkpt lat="47.28304" lon="-2.33935">
        <ele>34</ele>
        <time>2020-06-04T07:58:47.000Z</time>
      </trkpt>
      <trkpt lat="47.28316" lon="-2.3396">
        <ele>34</ele>
        <time>2020-06-04T07:58:53.000Z</time>
      </trkpt>
      <trkpt lat="47.28331" lon="-2.33999">
        <ele>34</ele>
        <time>2020-06-04T07:59:01.000Z</time>
      </trkpt>
      <trkpt lat="47.28338" lon="-2.34008">
        <ele>34</ele>
        <time>2020-06-04T07:59:06.000Z</time>
      </trkpt>
      <trkpt lat="47.28341" lon="-2.34011">
        <ele>34.400001525879</ele>
        <time>2020-06-04T07:59:08.000Z</time>
      </trkpt>
      <trkpt lat="47.28343" lon="-2.34012">
        <ele>34.799999237061</ele>
        <time>2020-06-04T07:59:09.000Z</time>
      </trkpt>
      <trkpt lat="47.28345" lon="-2.34012">
        <ele>35.200000762939</ele>
        <time>2020-06-04T07:59:10.000Z</time>
      </trkpt>
      <trkpt lat="47.28347" lon="-2.34011">
        <ele>35.599998474121</ele>
        <time>2020-06-04T07:59:11.000Z</time>
      </trkpt>
      <trkpt lat="47.28349" lon="-2.3401">
        <ele>36</ele>
        <time>2020-06-04T07:59:12.000Z</time>
      </trkpt>
      <trkpt lat="47.28363" lon="-2.34002">
        <ele>36</ele>
        <time>2020-06-04T07:59:17.000Z</time>
      </trkpt>
      <trkpt lat="47.2838" lon="-2.33996">
        <ele>36</ele>
        <time>2020-06-04T07:59:23.000Z</time>
      </trkpt>
      <trkpt lat="47.28389" lon="-2.33992">
        <ele>36.400001525879</ele>
        <time>2020-06-04T07:59:26.000Z</time>
      </trkpt>
      <trkpt lat="47.28391" lon="-2.33991">
        <ele>36.799999237061</ele>
        <time>2020-06-04T07:59:27.000Z</time>
      </trkpt>
      <trkpt lat="47.28393" lon="-2.3399">
        <ele>37.200000762939</ele>
        <time>2020-06-04T07:59:28.000Z</time>
      </trkpt>
      <trkpt lat="47.28395" lon="-2.3399">
        <ele>37.599998474121</ele>
        <time>2020-06-04T07:59:29.000Z</time>
      </trkpt>
      <trkpt lat="47.28397" lon="-2.33989">
        <ele>38</ele>
        <time>2020-06-04T07:59:30.000Z</time>
      </trkpt>
      <trkpt lat="47.2841" lon="-2.33993">
        <ele>38</ele>
        <time>2020-06-04T07:59:36.000Z</time>
      </trkpt>
      <trkpt lat="47.28415" lon="-2.34012">
        <ele>38</ele>
        <time>2020-06-04T07:59:41.000Z</time>
      </trkpt>
      <trkpt lat="47.28422" lon="-2.34047">
        <ele>38</ele>
        <time>2020-06-04T07:59:50.000Z</time>
      </trkpt>
      <trkpt lat="47.28427" lon="-2.34078">
        <ele>38</ele>
        <time>2020-06-04T07:59:58.000Z</time>
      </trkpt>
      <trkpt lat="47.28433" lon="-2.34113">
        <ele>38</ele>
        <time>2020-06-04T08:00:05.000Z</time>
      </trkpt>
      <trkpt lat="47.28441" lon="-2.34149">
        <ele>38</ele>
        <time>2020-06-04T08:00:12.000Z</time>
      </trkpt>
      <trkpt lat="47.28443" lon="-2.34182">
        <ele>38</ele>
        <time>2020-06-04T08:00:19.000Z</time>
      </trkpt>
      <trkpt lat="47.28444" lon="-2.34192">
        <ele>38</ele>
        <time>2020-06-04T08:00:21.000Z</time>
      </trkpt>
      <trkpt lat="47.28448" lon="-2.34196">
        <ele>38</ele>
        <time>2020-06-04T08:00:22.000Z</time>
      </trkpt>
      <trkpt lat="47.28464" lon="-2.34203">
        <ele>38</ele>
        <time>2020-06-04T08:00:26.000Z</time>
      </trkpt>
      <trkpt lat="47.28495" lon="-2.34214">
        <ele>38</ele>
        <time>2020-06-04T08:00:32.000Z</time>
      </trkpt>
      <trkpt lat="47.28521" lon="-2.3422">
        <ele>38.400001525879</ele>
        <time>2020-06-04T08:00:37.000Z</time>
      </trkpt>
      <trkpt lat="47.28525" lon="-2.34221">
        <ele>38.799999237061</ele>
        <time>2020-06-04T08:00:38.000Z</time>
      </trkpt>
      <trkpt lat="47.2853" lon="-2.34221">
        <ele>39.400001525879</ele>
        <time>2020-06-04T08:00:39.000Z</time>
      </trkpt>
      <trkpt lat="47.28535" lon="-2.34221">
        <ele>39.799999237061</ele>
        <time>2020-06-04T08:00:40.000Z</time>
      </trkpt>
      <trkpt lat="47.28539" lon="-2.34221">
        <ele>40.200000762939</ele>
        <time>2020-06-04T08:00:41.000Z</time>
      </trkpt>
      <trkpt lat="47.28548" lon="-2.34212">
        <ele>40.200000762939</ele>
        <time>2020-06-04T08:00:44.000Z</time>
      </trkpt>
      <trkpt lat="47.28544" lon="-2.34194">
        <ele>40.200000762939</ele>
        <time>2020-06-04T08:00:47.000Z</time>
      </trkpt>
      <trkpt lat="47.28538" lon="-2.34175">
        <ele>40.200000762939</ele>
        <time>2020-06-04T08:00:50.000Z</time>
      </trkpt>
      <trkpt lat="47.28536" lon="-2.34168">
        <ele>40.200000762939</ele>
        <time>2020-06-04T08:00:51.000Z</time>
      </trkpt>
      <trkpt lat="47.28534" lon="-2.34162">
        <ele>40.200000762939</ele>
        <time>2020-06-04T08:00:52.000Z</time>
      </trkpt>
      <trkpt lat="47.28523" lon="-2.34125">
        <ele>40.200000762939</ele>
        <time>2020-06-04T08:00:57.000Z</time>
      </trkpt>
      <trkpt lat="47.28523" lon="-2.34091">
        <ele>40.200000762939</ele>
        <time>2020-06-04T08:01:01.000Z</time>
      </trkpt>
      <trkpt lat="47.28529" lon="-2.34057">
        <ele>40.200000762939</ele>
        <time>2020-06-04T08:01:05.000Z</time>
      </trkpt>
      <trkpt lat="47.28532" lon="-2.34049">
        <ele>40.200000762939</ele>
        <time>2020-06-04T08:01:06.000Z</time>
      </trkpt>
      <trkpt lat="47.2855" lon="-2.34021">
        <ele>40.200000762939</ele>
        <time>2020-06-04T08:01:11.000Z</time>
      </trkpt>
      <trkpt lat="47.2857" lon="-2.3401">
        <ele>40.200000762939</ele>
        <time>2020-06-04T08:01:15.000Z</time>
      </trkpt>
      <trkpt lat="47.28599" lon="-2.34001">
        <ele>40.200000762939</ele>
        <time>2020-06-04T08:01:21.000Z</time>
      </trkpt>
      <trkpt lat="47.28602" lon="-2.34">
        <ele>40.200000762939</ele>
        <time>2020-06-04T08:01:22.000Z</time>
      </trkpt>
      <trkpt lat="47.28605" lon="-2.33997">
        <ele>40.200000762939</ele>
        <time>2020-06-04T08:01:23.000Z</time>
      </trkpt>
      <trkpt lat="47.28605" lon="-2.33986">
        <ele>40.200000762939</ele>
        <time>2020-06-04T08:01:25.000Z</time>
      </trkpt>
      <trkpt lat="47.28603" lon="-2.33975">
        <ele>40.200000762939</ele>
        <time>2020-06-04T08:01:27.000Z</time>
      </trkpt>
      <trkpt lat="47.28599" lon="-2.33963">
        <ele>40.200000762939</ele>
        <time>2020-06-04T08:01:29.000Z</time>
      </trkpt>
      <trkpt lat="47.28596" lon="-2.33949">
        <ele>40.599998474121</ele>
        <time>2020-06-04T08:01:31.000Z</time>
      </trkpt>
      <trkpt lat="47.28595" lon="-2.33941">
        <ele>41</ele>
        <time>2020-06-04T08:01:32.000Z</time>
      </trkpt>
      <trkpt lat="47.28594" lon="-2.33933">
        <ele>41.400001525879</ele>
        <time>2020-06-04T08:01:33.000Z</time>
      </trkpt>
      <trkpt lat="47.28592" lon="-2.33926">
        <ele>41.799999237061</ele>
        <time>2020-06-04T08:01:34.000Z</time>
      </trkpt>
      <trkpt lat="47.28591" lon="-2.33919">
        <ele>42.200000762939</ele>
        <time>2020-06-04T08:01:35.000Z</time>
      </trkpt>
      <trkpt lat="47.28577" lon="-2.33851">
        <ele>42.200000762939</ele>
        <time>2020-06-04T08:01:44.000Z</time>
      </trkpt>
      <trkpt lat="47.28569" lon="-2.33794">
        <ele>42.200000762939</ele>
        <time>2020-06-04T08:01:52.000Z</time>
      </trkpt>
      <trkpt lat="47.2857" lon="-2.33781">
        <ele>42.200000762939</ele>
        <time>2020-06-04T08:01:54.000Z</time>
      </trkpt>
      <trkpt lat="47.28573" lon="-2.33769">
        <ele>42.200000762939</ele>
        <time>2020-06-04T08:01:56.000Z</time>
      </trkpt>
      <trkpt lat="47.28579" lon="-2.33752">
        <ele>42.200000762939</ele>
        <time>2020-06-04T08:01:59.000Z</time>
      </trkpt>
      <trkpt lat="47.28587" lon="-2.3374">
        <ele>42.200000762939</ele>
        <time>2020-06-04T08:02:02.000Z</time>
      </trkpt>
      <trkpt lat="47.28597" lon="-2.33732">
        <ele>42.200000762939</ele>
        <time>2020-06-04T08:02:05.000Z</time>
      </trkpt>
      <trkpt lat="47.28612" lon="-2.33724">
        <ele>41.799999237061</ele>
        <time>2020-06-04T08:02:09.000Z</time>
      </trkpt>
      <trkpt lat="47.28616" lon="-2.33722">
        <ele>41.400001525879</ele>
        <time>2020-06-04T08:02:10.000Z</time>
      </trkpt>
      <trkpt lat="47.2862" lon="-2.3372">
        <ele>41</ele>
        <time>2020-06-04T08:02:11.000Z</time>
      </trkpt>
      <trkpt lat="47.28624" lon="-2.33719">
        <ele>40.599998474121</ele>
        <time>2020-06-04T08:02:12.000Z</time>
      </trkpt>
      <trkpt lat="47.28627" lon="-2.33718">
        <ele>40.200000762939</ele>
        <time>2020-06-04T08:02:13.000Z</time>
      </trkpt>
      <trkpt lat="47.28635" lon="-2.33716">
        <ele>40.200000762939</ele>
        <time>2020-06-04T08:02:15.000Z</time>
      </trkpt>
      <trkpt lat="47.28665" lon="-2.33705">
        <ele>40.200000762939</ele>
        <time>2020-06-04T08:02:24.000Z</time>
      </trkpt>
      <trkpt lat="47.28698" lon="-2.33693">
        <ele>40.200000762939</ele>
        <time>2020-06-04T08:02:33.000Z</time>
      </trkpt>
      <trkpt lat="47.28716" lon="-2.33696">
        <ele>40.200000762939</ele>
        <time>2020-06-04T08:02:38.000Z</time>
      </trkpt>
      <trkpt lat="47.28734" lon="-2.3371">
        <ele>40.200000762939</ele>
        <time>2020-06-04T08:02:43.000Z</time>
      </trkpt>
      <trkpt lat="47.28747" lon="-2.33734">
        <ele>40.200000762939</ele>
        <time>2020-06-04T08:02:49.000Z</time>
      </trkpt>
      <trkpt lat="47.28755" lon="-2.33755">
        <ele>40.200000762939</ele>
        <time>2020-06-04T08:02:55.000Z</time>
      </trkpt>
      <trkpt lat="47.2876" lon="-2.33775">
        <ele>40.200000762939</ele>
        <time>2020-06-04T08:03:01.000Z</time>
      </trkpt>
      <trkpt lat="47.28763" lon="-2.33782">
        <ele>40.200000762939</ele>
        <time>2020-06-04T08:03:06.000Z</time>
      </trkpt>
      <trkpt lat="47.28763" lon="-2.33783">
        <ele>40.200000762939</ele>
        <time>2020-06-04T08:03:07.000Z</time>
      </trkpt>
      <trkpt lat="47.28766" lon="-2.33781">
        <ele>40.200000762939</ele>
        <time>2020-06-04T08:03:10.000Z</time>
      </trkpt>
      <trkpt lat="47.28767" lon="-2.33769">
        <ele>40.200000762939</ele>
        <time>2020-06-04T08:03:14.000Z</time>
      </trkpt>
      <trkpt lat="47.28766" lon="-2.33764">
        <ele>40.200000762939</ele>
        <time>2020-06-04T08:03:15.000Z</time>
      </trkpt>
      <trkpt lat="47.28764" lon="-2.33751">
        <ele>40.200000762939</ele>
        <time>2020-06-04T08:03:17.000Z</time>
      </trkpt>
      <trkpt lat="47.28763" lon="-2.33744">
        <ele>40.200000762939</ele>
        <time>2020-06-04T08:03:18.000Z</time>
      </trkpt>
      <trkpt lat="47.2876" lon="-2.3369">
        <ele>40.200000762939</ele>
        <time>2020-06-04T08:03:25.000Z</time>
      </trkpt>
      <trkpt lat="47.28753" lon="-2.33618">
        <ele>40.200000762939</ele>
        <time>2020-06-04T08:03:34.000Z</time>
      </trkpt>
      <trkpt lat="47.2874" lon="-2.33559">
        <ele>40.200000762939</ele>
        <time>2020-06-04T08:03:41.000Z</time>
      </trkpt>
      <trkpt lat="47.28737" lon="-2.3355">
        <ele>39.799999237061</ele>
        <time>2020-06-04T08:03:42.000Z</time>
      </trkpt>
      <trkpt lat="47.28734" lon="-2.33542">
        <ele>39.200000762939</ele>
        <time>2020-06-04T08:03:43.000Z</time>
      </trkpt>
      <trkpt lat="47.28731" lon="-2.33534">
        <ele>38.400001525879</ele>
        <time>2020-06-04T08:03:44.000Z</time>
      </trkpt>
      <trkpt lat="47.28728" lon="-2.33526">
        <ele>38</ele>
        <time>2020-06-04T08:03:45.000Z</time>
      </trkpt>
      <trkpt lat="47.28725" lon="-2.33517">
        <ele>38</ele>
        <time>2020-06-04T08:03:46.000Z</time>
      </trkpt>
      <trkpt lat="47.28724" lon="-2.3351">
        <ele>38</ele>
        <time>2020-06-04T08:03:47.000Z</time>
      </trkpt>
      <trkpt lat="47.28726" lon="-2.33495">
        <ele>38</ele>
        <time>2020-06-04T08:03:49.000Z</time>
      </trkpt>
      <trkpt lat="47.28741" lon="-2.33487">
        <ele>38</ele>
        <time>2020-06-04T08:03:52.000Z</time>
      </trkpt>
      <trkpt lat="47.28778" lon="-2.33481">
        <ele>38</ele>
        <time>2020-06-04T08:03:58.000Z</time>
      </trkpt>
      <trkpt lat="47.28827" lon="-2.33473">
        <ele>38</ele>
        <time>2020-06-04T08:04:06.000Z</time>
      </trkpt>
      <trkpt lat="47.28857" lon="-2.33466">
        <ele>38</ele>
        <time>2020-06-04T08:04:11.000Z</time>
      </trkpt>
      <trkpt lat="47.2887" lon="-2.3346">
        <ele>38</ele>
        <time>2020-06-04T08:04:13.000Z</time>
      </trkpt>
      <trkpt lat="47.28894" lon="-2.33442">
        <ele>38</ele>
        <time>2020-06-04T08:04:14.000Z</time>
      </trkpt>
      <trkpt lat="47.289" lon="-2.33435">
        <ele>38</ele>
        <time>2020-06-04T08:04:17.000Z</time>
      </trkpt>
      <trkpt lat="47.28913" lon="-2.33406">
        <ele>38</ele>
        <time>2020-06-04T08:04:20.000Z</time>
      </trkpt>
      <trkpt lat="47.28915" lon="-2.33385">
        <ele>38</ele>
        <time>2020-06-04T08:04:22.000Z</time>
      </trkpt>
      <trkpt lat="47.28923" lon="-2.33345">
        <ele>38</ele>
        <time>2020-06-04T08:04:26.000Z</time>
      </trkpt>
      <trkpt lat="47.28939" lon="-2.33298">
        <ele>38</ele>
        <time>2020-06-04T08:04:31.000Z</time>
      </trkpt>
      <trkpt lat="47.28943" lon="-2.33289">
        <ele>38</ele>
        <time>2020-06-04T08:04:32.000Z</time>
      </trkpt>
      <trkpt lat="47.28967" lon="-2.33234">
        <ele>38</ele>
        <time>2020-06-04T08:04:38.000Z</time>
      </trkpt>
      <trkpt lat="47.28994" lon="-2.33195">
        <ele>38</ele>
        <time>2020-06-04T08:04:43.000Z</time>
      </trkpt>
      <trkpt lat="47.29028" lon="-2.3316">
        <ele>38</ele>
        <time>2020-06-04T08:04:49.000Z</time>
      </trkpt>
      <trkpt lat="47.2906" lon="-2.33135">
        <ele>38</ele>
        <time>2020-06-04T08:04:54.000Z</time>
      </trkpt>
      <trkpt lat="47.29088" lon="-2.33109">
        <ele>37.599998474121</ele>
        <time>2020-06-04T08:04:58.000Z</time>
      </trkpt>
      <trkpt lat="47.29095" lon="-2.33101">
        <ele>37.200000762939</ele>
        <time>2020-06-04T08:04:59.000Z</time>
      </trkpt>
      <trkpt lat="47.29101" lon="-2.33094">
        <ele>36.799999237061</ele>
        <time>2020-06-04T08:05:00.000Z</time>
      </trkpt>
      <trkpt lat="47.29108" lon="-2.33085">
        <ele>36.400001525879</ele>
        <time>2020-06-04T08:05:01.000Z</time>
      </trkpt>
      <trkpt lat="47.29114" lon="-2.33076">
        <ele>36</ele>
        <time>2020-06-04T08:05:02.000Z</time>
      </trkpt>
      <trkpt lat="47.29139" lon="-2.3304">
        <ele>36</ele>
        <time>2020-06-04T08:05:06.000Z</time>
      </trkpt>
      <trkpt lat="47.2918" lon="-2.32971">
        <ele>36</ele>
        <time>2020-06-04T08:05:13.000Z</time>
      </trkpt>
      <trkpt lat="47.29204" lon="-2.32905">
        <ele>36</ele>
        <time>2020-06-04T08:05:19.000Z</time>
      </trkpt>
      <trkpt lat="47.29214" lon="-2.32877">
        <ele>35.200000762939</ele>
        <time>2020-06-04T08:05:22.000Z</time>
      </trkpt>
      <trkpt lat="47.29217" lon="-2.32868">
        <ele>34.799999237061</ele>
        <time>2020-06-04T08:05:23.000Z</time>
      </trkpt>
      <trkpt lat="47.2922" lon="-2.3286">
        <ele>34.400001525879</ele>
        <time>2020-06-04T08:05:24.000Z</time>
      </trkpt>
      <trkpt lat="47.29224" lon="-2.32852">
        <ele>34</ele>
        <time>2020-06-04T08:05:25.000Z</time>
      </trkpt>
      <trkpt lat="47.29241" lon="-2.32823">
        <ele>34</ele>
        <time>2020-06-04T08:05:29.000Z</time>
      </trkpt>
      <trkpt lat="47.29264" lon="-2.32798">
        <ele>34</ele>
        <time>2020-06-04T08:05:34.000Z</time>
      </trkpt>
      <trkpt lat="47.29268" lon="-2.32797">
        <ele>34</ele>
        <time>2020-06-04T08:05:35.000Z</time>
      </trkpt>
      <trkpt lat="47.29272" lon="-2.32798">
        <ele>34</ele>
        <time>2020-06-04T08:05:36.000Z</time>
      </trkpt>
      <trkpt lat="47.29287" lon="-2.32817">
        <ele>34</ele>
        <time>2020-06-04T08:05:40.000Z</time>
      </trkpt>
      <trkpt lat="47.29294" lon="-2.32841">
        <ele>34</ele>
        <time>2020-06-04T08:05:43.000Z</time>
      </trkpt>
      <trkpt lat="47.29296" lon="-2.3285">
        <ele>34</ele>
        <time>2020-06-04T08:05:44.000Z</time>
      </trkpt>
      <trkpt lat="47.29307" lon="-2.32908">
        <ele>34</ele>
        <time>2020-06-04T08:05:51.000Z</time>
      </trkpt>
      <trkpt lat="47.29314" lon="-2.32955">
        <ele>34</ele>
        <time>2020-06-04T08:05:57.000Z</time>
      </trkpt>
      <trkpt lat="47.29316" lon="-2.32972">
        <ele>34.400001525879</ele>
        <time>2020-06-04T08:05:59.000Z</time>
      </trkpt>
      <trkpt lat="47.29318" lon="-2.32981">
        <ele>34.799999237061</ele>
        <time>2020-06-04T08:06:00.000Z</time>
      </trkpt>
      <trkpt lat="47.29319" lon="-2.3299">
        <ele>35.200000762939</ele>
        <time>2020-06-04T08:06:01.000Z</time>
      </trkpt>
      <trkpt lat="47.29321" lon="-2.32999">
        <ele>35.599998474121</ele>
        <time>2020-06-04T08:06:02.000Z</time>
      </trkpt>
      <trkpt lat="47.29324" lon="-2.33008">
        <ele>36</ele>
        <time>2020-06-04T08:06:03.000Z</time>
      </trkpt>
      <trkpt lat="47.29342" lon="-2.33071">
        <ele>36</ele>
        <time>2020-06-04T08:06:10.000Z</time>
      </trkpt>
      <trkpt lat="47.29361" lon="-2.33105">
        <ele>36</ele>
        <time>2020-06-04T08:06:15.000Z</time>
      </trkpt>
      <trkpt lat="47.29365" lon="-2.33111">
        <ele>36</ele>
        <time>2020-06-04T08:06:16.000Z</time>
      </trkpt>
      <trkpt lat="47.29386" lon="-2.33138">
        <ele>36</ele>
        <time>2020-06-04T08:06:20.000Z</time>
      </trkpt>
      <trkpt lat="47.29403" lon="-2.33169">
        <ele>36</ele>
        <time>2020-06-04T08:06:24.000Z</time>
      </trkpt>
      <trkpt lat="47.29407" lon="-2.33179">
        <ele>36</ele>
        <time>2020-06-04T08:06:25.000Z</time>
      </trkpt>
      <trkpt lat="47.29416" lon="-2.33209">
        <ele>36.400001525879</ele>
        <time>2020-06-04T08:06:28.000Z</time>
      </trkpt>
      <trkpt lat="47.29419" lon="-2.33219">
        <ele>36.799999237061</ele>
        <time>2020-06-04T08:06:29.000Z</time>
      </trkpt>
      <trkpt lat="47.29421" lon="-2.3323">
        <ele>37.200000762939</ele>
        <time>2020-06-04T08:06:30.000Z</time>
      </trkpt>
      <trkpt lat="47.29423" lon="-2.3324">
        <ele>37.599998474121</ele>
        <time>2020-06-04T08:06:31.000Z</time>
      </trkpt>
      <trkpt lat="47.29424" lon="-2.3325">
        <ele>38</ele>
        <time>2020-06-04T08:06:32.000Z</time>
      </trkpt>
      <trkpt lat="47.29432" lon="-2.33303">
        <ele>38</ele>
        <time>2020-06-04T08:06:37.000Z</time>
      </trkpt>
      <trkpt lat="47.29433" lon="-2.33358">
        <ele>38</ele>
        <time>2020-06-04T08:06:42.000Z</time>
      </trkpt>
      <trkpt lat="47.29434" lon="-2.33381">
        <ele>38</ele>
        <time>2020-06-04T08:06:44.000Z</time>
      </trkpt>
      <trkpt lat="47.29438" lon="-2.33402">
        <ele>38</ele>
        <time>2020-06-04T08:06:46.000Z</time>
      </trkpt>
      <trkpt lat="47.2945" lon="-2.33431">
        <ele>38</ele>
        <time>2020-06-04T08:06:49.000Z</time>
      </trkpt>
      <trkpt lat="47.29454" lon="-2.33439">
        <ele>38</ele>
        <time>2020-06-04T08:06:50.000Z</time>
      </trkpt>
      <trkpt lat="47.29473" lon="-2.33479">
        <ele>38</ele>
        <time>2020-06-04T08:06:55.000Z</time>
      </trkpt>
      <trkpt lat="47.29506" lon="-2.33547">
        <ele>38</ele>
        <time>2020-06-04T08:07:03.000Z</time>
      </trkpt>
      <trkpt lat="47.2951" lon="-2.33556">
        <ele>38</ele>
        <time>2020-06-04T08:07:04.000Z</time>
      </trkpt>
      <trkpt lat="47.29532" lon="-2.33626">
        <ele>37.599998474121</ele>
        <time>2020-06-04T08:07:11.000Z</time>
      </trkpt>
      <trkpt lat="47.29534" lon="-2.33636">
        <ele>37.200000762939</ele>
        <time>2020-06-04T08:07:12.000Z</time>
      </trkpt>
      <trkpt lat="47.29537" lon="-2.33647">
        <ele>36.799999237061</ele>
        <time>2020-06-04T08:07:13.000Z</time>
      </trkpt>
      <trkpt lat="47.29541" lon="-2.33658">
        <ele>36.200000762939</ele>
        <time>2020-06-04T08:07:14.000Z</time>
      </trkpt>
      <trkpt lat="47.29544" lon="-2.33669">
        <ele>35.799999237061</ele>
        <time>2020-06-04T08:07:15.000Z</time>
      </trkpt>
      <trkpt lat="47.29547" lon="-2.33681">
        <ele>35.799999237061</ele>
        <time>2020-06-04T08:07:16.000Z</time>
      </trkpt>
      <trkpt lat="47.29552" lon="-2.33691">
        <ele>35.799999237061</ele>
        <time>2020-06-04T08:07:17.000Z</time>
      </trkpt>
      <trkpt lat="47.29568" lon="-2.3372">
        <ele>35.799999237061</ele>
        <time>2020-06-04T08:07:20.000Z</time>
      </trkpt>
      <trkpt lat="47.29575" lon="-2.33728">
        <ele>35.799999237061</ele>
        <time>2020-06-04T08:07:21.000Z</time>
      </trkpt>
      <trkpt lat="47.296" lon="-2.33762">
        <ele>35.799999237061</ele>
        <time>2020-06-04T08:07:25.000Z</time>
      </trkpt>
      <trkpt lat="47.29622" lon="-2.33808">
        <ele>35.799999237061</ele>
        <time>2020-06-04T08:07:30.000Z</time>
      </trkpt>
      <trkpt lat="47.29646" lon="-2.3385">
        <ele>35.799999237061</ele>
        <time>2020-06-04T08:07:36.000Z</time>
      </trkpt>
      <trkpt lat="47.29657" lon="-2.3385">
        <ele>35.799999237061</ele>
        <time>2020-06-04T08:07:38.000Z</time>
      </trkpt>
      <trkpt lat="47.29667" lon="-2.33841">
        <ele>35.799999237061</ele>
        <time>2020-06-04T08:07:40.000Z</time>
      </trkpt>
      <trkpt lat="47.29675" lon="-2.33831">
        <ele>36.200000762939</ele>
        <time>2020-06-04T08:07:42.000Z</time>
      </trkpt>
      <trkpt lat="47.29679" lon="-2.33827">
        <ele>36.599998474121</ele>
        <time>2020-06-04T08:07:43.000Z</time>
      </trkpt>
      <trkpt lat="47.29683" lon="-2.33822">
        <ele>37.200000762939</ele>
        <time>2020-06-04T08:07:44.000Z</time>
      </trkpt>
      <trkpt lat="47.29687" lon="-2.33818">
        <ele>37.599998474121</ele>
        <time>2020-06-04T08:07:45.000Z</time>
      </trkpt>
      <trkpt lat="47.29691" lon="-2.33813">
        <ele>38</ele>
        <time>2020-06-04T08:07:46.000Z</time>
      </trkpt>
      <trkpt lat="47.29694" lon="-2.33809">
        <ele>38</ele>
        <time>2020-06-04T08:07:47.000Z</time>
      </trkpt>
      <trkpt lat="47.29697" lon="-2.33805">
        <ele>38</ele>
        <time>2020-06-04T08:07:48.000Z</time>
      </trkpt>
      <trkpt lat="47.29712" lon="-2.33787">
        <ele>38</ele>
        <time>2020-06-04T08:07:53.000Z</time>
      </trkpt>
      <trkpt lat="47.29726" lon="-2.33757">
        <ele>38</ele>
        <time>2020-06-04T08:07:58.000Z</time>
      </trkpt>
      <trkpt lat="47.2975" lon="-2.33712">
        <ele>38</ele>
        <time>2020-06-04T08:08:05.000Z</time>
      </trkpt>
      <trkpt lat="47.29783" lon="-2.33656">
        <ele>38</ele>
        <time>2020-06-04T08:08:13.000Z</time>
      </trkpt>
      <trkpt lat="47.2982" lon="-2.33593">
        <ele>38</ele>
        <time>2020-06-04T08:08:21.000Z</time>
      </trkpt>
      <trkpt lat="47.29859" lon="-2.33525">
        <ele>38</ele>
        <time>2020-06-04T08:08:29.000Z</time>
      </trkpt>
      <trkpt lat="47.29864" lon="-2.33517">
        <ele>38</ele>
        <time>2020-06-04T08:08:30.000Z</time>
      </trkpt>
      <trkpt lat="47.29895" lon="-2.3347">
        <ele>38</ele>
        <time>2020-06-04T08:08:36.000Z</time>
      </trkpt>
      <trkpt lat="47.299" lon="-2.33463">
        <ele>38</ele>
        <time>2020-06-04T08:08:37.000Z</time>
      </trkpt>
      <trkpt lat="47.29905" lon="-2.33456">
        <ele>37.599998474121</ele>
        <time>2020-06-04T08:08:38.000Z</time>
      </trkpt>
      <trkpt lat="47.2991" lon="-2.3345">
        <ele>36.799999237061</ele>
        <time>2020-06-04T08:08:39.000Z</time>
      </trkpt>
      <trkpt lat="47.29914" lon="-2.33445">
        <ele>36.400001525879</ele>
        <time>2020-06-04T08:08:40.000Z</time>
      </trkpt>
      <trkpt lat="47.29918" lon="-2.33441">
        <ele>36</ele>
        <time>2020-06-04T08:08:41.000Z</time>
      </trkpt>
      <trkpt lat="47.29926" lon="-2.33445">
        <ele>36</ele>
        <time>2020-06-04T08:08:43.000Z</time>
      </trkpt>
      <trkpt lat="47.29929" lon="-2.3345">
        <ele>35.599998474121</ele>
        <time>2020-06-04T08:08:44.000Z</time>
      </trkpt>
      <trkpt lat="47.29932" lon="-2.33457">
        <ele>35.200000762939</ele>
        <time>2020-06-04T08:08:45.000Z</time>
      </trkpt>
      <trkpt lat="47.29936" lon="-2.33463">
        <ele>34.799999237061</ele>
        <time>2020-06-04T08:08:46.000Z</time>
      </trkpt>
      <trkpt lat="47.2994" lon="-2.33468">
        <ele>34.400001525879</ele>
        <time>2020-06-04T08:08:47.000Z</time>
      </trkpt>
      <trkpt lat="47.29945" lon="-2.33473">
        <ele>34</ele>
        <time>2020-06-04T08:08:48.000Z</time>
      </trkpt>
      <trkpt lat="47.29975" lon="-2.335">
        <ele>34</ele>
        <time>2020-06-04T08:08:54.000Z</time>
      </trkpt>
      <trkpt lat="47.30008" lon="-2.33527">
        <ele>34</ele>
        <time>2020-06-04T08:09:01.000Z</time>
      </trkpt>
      <trkpt lat="47.30022" lon="-2.33533">
        <ele>34</ele>
        <time>2020-06-04T08:09:04.000Z</time>
      </trkpt>
      <trkpt lat="47.30032" lon="-2.33533">
        <ele>34</ele>
        <time>2020-06-04T08:09:06.000Z</time>
      </trkpt>
      <trkpt lat="47.30037" lon="-2.33532">
        <ele>34.400001525879</ele>
        <time>2020-06-04T08:09:07.000Z</time>
      </trkpt>
      <trkpt lat="47.30041" lon="-2.33531">
        <ele>34.799999237061</ele>
        <time>2020-06-04T08:09:08.000Z</time>
      </trkpt>
      <trkpt lat="47.30045" lon="-2.33529">
        <ele>35.200000762939</ele>
        <time>2020-06-04T08:09:09.000Z</time>
      </trkpt>
      <trkpt lat="47.3005" lon="-2.33526">
        <ele>35.599998474121</ele>
        <time>2020-06-04T08:09:10.000Z</time>
      </trkpt>
      <trkpt lat="47.30054" lon="-2.33523">
        <ele>36</ele>
        <time>2020-06-04T08:09:11.000Z</time>
      </trkpt>
      <trkpt lat="47.30069" lon="-2.33515">
        <ele>36</ele>
        <time>2020-06-04T08:09:16.000Z</time>
      </trkpt>
      <trkpt lat="47.30068" lon="-2.33521">
        <ele>36</ele>
        <time>2020-06-04T08:09:19.000Z</time>
      </trkpt>
      <trkpt lat="47.30064" lon="-2.33521">
        <ele>36</ele>
        <time>2020-06-04T08:09:21.000Z</time>
      </trkpt>
      <trkpt lat="47.30059" lon="-2.33522">
        <ele>36</ele>
        <time>2020-06-04T08:09:23.000Z</time>
      </trkpt>
      <trkpt lat="47.30057" lon="-2.33523">
        <ele>36</ele>
        <time>2020-06-04T08:09:24.000Z</time>
      </trkpt>
      <trkpt lat="47.30038" lon="-2.33536">
        <ele>36</ele>
        <time>2020-06-04T08:09:32.000Z</time>
      </trkpt>
      <trkpt lat="47.30021" lon="-2.33541">
        <ele>36</ele>
        <time>2020-06-04T08:09:37.000Z</time>
      </trkpt>
      <trkpt lat="47.30005" lon="-2.33556">
        <ele>36</ele>
        <time>2020-06-04T08:09:41.000Z</time>
      </trkpt>
      <trkpt lat="47.3" lon="-2.33577">
        <ele>36</ele>
        <time>2020-06-04T08:09:44.000Z</time>
      </trkpt>
      <trkpt lat="47.29999" lon="-2.33592">
        <ele>36</ele>
        <time>2020-06-04T08:09:46.000Z</time>
      </trkpt>
      <trkpt lat="47.3" lon="-2.33624">
        <ele>36</ele>
        <time>2020-06-04T08:09:50.000Z</time>
      </trkpt>
      <trkpt lat="47.30002" lon="-2.33682">
        <ele>36</ele>
        <time>2020-06-04T08:09:57.000Z</time>
      </trkpt>
      <trkpt lat="47.29999" lon="-2.3373">
        <ele>36</ele>
        <time>2020-06-04T08:10:03.000Z</time>
      </trkpt>
      <trkpt lat="47.29998" lon="-2.33762">
        <ele>36</ele>
        <time>2020-06-04T08:10:08.000Z</time>
      </trkpt>
      <trkpt lat="47.29999" lon="-2.33774">
        <ele>36.599998474121</ele>
        <time>2020-06-04T08:10:10.000Z</time>
      </trkpt>
      <trkpt lat="47.3" lon="-2.3378">
        <ele>37</ele>
        <time>2020-06-04T08:10:11.000Z</time>
      </trkpt>
      <trkpt lat="47.3" lon="-2.33786">
        <ele>37.400001525879</ele>
        <time>2020-06-04T08:10:12.000Z</time>
      </trkpt>
      <trkpt lat="47.3" lon="-2.33792">
        <ele>37.799999237061</ele>
        <time>2020-06-04T08:10:13.000Z</time>
      </trkpt>
      <trkpt lat="47.30002" lon="-2.33799">
        <ele>38.200000762939</ele>
        <time>2020-06-04T08:10:14.000Z</time>
      </trkpt>
      <trkpt lat="47.30007" lon="-2.33819">
        <ele>38.200000762939</ele>
        <time>2020-06-04T08:10:17.000Z</time>
      </trkpt>
      <trkpt lat="47.30014" lon="-2.33832">
        <ele>38.200000762939</ele>
        <time>2020-06-04T08:10:19.000Z</time>
      </trkpt>
      <trkpt lat="47.30023" lon="-2.33852">
        <ele>38.200000762939</ele>
        <time>2020-06-04T08:10:22.000Z</time>
      </trkpt>
      <trkpt lat="47.30032" lon="-2.3387">
        <ele>38.200000762939</ele>
        <time>2020-06-04T08:10:25.000Z</time>
      </trkpt>
      <trkpt lat="47.3005" lon="-2.3391">
        <ele>38.200000762939</ele>
        <time>2020-06-04T08:10:32.000Z</time>
      </trkpt>
      <trkpt lat="47.30055" lon="-2.33921">
        <ele>38.599998474121</ele>
        <time>2020-06-04T08:10:34.000Z</time>
      </trkpt>
      <trkpt lat="47.30057" lon="-2.33926">
        <ele>39.200000762939</ele>
        <time>2020-06-04T08:10:35.000Z</time>
      </trkpt>
      <trkpt lat="47.30059" lon="-2.33932">
        <ele>39.599998474121</ele>
        <time>2020-06-04T08:10:36.000Z</time>
      </trkpt>
      <trkpt lat="47.30061" lon="-2.33938">
        <ele>40</ele>
        <time>2020-06-04T08:10:37.000Z</time>
      </trkpt>
      <trkpt lat="47.30063" lon="-2.33943">
        <ele>40.400001525879</ele>
        <time>2020-06-04T08:10:38.000Z</time>
      </trkpt>
      <trkpt lat="47.30076" lon="-2.33973">
        <ele>40.400001525879</ele>
        <time>2020-06-04T08:10:44.000Z</time>
      </trkpt>
      <trkpt lat="47.3009" lon="-2.34001">
        <ele>40.400001525879</ele>
        <time>2020-06-04T08:10:50.000Z</time>
      </trkpt>
      <trkpt lat="47.30097" lon="-2.34006">
        <ele>40.400001525879</ele>
        <time>2020-06-04T08:10:52.000Z</time>
      </trkpt>
      <trkpt lat="47.30101" lon="-2.34005">
        <ele>40.400001525879</ele>
        <time>2020-06-04T08:10:53.000Z</time>
      </trkpt>
      <trkpt lat="47.30115" lon="-2.33994">
        <ele>40.799999237061</ele>
        <time>2020-06-04T08:10:57.000Z</time>
      </trkpt>
      <trkpt lat="47.30118" lon="-2.3399">
        <ele>41.200000762939</ele>
        <time>2020-06-04T08:10:58.000Z</time>
      </trkpt>
      <trkpt lat="47.30122" lon="-2.33987">
        <ele>41.599998474121</ele>
        <time>2020-06-04T08:10:59.000Z</time>
      </trkpt>
      <trkpt lat="47.30125" lon="-2.33983">
        <ele>42</ele>
        <time>2020-06-04T08:11:00.000Z</time>
      </trkpt>
      <trkpt lat="47.30128" lon="-2.3398">
        <ele>42.400001525879</ele>
        <time>2020-06-04T08:11:01.000Z</time>
      </trkpt>
      <trkpt lat="47.30139" lon="-2.3397">
        <ele>42.400001525879</ele>
        <time>2020-06-04T08:11:04.000Z</time>
      </trkpt>
      <trkpt lat="47.30161" lon="-2.33952">
        <ele>42.400001525879</ele>
        <time>2020-06-04T08:11:10.000Z</time>
      </trkpt>
      <trkpt lat="47.30164" lon="-2.33949">
        <ele>42.799999237061</ele>
        <time>2020-06-04T08:11:11.000Z</time>
      </trkpt>
      <trkpt lat="47.30167" lon="-2.33946">
        <ele>43.200000762939</ele>
        <time>2020-06-04T08:11:12.000Z</time>
      </trkpt>
      <trkpt lat="47.30171" lon="-2.33943">
        <ele>43.599998474121</ele>
        <time>2020-06-04T08:11:13.000Z</time>
      </trkpt>
      <trkpt lat="47.30175" lon="-2.33938">
        <ele>44</ele>
        <time>2020-06-04T08:11:14.000Z</time>
      </trkpt>
      <trkpt lat="47.30178" lon="-2.33934">
        <ele>44.400001525879</ele>
        <time>2020-06-04T08:11:15.000Z</time>
      </trkpt>
      <trkpt lat="47.30182" lon="-2.33931">
        <ele>44.400001525879</ele>
        <time>2020-06-04T08:11:16.000Z</time>
      </trkpt>
      <trkpt lat="47.30209" lon="-2.33902">
        <ele>44.400001525879</ele>
        <time>2020-06-04T08:11:23.000Z</time>
      </trkpt>
      <trkpt lat="47.30229" lon="-2.33885">
        <ele>44.400001525879</ele>
        <time>2020-06-04T08:11:28.000Z</time>
      </trkpt>
      <trkpt lat="47.3025" lon="-2.33867">
        <ele>44.799999237061</ele>
        <time>2020-06-04T08:11:34.000Z</time>
      </trkpt>
      <trkpt lat="47.30254" lon="-2.33864">
        <ele>45.200000762939</ele>
        <time>2020-06-04T08:11:35.000Z</time>
      </trkpt>
      <trkpt lat="47.30258" lon="-2.3386">
        <ele>45.599998474121</ele>
        <time>2020-06-04T08:11:36.000Z</time>
      </trkpt>
      <trkpt lat="47.30263" lon="-2.33857">
        <ele>46</ele>
        <time>2020-06-04T08:11:37.000Z</time>
      </trkpt>
      <trkpt lat="47.30267" lon="-2.33854">
        <ele>46.599998474121</ele>
        <time>2020-06-04T08:11:38.000Z</time>
      </trkpt>
      <trkpt lat="47.30284" lon="-2.33842">
        <ele>46.599998474121</ele>
        <time>2020-06-04T08:11:42.000Z</time>
      </trkpt>
      <trkpt lat="47.30294" lon="-2.33834">
        <ele>47</ele>
        <time>2020-06-04T08:11:44.000Z</time>
      </trkpt>
      <trkpt lat="47.30299" lon="-2.33831">
        <ele>47.400001525879</ele>
        <time>2020-06-04T08:11:45.000Z</time>
      </trkpt>
      <trkpt lat="47.30304" lon="-2.33828">
        <ele>47.799999237061</ele>
        <time>2020-06-04T08:11:46.000Z</time>
      </trkpt>
      <trkpt lat="47.3031" lon="-2.33826">
        <ele>48.200000762939</ele>
        <time>2020-06-04T08:11:47.000Z</time>
      </trkpt>
      <trkpt lat="47.30315" lon="-2.33823">
        <ele>48.599998474121</ele>
        <time>2020-06-04T08:11:48.000Z</time>
      </trkpt>
      <trkpt lat="47.30333" lon="-2.33811">
        <ele>48.599998474121</ele>
        <time>2020-06-04T08:11:53.000Z</time>
      </trkpt>
      <trkpt lat="47.30351" lon="-2.33787">
        <ele>48.599998474121</ele>
        <time>2020-06-04T08:12:00.000Z</time>
      </trkpt>
      <trkpt lat="47.30368" lon="-2.33768">
        <ele>48.599998474121</ele>
        <time>2020-06-04T08:12:06.000Z</time>
      </trkpt>
      <trkpt lat="47.3037" lon="-2.33766">
        <ele>48.200000762939</ele>
        <time>2020-06-04T08:12:07.000Z</time>
      </trkpt>
      <trkpt lat="47.30372" lon="-2.33763">
        <ele>47.799999237061</ele>
        <time>2020-06-04T08:12:08.000Z</time>
      </trkpt>
      <trkpt lat="47.30374" lon="-2.3376">
        <ele>47.400001525879</ele>
        <time>2020-06-04T08:12:09.000Z</time>
      </trkpt>
      <trkpt lat="47.30375" lon="-2.33757">
        <ele>47</ele>
        <time>2020-06-04T08:12:10.000Z</time>
      </trkpt>
      <trkpt lat="47.30377" lon="-2.33754">
        <ele>46.599998474121</ele>
        <time>2020-06-04T08:12:11.000Z</time>
      </trkpt>
      <trkpt lat="47.30381" lon="-2.33749">
        <ele>46.599998474121</ele>
        <time>2020-06-04T08:12:13.000Z</time>
      </trkpt>
      <trkpt lat="47.30389" lon="-2.33736">
        <ele>46.599998474121</ele>
        <time>2020-06-04T08:12:18.000Z</time>
      </trkpt>
      <trkpt lat="47.30401" lon="-2.33713">
        <ele>46.599998474121</ele>
        <time>2020-06-04T08:12:23.000Z</time>
      </trkpt>
      <trkpt lat="47.30404" lon="-2.33707">
        <ele>46.599998474121</ele>
        <time>2020-06-04T08:12:24.000Z</time>
      </trkpt>
      <trkpt lat="47.30417" lon="-2.33694">
        <ele>46.599998474121</ele>
        <time>2020-06-04T08:12:27.000Z</time>
      </trkpt>
      <trkpt lat="47.30433" lon="-2.33686">
        <ele>46.599998474121</ele>
        <time>2020-06-04T08:12:30.000Z</time>
      </trkpt>
      <trkpt lat="47.30439" lon="-2.33683">
        <ele>46.599998474121</ele>
        <time>2020-06-04T08:12:31.000Z</time>
      </trkpt>
      <trkpt lat="47.30453" lon="-2.33674">
        <ele>46.599998474121</ele>
        <time>2020-06-04T08:12:34.000Z</time>
      </trkpt>
      <trkpt lat="47.30468" lon="-2.33666">
        <ele>46.599998474121</ele>
        <time>2020-06-04T08:12:37.000Z</time>
      </trkpt>
      <trkpt lat="47.30496" lon="-2.33652">
        <ele>46.599998474121</ele>
        <time>2020-06-04T08:12:42.000Z</time>
      </trkpt>
      <trkpt lat="47.30521" lon="-2.33646">
        <ele>46.599998474121</ele>
        <time>2020-06-04T08:12:46.000Z</time>
      </trkpt>
      <trkpt lat="47.30532" lon="-2.33645">
        <ele>46.599998474121</ele>
        <time>2020-06-04T08:12:48.000Z</time>
      </trkpt>
      <trkpt lat="47.30538" lon="-2.33645">
        <ele>46.599998474121</ele>
        <time>2020-06-04T08:12:49.000Z</time>
      </trkpt>
      <trkpt lat="47.30547" lon="-2.33647">
        <ele>46.599998474121</ele>
        <time>2020-06-04T08:12:51.000Z</time>
      </trkpt>
      <trkpt lat="47.3055" lon="-2.33652">
        <ele>46.599998474121</ele>
        <time>2020-06-04T08:12:52.000Z</time>
      </trkpt>
      <trkpt lat="47.3056" lon="-2.33682">
        <ele>46.599998474121</ele>
        <time>2020-06-04T08:12:57.000Z</time>
      </trkpt>
      <trkpt lat="47.30569" lon="-2.33734">
        <ele>46.599998474121</ele>
        <time>2020-06-04T08:13:04.000Z</time>
      </trkpt>
      <trkpt lat="47.30572" lon="-2.33747">
        <ele>46.599998474121</ele>
        <time>2020-06-04T08:13:06.000Z</time>
      </trkpt>
      <trkpt lat="47.30576" lon="-2.33767">
        <ele>46.599998474121</ele>
        <time>2020-06-04T08:13:09.000Z</time>
      </trkpt>
      <trkpt lat="47.3058" lon="-2.33788">
        <ele>46.599998474121</ele>
        <time>2020-06-04T08:13:12.000Z</time>
      </trkpt>
      <trkpt lat="47.30584" lon="-2.33808">
        <ele>46.599998474121</ele>
        <time>2020-06-04T08:13:15.000Z</time>
      </trkpt>
      <trkpt lat="47.30594" lon="-2.3384">
        <ele>46.599998474121</ele>
        <time>2020-06-04T08:13:21.000Z</time>
      </trkpt>
      <trkpt lat="47.30601" lon="-2.33868">
        <ele>46.599998474121</ele>
        <time>2020-06-04T08:13:27.000Z</time>
      </trkpt>
      <trkpt lat="47.306" lon="-2.33899">
        <ele>46.599998474121</ele>
        <time>2020-06-04T08:13:32.000Z</time>
      </trkpt>
      <trkpt lat="47.30605" lon="-2.33934">
        <ele>46.599998474121</ele>
        <time>2020-06-04T08:13:37.000Z</time>
      </trkpt>
      <trkpt lat="47.30607" lon="-2.33941">
        <ele>46.599998474121</ele>
        <time>2020-06-04T08:13:38.000Z</time>
      </trkpt>
      <trkpt lat="47.30616" lon="-2.33956">
        <ele>46.599998474121</ele>
        <time>2020-06-04T08:13:41.000Z</time>
      </trkpt>
      <trkpt lat="47.30628" lon="-2.3397">
        <ele>46.599998474121</ele>
        <time>2020-06-04T08:13:44.000Z</time>
      </trkpt>
      <trkpt lat="47.30635" lon="-2.33976">
        <ele>46.599998474121</ele>
        <time>2020-06-04T08:13:45.000Z</time>
      </trkpt>
      <trkpt lat="47.30649" lon="-2.33984">
        <ele>46.599998474121</ele>
        <time>2020-06-04T08:13:47.000Z</time>
      </trkpt>
      <trkpt lat="47.30661" lon="-2.33986">
        <ele>46.599998474121</ele>
        <time>2020-06-04T08:13:49.000Z</time>
      </trkpt>
      <trkpt lat="47.30672" lon="-2.33986">
        <ele>47</ele>
        <time>2020-06-04T08:13:51.000Z</time>
      </trkpt>
      <trkpt lat="47.30677" lon="-2.33986">
        <ele>47.400001525879</ele>
        <time>2020-06-04T08:13:52.000Z</time>
      </trkpt>
      <trkpt lat="47.30682" lon="-2.33986">
        <ele>47.799999237061</ele>
        <time>2020-06-04T08:13:53.000Z</time>
      </trkpt>
      <trkpt lat="47.30687" lon="-2.33986">
        <ele>48.200000762939</ele>
        <time>2020-06-04T08:13:54.000Z</time>
      </trkpt>
      <trkpt lat="47.30691" lon="-2.33985">
        <ele>48.599998474121</ele>
        <time>2020-06-04T08:13:55.000Z</time>
      </trkpt>
      <trkpt lat="47.30697" lon="-2.33986">
        <ele>48.599998474121</ele>
        <time>2020-06-04T08:13:57.000Z</time>
      </trkpt>
      <trkpt lat="47.30699" lon="-2.33987">
        <ele>48.599998474121</ele>
        <time>2020-06-04T08:13:58.000Z</time>
      </trkpt>
      <trkpt lat="47.30707" lon="-2.33991">
        <ele>48.599998474121</ele>
        <time>2020-06-04T08:14:03.000Z</time>
      </trkpt>
      <trkpt lat="47.30708" lon="-2.33991">
        <ele>48.599998474121</ele>
        <time>2020-06-04T08:14:04.000Z</time>
      </trkpt>
      <trkpt lat="47.30719" lon="-2.33988">
        <ele>48.599998474121</ele>
        <time>2020-06-04T08:14:11.000Z</time>
      </trkpt>
      <trkpt lat="47.30724" lon="-2.33987">
        <ele>48.599998474121</ele>
        <time>2020-06-04T08:14:14.000Z</time>
      </trkpt>
      <trkpt lat="47.30726" lon="-2.33986">
        <ele>48.599998474121</ele>
        <time>2020-06-04T08:14:16.000Z</time>
      </trkpt>
      <trkpt lat="47.30727" lon="-2.33985">
        <ele>48.599998474121</ele>
        <time>2020-06-04T08:14:17.000Z</time>
      </trkpt>
      <trkpt lat="47.30739" lon="-2.3398">
        <ele>48.599998474121</ele>
        <time>2020-06-04T08:14:24.000Z</time>
      </trkpt>
      <trkpt lat="47.30751" lon="-2.33977">
        <ele>48.599998474121</ele>
        <time>2020-06-04T08:14:32.000Z</time>
      </trkpt>
      <trkpt lat="47.30763" lon="-2.33974">
        <ele>48.599998474121</ele>
        <time>2020-06-04T08:14:40.000Z</time>
      </trkpt>
      <trkpt lat="47.30774" lon="-2.33972">
        <ele>48.599998474121</ele>
        <time>2020-06-04T08:14:47.000Z</time>
      </trkpt>
      <trkpt lat="47.30784" lon="-2.33969">
        <ele>48.599998474121</ele>
        <time>2020-06-04T08:14:55.000Z</time>
      </trkpt>
      <trkpt lat="47.30789" lon="-2.33967">
        <ele>48.599998474121</ele>
        <time>2020-06-04T08:16:04.000Z</time>
      </trkpt>
      <trkpt lat="47.30803" lon="-2.33964">
        <ele>48.599998474121</ele>
        <time>2020-06-04T08:16:10.000Z</time>
      </trkpt>
      <trkpt lat="47.3083" lon="-2.33956">
        <ele>48.599998474121</ele>
        <time>2020-06-04T08:16:18.000Z</time>
      </trkpt>
      <trkpt lat="47.30865" lon="-2.33949">
        <ele>48.599998474121</ele>
        <time>2020-06-04T08:16:27.000Z</time>
      </trkpt>
      <trkpt lat="47.3089" lon="-2.33946">
        <ele>48.599998474121</ele>
        <time>2020-06-04T08:16:35.000Z</time>
      </trkpt>
      <trkpt lat="47.30915" lon="-2.33944">
        <ele>48.599998474121</ele>
        <time>2020-06-04T08:16:42.000Z</time>
      </trkpt>
      <trkpt lat="47.30937" lon="-2.33948">
        <ele>48.599998474121</ele>
        <time>2020-06-04T08:16:49.000Z</time>
      </trkpt>
      <trkpt lat="47.30956" lon="-2.33951">
        <ele>48.599998474121</ele>
        <time>2020-06-04T08:16:55.000Z</time>
      </trkpt>
      <trkpt lat="47.30974" lon="-2.33954">
        <ele>48.599998474121</ele>
        <time>2020-06-04T08:16:59.000Z</time>
      </trkpt>
      <trkpt lat="47.30983" lon="-2.33955">
        <ele>48.599998474121</ele>
        <time>2020-06-04T08:17:01.000Z</time>
      </trkpt>
      <trkpt lat="47.3101" lon="-2.33952">
        <ele>48.599998474121</ele>
        <time>2020-06-04T08:17:07.000Z</time>
      </trkpt>
      <trkpt lat="47.31048" lon="-2.33945">
        <ele>48.599998474121</ele>
        <time>2020-06-04T08:17:15.000Z</time>
      </trkpt>
      <trkpt lat="47.31059" lon="-2.33943">
        <ele>48.599998474121</ele>
        <time>2020-06-04T08:17:19.000Z</time>
      </trkpt>
      <trkpt lat="47.31063" lon="-2.33946">
        <ele>48.599998474121</ele>
        <time>2020-06-04T08:17:23.000Z</time>
      </trkpt>
      <trkpt lat="47.31063" lon="-2.33949">
        <ele>48.599998474121</ele>
        <time>2020-06-04T08:17:24.000Z</time>
      </trkpt>
      <trkpt lat="47.31063" lon="-2.33972">
        <ele>48.599998474121</ele>
        <time>2020-06-04T08:17:30.000Z</time>
      </trkpt>
      <trkpt lat="47.31064" lon="-2.34005">
        <ele>48.599998474121</ele>
        <time>2020-06-04T08:17:36.000Z</time>
      </trkpt>
      <trkpt lat="47.31071" lon="-2.34065">
        <ele>48.599998474121</ele>
        <time>2020-06-04T08:17:45.000Z</time>
      </trkpt>
      <trkpt lat="47.31077" lon="-2.34087">
        <ele>48.200000762939</ele>
        <time>2020-06-04T08:17:48.000Z</time>
      </trkpt>
      <trkpt lat="47.3108" lon="-2.34096">
        <ele>47.799999237061</ele>
        <time>2020-06-04T08:17:49.000Z</time>
      </trkpt>
      <trkpt lat="47.31083" lon="-2.34103">
        <ele>47.400001525879</ele>
        <time>2020-06-04T08:17:50.000Z</time>
      </trkpt>
      <trkpt lat="47.31087" lon="-2.34111">
        <ele>46.799999237061</ele>
        <time>2020-06-04T08:17:51.000Z</time>
      </trkpt>
      <trkpt lat="47.3109" lon="-2.34119">
        <ele>46.400001525879</ele>
        <time>2020-06-04T08:17:52.000Z</time>
      </trkpt>
      <trkpt lat="47.31104" lon="-2.34143">
        <ele>46.400001525879</ele>
        <time>2020-06-04T08:17:55.000Z</time>
      </trkpt>
      <trkpt lat="47.31108" lon="-2.34152">
        <ele>46</ele>
        <time>2020-06-04T08:17:56.000Z</time>
      </trkpt>
      <trkpt lat="47.31113" lon="-2.34161">
        <ele>45.599998474121</ele>
        <time>2020-06-04T08:17:57.000Z</time>
      </trkpt>
      <trkpt lat="47.31118" lon="-2.3417">
        <ele>45.200000762939</ele>
        <time>2020-06-04T08:17:58.000Z</time>
      </trkpt>
      <trkpt lat="47.31123" lon="-2.3418">
        <ele>44.799999237061</ele>
        <time>2020-06-04T08:17:59.000Z</time>
      </trkpt>
      <trkpt lat="47.31128" lon="-2.34189">
        <ele>44.400001525879</ele>
        <time>2020-06-04T08:18:00.000Z</time>
      </trkpt>
      <trkpt lat="47.31133" lon="-2.34199">
        <ele>44.400001525879</ele>
        <time>2020-06-04T08:18:01.000Z</time>
      </trkpt>
      <trkpt lat="47.3115" lon="-2.34229">
        <ele>43.799999237061</ele>
        <time>2020-06-04T08:18:04.000Z</time>
      </trkpt>
      <trkpt lat="47.31155" lon="-2.34239">
        <ele>43.200000762939</ele>
        <time>2020-06-04T08:18:05.000Z</time>
      </trkpt>
      <trkpt lat="47.3116" lon="-2.34249">
        <ele>42.599998474121</ele>
        <time>2020-06-04T08:18:06.000Z</time>
      </trkpt>
      <trkpt lat="47.31165" lon="-2.34259">
        <ele>42</ele>
        <time>2020-06-04T08:18:07.000Z</time>
      </trkpt>
      <trkpt lat="47.3117" lon="-2.3427">
        <ele>41</ele>
        <time>2020-06-04T08:18:08.000Z</time>
      </trkpt>
      <trkpt lat="47.31174" lon="-2.3428">
        <ele>40.599998474121</ele>
        <time>2020-06-04T08:18:09.000Z</time>
      </trkpt>
      <trkpt lat="47.31179" lon="-2.34289">
        <ele>40.200000762939</ele>
        <time>2020-06-04T08:18:10.000Z</time>
      </trkpt>
      <trkpt lat="47.31183" lon="-2.34299">
        <ele>39.799999237061</ele>
        <time>2020-06-04T08:18:11.000Z</time>
      </trkpt>
      <trkpt lat="47.31188" lon="-2.34309">
        <ele>39.200000762939</ele>
        <time>2020-06-04T08:18:12.000Z</time>
      </trkpt>
      <trkpt lat="47.31193" lon="-2.34318">
        <ele>39.200000762939</ele>
        <time>2020-06-04T08:18:13.000Z</time>
      </trkpt>
      <trkpt lat="47.31205" lon="-2.34334">
        <ele>39.200000762939</ele>
        <time>2020-06-04T08:18:15.000Z</time>
      </trkpt>
      <trkpt lat="47.31212" lon="-2.34339">
        <ele>39.200000762939</ele>
        <time>2020-06-04T08:18:16.000Z</time>
      </trkpt>
      <trkpt lat="47.31235" lon="-2.34352">
        <ele>39.200000762939</ele>
        <time>2020-06-04T08:18:19.000Z</time>
      </trkpt>
      <trkpt lat="47.31243" lon="-2.34355">
        <ele>39.200000762939</ele>
        <time>2020-06-04T08:18:20.000Z</time>
      </trkpt>
      <trkpt lat="47.3125" lon="-2.3436">
        <ele>39.200000762939</ele>
        <time>2020-06-04T08:18:21.000Z</time>
      </trkpt>
      <trkpt lat="47.3126" lon="-2.34376">
        <ele>39.200000762939</ele>
        <time>2020-06-04T08:18:23.000Z</time>
      </trkpt>
      <trkpt lat="47.31269" lon="-2.34404">
        <ele>39.200000762939</ele>
        <time>2020-06-04T08:18:26.000Z</time>
      </trkpt>
      <trkpt lat="47.31271" lon="-2.34425">
        <ele>39.599998474121</ele>
        <time>2020-06-04T08:18:28.000Z</time>
      </trkpt>
      <trkpt lat="47.31272" lon="-2.34435">
        <ele>40.200000762939</ele>
        <time>2020-06-04T08:18:29.000Z</time>
      </trkpt>
      <trkpt lat="47.31273" lon="-2.34446">
        <ele>40.599998474121</ele>
        <time>2020-06-04T08:18:30.000Z</time>
      </trkpt>
      <trkpt lat="47.31274" lon="-2.34456">
        <ele>41</ele>
        <time>2020-06-04T08:18:31.000Z</time>
      </trkpt>
      <trkpt lat="47.31275" lon="-2.34467">
        <ele>41.400001525879</ele>
        <time>2020-06-04T08:18:32.000Z</time>
      </trkpt>
      <trkpt lat="47.31278" lon="-2.34487">
        <ele>41.799999237061</ele>
        <time>2020-06-04T08:18:34.000Z</time>
      </trkpt>
      <trkpt lat="47.31279" lon="-2.34497">
        <ele>42.400001525879</ele>
        <time>2020-06-04T08:18:35.000Z</time>
      </trkpt>
      <trkpt lat="47.3128" lon="-2.34506">
        <ele>42.799999237061</ele>
        <time>2020-06-04T08:18:36.000Z</time>
      </trkpt>
      <trkpt lat="47.3128" lon="-2.34515">
        <ele>43.200000762939</ele>
        <time>2020-06-04T08:18:37.000Z</time>
      </trkpt>
      <trkpt lat="47.31281" lon="-2.34525">
        <ele>43.599998474121</ele>
        <time>2020-06-04T08:18:38.000Z</time>
      </trkpt>
      <trkpt lat="47.31288" lon="-2.34586">
        <ele>43.599998474121</ele>
        <time>2020-06-04T08:18:45.000Z</time>
      </trkpt>
      <trkpt lat="47.31289" lon="-2.34601">
        <ele>43.599998474121</ele>
        <time>2020-06-04T08:18:47.000Z</time>
      </trkpt>
      <trkpt lat="47.31291" lon="-2.34622">
        <ele>43.599998474121</ele>
        <time>2020-06-04T08:18:50.000Z</time>
      </trkpt>
      <trkpt lat="47.31292" lon="-2.34629">
        <ele>44</ele>
        <time>2020-06-04T08:18:51.000Z</time>
      </trkpt>
      <trkpt lat="47.31292" lon="-2.34635">
        <ele>44.400001525879</ele>
        <time>2020-06-04T08:18:52.000Z</time>
      </trkpt>
      <trkpt lat="47.31293" lon="-2.34641">
        <ele>45</ele>
        <time>2020-06-04T08:18:53.000Z</time>
      </trkpt>
      <trkpt lat="47.31293" lon="-2.34646">
        <ele>45.400001525879</ele>
        <time>2020-06-04T08:18:54.000Z</time>
      </trkpt>
      <trkpt lat="47.31294" lon="-2.3465">
        <ele>45.799999237061</ele>
        <time>2020-06-04T08:18:55.000Z</time>
      </trkpt>
      <trkpt lat="47.31296" lon="-2.34653">
        <ele>45.799999237061</ele>
        <time>2020-06-04T08:18:56.000Z</time>
      </trkpt>
      <trkpt lat="47.31303" lon="-2.34666">
        <ele>45.799999237061</ele>
        <time>2020-06-04T08:19:00.000Z</time>
      </trkpt>
      <trkpt lat="47.31302" lon="-2.3467">
        <ele>45.799999237061</ele>
        <time>2020-06-04T08:19:01.000Z</time>
      </trkpt>
      <trkpt lat="47.31293" lon="-2.34681">
        <ele>45.799999237061</ele>
        <time>2020-06-04T08:19:04.000Z</time>
      </trkpt>
      <trkpt lat="47.31287" lon="-2.34689">
        <ele>45.799999237061</ele>
        <time>2020-06-04T08:19:06.000Z</time>
      </trkpt>
      <trkpt lat="47.31284" lon="-2.34693">
        <ele>45.799999237061</ele>
        <time>2020-06-04T08:19:07.000Z</time>
      </trkpt>
      <trkpt lat="47.31279" lon="-2.34708">
        <ele>45.799999237061</ele>
        <time>2020-06-04T08:19:10.000Z</time>
      </trkpt>
      <trkpt lat="47.31279" lon="-2.34714">
        <ele>46.200000762939</ele>
        <time>2020-06-04T08:19:11.000Z</time>
      </trkpt>
      <trkpt lat="47.31279" lon="-2.34721">
        <ele>46.799999237061</ele>
        <time>2020-06-04T08:19:12.000Z</time>
      </trkpt>
      <trkpt lat="47.31279" lon="-2.34727">
        <ele>47.200000762939</ele>
        <time>2020-06-04T08:19:13.000Z</time>
      </trkpt>
      <trkpt lat="47.3128" lon="-2.34733">
        <ele>47.599998474121</ele>
        <time>2020-06-04T08:19:14.000Z</time>
      </trkpt>
      <trkpt lat="47.31281" lon="-2.3474">
        <ele>48</ele>
        <time>2020-06-04T08:19:15.000Z</time>
      </trkpt>
      <trkpt lat="47.31288" lon="-2.34784">
        <ele>48</ele>
        <time>2020-06-04T08:19:22.000Z</time>
      </trkpt>
      <trkpt lat="47.31299" lon="-2.34837">
        <ele>48</ele>
        <time>2020-06-04T08:19:30.000Z</time>
      </trkpt>
      <trkpt lat="47.31302" lon="-2.3485">
        <ele>48.599998474121</ele>
        <time>2020-06-04T08:19:32.000Z</time>
      </trkpt>
      <trkpt lat="47.31303" lon="-2.34857">
        <ele>49</ele>
        <time>2020-06-04T08:19:33.000Z</time>
      </trkpt>
      <trkpt lat="47.31305" lon="-2.34864">
        <ele>49.400001525879</ele>
        <time>2020-06-04T08:19:34.000Z</time>
      </trkpt>
      <trkpt lat="47.31307" lon="-2.34871">
        <ele>50</ele>
        <time>2020-06-04T08:19:35.000Z</time>
      </trkpt>
      <trkpt lat="47.31309" lon="-2.34878">
        <ele>50.400001525879</ele>
        <time>2020-06-04T08:19:36.000Z</time>
      </trkpt>
      <trkpt lat="47.31314" lon="-2.34893">
        <ele>50.400001525879</ele>
        <time>2020-06-04T08:19:38.000Z</time>
      </trkpt>
      <trkpt lat="47.31331" lon="-2.34947">
        <ele>50.400001525879</ele>
        <time>2020-06-04T08:19:44.000Z</time>
      </trkpt>
      <trkpt lat="47.31342" lon="-2.35007">
        <ele>50.400001525879</ele>
        <time>2020-06-04T08:19:50.000Z</time>
      </trkpt>
      <trkpt lat="47.31343" lon="-2.35016">
        <ele>50</ele>
        <time>2020-06-04T08:19:51.000Z</time>
      </trkpt>
      <trkpt lat="47.31343" lon="-2.35026">
        <ele>49.599998474121</ele>
        <time>2020-06-04T08:19:52.000Z</time>
      </trkpt>
      <trkpt lat="47.31344" lon="-2.35035">
        <ele>49.200000762939</ele>
        <time>2020-06-04T08:19:53.000Z</time>
      </trkpt>
      <trkpt lat="47.31345" lon="-2.35044">
        <ele>48.799999237061</ele>
        <time>2020-06-04T08:19:54.000Z</time>
      </trkpt>
      <trkpt lat="47.31345" lon="-2.35054">
        <ele>48.400001525879</ele>
        <time>2020-06-04T08:19:55.000Z</time>
      </trkpt>
      <trkpt lat="47.31344" lon="-2.35133">
        <ele>48.400001525879</ele>
        <time>2020-06-04T08:20:03.000Z</time>
      </trkpt>
      <trkpt lat="47.31341" lon="-2.35203">
        <ele>48.400001525879</ele>
        <time>2020-06-04T08:20:10.000Z</time>
      </trkpt>
      <trkpt lat="47.31339" lon="-2.35251">
        <ele>48.400001525879</ele>
        <time>2020-06-04T08:20:15.000Z</time>
      </trkpt>
      <trkpt lat="47.31338" lon="-2.35331">
        <ele>48.400001525879</ele>
        <time>2020-06-04T08:20:23.000Z</time>
      </trkpt>
      <trkpt lat="47.31337" lon="-2.35391">
        <ele>48.400001525879</ele>
        <time>2020-06-04T08:20:29.000Z</time>
      </trkpt>
      <trkpt lat="47.31337" lon="-2.35428">
        <ele>48.400001525879</ele>
        <time>2020-06-04T08:20:33.000Z</time>
      </trkpt>
      <trkpt lat="47.31336" lon="-2.35446">
        <ele>48.400001525879</ele>
        <time>2020-06-04T08:20:35.000Z</time>
      </trkpt>
      <trkpt lat="47.31336" lon="-2.35494">
        <ele>48.400001525879</ele>
        <time>2020-06-04T08:20:40.000Z</time>
      </trkpt>
      <trkpt lat="47.31333" lon="-2.35534">
        <ele>48.400001525879</ele>
        <time>2020-06-04T08:20:44.000Z</time>
      </trkpt>
      <trkpt lat="47.31332" lon="-2.35556">
        <ele>48.400001525879</ele>
        <time>2020-06-04T08:20:46.000Z</time>
      </trkpt>
      <trkpt lat="47.31331" lon="-2.35577">
        <ele>48.400001525879</ele>
        <time>2020-06-04T08:20:48.000Z</time>
      </trkpt>
      <trkpt lat="47.31332" lon="-2.35604">
        <ele>48.400001525879</ele>
        <time>2020-06-04T08:20:51.000Z</time>
      </trkpt>
      <trkpt lat="47.31333" lon="-2.35637">
        <ele>48.799999237061</ele>
        <time>2020-06-04T08:20:55.000Z</time>
      </trkpt>
      <trkpt lat="47.31334" lon="-2.35645">
        <ele>49.200000762939</ele>
        <time>2020-06-04T08:20:56.000Z</time>
      </trkpt>
      <trkpt lat="47.31334" lon="-2.35652">
        <ele>49.599998474121</ele>
        <time>2020-06-04T08:20:57.000Z</time>
      </trkpt>
      <trkpt lat="47.31335" lon="-2.3566">
        <ele>50.200000762939</ele>
        <time>2020-06-04T08:20:58.000Z</time>
      </trkpt>
      <trkpt lat="47.31335" lon="-2.35668">
        <ele>50.599998474121</ele>
        <time>2020-06-04T08:20:59.000Z</time>
      </trkpt>
      <trkpt lat="47.31334" lon="-2.35718">
        <ele>50.599998474121</ele>
        <time>2020-06-04T08:21:05.000Z</time>
      </trkpt>
      <trkpt lat="47.31333" lon="-2.35751">
        <ele>50.599998474121</ele>
        <time>2020-06-04T08:21:09.000Z</time>
      </trkpt>
      <trkpt lat="47.31334" lon="-2.35768">
        <ele>50.599998474121</ele>
        <time>2020-06-04T08:21:11.000Z</time>
      </trkpt>
      <trkpt lat="47.3134" lon="-2.35833">
        <ele>50.599998474121</ele>
        <time>2020-06-04T08:21:18.000Z</time>
      </trkpt>
      <trkpt lat="47.31342" lon="-2.35853">
        <ele>50.599998474121</ele>
        <time>2020-06-04T08:21:20.000Z</time>
      </trkpt>
      <trkpt lat="47.31348" lon="-2.35872">
        <ele>50.599998474121</ele>
        <time>2020-06-04T08:21:22.000Z</time>
      </trkpt>
      <trkpt lat="47.31352" lon="-2.35881">
        <ele>50.599998474121</ele>
        <time>2020-06-04T08:21:23.000Z</time>
      </trkpt>
      <trkpt lat="47.3136" lon="-2.35897">
        <ele>50.200000762939</ele>
        <time>2020-06-04T08:21:25.000Z</time>
      </trkpt>
      <trkpt lat="47.31364" lon="-2.35905">
        <ele>49.799999237061</ele>
        <time>2020-06-04T08:21:26.000Z</time>
      </trkpt>
      <trkpt lat="47.31368" lon="-2.35913">
        <ele>49.400001525879</ele>
        <time>2020-06-04T08:21:27.000Z</time>
      </trkpt>
      <trkpt lat="47.31373" lon="-2.35921">
        <ele>49</ele>
        <time>2020-06-04T08:21:28.000Z</time>
      </trkpt>
      <trkpt lat="47.31378" lon="-2.35929">
        <ele>48.599998474121</ele>
        <time>2020-06-04T08:21:29.000Z</time>
      </trkpt>
      <trkpt lat="47.31394" lon="-2.35956">
        <ele>48.599998474121</ele>
        <time>2020-06-04T08:21:33.000Z</time>
      </trkpt>
      <trkpt lat="47.31406" lon="-2.35992">
        <ele>48.599998474121</ele>
        <time>2020-06-04T08:21:38.000Z</time>
      </trkpt>
      <trkpt lat="47.31415" lon="-2.36024">
        <ele>49</ele>
        <time>2020-06-04T08:21:43.000Z</time>
      </trkpt>
      <trkpt lat="47.31417" lon="-2.3603">
        <ele>49.400001525879</ele>
        <time>2020-06-04T08:21:44.000Z</time>
      </trkpt>
      <trkpt lat="47.3142" lon="-2.36036">
        <ele>49.799999237061</ele>
        <time>2020-06-04T08:21:45.000Z</time>
      </trkpt>
      <trkpt lat="47.31422" lon="-2.36042">
        <ele>50.400001525879</ele>
        <time>2020-06-04T08:21:46.000Z</time>
      </trkpt>
      <trkpt lat="47.31424" lon="-2.36048">
        <ele>50.799999237061</ele>
        <time>2020-06-04T08:21:47.000Z</time>
      </trkpt>
      <trkpt lat="47.31428" lon="-2.3606">
        <ele>50.799999237061</ele>
        <time>2020-06-04T08:21:49.000Z</time>
      </trkpt>
      <trkpt lat="47.31437" lon="-2.36087">
        <ele>50.799999237061</ele>
        <time>2020-06-04T08:21:53.000Z</time>
      </trkpt>
      <trkpt lat="47.3144" lon="-2.36093">
        <ele>51.200000762939</ele>
        <time>2020-06-04T08:21:54.000Z</time>
      </trkpt>
      <trkpt lat="47.31442" lon="-2.36099">
        <ele>51.599998474121</ele>
        <time>2020-06-04T08:21:55.000Z</time>
      </trkpt>
      <trkpt lat="47.31445" lon="-2.36105">
        <ele>52</ele>
        <time>2020-06-04T08:21:56.000Z</time>
      </trkpt>
      <trkpt lat="47.31448" lon="-2.36111">
        <ele>52.400001525879</ele>
        <time>2020-06-04T08:21:57.000Z</time>
      </trkpt>
      <trkpt lat="47.3145" lon="-2.36118">
        <ele>52.799999237061</ele>
        <time>2020-06-04T08:21:58.000Z</time>
      </trkpt>
      <trkpt lat="47.31454" lon="-2.36131">
        <ele>52.799999237061</ele>
        <time>2020-06-04T08:22:00.000Z</time>
      </trkpt>
      <trkpt lat="47.31464" lon="-2.3616">
        <ele>52.799999237061</ele>
        <time>2020-06-04T08:22:05.000Z</time>
      </trkpt>
      <trkpt lat="47.31467" lon="-2.36162">
        <ele>52.799999237061</ele>
        <time>2020-06-04T08:22:06.000Z</time>
      </trkpt>
      <trkpt lat="47.31476" lon="-2.36155">
        <ele>52.799999237061</ele>
        <time>2020-06-04T08:22:09.000Z</time>
      </trkpt>
      <trkpt lat="47.31486" lon="-2.36144">
        <ele>52.799999237061</ele>
        <time>2020-06-04T08:22:12.000Z</time>
      </trkpt>
      <trkpt lat="47.31494" lon="-2.36136">
        <ele>52.799999237061</ele>
        <time>2020-06-04T08:22:14.000Z</time>
      </trkpt>
      <trkpt lat="47.3151" lon="-2.36117">
        <ele>52.799999237061</ele>
        <time>2020-06-04T08:22:18.000Z</time>
      </trkpt>
      <trkpt lat="47.31519" lon="-2.36108">
        <ele>52.799999237061</ele>
        <time>2020-06-04T08:22:20.000Z</time>
      </trkpt>
      <trkpt lat="47.31543" lon="-2.36083">
        <ele>52.799999237061</ele>
        <time>2020-06-04T08:22:26.000Z</time>
      </trkpt>
      <trkpt lat="47.31562" lon="-2.36064">
        <ele>52.799999237061</ele>
        <time>2020-06-04T08:22:31.000Z</time>
      </trkpt>
      <trkpt lat="47.3159" lon="-2.36038">
        <ele>52.799999237061</ele>
        <time>2020-06-04T08:22:37.000Z</time>
      </trkpt>
      <trkpt lat="47.31611" lon="-2.36018">
        <ele>52.400001525879</ele>
        <time>2020-06-04T08:22:41.000Z</time>
      </trkpt>
      <trkpt lat="47.31615" lon="-2.36012">
        <ele>52</ele>
        <time>2020-06-04T08:22:42.000Z</time>
      </trkpt>
      <trkpt lat="47.3162" lon="-2.36007">
        <ele>51.599998474121</ele>
        <time>2020-06-04T08:22:43.000Z</time>
      </trkpt>
      <trkpt lat="47.31625" lon="-2.36002">
        <ele>51.200000762939</ele>
        <time>2020-06-04T08:22:44.000Z</time>
      </trkpt>
      <trkpt lat="47.3163" lon="-2.35996">
        <ele>50.799999237061</ele>
        <time>2020-06-04T08:22:45.000Z</time>
      </trkpt>
      <trkpt lat="47.31648" lon="-2.35976">
        <ele>50.799999237061</ele>
        <time>2020-06-04T08:22:49.000Z</time>
      </trkpt>
      <trkpt lat="47.31653" lon="-2.35972">
        <ele>50.799999237061</ele>
        <time>2020-06-04T08:22:50.000Z</time>
      </trkpt>
      <trkpt lat="47.31689" lon="-2.35949">
        <ele>50.799999237061</ele>
        <time>2020-06-04T08:22:56.000Z</time>
      </trkpt>
      <trkpt lat="47.31727" lon="-2.35928">
        <ele>50.400001525879</ele>
        <time>2020-06-04T08:23:02.000Z</time>
      </trkpt>
      <trkpt lat="47.31734" lon="-2.35924">
        <ele>49.799999237061</ele>
        <time>2020-06-04T08:23:03.000Z</time>
      </trkpt>
      <trkpt lat="47.31741" lon="-2.3592">
        <ele>48.799999237061</ele>
        <time>2020-06-04T08:23:04.000Z</time>
      </trkpt>
      <trkpt lat="47.31748" lon="-2.35916">
        <ele>48.400001525879</ele>
        <time>2020-06-04T08:23:05.000Z</time>
      </trkpt>
      <trkpt lat="47.31767" lon="-2.35905">
        <ele>48.400001525879</ele>
        <time>2020-06-04T08:23:08.000Z</time>
      </trkpt>
      <trkpt lat="47.318" lon="-2.35887">
        <ele>48.400001525879</ele>
        <time>2020-06-04T08:23:13.000Z</time>
      </trkpt>
      <trkpt lat="47.31811" lon="-2.35883">
        <ele>48</ele>
        <time>2020-06-04T08:23:15.000Z</time>
      </trkpt>
      <trkpt lat="47.31816" lon="-2.3588">
        <ele>47.599998474121</ele>
        <time>2020-06-04T08:23:16.000Z</time>
      </trkpt>
      <trkpt lat="47.31821" lon="-2.35878">
        <ele>47.200000762939</ele>
        <time>2020-06-04T08:23:17.000Z</time>
      </trkpt>
      <trkpt lat="47.31825" lon="-2.35872">
        <ele>46.599998474121</ele>
        <time>2020-06-04T08:23:18.000Z</time>
      </trkpt>
      <trkpt lat="47.31827" lon="-2.35866">
        <ele>46.200000762939</ele>
        <time>2020-06-04T08:23:19.000Z</time>
      </trkpt>
      <trkpt lat="47.31824" lon="-2.35852">
        <ele>46.200000762939</ele>
        <time>2020-06-04T08:23:21.000Z</time>
      </trkpt>
      <trkpt lat="47.31812" lon="-2.35832">
        <ele>46.200000762939</ele>
        <time>2020-06-04T08:23:25.000Z</time>
      </trkpt>
      <trkpt lat="47.31805" lon="-2.35822">
        <ele>46.200000762939</ele>
        <time>2020-06-04T08:23:27.000Z</time>
      </trkpt>
      <trkpt lat="47.31801" lon="-2.35818">
        <ele>46.200000762939</ele>
        <time>2020-06-04T08:23:28.000Z</time>
      </trkpt>
      <trkpt lat="47.31797" lon="-2.35814">
        <ele>46.200000762939</ele>
        <time>2020-06-04T08:23:29.000Z</time>
      </trkpt>
      <trkpt lat="47.31785" lon="-2.35798">
        <ele>46.200000762939</ele>
        <time>2020-06-04T08:23:32.000Z</time>
      </trkpt>
      <trkpt lat="47.3178" lon="-2.35784">
        <ele>46.200000762939</ele>
        <time>2020-06-04T08:23:34.000Z</time>
      </trkpt>
      <trkpt lat="47.31775" lon="-2.35759">
        <ele>46.200000762939</ele>
        <time>2020-06-04T08:23:37.000Z</time>
      </trkpt>
      <trkpt lat="47.31776" lon="-2.35749">
        <ele>46.200000762939</ele>
        <time>2020-06-04T08:23:38.000Z</time>
      </trkpt>
      <trkpt lat="47.31779" lon="-2.35687">
        <ele>46.200000762939</ele>
        <time>2020-06-04T08:23:44.000Z</time>
      </trkpt>
      <trkpt lat="47.31781" lon="-2.35664">
        <ele>45.799999237061</ele>
        <time>2020-06-04T08:23:46.000Z</time>
      </trkpt>
      <trkpt lat="47.31782" lon="-2.35653">
        <ele>45.400001525879</ele>
        <time>2020-06-04T08:23:47.000Z</time>
      </trkpt>
      <trkpt lat="47.31784" lon="-2.35644">
        <ele>45</ele>
        <time>2020-06-04T08:23:48.000Z</time>
      </trkpt>
      <trkpt lat="47.31786" lon="-2.35634">
        <ele>44.599998474121</ele>
        <time>2020-06-04T08:23:49.000Z</time>
      </trkpt>
      <trkpt lat="47.3179" lon="-2.35625">
        <ele>44</ele>
        <time>2020-06-04T08:23:50.000Z</time>
      </trkpt>
      <trkpt lat="47.31798" lon="-2.35608">
        <ele>43.599998474121</ele>
        <time>2020-06-04T08:23:52.000Z</time>
      </trkpt>
      <trkpt lat="47.31801" lon="-2.35598">
        <ele>43.200000762939</ele>
        <time>2020-06-04T08:23:53.000Z</time>
      </trkpt>
      <trkpt lat="47.31804" lon="-2.35589">
        <ele>42.400001525879</ele>
        <time>2020-06-04T08:23:54.000Z</time>
      </trkpt>
      <trkpt lat="47.31808" lon="-2.35583">
        <ele>42</ele>
        <time>2020-06-04T08:23:55.000Z</time>
      </trkpt>
      <trkpt lat="47.31817" lon="-2.35569">
        <ele>42</ele>
        <time>2020-06-04T08:23:57.000Z</time>
      </trkpt>
      <trkpt lat="47.3183" lon="-2.35555">
        <ele>42</ele>
        <time>2020-06-04T08:24:00.000Z</time>
      </trkpt>
      <trkpt lat="47.31836" lon="-2.35546">
        <ele>42</ele>
        <time>2020-06-04T08:24:02.000Z</time>
      </trkpt>
      <trkpt lat="47.31835" lon="-2.35541">
        <ele>41.599998474121</ele>
        <time>2020-06-04T08:24:03.000Z</time>
      </trkpt>
      <trkpt lat="47.31834" lon="-2.35536">
        <ele>41.200000762939</ele>
        <time>2020-06-04T08:24:04.000Z</time>
      </trkpt>
      <trkpt lat="47.31831" lon="-2.35531">
        <ele>40.599998474121</ele>
        <time>2020-06-04T08:24:05.000Z</time>
      </trkpt>
      <trkpt lat="47.3183" lon="-2.35527">
        <ele>40.200000762939</ele>
        <time>2020-06-04T08:24:06.000Z</time>
      </trkpt>
      <trkpt lat="47.31827" lon="-2.35522">
        <ele>39.799999237061</ele>
        <time>2020-06-04T08:24:07.000Z</time>
      </trkpt>
      <trkpt lat="47.31825" lon="-2.35517">
        <ele>39.799999237061</ele>
        <time>2020-06-04T08:24:08.000Z</time>
      </trkpt>
      <trkpt lat="47.31817" lon="-2.355">
        <ele>39.799999237061</ele>
        <time>2020-06-04T08:24:11.000Z</time>
      </trkpt>
      <trkpt lat="47.31797" lon="-2.35461">
        <ele>39.799999237061</ele>
        <time>2020-06-04T08:24:18.000Z</time>
      </trkpt>
      <trkpt lat="47.31781" lon="-2.35433">
        <ele>40.200000762939</ele>
        <time>2020-06-04T08:24:24.000Z</time>
      </trkpt>
      <trkpt lat="47.31779" lon="-2.35428">
        <ele>40.799999237061</ele>
        <time>2020-06-04T08:24:25.000Z</time>
      </trkpt>
      <trkpt lat="47.31777" lon="-2.35423">
        <ele>41.200000762939</ele>
        <time>2020-06-04T08:24:26.000Z</time>
      </trkpt>
      <trkpt lat="47.31774" lon="-2.35419">
        <ele>41.599998474121</ele>
        <time>2020-06-04T08:24:27.000Z</time>
      </trkpt>
      <trkpt lat="47.31771" lon="-2.35413">
        <ele>42</ele>
        <time>2020-06-04T08:24:28.000Z</time>
      </trkpt>
      <trkpt lat="47.31767" lon="-2.35407">
        <ele>42</ele>
        <time>2020-06-04T08:24:29.000Z</time>
      </trkpt>
      <trkpt lat="47.31753" lon="-2.35378">
        <ele>42</ele>
        <time>2020-06-04T08:24:35.000Z</time>
      </trkpt>
      <trkpt lat="47.31753" lon="-2.35358">
        <ele>42.400001525879</ele>
        <time>2020-06-04T08:24:39.000Z</time>
      </trkpt>
      <trkpt lat="47.31755" lon="-2.35354">
        <ele>42.799999237061</ele>
        <time>2020-06-04T08:24:40.000Z</time>
      </trkpt>
      <trkpt lat="47.31758" lon="-2.35349">
        <ele>43.200000762939</ele>
        <time>2020-06-04T08:24:41.000Z</time>
      </trkpt>
      <trkpt lat="47.31762" lon="-2.35344">
        <ele>43.599998474121</ele>
        <time>2020-06-04T08:24:42.000Z</time>
      </trkpt>
      <trkpt lat="47.31768" lon="-2.35339">
        <ele>44</ele>
        <time>2020-06-04T08:24:43.000Z</time>
      </trkpt>
      <trkpt lat="47.31773" lon="-2.35335">
        <ele>44</ele>
        <time>2020-06-04T08:24:44.000Z</time>
      </trkpt>
      <trkpt lat="47.31779" lon="-2.35331">
        <ele>44</ele>
        <time>2020-06-04T08:24:45.000Z</time>
      </trkpt>
      <trkpt lat="47.31803" lon="-2.35318">
        <ele>44</ele>
        <time>2020-06-04T08:24:49.000Z</time>
      </trkpt>
      <trkpt lat="47.3181" lon="-2.35313">
        <ele>43.599998474121</ele>
        <time>2020-06-04T08:24:50.000Z</time>
      </trkpt>
      <trkpt lat="47.31816" lon="-2.35308">
        <ele>43.200000762939</ele>
        <time>2020-06-04T08:24:51.000Z</time>
      </trkpt>
      <trkpt lat="47.31824" lon="-2.35303">
        <ele>42.799999237061</ele>
        <time>2020-06-04T08:24:52.000Z</time>
      </trkpt>
      <trkpt lat="47.31832" lon="-2.35298">
        <ele>42.400001525879</ele>
        <time>2020-06-04T08:24:53.000Z</time>
      </trkpt>
      <trkpt lat="47.31839" lon="-2.35293">
        <ele>42</ele>
        <time>2020-06-04T08:24:54.000Z</time>
      </trkpt>
      <trkpt lat="47.3188" lon="-2.35261">
        <ele>41.599998474121</ele>
        <time>2020-06-04T08:25:00.000Z</time>
      </trkpt>
      <trkpt lat="47.31887" lon="-2.35255">
        <ele>41.200000762939</ele>
        <time>2020-06-04T08:25:01.000Z</time>
      </trkpt>
      <trkpt lat="47.31894" lon="-2.35249">
        <ele>40.799999237061</ele>
        <time>2020-06-04T08:25:02.000Z</time>
      </trkpt>
      <trkpt lat="47.31901" lon="-2.35243">
        <ele>40.400001525879</ele>
        <time>2020-06-04T08:25:03.000Z</time>
      </trkpt>
      <trkpt lat="47.31908" lon="-2.35238">
        <ele>40</ele>
        <time>2020-06-04T08:25:04.000Z</time>
      </trkpt>
      <trkpt lat="47.31921" lon="-2.35225">
        <ele>40</ele>
        <time>2020-06-04T08:25:06.000Z</time>
      </trkpt>
      <trkpt lat="47.31972" lon="-2.35177">
        <ele>40</ele>
        <time>2020-06-04T08:25:14.000Z</time>
      </trkpt>
      <trkpt lat="47.31978" lon="-2.35171">
        <ele>40</ele>
        <time>2020-06-04T08:25:15.000Z</time>
      </trkpt>
      <trkpt lat="47.32002" lon="-2.35147">
        <ele>39.599998474121</ele>
        <time>2020-06-04T08:25:19.000Z</time>
      </trkpt>
      <trkpt lat="47.32009" lon="-2.35141">
        <ele>39.200000762939</ele>
        <time>2020-06-04T08:25:20.000Z</time>
      </trkpt>
      <trkpt lat="47.32017" lon="-2.35135">
        <ele>38.799999237061</ele>
        <time>2020-06-04T08:25:21.000Z</time>
      </trkpt>
      <trkpt lat="47.32023" lon="-2.35128">
        <ele>38.400001525879</ele>
        <time>2020-06-04T08:25:22.000Z</time>
      </trkpt>
      <trkpt lat="47.32027" lon="-2.35121">
        <ele>37.799999237061</ele>
        <time>2020-06-04T08:25:23.000Z</time>
      </trkpt>
      <trkpt lat="47.32032" lon="-2.35103">
        <ele>37.799999237061</ele>
        <time>2020-06-04T08:25:25.000Z</time>
      </trkpt>
      <trkpt lat="47.3203" lon="-2.35079">
        <ele>37.799999237061</ele>
        <time>2020-06-04T08:25:28.000Z</time>
      </trkpt>
      <trkpt lat="47.32033" lon="-2.35062">
        <ele>37.799999237061</ele>
        <time>2020-06-04T08:25:32.000Z</time>
      </trkpt>
      <trkpt lat="47.32044" lon="-2.35062">
        <ele>37.799999237061</ele>
        <time>2020-06-04T08:25:36.000Z</time>
      </trkpt>
      <trkpt lat="47.32066" lon="-2.35061">
        <ele>37.799999237061</ele>
        <time>2020-06-04T08:25:40.000Z</time>
      </trkpt>
      <trkpt lat="47.32104" lon="-2.3506">
        <ele>37.799999237061</ele>
        <time>2020-06-04T08:25:47.000Z</time>
      </trkpt>
      <trkpt lat="47.32132" lon="-2.35059">
        <ele>37.799999237061</ele>
        <time>2020-06-04T08:25:53.000Z</time>
      </trkpt>
      <trkpt lat="47.32156" lon="-2.35056">
        <ele>37.799999237061</ele>
        <time>2020-06-04T08:25:59.000Z</time>
      </trkpt>
      <trkpt lat="47.32183" lon="-2.35055">
        <ele>37.799999237061</ele>
        <time>2020-06-04T08:26:05.000Z</time>
      </trkpt>
      <trkpt lat="47.32218" lon="-2.35055">
        <ele>37.799999237061</ele>
        <time>2020-06-04T08:26:12.000Z</time>
      </trkpt>
      <trkpt lat="47.32245" lon="-2.3505">
        <ele>37.799999237061</ele>
        <time>2020-06-04T08:26:18.000Z</time>
      </trkpt>
      <trkpt lat="47.32279" lon="-2.35045">
        <ele>37.799999237061</ele>
        <time>2020-06-04T08:26:25.000Z</time>
      </trkpt>
      <trkpt lat="47.32287" lon="-2.35044">
        <ele>38.400001525879</ele>
        <time>2020-06-04T08:26:27.000Z</time>
      </trkpt>
      <trkpt lat="47.32291" lon="-2.35044">
        <ele>38.799999237061</ele>
        <time>2020-06-04T08:26:28.000Z</time>
      </trkpt>
      <trkpt lat="47.32295" lon="-2.35044">
        <ele>39.200000762939</ele>
        <time>2020-06-04T08:26:29.000Z</time>
      </trkpt>
      <trkpt lat="47.32299" lon="-2.35045">
        <ele>39.599998474121</ele>
        <time>2020-06-04T08:26:30.000Z</time>
      </trkpt>
      <trkpt lat="47.32304" lon="-2.35045">
        <ele>40</ele>
        <time>2020-06-04T08:26:31.000Z</time>
      </trkpt>
      <trkpt lat="47.32336" lon="-2.35044">
        <ele>40</ele>
        <time>2020-06-04T08:26:38.000Z</time>
      </trkpt>
      <trkpt lat="47.32346" lon="-2.35045">
        <ele>40</ele>
        <time>2020-06-04T08:26:40.000Z</time>
      </trkpt>
      <trkpt lat="47.32373" lon="-2.35047">
        <ele>40</ele>
        <time>2020-06-04T08:26:46.000Z</time>
      </trkpt>
      <trkpt lat="47.32383" lon="-2.35046">
        <ele>40.599998474121</ele>
        <time>2020-06-04T08:26:48.000Z</time>
      </trkpt>
      <trkpt lat="47.32387" lon="-2.35046">
        <ele>41</ele>
        <time>2020-06-04T08:26:49.000Z</time>
      </trkpt>
      <trkpt lat="47.32391" lon="-2.35045">
        <ele>41.400001525879</ele>
        <time>2020-06-04T08:26:50.000Z</time>
      </trkpt>
      <trkpt lat="47.32395" lon="-2.35045">
        <ele>41.799999237061</ele>
        <time>2020-06-04T08:26:51.000Z</time>
      </trkpt>
      <trkpt lat="47.324" lon="-2.35045">
        <ele>42.200000762939</ele>
        <time>2020-06-04T08:26:52.000Z</time>
      </trkpt>
      <trkpt lat="47.32405" lon="-2.35044">
        <ele>42.200000762939</ele>
        <time>2020-06-04T08:26:53.000Z</time>
      </trkpt>
      <trkpt lat="47.32439" lon="-2.35044">
        <ele>42.200000762939</ele>
        <time>2020-06-04T08:27:01.000Z</time>
      </trkpt>
      <trkpt lat="47.32462" lon="-2.35036">
        <ele>42.200000762939</ele>
        <time>2020-06-04T08:27:06.000Z</time>
      </trkpt>
      <trkpt lat="47.32466" lon="-2.35035">
        <ele>42.200000762939</ele>
        <time>2020-06-04T08:27:07.000Z</time>
      </trkpt>
      <trkpt lat="47.32489" lon="-2.35028">
        <ele>42.200000762939</ele>
        <time>2020-06-04T08:27:12.000Z</time>
      </trkpt>
      <trkpt lat="47.32498" lon="-2.35026">
        <ele>42.200000762939</ele>
        <time>2020-06-04T08:27:14.000Z</time>
      </trkpt>
      <trkpt lat="47.32527" lon="-2.35019">
        <ele>42.200000762939</ele>
        <time>2020-06-04T08:27:20.000Z</time>
      </trkpt>
      <trkpt lat="47.32573" lon="-2.34999">
        <ele>42.200000762939</ele>
        <time>2020-06-04T08:27:29.000Z</time>
      </trkpt>
      <trkpt lat="47.32591" lon="-2.34991">
        <ele>41.799999237061</ele>
        <time>2020-06-04T08:27:33.000Z</time>
      </trkpt>
      <trkpt lat="47.32596" lon="-2.34989">
        <ele>41.400001525879</ele>
        <time>2020-06-04T08:27:34.000Z</time>
      </trkpt>
      <trkpt lat="47.32601" lon="-2.34987">
        <ele>41</ele>
        <time>2020-06-04T08:27:35.000Z</time>
      </trkpt>
      <trkpt lat="47.32605" lon="-2.34984">
        <ele>40.599998474121</ele>
        <time>2020-06-04T08:27:36.000Z</time>
      </trkpt>
      <trkpt lat="47.32608" lon="-2.34981">
        <ele>40.200000762939</ele>
        <time>2020-06-04T08:27:37.000Z</time>
      </trkpt>
      <trkpt lat="47.32622" lon="-2.34975">
        <ele>40.200000762939</ele>
        <time>2020-06-04T08:27:41.000Z</time>
      </trkpt>
      <trkpt lat="47.32644" lon="-2.34967">
        <ele>40.200000762939</ele>
        <time>2020-06-04T08:27:48.000Z</time>
      </trkpt>
      <trkpt lat="47.32652" lon="-2.34957">
        <ele>40.200000762939</ele>
        <time>2020-06-04T08:27:52.000Z</time>
      </trkpt>
      <trkpt lat="47.32675" lon="-2.34941">
        <ele>40.200000762939</ele>
        <time>2020-06-04T08:27:59.000Z</time>
      </trkpt>
      <trkpt lat="47.32706" lon="-2.34918">
        <ele>40.200000762939</ele>
        <time>2020-06-04T08:28:06.000Z</time>
      </trkpt>
      <trkpt lat="47.32725" lon="-2.34905">
        <ele>39.799999237061</ele>
        <time>2020-06-04T08:28:10.000Z</time>
      </trkpt>
      <trkpt lat="47.32729" lon="-2.34901">
        <ele>39.200000762939</ele>
        <time>2020-06-04T08:28:11.000Z</time>
      </trkpt>
      <trkpt lat="47.32734" lon="-2.34898">
        <ele>38.799999237061</ele>
        <time>2020-06-04T08:28:12.000Z</time>
      </trkpt>
      <trkpt lat="47.32739" lon="-2.34894">
        <ele>38</ele>
        <time>2020-06-04T08:28:13.000Z</time>
      </trkpt>
      <trkpt lat="47.32754" lon="-2.34883">
        <ele>38</ele>
        <time>2020-06-04T08:28:16.000Z</time>
      </trkpt>
      <trkpt lat="47.32792" lon="-2.34853">
        <ele>38</ele>
        <time>2020-06-04T08:28:24.000Z</time>
      </trkpt>
      <trkpt lat="47.32815" lon="-2.34835">
        <ele>38</ele>
        <time>2020-06-04T08:28:29.000Z</time>
      </trkpt>
      <trkpt lat="47.32859" lon="-2.34803">
        <ele>38</ele>
        <time>2020-06-04T08:28:38.000Z</time>
      </trkpt>
      <trkpt lat="47.32863" lon="-2.348">
        <ele>37.599998474121</ele>
        <time>2020-06-04T08:28:39.000Z</time>
      </trkpt>
      <trkpt lat="47.32868" lon="-2.34796">
        <ele>37.200000762939</ele>
        <time>2020-06-04T08:28:40.000Z</time>
      </trkpt>
      <trkpt lat="47.32873" lon="-2.34792">
        <ele>36.799999237061</ele>
        <time>2020-06-04T08:28:41.000Z</time>
      </trkpt>
      <trkpt lat="47.32878" lon="-2.34789">
        <ele>36.400001525879</ele>
        <time>2020-06-04T08:28:42.000Z</time>
      </trkpt>
      <trkpt lat="47.32883" lon="-2.34786">
        <ele>36</ele>
        <time>2020-06-04T08:28:43.000Z</time>
      </trkpt>
      <trkpt lat="47.32888" lon="-2.34785">
        <ele>36</ele>
        <time>2020-06-04T08:28:44.000Z</time>
      </trkpt>
      <trkpt lat="47.32901" lon="-2.3479">
        <ele>36</ele>
        <time>2020-06-04T08:28:48.000Z</time>
      </trkpt>
      <trkpt lat="47.32914" lon="-2.34808">
        <ele>36</ele>
        <time>2020-06-04T08:28:53.000Z</time>
      </trkpt>
      <trkpt lat="47.32917" lon="-2.34816">
        <ele>36</ele>
        <time>2020-06-04T08:28:55.000Z</time>
      </trkpt>
      <trkpt lat="47.32926" lon="-2.34835">
        <ele>36</ele>
        <time>2020-06-04T08:28:59.000Z</time>
      </trkpt>
      <trkpt lat="47.32934" lon="-2.34853">
        <ele>36</ele>
        <time>2020-06-04T08:29:02.000Z</time>
      </trkpt>
      <trkpt lat="47.32942" lon="-2.3487">
        <ele>36</ele>
        <time>2020-06-04T08:29:05.000Z</time>
      </trkpt>
      <trkpt lat="47.32954" lon="-2.34899">
        <ele>36</ele>
        <time>2020-06-04T08:29:10.000Z</time>
      </trkpt>
      <trkpt lat="47.32957" lon="-2.34905">
        <ele>36</ele>
        <time>2020-06-04T08:29:11.000Z</time>
      </trkpt>
      <trkpt lat="47.3297" lon="-2.34936">
        <ele>36</ele>
        <time>2020-06-04T08:29:16.000Z</time>
      </trkpt>
      <trkpt lat="47.32976" lon="-2.34955">
        <ele>36</ele>
        <time>2020-06-04T08:29:20.000Z</time>
      </trkpt>
      <trkpt lat="47.32986" lon="-2.3498">
        <ele>36</ele>
        <time>2020-06-04T08:29:26.000Z</time>
      </trkpt>
      <trkpt lat="47.32987" lon="-2.34984">
        <ele>36.799999237061</ele>
        <time>2020-06-04T08:29:27.000Z</time>
      </trkpt>
      <trkpt lat="47.32988" lon="-2.34989">
        <ele>37.200000762939</ele>
        <time>2020-06-04T08:29:28.000Z</time>
      </trkpt>
      <trkpt lat="47.32989" lon="-2.34993">
        <ele>37.599998474121</ele>
        <time>2020-06-04T08:29:29.000Z</time>
      </trkpt>
      <trkpt lat="47.3299" lon="-2.34997">
        <ele>38</ele>
        <time>2020-06-04T08:29:30.000Z</time>
      </trkpt>
      <trkpt lat="47.32992" lon="-2.35005">
        <ele>38</ele>
        <time>2020-06-04T08:29:32.000Z</time>
      </trkpt>
      <trkpt lat="47.33" lon="-2.35028">
        <ele>38</ele>
        <time>2020-06-04T08:29:38.000Z</time>
      </trkpt>
      <trkpt lat="47.33007" lon="-2.35051">
        <ele>38</ele>
        <time>2020-06-04T08:29:44.000Z</time>
      </trkpt>
      <trkpt lat="47.33014" lon="-2.35078">
        <ele>38</ele>
        <time>2020-06-04T08:29:50.000Z</time>
      </trkpt>
      <trkpt lat="47.33019" lon="-2.35103">
        <ele>38</ele>
        <time>2020-06-04T08:29:56.000Z</time>
      </trkpt>
      <trkpt lat="47.3302" lon="-2.35118">
        <ele>38.400001525879</ele>
        <time>2020-06-04T08:30:00.000Z</time>
      </trkpt>
      <trkpt lat="47.33019" lon="-2.35125">
        <ele>38.799999237061</ele>
        <time>2020-06-04T08:30:01.000Z</time>
      </trkpt>
      <trkpt lat="47.3302" lon="-2.35131">
        <ele>39.200000762939</ele>
        <time>2020-06-04T08:30:02.000Z</time>
      </trkpt>
      <trkpt lat="47.33021" lon="-2.35138">
        <ele>39.599998474121</ele>
        <time>2020-06-04T08:30:03.000Z</time>
      </trkpt>
      <trkpt lat="47.33022" lon="-2.35145">
        <ele>40</ele>
        <time>2020-06-04T08:30:04.000Z</time>
      </trkpt>
      <trkpt lat="47.33027" lon="-2.35185">
        <ele>40</ele>
        <time>2020-06-04T08:30:11.000Z</time>
      </trkpt>
      <trkpt lat="47.33025" lon="-2.35222">
        <ele>40</ele>
        <time>2020-06-04T08:30:18.000Z</time>
      </trkpt>
      <trkpt lat="47.33028" lon="-2.35251">
        <ele>40</ele>
        <time>2020-06-04T08:30:23.000Z</time>
      </trkpt>
      <trkpt lat="47.33028" lon="-2.35257">
        <ele>40</ele>
        <time>2020-06-04T08:30:24.000Z</time>
      </trkpt>
      <trkpt lat="47.33027" lon="-2.35296">
        <ele>40</ele>
        <time>2020-06-04T08:30:29.000Z</time>
      </trkpt>
      <trkpt lat="47.33029" lon="-2.35332">
        <ele>40</ele>
        <time>2020-06-04T08:30:34.000Z</time>
      </trkpt>
      <trkpt lat="47.33029" lon="-2.35339">
        <ele>40</ele>
        <time>2020-06-04T08:30:35.000Z</time>
      </trkpt>
      <trkpt lat="47.33033" lon="-2.35371">
        <ele>40</ele>
        <time>2020-06-04T08:30:39.000Z</time>
      </trkpt>
      <trkpt lat="47.33034" lon="-2.35379">
        <ele>40</ele>
        <time>2020-06-04T08:30:40.000Z</time>
      </trkpt>
      <trkpt lat="47.33035" lon="-2.35406">
        <ele>40</ele>
        <time>2020-06-04T08:30:43.000Z</time>
      </trkpt>
      <trkpt lat="47.33035" lon="-2.35423">
        <ele>40</ele>
        <time>2020-06-04T08:30:45.000Z</time>
      </trkpt>
      <trkpt lat="47.33035" lon="-2.35431">
        <ele>40</ele>
        <time>2020-06-04T08:30:46.000Z</time>
      </trkpt>
      <trkpt lat="47.33035" lon="-2.35446">
        <ele>40</ele>
        <time>2020-06-04T08:30:48.000Z</time>
      </trkpt>
      <trkpt lat="47.33035" lon="-2.35454">
        <ele>40</ele>
        <time>2020-06-04T08:30:49.000Z</time>
      </trkpt>
      <trkpt lat="47.33032" lon="-2.35485">
        <ele>40</ele>
        <time>2020-06-04T08:30:53.000Z</time>
      </trkpt>
      <trkpt lat="47.33032" lon="-2.35493">
        <ele>39.599998474121</ele>
        <time>2020-06-04T08:30:54.000Z</time>
      </trkpt>
      <trkpt lat="47.33031" lon="-2.355">
        <ele>39.200000762939</ele>
        <time>2020-06-04T08:30:55.000Z</time>
      </trkpt>
      <trkpt lat="47.3303" lon="-2.35506">
        <ele>38.799999237061</ele>
        <time>2020-06-04T08:30:56.000Z</time>
      </trkpt>
      <trkpt lat="47.3303" lon="-2.35513">
        <ele>38.200000762939</ele>
        <time>2020-06-04T08:30:57.000Z</time>
      </trkpt>
      <trkpt lat="47.33029" lon="-2.35519">
        <ele>37.799999237061</ele>
        <time>2020-06-04T08:30:58.000Z</time>
      </trkpt>
      <trkpt lat="47.33029" lon="-2.35525">
        <ele>37.799999237061</ele>
        <time>2020-06-04T08:30:59.000Z</time>
      </trkpt>
      <trkpt lat="47.3303" lon="-2.35556">
        <ele>37.799999237061</ele>
        <time>2020-06-04T08:31:04.000Z</time>
      </trkpt>
      <trkpt lat="47.3303" lon="-2.35564">
        <ele>37.799999237061</ele>
        <time>2020-06-04T08:31:05.000Z</time>
      </trkpt>
      <trkpt lat="47.33027" lon="-2.35588">
        <ele>37.799999237061</ele>
        <time>2020-06-04T08:31:08.000Z</time>
      </trkpt>
      <trkpt lat="47.33026" lon="-2.35597">
        <ele>37.400001525879</ele>
        <time>2020-06-04T08:31:09.000Z</time>
      </trkpt>
      <trkpt lat="47.33025" lon="-2.35606">
        <ele>37</ele>
        <time>2020-06-04T08:31:10.000Z</time>
      </trkpt>
      <trkpt lat="47.33024" lon="-2.35615">
        <ele>36.599998474121</ele>
        <time>2020-06-04T08:31:11.000Z</time>
      </trkpt>
      <trkpt lat="47.33022" lon="-2.35625">
        <ele>36.200000762939</ele>
        <time>2020-06-04T08:31:12.000Z</time>
      </trkpt>
      <trkpt lat="47.33022" lon="-2.35634">
        <ele>35.599998474121</ele>
        <time>2020-06-04T08:31:13.000Z</time>
      </trkpt>
      <trkpt lat="47.33021" lon="-2.35644">
        <ele>35.599998474121</ele>
        <time>2020-06-04T08:31:14.000Z</time>
      </trkpt>
      <trkpt lat="47.33013" lon="-2.35695">
        <ele>35.599998474121</ele>
        <time>2020-06-04T08:31:19.000Z</time>
      </trkpt>
      <trkpt lat="47.3301" lon="-2.35755">
        <ele>35.599998474121</ele>
        <time>2020-06-04T08:31:25.000Z</time>
      </trkpt>
      <trkpt lat="47.33012" lon="-2.35763">
        <ele>35.599998474121</ele>
        <time>2020-06-04T08:31:26.000Z</time>
      </trkpt>
      <trkpt lat="47.33016" lon="-2.3578">
        <ele>35.599998474121</ele>
        <time>2020-06-04T08:31:28.000Z</time>
      </trkpt>
      <trkpt lat="47.33019" lon="-2.35788">
        <ele>35.599998474121</ele>
        <time>2020-06-04T08:31:29.000Z</time>
      </trkpt>
      <trkpt lat="47.33028" lon="-2.35798">
        <ele>35.599998474121</ele>
        <time>2020-06-04T08:31:31.000Z</time>
      </trkpt>
      <trkpt lat="47.33051" lon="-2.35805">
        <ele>35.599998474121</ele>
        <time>2020-06-04T08:31:35.000Z</time>
      </trkpt>
      <trkpt lat="47.3309" lon="-2.35805">
        <ele>36.200000762939</ele>
        <time>2020-06-04T08:31:41.000Z</time>
      </trkpt>
      <trkpt lat="47.33096" lon="-2.35805">
        <ele>36.599998474121</ele>
        <time>2020-06-04T08:31:42.000Z</time>
      </trkpt>
      <trkpt lat="47.33102" lon="-2.35805">
        <ele>37</ele>
        <time>2020-06-04T08:31:43.000Z</time>
      </trkpt>
      <trkpt lat="47.33108" lon="-2.35806">
        <ele>37.599998474121</ele>
        <time>2020-06-04T08:31:44.000Z</time>
      </trkpt>
      <trkpt lat="47.33113" lon="-2.35806">
        <ele>38</ele>
        <time>2020-06-04T08:31:45.000Z</time>
      </trkpt>
      <trkpt lat="47.33136" lon="-2.35806">
        <ele>38</ele>
        <time>2020-06-04T08:31:49.000Z</time>
      </trkpt>
      <trkpt lat="47.3319" lon="-2.35815">
        <ele>38</ele>
        <time>2020-06-04T08:31:58.000Z</time>
      </trkpt>
      <trkpt lat="47.33213" lon="-2.35821">
        <ele>38.400001525879</ele>
        <time>2020-06-04T08:32:02.000Z</time>
      </trkpt>
      <trkpt lat="47.33219" lon="-2.35823">
        <ele>38.799999237061</ele>
        <time>2020-06-04T08:32:03.000Z</time>
      </trkpt>
      <trkpt lat="47.33224" lon="-2.35824">
        <ele>39.200000762939</ele>
        <time>2020-06-04T08:32:04.000Z</time>
      </trkpt>
      <trkpt lat="47.33229" lon="-2.35826">
        <ele>39.599998474121</ele>
        <time>2020-06-04T08:32:05.000Z</time>
      </trkpt>
      <trkpt lat="47.33233" lon="-2.35829">
        <ele>40</ele>
        <time>2020-06-04T08:32:06.000Z</time>
      </trkpt>
      <trkpt lat="47.3325" lon="-2.35839">
        <ele>40.400001525879</ele>
        <time>2020-06-04T08:32:10.000Z</time>
      </trkpt>
      <trkpt lat="47.33254" lon="-2.35843">
        <ele>41</ele>
        <time>2020-06-04T08:32:11.000Z</time>
      </trkpt>
      <trkpt lat="47.33258" lon="-2.35847">
        <ele>41.400001525879</ele>
        <time>2020-06-04T08:32:12.000Z</time>
      </trkpt>
      <trkpt lat="47.33261" lon="-2.35851">
        <ele>41.799999237061</ele>
        <time>2020-06-04T08:32:13.000Z</time>
      </trkpt>
      <trkpt lat="47.33264" lon="-2.35855">
        <ele>42.200000762939</ele>
        <time>2020-06-04T08:32:14.000Z</time>
      </trkpt>
      <trkpt lat="47.33267" lon="-2.35858">
        <ele>42.200000762939</ele>
        <time>2020-06-04T08:32:15.000Z</time>
      </trkpt>
      <trkpt lat="47.33274" lon="-2.35866">
        <ele>42.200000762939</ele>
        <time>2020-06-04T08:32:17.000Z</time>
      </trkpt>
      <trkpt lat="47.33277" lon="-2.3587">
        <ele>42.799999237061</ele>
        <time>2020-06-04T08:32:18.000Z</time>
      </trkpt>
      <trkpt lat="47.33281" lon="-2.35874">
        <ele>43.200000762939</ele>
        <time>2020-06-04T08:32:19.000Z</time>
      </trkpt>
      <trkpt lat="47.33285" lon="-2.35877">
        <ele>43.599998474121</ele>
        <time>2020-06-04T08:32:20.000Z</time>
      </trkpt>
      <trkpt lat="47.33288" lon="-2.3588">
        <ele>44.400001525879</ele>
        <time>2020-06-04T08:32:21.000Z</time>
      </trkpt>
      <trkpt lat="47.33297" lon="-2.35884">
        <ele>44.400001525879</ele>
        <time>2020-06-04T08:32:23.000Z</time>
      </trkpt>
      <trkpt lat="47.33307" lon="-2.35891">
        <ele>44.400001525879</ele>
        <time>2020-06-04T08:32:26.000Z</time>
      </trkpt>
      <trkpt lat="47.3331" lon="-2.35896">
        <ele>44.400001525879</ele>
        <time>2020-06-04T08:32:27.000Z</time>
      </trkpt>
      <trkpt lat="47.33317" lon="-2.35921">
        <ele>44.799999237061</ele>
        <time>2020-06-04T08:32:31.000Z</time>
      </trkpt>
      <trkpt lat="47.33319" lon="-2.35928">
        <ele>45.200000762939</ele>
        <time>2020-06-04T08:32:32.000Z</time>
      </trkpt>
      <trkpt lat="47.33321" lon="-2.35934">
        <ele>45.599998474121</ele>
        <time>2020-06-04T08:32:33.000Z</time>
      </trkpt>
      <trkpt lat="47.33322" lon="-2.35941">
        <ele>46</ele>
        <time>2020-06-04T08:32:34.000Z</time>
      </trkpt>
      <trkpt lat="47.33323" lon="-2.35947">
        <ele>46.400001525879</ele>
        <time>2020-06-04T08:32:35.000Z</time>
      </trkpt>
      <trkpt lat="47.33323" lon="-2.35961">
        <ele>46.400001525879</ele>
        <time>2020-06-04T08:32:37.000Z</time>
      </trkpt>
      <trkpt lat="47.33319" lon="-2.35982">
        <ele>46.400001525879</ele>
        <time>2020-06-04T08:32:40.000Z</time>
      </trkpt>
      <trkpt lat="47.33316" lon="-2.36003">
        <ele>46.400001525879</ele>
        <time>2020-06-04T08:32:43.000Z</time>
      </trkpt>
      <trkpt lat="47.33313" lon="-2.3604">
        <ele>46.400001525879</ele>
        <time>2020-06-04T08:32:48.000Z</time>
      </trkpt>
      <trkpt lat="47.33311" lon="-2.36101">
        <ele>46.400001525879</ele>
        <time>2020-06-04T08:32:56.000Z</time>
      </trkpt>
      <trkpt lat="47.33311" lon="-2.36164">
        <ele>46.400001525879</ele>
        <time>2020-06-04T08:33:03.000Z</time>
      </trkpt>
      <trkpt lat="47.33311" lon="-2.36206">
        <ele>46.400001525879</ele>
        <time>2020-06-04T08:33:08.000Z</time>
      </trkpt>
      <trkpt lat="47.33313" lon="-2.36211">
        <ele>46.400001525879</ele>
        <time>2020-06-04T08:33:09.000Z</time>
      </trkpt>
      <trkpt lat="47.33319" lon="-2.36214">
        <ele>46.400001525879</ele>
        <time>2020-06-04T08:33:11.000Z</time>
      </trkpt>
      <trkpt lat="47.33333" lon="-2.36204">
        <ele>46.400001525879</ele>
        <time>2020-06-04T08:33:15.000Z</time>
      </trkpt>
      <trkpt lat="47.33337" lon="-2.36202">
        <ele>46.400001525879</ele>
        <time>2020-06-04T08:33:16.000Z</time>
      </trkpt>
      <trkpt lat="47.3337" lon="-2.36179">
        <ele>46.400001525879</ele>
        <time>2020-06-04T08:33:25.000Z</time>
      </trkpt>
      <trkpt lat="47.33402" lon="-2.3616">
        <ele>46.400001525879</ele>
        <time>2020-06-04T08:33:33.000Z</time>
      </trkpt>
      <trkpt lat="47.33406" lon="-2.3616">
        <ele>46.400001525879</ele>
        <time>2020-06-04T08:33:34.000Z</time>
      </trkpt>
      <trkpt lat="47.33409" lon="-2.36164">
        <ele>46.400001525879</ele>
        <time>2020-06-04T08:33:36.000Z</time>
      </trkpt>
      <trkpt lat="47.33415" lon="-2.36189">
        <ele>46.400001525879</ele>
        <time>2020-06-04T08:33:41.000Z</time>
      </trkpt>
      <trkpt lat="47.33414" lon="-2.36217">
        <ele>46.400001525879</ele>
        <time>2020-06-04T08:33:45.000Z</time>
      </trkpt>
      <trkpt lat="47.33412" lon="-2.36225">
        <ele>46.400001525879</ele>
        <time>2020-06-04T08:33:46.000Z</time>
      </trkpt>
      <trkpt lat="47.33411" lon="-2.36232">
        <ele>46.400001525879</ele>
        <time>2020-06-04T08:33:47.000Z</time>
      </trkpt>
      <trkpt lat="47.33411" lon="-2.36257">
        <ele>46.400001525879</ele>
        <time>2020-06-04T08:33:50.000Z</time>
      </trkpt>
      <trkpt lat="47.33416" lon="-2.36297">
        <ele>46.400001525879</ele>
        <time>2020-06-04T08:33:55.000Z</time>
      </trkpt>
      <trkpt lat="47.33418" lon="-2.36305">
        <ele>46.400001525879</ele>
        <time>2020-06-04T08:33:56.000Z</time>
      </trkpt>
      <trkpt lat="47.33425" lon="-2.3633">
        <ele>46</ele>
        <time>2020-06-04T08:34:00.000Z</time>
      </trkpt>
      <trkpt lat="47.33427" lon="-2.36335">
        <ele>45.599998474121</ele>
        <time>2020-06-04T08:34:01.000Z</time>
      </trkpt>
      <trkpt lat="47.33429" lon="-2.3634">
        <ele>45.200000762939</ele>
        <time>2020-06-04T08:34:02.000Z</time>
      </trkpt>
      <trkpt lat="47.33431" lon="-2.36346">
        <ele>44.799999237061</ele>
        <time>2020-06-04T08:34:03.000Z</time>
      </trkpt>
      <trkpt lat="47.33433" lon="-2.36352">
        <ele>44.400001525879</ele>
        <time>2020-06-04T08:34:04.000Z</time>
      </trkpt>
      <trkpt lat="47.33435" lon="-2.36358">
        <ele>44.400001525879</ele>
        <time>2020-06-04T08:34:05.000Z</time>
      </trkpt>
      <trkpt lat="47.33437" lon="-2.36363">
        <ele>44.400001525879</ele>
        <time>2020-06-04T08:34:06.000Z</time>
      </trkpt>
      <trkpt lat="47.33441" lon="-2.36375">
        <ele>44.400001525879</ele>
        <time>2020-06-04T08:34:08.000Z</time>
      </trkpt>
      <trkpt lat="47.33444" lon="-2.36386">
        <ele>44.400001525879</ele>
        <time>2020-06-04T08:34:10.000Z</time>
      </trkpt>
      <trkpt lat="47.33448" lon="-2.36399">
        <ele>44</ele>
        <time>2020-06-04T08:34:13.000Z</time>
      </trkpt>
      <trkpt lat="47.33449" lon="-2.36402">
        <ele>43.599998474121</ele>
        <time>2020-06-04T08:34:14.000Z</time>
      </trkpt>
      <trkpt lat="47.33452" lon="-2.36404">
        <ele>43</ele>
        <time>2020-06-04T08:34:15.000Z</time>
      </trkpt>
      <trkpt lat="47.33456" lon="-2.36406">
        <ele>42.599998474121</ele>
        <time>2020-06-04T08:34:16.000Z</time>
      </trkpt>
      <trkpt lat="47.3346" lon="-2.36407">
        <ele>42.200000762939</ele>
        <time>2020-06-04T08:34:17.000Z</time>
      </trkpt>
      <trkpt lat="47.33469" lon="-2.36414">
        <ele>42.200000762939</ele>
        <time>2020-06-04T08:34:20.000Z</time>
      </trkpt>
      <trkpt lat="47.3347" lon="-2.36418">
        <ele>42.200000762939</ele>
        <time>2020-06-04T08:34:21.000Z</time>
      </trkpt>
      <trkpt lat="47.33474" lon="-2.36439">
        <ele>42.200000762939</ele>
        <time>2020-06-04T08:34:25.000Z</time>
      </trkpt>
      <trkpt lat="47.33475" lon="-2.36463">
        <ele>42.200000762939</ele>
        <time>2020-06-04T08:34:28.000Z</time>
      </trkpt>
      <trkpt lat="47.33474" lon="-2.36479">
        <ele>42.200000762939</ele>
        <time>2020-06-04T08:34:30.000Z</time>
      </trkpt>
      <trkpt lat="47.33473" lon="-2.36539">
        <ele>41.799999237061</ele>
        <time>2020-06-04T08:34:37.000Z</time>
      </trkpt>
      <trkpt lat="47.33473" lon="-2.36547">
        <ele>41.400001525879</ele>
        <time>2020-06-04T08:34:38.000Z</time>
      </trkpt>
      <trkpt lat="47.33473" lon="-2.36554">
        <ele>41</ele>
        <time>2020-06-04T08:34:39.000Z</time>
      </trkpt>
      <trkpt lat="47.33472" lon="-2.36562">
        <ele>40.599998474121</ele>
        <time>2020-06-04T08:34:40.000Z</time>
      </trkpt>
      <trkpt lat="47.33473" lon="-2.3657">
        <ele>40.200000762939</ele>
        <time>2020-06-04T08:34:41.000Z</time>
      </trkpt>
      <trkpt lat="47.33478" lon="-2.36585">
        <ele>40.200000762939</ele>
        <time>2020-06-04T08:34:42.000Z</time>
      </trkpt>
      <trkpt lat="47.33478" lon="-2.36585">
        <ele>40.200000762939</ele>
        <time>2020-06-04T08:34:45.000Z</time>
      </trkpt>
      <trkpt lat="47.33485" lon="-2.3659">
        <ele>40.200000762939</ele>
        <time>2020-06-04T08:34:47.000Z</time>
      </trkpt>
      <trkpt lat="47.3349" lon="-2.36591">
        <ele>40.200000762939</ele>
        <time>2020-06-04T08:34:48.000Z</time>
      </trkpt>
      <trkpt lat="47.33505" lon="-2.36599">
        <ele>40.200000762939</ele>
        <time>2020-06-04T08:34:52.000Z</time>
      </trkpt>
      <trkpt lat="47.33512" lon="-2.36605">
        <ele>40.200000762939</ele>
        <time>2020-06-04T08:34:54.000Z</time>
      </trkpt>
      <trkpt lat="47.33524" lon="-2.36613">
        <ele>40.200000762939</ele>
        <time>2020-06-04T08:34:57.000Z</time>
      </trkpt>
      <trkpt lat="47.3353" lon="-2.3662">
        <ele>39.799999237061</ele>
        <time>2020-06-04T08:34:59.000Z</time>
      </trkpt>
      <trkpt lat="47.33532" lon="-2.36624">
        <ele>39.400001525879</ele>
        <time>2020-06-04T08:35:00.000Z</time>
      </trkpt>
      <trkpt lat="47.33535" lon="-2.36626">
        <ele>39</ele>
        <time>2020-06-04T08:35:01.000Z</time>
      </trkpt>
      <trkpt lat="47.33537" lon="-2.3663">
        <ele>38.400001525879</ele>
        <time>2020-06-04T08:35:02.000Z</time>
      </trkpt>
      <trkpt lat="47.33539" lon="-2.36633">
        <ele>37.799999237061</ele>
        <time>2020-06-04T08:35:03.000Z</time>
      </trkpt>
      <trkpt lat="47.3354" lon="-2.36637">
        <ele>37.200000762939</ele>
        <time>2020-06-04T08:35:04.000Z</time>
      </trkpt>
      <trkpt lat="47.33538" lon="-2.36642">
        <ele>36.400001525879</ele>
        <time>2020-06-04T08:35:05.000Z</time>
      </trkpt>
      <trkpt lat="47.33536" lon="-2.36648">
        <ele>35.799999237061</ele>
        <time>2020-06-04T08:35:06.000Z</time>
      </trkpt>
      <trkpt lat="47.33533" lon="-2.36652">
        <ele>35</ele>
        <time>2020-06-04T08:35:07.000Z</time>
      </trkpt>
      <trkpt lat="47.33529" lon="-2.36656">
        <ele>34.200000762939</ele>
        <time>2020-06-04T08:35:08.000Z</time>
      </trkpt>
      <trkpt lat="47.33525" lon="-2.36661">
        <ele>33.400001525879</ele>
        <time>2020-06-04T08:35:09.000Z</time>
      </trkpt>
      <trkpt lat="47.33522" lon="-2.36666">
        <ele>33.400001525879</ele>
        <time>2020-06-04T08:35:10.000Z</time>
      </trkpt>
      <trkpt lat="47.33515" lon="-2.36677">
        <ele>33.400001525879</ele>
        <time>2020-06-04T08:35:12.000Z</time>
      </trkpt>
      <trkpt lat="47.33498" lon="-2.36705">
        <ele>33.400001525879</ele>
        <time>2020-06-04T08:35:17.000Z</time>
      </trkpt>
      <trkpt lat="47.33485" lon="-2.36735">
        <ele>33.400001525879</ele>
        <time>2020-06-04T08:35:22.000Z</time>
      </trkpt>
      <trkpt lat="47.33472" lon="-2.36776">
        <ele>33.400001525879</ele>
        <time>2020-06-04T08:35:28.000Z</time>
      </trkpt>
      <trkpt lat="47.33469" lon="-2.36793">
        <ele>33.400001525879</ele>
        <time>2020-06-04T08:35:30.000Z</time>
      </trkpt>
      <trkpt lat="47.33467" lon="-2.36818">
        <ele>33.400001525879</ele>
        <time>2020-06-04T08:35:33.000Z</time>
      </trkpt>
      <trkpt lat="47.33459" lon="-2.36854">
        <ele>33.400001525879</ele>
        <time>2020-06-04T08:35:38.000Z</time>
      </trkpt>
      <trkpt lat="47.33458" lon="-2.3686">
        <ele>33.400001525879</ele>
        <time>2020-06-04T08:35:39.000Z</time>
      </trkpt>
      <trkpt lat="47.33459" lon="-2.36894">
        <ele>33.400001525879</ele>
        <time>2020-06-04T08:35:44.000Z</time>
      </trkpt>
      <trkpt lat="47.33462" lon="-2.36908">
        <ele>33.400001525879</ele>
        <time>2020-06-04T08:35:46.000Z</time>
      </trkpt>
      <trkpt lat="47.33463" lon="-2.36916">
        <ele>33.400001525879</ele>
        <time>2020-06-04T08:35:47.000Z</time>
      </trkpt>
      <trkpt lat="47.33463" lon="-2.36946">
        <ele>33.400001525879</ele>
        <time>2020-06-04T08:35:51.000Z</time>
      </trkpt>
      <trkpt lat="47.33462" lon="-2.36961">
        <ele>33.400001525879</ele>
        <time>2020-06-04T08:35:53.000Z</time>
      </trkpt>
      <trkpt lat="47.33462" lon="-2.36979">
        <ele>33.400001525879</ele>
        <time>2020-06-04T08:35:56.000Z</time>
      </trkpt>
      <trkpt lat="47.33471" lon="-2.36992">
        <ele>33.400001525879</ele>
        <time>2020-06-04T08:36:00.000Z</time>
      </trkpt>
      <trkpt lat="47.33473" lon="-2.37004">
        <ele>33.400001525879</ele>
        <time>2020-06-04T08:36:04.000Z</time>
      </trkpt>
      <trkpt lat="47.33473" lon="-2.37008">
        <ele>33.400001525879</ele>
        <time>2020-06-04T08:36:05.000Z</time>
      </trkpt>
      <trkpt lat="47.3347" lon="-2.37024">
        <ele>33.799999237061</ele>
        <time>2020-06-04T08:36:11.000Z</time>
      </trkpt>
      <trkpt lat="47.3347" lon="-2.37026">
        <ele>34.200000762939</ele>
        <time>2020-06-04T08:36:12.000Z</time>
      </trkpt>
      <trkpt lat="47.33471" lon="-2.37029">
        <ele>34.599998474121</ele>
        <time>2020-06-04T08:36:13.000Z</time>
      </trkpt>
      <trkpt lat="47.33471" lon="-2.37031">
        <ele>35</ele>
        <time>2020-06-04T08:36:14.000Z</time>
      </trkpt>
      <trkpt lat="47.3347" lon="-2.37033">
        <ele>35.400001525879</ele>
        <time>2020-06-04T08:36:15.000Z</time>
      </trkpt>
      <trkpt lat="47.33468" lon="-2.37034">
        <ele>35.400001525879</ele>
        <time>2020-06-04T08:36:17.000Z</time>
      </trkpt>
      <trkpt lat="47.33467" lon="-2.37033">
        <ele>35.400001525879</ele>
        <time>2020-06-04T08:36:19.000Z</time>
      </trkpt>
      <trkpt lat="47.33468" lon="-2.3703">
        <ele>35.400001525879</ele>
        <time>2020-06-04T08:36:21.000Z</time>
      </trkpt>
      <trkpt lat="47.3347" lon="-2.37036">
        <ele>35.400001525879</ele>
        <time>2020-06-04T08:36:24.000Z</time>
      </trkpt>
      <trkpt lat="47.3347" lon="-2.37056">
        <ele>35.400001525879</ele>
        <time>2020-06-04T08:36:28.000Z</time>
      </trkpt>
      <trkpt lat="47.33473" lon="-2.37101">
        <ele>35.400001525879</ele>
        <time>2020-06-04T08:36:36.000Z</time>
      </trkpt>
      <trkpt lat="47.33478" lon="-2.37132">
        <ele>35.400001525879</ele>
        <time>2020-06-04T08:36:42.000Z</time>
      </trkpt>
      <trkpt lat="47.33483" lon="-2.37158">
        <ele>36</ele>
        <time>2020-06-04T08:36:47.000Z</time>
      </trkpt>
      <trkpt lat="47.33484" lon="-2.37163">
        <ele>36.400001525879</ele>
        <time>2020-06-04T08:36:48.000Z</time>
      </trkpt>
      <trkpt lat="47.33485" lon="-2.37169">
        <ele>36.799999237061</ele>
        <time>2020-06-04T08:36:49.000Z</time>
      </trkpt>
      <trkpt lat="47.33486" lon="-2.37174">
        <ele>37.200000762939</ele>
        <time>2020-06-04T08:36:50.000Z</time>
      </trkpt>
      <trkpt lat="47.33486" lon="-2.37179">
        <ele>37.599998474121</ele>
        <time>2020-06-04T08:36:51.000Z</time>
      </trkpt>
      <trkpt lat="47.33488" lon="-2.37197">
        <ele>37.599998474121</ele>
        <time>2020-06-04T08:36:54.000Z</time>
      </trkpt>
      <trkpt lat="47.33492" lon="-2.37217">
        <ele>37.599998474121</ele>
        <time>2020-06-04T08:36:57.000Z</time>
      </trkpt>
      <trkpt lat="47.33496" lon="-2.37227">
        <ele>38</ele>
        <time>2020-06-04T08:36:59.000Z</time>
      </trkpt>
      <trkpt lat="47.33498" lon="-2.3723">
        <ele>38.400001525879</ele>
        <time>2020-06-04T08:37:00.000Z</time>
      </trkpt>
      <trkpt lat="47.33502" lon="-2.37231">
        <ele>38.799999237061</ele>
        <time>2020-06-04T08:37:01.000Z</time>
      </trkpt>
      <trkpt lat="47.33505" lon="-2.37232">
        <ele>39.200000762939</ele>
        <time>2020-06-04T08:37:02.000Z</time>
      </trkpt>
      <trkpt lat="47.33509" lon="-2.37232">
        <ele>39.599998474121</ele>
        <time>2020-06-04T08:37:03.000Z</time>
      </trkpt>
      <trkpt lat="47.33513" lon="-2.37232">
        <ele>39.599998474121</ele>
        <time>2020-06-04T08:37:04.000Z</time>
      </trkpt>
      <trkpt lat="47.33527" lon="-2.37235">
        <ele>40</ele>
        <time>2020-06-04T08:37:08.000Z</time>
      </trkpt>
      <trkpt lat="47.33531" lon="-2.37235">
        <ele>40.400001525879</ele>
        <time>2020-06-04T08:37:09.000Z</time>
      </trkpt>
      <trkpt lat="47.33534" lon="-2.37235">
        <ele>40.799999237061</ele>
        <time>2020-06-04T08:37:10.000Z</time>
      </trkpt>
      <trkpt lat="47.33538" lon="-2.37235">
        <ele>41.200000762939</ele>
        <time>2020-06-04T08:37:11.000Z</time>
      </trkpt>
      <trkpt lat="47.33543" lon="-2.37234">
        <ele>41.599998474121</ele>
        <time>2020-06-04T08:37:12.000Z</time>
      </trkpt>
      <trkpt lat="47.33555" lon="-2.37233">
        <ele>41.599998474121</ele>
        <time>2020-06-04T08:37:15.000Z</time>
      </trkpt>
      <trkpt lat="47.33579" lon="-2.37234">
        <ele>42.200000762939</ele>
        <time>2020-06-04T08:37:22.000Z</time>
      </trkpt>
      <trkpt lat="47.33583" lon="-2.37233">
        <ele>42.599998474121</ele>
        <time>2020-06-04T08:37:23.000Z</time>
      </trkpt>
      <trkpt lat="47.33587" lon="-2.37233">
        <ele>43</ele>
        <time>2020-06-04T08:37:24.000Z</time>
      </trkpt>
      <trkpt lat="47.33591" lon="-2.37233">
        <ele>43.400001525879</ele>
        <time>2020-06-04T08:37:25.000Z</time>
      </trkpt>
      <trkpt lat="47.33595" lon="-2.37232">
        <ele>44</ele>
        <time>2020-06-04T08:37:26.000Z</time>
      </trkpt>
      <trkpt lat="47.33597" lon="-2.37228">
        <ele>44</ele>
        <time>2020-06-04T08:37:27.000Z</time>
      </trkpt>
      <trkpt lat="47.33598" lon="-2.3721">
        <ele>44</ele>
        <time>2020-06-04T08:37:31.000Z</time>
      </trkpt>
      <trkpt lat="47.336" lon="-2.37175">
        <ele>44</ele>
        <time>2020-06-04T08:37:37.000Z</time>
      </trkpt>
      <trkpt lat="47.33603" lon="-2.37141">
        <ele>44</ele>
        <time>2020-06-04T08:37:42.000Z</time>
      </trkpt>
      <trkpt lat="47.33603" lon="-2.37134">
        <ele>44</ele>
        <time>2020-06-04T08:37:43.000Z</time>
      </trkpt>
      <trkpt lat="47.33602" lon="-2.37082">
        <ele>44</ele>
        <time>2020-06-04T08:37:51.000Z</time>
      </trkpt>
      <trkpt lat="47.33601" lon="-2.37033">
        <ele>44</ele>
        <time>2020-06-04T08:37:59.000Z</time>
      </trkpt>
      <trkpt lat="47.33602" lon="-2.36991">
        <ele>44</ele>
        <time>2020-06-04T08:38:06.000Z</time>
      </trkpt>
      <trkpt lat="47.33603" lon="-2.36984">
        <ele>44</ele>
        <time>2020-06-04T08:38:07.000Z</time>
      </trkpt>
      <trkpt lat="47.33608" lon="-2.36954">
        <ele>44</ele>
        <time>2020-06-04T08:38:12.000Z</time>
      </trkpt>
      <trkpt lat="47.33615" lon="-2.36939">
        <ele>44</ele>
        <time>2020-06-04T08:38:17.000Z</time>
      </trkpt>
      <trkpt lat="47.33627" lon="-2.36916">
        <ele>44</ele>
        <time>2020-06-04T08:38:24.000Z</time>
      </trkpt>
      <trkpt lat="47.33641" lon="-2.36897">
        <ele>44</ele>
        <time>2020-06-04T08:38:30.000Z</time>
      </trkpt>
      <trkpt lat="47.33651" lon="-2.36883">
        <ele>44</ele>
        <time>2020-06-04T08:38:35.000Z</time>
      </trkpt>
      <trkpt lat="47.3367" lon="-2.36861">
        <ele>44</ele>
        <time>2020-06-04T08:38:42.000Z</time>
      </trkpt>
      <trkpt lat="47.33688" lon="-2.36839">
        <ele>44</ele>
        <time>2020-06-04T08:38:49.000Z</time>
      </trkpt>
      <trkpt lat="47.33702" lon="-2.36826">
        <ele>44</ele>
        <time>2020-06-04T08:38:54.000Z</time>
      </trkpt>
      <trkpt lat="47.33723" lon="-2.36811">
        <ele>44</ele>
        <time>2020-06-04T08:39:02.000Z</time>
      </trkpt>
      <trkpt lat="47.33739" lon="-2.36798">
        <ele>44</ele>
        <time>2020-06-04T08:39:08.000Z</time>
      </trkpt>
      <trkpt lat="47.33762" lon="-2.36795">
        <ele>44</ele>
        <time>2020-06-04T08:39:12.000Z</time>
      </trkpt>
      <trkpt lat="47.33799" lon="-2.36784">
        <ele>44</ele>
        <time>2020-06-04T08:39:19.000Z</time>
      </trkpt>
      <trkpt lat="47.33831" lon="-2.36774">
        <ele>44</ele>
        <time>2020-06-04T08:39:26.000Z</time>
      </trkpt>
      <trkpt lat="47.3386" lon="-2.36769">
        <ele>44</ele>
        <time>2020-06-04T08:39:33.000Z</time>
      </trkpt>
      <trkpt lat="47.33891" lon="-2.36761">
        <ele>44</ele>
        <time>2020-06-04T08:39:41.000Z</time>
      </trkpt>
      <trkpt lat="47.33909" lon="-2.36755">
        <ele>44</ele>
        <time>2020-06-04T08:39:47.000Z</time>
      </trkpt>
      <trkpt lat="47.33924" lon="-2.36758">
        <ele>44</ele>
        <time>2020-06-04T08:39:52.000Z</time>
      </trkpt>
      <trkpt lat="47.33944" lon="-2.36755">
        <ele>44</ele>
        <time>2020-06-04T08:39:57.000Z</time>
      </trkpt>
      <trkpt lat="47.33966" lon="-2.36751">
        <ele>43.400001525879</ele>
        <time>2020-06-04T08:40:02.000Z</time>
      </trkpt>
      <trkpt lat="47.33971" lon="-2.3675">
        <ele>43</ele>
        <time>2020-06-04T08:40:03.000Z</time>
      </trkpt>
      <trkpt lat="47.33976" lon="-2.36748">
        <ele>42.599998474121</ele>
        <time>2020-06-04T08:40:04.000Z</time>
      </trkpt>
      <trkpt lat="47.3398" lon="-2.36746">
        <ele>42.200000762939</ele>
        <time>2020-06-04T08:40:05.000Z</time>
      </trkpt>
      <trkpt lat="47.33985" lon="-2.36745">
        <ele>41.799999237061</ele>
        <time>2020-06-04T08:40:06.000Z</time>
      </trkpt>
      <trkpt lat="47.3401" lon="-2.36735">
        <ele>41.799999237061</ele>
        <time>2020-06-04T08:40:11.000Z</time>
      </trkpt>
      <trkpt lat="47.34025" lon="-2.36728">
        <ele>41.400001525879</ele>
        <time>2020-06-04T08:40:14.000Z</time>
      </trkpt>
      <trkpt lat="47.34029" lon="-2.36725">
        <ele>41</ele>
        <time>2020-06-04T08:40:15.000Z</time>
      </trkpt>
      <trkpt lat="47.34034" lon="-2.36722">
        <ele>40.599998474121</ele>
        <time>2020-06-04T08:40:16.000Z</time>
      </trkpt>
      <trkpt lat="47.34039" lon="-2.36719">
        <ele>40.200000762939</ele>
        <time>2020-06-04T08:40:17.000Z</time>
      </trkpt>
      <trkpt lat="47.34044" lon="-2.36716">
        <ele>39.799999237061</ele>
        <time>2020-06-04T08:40:18.000Z</time>
      </trkpt>
      <trkpt lat="47.34065" lon="-2.36704">
        <ele>39.400001525879</ele>
        <time>2020-06-04T08:40:22.000Z</time>
      </trkpt>
      <trkpt lat="47.3407" lon="-2.36702">
        <ele>39</ele>
        <time>2020-06-04T08:40:23.000Z</time>
      </trkpt>
      <trkpt lat="47.34075" lon="-2.36701">
        <ele>38.599998474121</ele>
        <time>2020-06-04T08:40:24.000Z</time>
      </trkpt>
      <trkpt lat="47.34079" lon="-2.36704">
        <ele>38.200000762939</ele>
        <time>2020-06-04T08:40:25.000Z</time>
      </trkpt>
      <trkpt lat="47.34083" lon="-2.36709">
        <ele>37.799999237061</ele>
        <time>2020-06-04T08:40:26.000Z</time>
      </trkpt>
      <trkpt lat="47.34086" lon="-2.36715">
        <ele>37.799999237061</ele>
        <time>2020-06-04T08:40:27.000Z</time>
      </trkpt>
      <trkpt lat="47.3409" lon="-2.36738">
        <ele>37.799999237061</ele>
        <time>2020-06-04T08:40:30.000Z</time>
      </trkpt>
      <trkpt lat="47.34091" lon="-2.36747">
        <ele>37.799999237061</ele>
        <time>2020-06-04T08:40:31.000Z</time>
      </trkpt>
      <trkpt lat="47.34103" lon="-2.36809">
        <ele>37.799999237061</ele>
        <time>2020-06-04T08:40:38.000Z</time>
      </trkpt>
      <trkpt lat="47.34113" lon="-2.36856">
        <ele>37.400001525879</ele>
        <time>2020-06-04T08:40:43.000Z</time>
      </trkpt>
      <trkpt lat="47.34116" lon="-2.36866">
        <ele>37</ele>
        <time>2020-06-04T08:40:44.000Z</time>
      </trkpt>
      <trkpt lat="47.34119" lon="-2.36874">
        <ele>36.599998474121</ele>
        <time>2020-06-04T08:40:45.000Z</time>
      </trkpt>
      <trkpt lat="47.34124" lon="-2.36883">
        <ele>36.200000762939</ele>
        <time>2020-06-04T08:40:46.000Z</time>
      </trkpt>
      <trkpt lat="47.34129" lon="-2.36891">
        <ele>35.599998474121</ele>
        <time>2020-06-04T08:40:47.000Z</time>
      </trkpt>
      <trkpt lat="47.34133" lon="-2.369">
        <ele>35.599998474121</ele>
        <time>2020-06-04T08:40:48.000Z</time>
      </trkpt>
      <trkpt lat="47.34159" lon="-2.36947">
        <ele>35.599998474121</ele>
        <time>2020-06-04T08:40:54.000Z</time>
      </trkpt>
      <trkpt lat="47.34168" lon="-2.3696">
        <ele>35.599998474121</ele>
        <time>2020-06-04T08:40:56.000Z</time>
      </trkpt>
      <trkpt lat="47.34181" lon="-2.36978">
        <ele>35.599998474121</ele>
        <time>2020-06-04T08:40:59.000Z</time>
      </trkpt>
      <trkpt lat="47.34185" lon="-2.36983">
        <ele>36.200000762939</ele>
        <time>2020-06-04T08:41:00.000Z</time>
      </trkpt>
      <trkpt lat="47.34189" lon="-2.36989">
        <ele>36.599998474121</ele>
        <time>2020-06-04T08:41:01.000Z</time>
      </trkpt>
      <trkpt lat="47.34194" lon="-2.36994">
        <ele>37</ele>
        <time>2020-06-04T08:41:02.000Z</time>
      </trkpt>
      <trkpt lat="47.34197" lon="-2.37">
        <ele>37.400001525879</ele>
        <time>2020-06-04T08:41:03.000Z</time>
      </trkpt>
      <trkpt lat="47.34201" lon="-2.37006">
        <ele>37.799999237061</ele>
        <time>2020-06-04T08:41:04.000Z</time>
      </trkpt>
      <trkpt lat="47.34208" lon="-2.37017">
        <ele>37.799999237061</ele>
        <time>2020-06-04T08:41:06.000Z</time>
      </trkpt>
      <trkpt lat="47.34215" lon="-2.3703">
        <ele>38.200000762939</ele>
        <time>2020-06-04T08:41:08.000Z</time>
      </trkpt>
      <trkpt lat="47.34218" lon="-2.37037">
        <ele>38.599998474121</ele>
        <time>2020-06-04T08:41:09.000Z</time>
      </trkpt>
      <trkpt lat="47.34221" lon="-2.37044">
        <ele>39</ele>
        <time>2020-06-04T08:41:10.000Z</time>
      </trkpt>
      <trkpt lat="47.34224" lon="-2.37051">
        <ele>39.400001525879</ele>
        <time>2020-06-04T08:41:11.000Z</time>
      </trkpt>
      <trkpt lat="47.34227" lon="-2.37057">
        <ele>39.799999237061</ele>
        <time>2020-06-04T08:41:12.000Z</time>
      </trkpt>
      <trkpt lat="47.3423" lon="-2.37062">
        <ele>39.799999237061</ele>
        <time>2020-06-04T08:41:13.000Z</time>
      </trkpt>
      <trkpt lat="47.34243" lon="-2.37066">
        <ele>39.799999237061</ele>
        <time>2020-06-04T08:41:16.000Z</time>
      </trkpt>
      <trkpt lat="47.3426" lon="-2.3705">
        <ele>39.799999237061</ele>
        <time>2020-06-04T08:41:20.000Z</time>
      </trkpt>
      <trkpt lat="47.34289" lon="-2.37018">
        <ele>39.799999237061</ele>
        <time>2020-06-04T08:41:26.000Z</time>
      </trkpt>
      <trkpt lat="47.3432" lon="-2.36972">
        <ele>39.799999237061</ele>
        <time>2020-06-04T08:41:33.000Z</time>
      </trkpt>
      <trkpt lat="47.34324" lon="-2.36966">
        <ele>40.200000762939</ele>
        <time>2020-06-04T08:41:34.000Z</time>
      </trkpt>
      <trkpt lat="47.34328" lon="-2.36959">
        <ele>40.599998474121</ele>
        <time>2020-06-04T08:41:35.000Z</time>
      </trkpt>
      <trkpt lat="47.34333" lon="-2.36953">
        <ele>41</ele>
        <time>2020-06-04T08:41:36.000Z</time>
      </trkpt>
      <trkpt lat="47.34337" lon="-2.36946">
        <ele>41.400001525879</ele>
        <time>2020-06-04T08:41:37.000Z</time>
      </trkpt>
      <trkpt lat="47.34341" lon="-2.3694">
        <ele>41.799999237061</ele>
        <time>2020-06-04T08:41:38.000Z</time>
      </trkpt>
      <trkpt lat="47.34354" lon="-2.3692">
        <ele>41.799999237061</ele>
        <time>2020-06-04T08:41:41.000Z</time>
      </trkpt>
      <trkpt lat="47.34386" lon="-2.3687">
        <ele>41.799999237061</ele>
        <time>2020-06-04T08:41:49.000Z</time>
      </trkpt>
      <trkpt lat="47.3442" lon="-2.36814">
        <ele>41.799999237061</ele>
        <time>2020-06-04T08:41:57.000Z</time>
      </trkpt>
      <trkpt lat="47.3446" lon="-2.36748">
        <ele>41.799999237061</ele>
        <time>2020-06-04T08:42:06.000Z</time>
      </trkpt>
      <trkpt lat="47.3448" lon="-2.36715">
        <ele>41.400001525879</ele>
        <time>2020-06-04T08:42:10.000Z</time>
      </trkpt>
      <trkpt lat="47.34485" lon="-2.36705">
        <ele>41</ele>
        <time>2020-06-04T08:42:11.000Z</time>
      </trkpt>
      <trkpt lat="47.34489" lon="-2.36696">
        <ele>40.599998474121</ele>
        <time>2020-06-04T08:42:12.000Z</time>
      </trkpt>
      <trkpt lat="47.34494" lon="-2.36686">
        <ele>40.200000762939</ele>
        <time>2020-06-04T08:42:13.000Z</time>
      </trkpt>
      <trkpt lat="47.34499" lon="-2.36676">
        <ele>39.799999237061</ele>
        <time>2020-06-04T08:42:14.000Z</time>
      </trkpt>
      <trkpt lat="47.34512" lon="-2.36646">
        <ele>39.400001525879</ele>
        <time>2020-06-04T08:42:17.000Z</time>
      </trkpt>
      <trkpt lat="47.34516" lon="-2.36636">
        <ele>39</ele>
        <time>2020-06-04T08:42:18.000Z</time>
      </trkpt>
      <trkpt lat="47.3452" lon="-2.36626">
        <ele>38.599998474121</ele>
        <time>2020-06-04T08:42:19.000Z</time>
      </trkpt>
      <trkpt lat="47.34524" lon="-2.36616">
        <ele>38.200000762939</ele>
        <time>2020-06-04T08:42:20.000Z</time>
      </trkpt>
      <trkpt lat="47.34529" lon="-2.36605">
        <ele>37.799999237061</ele>
        <time>2020-06-04T08:42:21.000Z</time>
      </trkpt>
      <trkpt lat="47.34533" lon="-2.36595">
        <ele>37.799999237061</ele>
        <time>2020-06-04T08:42:22.000Z</time>
      </trkpt>
      <trkpt lat="47.34552" lon="-2.36545">
        <ele>37.400001525879</ele>
        <time>2020-06-04T08:42:27.000Z</time>
      </trkpt>
      <trkpt lat="47.34556" lon="-2.36535">
        <ele>37</ele>
        <time>2020-06-04T08:42:28.000Z</time>
      </trkpt>
      <trkpt lat="47.3456" lon="-2.36525">
        <ele>36.599998474121</ele>
        <time>2020-06-04T08:42:29.000Z</time>
      </trkpt>
      <trkpt lat="47.34563" lon="-2.36516">
        <ele>36.200000762939</ele>
        <time>2020-06-04T08:42:30.000Z</time>
      </trkpt>
      <trkpt lat="47.34567" lon="-2.36506">
        <ele>35.799999237061</ele>
        <time>2020-06-04T08:42:31.000Z</time>
      </trkpt>
      <trkpt lat="47.34587" lon="-2.36458">
        <ele>35.799999237061</ele>
        <time>2020-06-04T08:42:36.000Z</time>
      </trkpt>
      <trkpt lat="47.34594" lon="-2.36444">
        <ele>35.400001525879</ele>
        <time>2020-06-04T08:42:38.000Z</time>
      </trkpt>
      <trkpt lat="47.34595" lon="-2.36438">
        <ele>35</ele>
        <time>2020-06-04T08:42:39.000Z</time>
      </trkpt>
      <trkpt lat="47.34597" lon="-2.36433">
        <ele>34.599998474121</ele>
        <time>2020-06-04T08:42:40.000Z</time>
      </trkpt>
      <trkpt lat="47.34597" lon="-2.36428">
        <ele>34</ele>
        <time>2020-06-04T08:42:41.000Z</time>
      </trkpt>
      <trkpt lat="47.34596" lon="-2.36424">
        <ele>33.599998474121</ele>
        <time>2020-06-04T08:42:42.000Z</time>
      </trkpt>
      <trkpt lat="47.34594" lon="-2.36415">
        <ele>33.599998474121</ele>
        <time>2020-06-04T08:42:44.000Z</time>
      </trkpt>
      <trkpt lat="47.34574" lon="-2.36395">
        <ele>33.599998474121</ele>
        <time>2020-06-04T08:42:47.000Z</time>
      </trkpt>
      <trkpt lat="47.34552" lon="-2.36352">
        <ele>33.599998474121</ele>
        <time>2020-06-04T08:42:51.000Z</time>
      </trkpt>
      <trkpt lat="47.34547" lon="-2.36341">
        <ele>33.200000762939</ele>
        <time>2020-06-04T08:42:52.000Z</time>
      </trkpt>
      <trkpt lat="47.34542" lon="-2.3633">
        <ele>32.799999237061</ele>
        <time>2020-06-04T08:42:53.000Z</time>
      </trkpt>
      <trkpt lat="47.34538" lon="-2.3632">
        <ele>32.400001525879</ele>
        <time>2020-06-04T08:42:54.000Z</time>
      </trkpt>
      <trkpt lat="47.34535" lon="-2.3631">
        <ele>31.799999237061</ele>
        <time>2020-06-04T08:42:55.000Z</time>
      </trkpt>
      <trkpt lat="47.34531" lon="-2.36299">
        <ele>31.39999961853</ele>
        <time>2020-06-04T08:42:56.000Z</time>
      </trkpt>
      <trkpt lat="47.34524" lon="-2.36278">
        <ele>31.39999961853</ele>
        <time>2020-06-04T08:42:58.000Z</time>
      </trkpt>
      <trkpt lat="47.3451" lon="-2.36235">
        <ele>31.39999961853</ele>
        <time>2020-06-04T08:43:02.000Z</time>
      </trkpt>
      <trkpt lat="47.345" lon="-2.36218">
        <ele>31.39999961853</ele>
        <time>2020-06-04T08:43:04.000Z</time>
      </trkpt>
      <trkpt lat="47.34468" lon="-2.36165">
        <ele>31.39999961853</ele>
        <time>2020-06-04T08:43:10.000Z</time>
      </trkpt>
      <trkpt lat="47.3446" lon="-2.36148">
        <ele>31.39999961853</ele>
        <time>2020-06-04T08:43:12.000Z</time>
      </trkpt>
      <trkpt lat="47.3445" lon="-2.36123">
        <ele>31.39999961853</ele>
        <time>2020-06-04T08:43:15.000Z</time>
      </trkpt>
      <trkpt lat="47.34431" lon="-2.36076">
        <ele>31.39999961853</ele>
        <time>2020-06-04T08:43:21.000Z</time>
      </trkpt>
      <trkpt lat="47.34419" lon="-2.36029">
        <ele>31.39999961853</ele>
        <time>2020-06-04T08:43:27.000Z</time>
      </trkpt>
      <trkpt lat="47.34416" lon="-2.36022">
        <ele>31.39999961853</ele>
        <time>2020-06-04T08:43:28.000Z</time>
      </trkpt>
      <trkpt lat="47.34409" lon="-2.35999">
        <ele>31.39999961853</ele>
        <time>2020-06-04T08:43:32.000Z</time>
      </trkpt>
      <trkpt lat="47.34418" lon="-2.35989">
        <ele>31.39999961853</ele>
        <time>2020-06-04T08:43:35.000Z</time>
      </trkpt>
      <trkpt lat="47.34421" lon="-2.35986">
        <ele>31.39999961853</ele>
        <time>2020-06-04T08:43:36.000Z</time>
      </trkpt>
      <trkpt lat="47.34441" lon="-2.3597">
        <ele>31.39999961853</ele>
        <time>2020-06-04T08:43:41.000Z</time>
      </trkpt>
      <trkpt lat="47.34469" lon="-2.35947">
        <ele>31.39999961853</ele>
        <time>2020-06-04T08:43:47.000Z</time>
      </trkpt>
      <trkpt lat="47.34491" lon="-2.35934">
        <ele>31</ele>
        <time>2020-06-04T08:43:51.000Z</time>
      </trkpt>
      <trkpt lat="47.34497" lon="-2.35931">
        <ele>30.60000038147</ele>
        <time>2020-06-04T08:43:52.000Z</time>
      </trkpt>
      <trkpt lat="47.34503" lon="-2.35929">
        <ele>30.200000762939</ele>
        <time>2020-06-04T08:43:53.000Z</time>
      </trkpt>
      <trkpt lat="47.34508" lon="-2.35927">
        <ele>29.799999237061</ele>
        <time>2020-06-04T08:43:54.000Z</time>
      </trkpt>
      <trkpt lat="47.34514" lon="-2.35925">
        <ele>29.39999961853</ele>
        <time>2020-06-04T08:43:55.000Z</time>
      </trkpt>
      <trkpt lat="47.34534" lon="-2.35916">
        <ele>29.39999961853</ele>
        <time>2020-06-04T08:43:59.000Z</time>
      </trkpt>
      <trkpt lat="47.34544" lon="-2.35911">
        <ele>29.39999961853</ele>
        <time>2020-06-04T08:44:01.000Z</time>
      </trkpt>
      <trkpt lat="47.34564" lon="-2.35899">
        <ele>29.39999961853</ele>
        <time>2020-06-04T08:44:05.000Z</time>
      </trkpt>
      <trkpt lat="47.34585" lon="-2.35883">
        <ele>29.39999961853</ele>
        <time>2020-06-04T08:44:09.000Z</time>
      </trkpt>
      <trkpt lat="47.34594" lon="-2.35874">
        <ele>29.39999961853</ele>
        <time>2020-06-04T08:44:11.000Z</time>
      </trkpt>
      <trkpt lat="47.34614" lon="-2.3586">
        <ele>29</ele>
        <time>2020-06-04T08:44:15.000Z</time>
      </trkpt>
      <trkpt lat="47.34618" lon="-2.35856">
        <ele>28.60000038147</ele>
        <time>2020-06-04T08:44:16.000Z</time>
      </trkpt>
      <trkpt lat="47.34622" lon="-2.35854">
        <ele>28.200000762939</ele>
        <time>2020-06-04T08:44:17.000Z</time>
      </trkpt>
      <trkpt lat="47.34625" lon="-2.3585">
        <ele>27.60000038147</ele>
        <time>2020-06-04T08:44:18.000Z</time>
      </trkpt>
      <trkpt lat="47.34628" lon="-2.35846">
        <ele>27.200000762939</ele>
        <time>2020-06-04T08:44:19.000Z</time>
      </trkpt>
      <trkpt lat="47.34635" lon="-2.35839">
        <ele>27.200000762939</ele>
        <time>2020-06-04T08:44:21.000Z</time>
      </trkpt>
      <trkpt lat="47.34662" lon="-2.35817">
        <ele>27.200000762939</ele>
        <time>2020-06-04T08:44:27.000Z</time>
      </trkpt>
      <trkpt lat="47.34692" lon="-2.35795">
        <ele>27.200000762939</ele>
        <time>2020-06-04T08:44:33.000Z</time>
      </trkpt>
      <trkpt lat="47.34712" lon="-2.35779">
        <ele>27.200000762939</ele>
        <time>2020-06-04T08:44:38.000Z</time>
      </trkpt>
      <trkpt lat="47.34737" lon="-2.35755">
        <ele>27.200000762939</ele>
        <time>2020-06-04T08:44:45.000Z</time>
      </trkpt>
      <trkpt lat="47.34749" lon="-2.3575">
        <ele>27.200000762939</ele>
        <time>2020-06-04T08:44:49.000Z</time>
      </trkpt>
      <trkpt lat="47.3476" lon="-2.35745">
        <ele>27.200000762939</ele>
        <time>2020-06-04T08:44:54.000Z</time>
      </trkpt>
      <trkpt lat="47.34773" lon="-2.35739">
        <ele>27.200000762939</ele>
        <time>2020-06-04T08:45:00.000Z</time>
      </trkpt>
      <trkpt lat="47.34789" lon="-2.35732">
        <ele>27.200000762939</ele>
        <time>2020-06-04T08:45:07.000Z</time>
      </trkpt>
      <trkpt lat="47.34809" lon="-2.35722">
        <ele>27.200000762939</ele>
        <time>2020-06-04T08:45:14.000Z</time>
      </trkpt>
      <trkpt lat="47.34827" lon="-2.35713">
        <ele>27.200000762939</ele>
        <time>2020-06-04T08:45:18.000Z</time>
      </trkpt>
      <trkpt lat="47.3484" lon="-2.35688">
        <ele>27.200000762939</ele>
        <time>2020-06-04T08:45:22.000Z</time>
      </trkpt>
      <trkpt lat="47.3485" lon="-2.35667">
        <ele>27.200000762939</ele>
        <time>2020-06-04T08:45:27.000Z</time>
      </trkpt>
      <trkpt lat="47.34852" lon="-2.35661">
        <ele>27.200000762939</ele>
        <time>2020-06-04T08:45:29.000Z</time>
      </trkpt>
      <trkpt lat="47.3485" lon="-2.3566">
        <ele>27.799999237061</ele>
        <time>2020-06-04T08:45:30.000Z</time>
      </trkpt>
      <trkpt lat="47.34847" lon="-2.35658">
        <ele>28.200000762939</ele>
        <time>2020-06-04T08:45:31.000Z</time>
      </trkpt>
      <trkpt lat="47.34843" lon="-2.35658">
        <ele>28.60000038147</ele>
        <time>2020-06-04T08:45:32.000Z</time>
      </trkpt>
      <trkpt lat="47.34839" lon="-2.35656">
        <ele>29</ele>
        <time>2020-06-04T08:45:33.000Z</time>
      </trkpt>
      <trkpt lat="47.34835" lon="-2.35655">
        <ele>29.39999961853</ele>
        <time>2020-06-04T08:45:34.000Z</time>
      </trkpt>
      <trkpt lat="47.34831" lon="-2.35653">
        <ele>29.39999961853</ele>
        <time>2020-06-04T08:45:35.000Z</time>
      </trkpt>
      <trkpt lat="47.34805" lon="-2.35635">
        <ele>29.39999961853</ele>
        <time>2020-06-04T08:45:40.000Z</time>
      </trkpt>
      <trkpt lat="47.34777" lon="-2.35606">
        <ele>29.39999961853</ele>
        <time>2020-06-04T08:45:45.000Z</time>
      </trkpt>
      <trkpt lat="47.3476" lon="-2.35582">
        <ele>29.39999961853</ele>
        <time>2020-06-04T08:45:48.000Z</time>
      </trkpt>
      <trkpt lat="47.34749" lon="-2.35567">
        <ele>29.39999961853</ele>
        <time>2020-06-04T08:45:50.000Z</time>
      </trkpt>
      <trkpt lat="47.3472" lon="-2.35521">
        <ele>29</ele>
        <time>2020-06-04T08:45:55.000Z</time>
      </trkpt>
      <trkpt lat="47.34715" lon="-2.35512">
        <ele>28.60000038147</ele>
        <time>2020-06-04T08:45:56.000Z</time>
      </trkpt>
      <trkpt lat="47.3471" lon="-2.35504">
        <ele>28</ele>
        <time>2020-06-04T08:45:57.000Z</time>
      </trkpt>
      <trkpt lat="47.34706" lon="-2.35496">
        <ele>27.60000038147</ele>
        <time>2020-06-04T08:45:58.000Z</time>
      </trkpt>
      <trkpt lat="47.34701" lon="-2.35488">
        <ele>27.200000762939</ele>
        <time>2020-06-04T08:45:59.000Z</time>
      </trkpt>
      <trkpt lat="47.34693" lon="-2.35475">
        <ele>27.200000762939</ele>
        <time>2020-06-04T08:46:01.000Z</time>
      </trkpt>
      <trkpt lat="47.34667" lon="-2.35432">
        <ele>27.200000762939</ele>
        <time>2020-06-04T08:46:08.000Z</time>
      </trkpt>
      <trkpt lat="47.34647" lon="-2.35408">
        <ele>27.200000762939</ele>
        <time>2020-06-04T08:46:14.000Z</time>
      </trkpt>
      <trkpt lat="47.34647" lon="-2.35401">
        <ele>27.200000762939</ele>
        <time>2020-06-04T08:46:17.000Z</time>
      </trkpt>
      <trkpt lat="47.34648" lon="-2.35398">
        <ele>27.200000762939</ele>
        <time>2020-06-04T08:46:18.000Z</time>
      </trkpt>
      <trkpt lat="47.34652" lon="-2.35398">
        <ele>27.200000762939</ele>
        <time>2020-06-04T08:46:19.000Z</time>
      </trkpt>
      <trkpt lat="47.34658" lon="-2.35398">
        <ele>27.200000762939</ele>
        <time>2020-06-04T08:46:21.000Z</time>
      </trkpt>
      <trkpt lat="47.34665" lon="-2.35397">
        <ele>27.200000762939</ele>
        <time>2020-06-04T08:46:23.000Z</time>
      </trkpt>
      <trkpt lat="47.3468" lon="-2.35397">
        <ele>27.200000762939</ele>
        <time>2020-06-04T08:46:27.000Z</time>
      </trkpt>
      <trkpt lat="47.34687" lon="-2.35395">
        <ele>27.200000762939</ele>
        <time>2020-06-04T08:46:29.000Z</time>
      </trkpt>
      <trkpt lat="47.34692" lon="-2.35391">
        <ele>27.200000762939</ele>
        <time>2020-06-04T08:46:31.000Z</time>
      </trkpt>
      <trkpt lat="47.34705" lon="-2.3538">
        <ele>27.200000762939</ele>
        <time>2020-06-04T08:46:36.000Z</time>
      </trkpt>
      <trkpt lat="47.34715" lon="-2.35364">
        <ele>27.200000762939</ele>
        <time>2020-06-04T08:46:42.000Z</time>
      </trkpt>
      <trkpt lat="47.34719" lon="-2.35344">
        <ele>27.200000762939</ele>
        <time>2020-06-04T08:46:47.000Z</time>
      </trkpt>
      <trkpt lat="47.34723" lon="-2.35317">
        <ele>27.200000762939</ele>
        <time>2020-06-04T08:46:53.000Z</time>
      </trkpt>
      <trkpt lat="47.34733" lon="-2.3529">
        <ele>27.200000762939</ele>
        <time>2020-06-04T08:46:59.000Z</time>
      </trkpt>
      <trkpt lat="47.34741" lon="-2.35258">
        <ele>27.200000762939</ele>
        <time>2020-06-04T08:47:05.000Z</time>
      </trkpt>
      <trkpt lat="47.34744" lon="-2.35249">
        <ele>27.200000762939</ele>
        <time>2020-06-04T08:47:06.000Z</time>
      </trkpt>
      <trkpt lat="47.34748" lon="-2.35233">
        <ele>27.200000762939</ele>
        <time>2020-06-04T08:47:08.000Z</time>
      </trkpt>
      <trkpt lat="47.3475" lon="-2.35219">
        <ele>27.200000762939</ele>
        <time>2020-06-04T08:47:10.000Z</time>
      </trkpt>
      <trkpt lat="47.3475" lon="-2.35191">
        <ele>27.200000762939</ele>
        <time>2020-06-04T08:47:14.000Z</time>
      </trkpt>
      <trkpt lat="47.34751" lon="-2.35184">
        <ele>27.200000762939</ele>
        <time>2020-06-04T08:47:15.000Z</time>
      </trkpt>
      <trkpt lat="47.34751" lon="-2.35164">
        <ele>27.200000762939</ele>
        <time>2020-06-04T08:47:18.000Z</time>
      </trkpt>
      <trkpt lat="47.34746" lon="-2.35148">
        <ele>27.200000762939</ele>
        <time>2020-06-04T08:47:21.000Z</time>
      </trkpt>
      <trkpt lat="47.34745" lon="-2.35144">
        <ele>27.200000762939</ele>
        <time>2020-06-04T08:47:22.000Z</time>
      </trkpt>
      <trkpt lat="47.34743" lon="-2.35141">
        <ele>27.200000762939</ele>
        <time>2020-06-04T08:47:23.000Z</time>
      </trkpt>
      <trkpt lat="47.34736" lon="-2.35132">
        <ele>27.200000762939</ele>
        <time>2020-06-04T08:47:26.000Z</time>
      </trkpt>
      <trkpt lat="47.3473" lon="-2.3511">
        <ele>27.200000762939</ele>
        <time>2020-06-04T08:47:29.000Z</time>
      </trkpt>
      <trkpt lat="47.34728" lon="-2.35104">
        <ele>27.200000762939</ele>
        <time>2020-06-04T08:47:30.000Z</time>
      </trkpt>
      <trkpt lat="47.34713" lon="-2.35083">
        <ele>27.200000762939</ele>
        <time>2020-06-04T08:47:35.000Z</time>
      </trkpt>
      <trkpt lat="47.3469" lon="-2.35053">
        <ele>27.200000762939</ele>
        <time>2020-06-04T08:47:42.000Z</time>
      </trkpt>
      <trkpt lat="47.34676" lon="-2.35046">
        <ele>27.200000762939</ele>
        <time>2020-06-04T08:47:46.000Z</time>
      </trkpt>
      <trkpt lat="47.34655" lon="-2.35042">
        <ele>27.200000762939</ele>
        <time>2020-06-04T08:47:52.000Z</time>
      </trkpt>
      <trkpt lat="47.34642" lon="-2.35028">
        <ele>27.200000762939</ele>
        <time>2020-06-04T08:47:57.000Z</time>
      </trkpt>
      <trkpt lat="47.34627" lon="-2.35006">
        <ele>27.200000762939</ele>
        <time>2020-06-04T08:48:03.000Z</time>
      </trkpt>
      <trkpt lat="47.34615" lon="-2.34988">
        <ele>27.200000762939</ele>
        <time>2020-06-04T08:48:08.000Z</time>
      </trkpt>
      <trkpt lat="47.34596" lon="-2.34948">
        <ele>27.200000762939</ele>
        <time>2020-06-04T08:48:15.000Z</time>
      </trkpt>
      <trkpt lat="47.34589" lon="-2.34933">
        <ele>27.200000762939</ele>
        <time>2020-06-04T08:48:19.000Z</time>
      </trkpt>
      <trkpt lat="47.34588" lon="-2.34929">
        <ele>27.200000762939</ele>
        <time>2020-06-04T08:48:20.000Z</time>
      </trkpt>
      <trkpt lat="47.34589" lon="-2.34917">
        <ele>27.200000762939</ele>
        <time>2020-06-04T08:48:23.000Z</time>
      </trkpt>
      <trkpt lat="47.34592" lon="-2.34899">
        <ele>27.200000762939</ele>
        <time>2020-06-04T08:48:27.000Z</time>
      </trkpt>
      <trkpt lat="47.34597" lon="-2.34858">
        <ele>27.200000762939</ele>
        <time>2020-06-04T08:48:34.000Z</time>
      </trkpt>
      <trkpt lat="47.34601" lon="-2.34839">
        <ele>27.200000762939</ele>
        <time>2020-06-04T08:48:38.000Z</time>
      </trkpt>
      <trkpt lat="47.34602" lon="-2.34835">
        <ele>27.200000762939</ele>
        <time>2020-06-04T08:48:39.000Z</time>
      </trkpt>
      <trkpt lat="47.34612" lon="-2.34811">
        <ele>27.200000762939</ele>
        <time>2020-06-04T08:48:45.000Z</time>
      </trkpt>
      <trkpt lat="47.34628" lon="-2.34772">
        <ele>27.200000762939</ele>
        <time>2020-06-04T08:48:54.000Z</time>
      </trkpt>
      <trkpt lat="47.34636" lon="-2.3474">
        <ele>27.200000762939</ele>
        <time>2020-06-04T08:49:01.000Z</time>
      </trkpt>
      <trkpt lat="47.34636" lon="-2.34706">
        <ele>27.200000762939</ele>
        <time>2020-06-04T08:49:07.000Z</time>
      </trkpt>
      <trkpt lat="47.34633" lon="-2.34682">
        <ele>27.200000762939</ele>
        <time>2020-06-04T08:49:12.000Z</time>
      </trkpt>
      <trkpt lat="47.34629" lon="-2.34658">
        <ele>27.200000762939</ele>
        <time>2020-06-04T08:49:18.000Z</time>
      </trkpt>
      <trkpt lat="47.34626" lon="-2.34631">
        <ele>27.200000762939</ele>
        <time>2020-06-04T08:49:25.000Z</time>
      </trkpt>
      <trkpt lat="47.34621" lon="-2.3461">
        <ele>27.60000038147</ele>
        <time>2020-06-04T08:49:30.000Z</time>
      </trkpt>
      <trkpt lat="47.3462" lon="-2.34604">
        <ele>28</ele>
        <time>2020-06-04T08:49:31.000Z</time>
      </trkpt>
      <trkpt lat="47.34618" lon="-2.34598">
        <ele>28.799999237061</ele>
        <time>2020-06-04T08:49:32.000Z</time>
      </trkpt>
      <trkpt lat="47.34616" lon="-2.3459">
        <ele>29.200000762939</ele>
        <time>2020-06-04T08:49:33.000Z</time>
      </trkpt>
      <trkpt lat="47.3461" lon="-2.3456">
        <ele>29.200000762939</ele>
        <time>2020-06-04T08:49:37.000Z</time>
      </trkpt>
      <trkpt lat="47.34609" lon="-2.34553">
        <ele>29.60000038147</ele>
        <time>2020-06-04T08:49:38.000Z</time>
      </trkpt>
      <trkpt lat="47.34608" lon="-2.34545">
        <ele>30.200000762939</ele>
        <time>2020-06-04T08:49:39.000Z</time>
      </trkpt>
      <trkpt lat="47.34606" lon="-2.34537">
        <ele>30.60000038147</ele>
        <time>2020-06-04T08:49:40.000Z</time>
      </trkpt>
      <trkpt lat="47.34605" lon="-2.3453">
        <ele>31</ele>
        <time>2020-06-04T08:49:41.000Z</time>
      </trkpt>
      <trkpt lat="47.34604" lon="-2.34522">
        <ele>31.39999961853</ele>
        <time>2020-06-04T08:49:42.000Z</time>
      </trkpt>
      <trkpt lat="47.34598" lon="-2.3449">
        <ele>31.39999961853</ele>
        <time>2020-06-04T08:49:46.000Z</time>
      </trkpt>
      <trkpt lat="47.34595" lon="-2.34439">
        <ele>31.39999961853</ele>
        <time>2020-06-04T08:49:52.000Z</time>
      </trkpt>
      <trkpt lat="47.34603" lon="-2.34391">
        <ele>31.39999961853</ele>
        <time>2020-06-04T08:49:58.000Z</time>
      </trkpt>
      <trkpt lat="47.34617" lon="-2.34341">
        <ele>31.39999961853</ele>
        <time>2020-06-04T08:50:05.000Z</time>
      </trkpt>
      <trkpt lat="47.34629" lon="-2.34301">
        <ele>31.39999961853</ele>
        <time>2020-06-04T08:50:10.000Z</time>
      </trkpt>
      <trkpt lat="47.34631" lon="-2.34293">
        <ele>31.39999961853</ele>
        <time>2020-06-04T08:50:11.000Z</time>
      </trkpt>
      <trkpt lat="47.34642" lon="-2.34273">
        <ele>31.39999961853</ele>
        <time>2020-06-04T08:50:14.000Z</time>
      </trkpt>
      <trkpt lat="47.34663" lon="-2.34263">
        <ele>31.39999961853</ele>
        <time>2020-06-04T08:50:17.000Z</time>
      </trkpt>
      <trkpt lat="47.34677" lon="-2.3426">
        <ele>31</ele>
        <time>2020-06-04T08:50:19.000Z</time>
      </trkpt>
      <trkpt lat="47.34684" lon="-2.34259">
        <ele>30.39999961853</ele>
        <time>2020-06-04T08:50:20.000Z</time>
      </trkpt>
      <trkpt lat="47.34691" lon="-2.34257">
        <ele>29.60000038147</ele>
        <time>2020-06-04T08:50:21.000Z</time>
      </trkpt>
      <trkpt lat="47.34698" lon="-2.34256">
        <ele>29</ele>
        <time>2020-06-04T08:50:22.000Z</time>
      </trkpt>
      <trkpt lat="47.34704" lon="-2.34256">
        <ele>29</ele>
        <time>2020-06-04T08:50:23.000Z</time>
      </trkpt>
      <trkpt lat="47.34739" lon="-2.34249">
        <ele>29</ele>
        <time>2020-06-04T08:50:29.000Z</time>
      </trkpt>
      <trkpt lat="47.34776" lon="-2.34239">
        <ele>29.60000038147</ele>
        <time>2020-06-04T08:50:36.000Z</time>
      </trkpt>
      <trkpt lat="47.34781" lon="-2.34237">
        <ele>30</ele>
        <time>2020-06-04T08:50:37.000Z</time>
      </trkpt>
      <trkpt lat="47.34786" lon="-2.34236">
        <ele>30.39999961853</ele>
        <time>2020-06-04T08:50:38.000Z</time>
      </trkpt>
      <trkpt lat="47.34791" lon="-2.34234">
        <ele>30.799999237061</ele>
        <time>2020-06-04T08:50:39.000Z</time>
      </trkpt>
      <trkpt lat="47.34796" lon="-2.34233">
        <ele>31.200000762939</ele>
        <time>2020-06-04T08:50:40.000Z</time>
      </trkpt>
      <trkpt lat="47.3481" lon="-2.3423">
        <ele>31.200000762939</ele>
        <time>2020-06-04T08:50:43.000Z</time>
      </trkpt>
      <trkpt lat="47.34828" lon="-2.3423">
        <ele>31.200000762939</ele>
        <time>2020-06-04T08:50:47.000Z</time>
      </trkpt>
      <trkpt lat="47.34836" lon="-2.34231">
        <ele>31.200000762939</ele>
        <time>2020-06-04T08:50:49.000Z</time>
      </trkpt>
      <trkpt lat="47.34842" lon="-2.34231">
        <ele>31.60000038147</ele>
        <time>2020-06-04T08:50:51.000Z</time>
      </trkpt>
      <trkpt lat="47.34846" lon="-2.34232">
        <ele>32</ele>
        <time>2020-06-04T08:50:52.000Z</time>
      </trkpt>
      <trkpt lat="47.34849" lon="-2.34233">
        <ele>32.599998474121</ele>
        <time>2020-06-04T08:50:53.000Z</time>
      </trkpt>
      <trkpt lat="47.34852" lon="-2.34235">
        <ele>33</ele>
        <time>2020-06-04T08:50:54.000Z</time>
      </trkpt>
      <trkpt lat="47.34855" lon="-2.34237">
        <ele>33.400001525879</ele>
        <time>2020-06-04T08:50:55.000Z</time>
      </trkpt>
      <trkpt lat="47.3486" lon="-2.34237">
        <ele>33.799999237061</ele>
        <time>2020-06-04T08:50:57.000Z</time>
      </trkpt>
      <trkpt lat="47.34863" lon="-2.34236">
        <ele>34.200000762939</ele>
        <time>2020-06-04T08:50:58.000Z</time>
      </trkpt>
      <trkpt lat="47.34866" lon="-2.34233">
        <ele>34.799999237061</ele>
        <time>2020-06-04T08:50:59.000Z</time>
      </trkpt>
      <trkpt lat="47.34868" lon="-2.3423">
        <ele>35.200000762939</ele>
        <time>2020-06-04T08:51:00.000Z</time>
      </trkpt>
      <trkpt lat="47.3487" lon="-2.34227">
        <ele>35.599998474121</ele>
        <time>2020-06-04T08:51:01.000Z</time>
      </trkpt>
      <trkpt lat="47.34871" lon="-2.34223">
        <ele>35.599998474121</ele>
        <time>2020-06-04T08:51:02.000Z</time>
      </trkpt>
      <trkpt lat="47.34875" lon="-2.34216">
        <ele>36.200000762939</ele>
        <time>2020-06-04T08:51:04.000Z</time>
      </trkpt>
      <trkpt lat="47.34877" lon="-2.34213">
        <ele>36.599998474121</ele>
        <time>2020-06-04T08:51:05.000Z</time>
      </trkpt>
      <trkpt lat="47.34879" lon="-2.34211">
        <ele>37</ele>
        <time>2020-06-04T08:51:06.000Z</time>
      </trkpt>
      <trkpt lat="47.34881" lon="-2.3421">
        <ele>37.400001525879</ele>
        <time>2020-06-04T08:51:07.000Z</time>
      </trkpt>
      <trkpt lat="47.34882" lon="-2.34209">
        <ele>38</ele>
        <time>2020-06-04T08:51:08.000Z</time>
      </trkpt>
      <trkpt lat="47.34886" lon="-2.34208">
        <ele>38.400001525879</ele>
        <time>2020-06-04T08:51:10.000Z</time>
      </trkpt>
      <trkpt lat="47.34887" lon="-2.34207">
        <ele>38.799999237061</ele>
        <time>2020-06-04T08:51:11.000Z</time>
      </trkpt>
      <trkpt lat="47.34888" lon="-2.34208">
        <ele>39.200000762939</ele>
        <time>2020-06-04T08:51:12.000Z</time>
      </trkpt>
      <trkpt lat="47.34888" lon="-2.34208">
        <ele>39.599998474121</ele>
        <time>2020-06-04T08:51:13.000Z</time>
      </trkpt>
      <trkpt lat="47.34895" lon="-2.34204">
        <ele>38</ele>
        <time>2020-06-04T09:05:36.000Z</time>
      </trkpt>
      <trkpt lat="47.34915" lon="-2.34208">
        <ele>38</ele>
        <time>2020-06-04T09:05:41.000Z</time>
      </trkpt>
      <trkpt lat="47.3492" lon="-2.34208">
        <ele>38</ele>
        <time>2020-06-04T09:05:42.000Z</time>
      </trkpt>
      <trkpt lat="47.34932" lon="-2.34206">
        <ele>38</ele>
        <time>2020-06-04T09:05:44.000Z</time>
      </trkpt>
      <trkpt lat="47.34937" lon="-2.34204">
        <ele>38</ele>
        <time>2020-06-04T09:05:45.000Z</time>
      </trkpt>
      <trkpt lat="47.34959" lon="-2.34194">
        <ele>37.599998474121</ele>
        <time>2020-06-04T09:05:49.000Z</time>
      </trkpt>
      <trkpt lat="47.34963" lon="-2.34193">
        <ele>37</ele>
        <time>2020-06-04T09:05:50.000Z</time>
      </trkpt>
      <trkpt lat="47.34967" lon="-2.34194">
        <ele>36.599998474121</ele>
        <time>2020-06-04T09:05:51.000Z</time>
      </trkpt>
      <trkpt lat="47.34969" lon="-2.34196">
        <ele>36.200000762939</ele>
        <time>2020-06-04T09:05:52.000Z</time>
      </trkpt>
      <trkpt lat="47.34971" lon="-2.34199">
        <ele>35.599998474121</ele>
        <time>2020-06-04T09:05:53.000Z</time>
      </trkpt>
      <trkpt lat="47.34974" lon="-2.34202">
        <ele>35</ele>
        <time>2020-06-04T09:05:54.000Z</time>
      </trkpt>
      <trkpt lat="47.34977" lon="-2.34205">
        <ele>34.599998474121</ele>
        <time>2020-06-04T09:05:55.000Z</time>
      </trkpt>
      <trkpt lat="47.34979" lon="-2.34209">
        <ele>34</ele>
        <time>2020-06-04T09:05:56.000Z</time>
      </trkpt>
      <trkpt lat="47.34982" lon="-2.34213">
        <ele>33.400001525879</ele>
        <time>2020-06-04T09:05:57.000Z</time>
      </trkpt>
      <trkpt lat="47.34983" lon="-2.34219">
        <ele>33.400001525879</ele>
        <time>2020-06-04T09:05:58.000Z</time>
      </trkpt>
      <trkpt lat="47.34985" lon="-2.34233">
        <ele>32.599998474121</ele>
        <time>2020-06-04T09:06:00.000Z</time>
      </trkpt>
      <trkpt lat="47.34986" lon="-2.3424">
        <ele>32.200000762939</ele>
        <time>2020-06-04T09:06:01.000Z</time>
      </trkpt>
      <trkpt lat="47.34987" lon="-2.34247">
        <ele>31.799999237061</ele>
        <time>2020-06-04T09:06:02.000Z</time>
      </trkpt>
      <trkpt lat="47.34989" lon="-2.34253">
        <ele>31.39999961853</ele>
        <time>2020-06-04T09:06:03.000Z</time>
      </trkpt>
      <trkpt lat="47.34995" lon="-2.34276">
        <ele>31</ele>
        <time>2020-06-04T09:06:06.000Z</time>
      </trkpt>
      <trkpt lat="47.34997" lon="-2.34284">
        <ele>30.60000038147</ele>
        <time>2020-06-04T09:06:07.000Z</time>
      </trkpt>
      <trkpt lat="47.35" lon="-2.34292">
        <ele>30.200000762939</ele>
        <time>2020-06-04T09:06:08.000Z</time>
      </trkpt>
      <trkpt lat="47.35004" lon="-2.343">
        <ele>29.60000038147</ele>
        <time>2020-06-04T09:06:09.000Z</time>
      </trkpt>
      <trkpt lat="47.35007" lon="-2.34308">
        <ele>29.200000762939</ele>
        <time>2020-06-04T09:06:10.000Z</time>
      </trkpt>
      <trkpt lat="47.35013" lon="-2.34324">
        <ele>28.799999237061</ele>
        <time>2020-06-04T09:06:12.000Z</time>
      </trkpt>
      <trkpt lat="47.35016" lon="-2.34332">
        <ele>28.39999961853</ele>
        <time>2020-06-04T09:06:13.000Z</time>
      </trkpt>
      <trkpt lat="47.3502" lon="-2.34341">
        <ele>28</ele>
        <time>2020-06-04T09:06:14.000Z</time>
      </trkpt>
      <trkpt lat="47.35022" lon="-2.34349">
        <ele>27.60000038147</ele>
        <time>2020-06-04T09:06:15.000Z</time>
      </trkpt>
      <trkpt lat="47.35024" lon="-2.34356">
        <ele>27.200000762939</ele>
        <time>2020-06-04T09:06:16.000Z</time>
      </trkpt>
      <trkpt lat="47.35026" lon="-2.34363">
        <ele>26.799999237061</ele>
        <time>2020-06-04T09:06:17.000Z</time>
      </trkpt>
      <trkpt lat="47.35029" lon="-2.3437">
        <ele>26.200000762939</ele>
        <time>2020-06-04T09:06:18.000Z</time>
      </trkpt>
      <trkpt lat="47.35032" lon="-2.34377">
        <ele>25.799999237061</ele>
        <time>2020-06-04T09:06:19.000Z</time>
      </trkpt>
      <trkpt lat="47.35035" lon="-2.34383">
        <ele>25.39999961853</ele>
        <time>2020-06-04T09:06:20.000Z</time>
      </trkpt>
      <trkpt lat="47.35038" lon="-2.34387">
        <ele>25</ele>
        <time>2020-06-04T09:06:21.000Z</time>
      </trkpt>
      <trkpt lat="47.35041" lon="-2.34392">
        <ele>25</ele>
        <time>2020-06-04T09:06:22.000Z</time>
      </trkpt>
      <trkpt lat="47.35044" lon="-2.34397">
        <ele>24.60000038147</ele>
        <time>2020-06-04T09:06:23.000Z</time>
      </trkpt>
      <trkpt lat="47.35046" lon="-2.344">
        <ele>24</ele>
        <time>2020-06-04T09:06:24.000Z</time>
      </trkpt>
      <trkpt lat="47.35047" lon="-2.34402">
        <ele>23.200000762939</ele>
        <time>2020-06-04T09:06:25.000Z</time>
      </trkpt>
      <trkpt lat="47.35048" lon="-2.34404">
        <ele>22.799999237061</ele>
        <time>2020-06-04T09:06:26.000Z</time>
      </trkpt>
      <trkpt lat="47.3505" lon="-2.34405">
        <ele>22.39999961853</ele>
        <time>2020-06-04T09:06:27.000Z</time>
      </trkpt>
      <trkpt lat="47.3505" lon="-2.34405">
        <ele>22</ele>
        <time>2020-06-04T09:06:28.000Z</time>
      </trkpt>
      <trkpt lat="47.3505" lon="-2.34405">
        <ele>21.60000038147</ele>
        <time>2020-06-04T09:06:29.000Z</time>
      </trkpt>
      <trkpt lat="47.35063" lon="-2.34447">
        <ele>18.60000038147</ele>
        <time>2020-06-04T09:08:10.000Z</time>
      </trkpt>
      <trkpt lat="47.35068" lon="-2.34459">
        <ele>18.60000038147</ele>
        <time>2020-06-04T09:08:16.000Z</time>
      </trkpt>
      <trkpt lat="47.35075" lon="-2.34479">
        <ele>18.60000038147</ele>
        <time>2020-06-04T09:08:24.000Z</time>
      </trkpt>
      <trkpt lat="47.35078" lon="-2.34488">
        <ele>19</ele>
        <time>2020-06-04T09:08:27.000Z</time>
      </trkpt>
      <trkpt lat="47.35079" lon="-2.3449">
        <ele>19.39999961853</ele>
        <time>2020-06-04T09:08:28.000Z</time>
      </trkpt>
      <trkpt lat="47.35081" lon="-2.34492">
        <ele>20.39999961853</ele>
        <time>2020-06-04T09:08:29.000Z</time>
      </trkpt>
      <trkpt lat="47.35083" lon="-2.34494">
        <ele>20.799999237061</ele>
        <time>2020-06-04T09:08:30.000Z</time>
      </trkpt>
      <trkpt lat="47.35092" lon="-2.34502">
        <ele>21.200000762939</ele>
        <time>2020-06-04T09:08:34.000Z</time>
      </trkpt>
      <trkpt lat="47.35094" lon="-2.34505">
        <ele>21.60000038147</ele>
        <time>2020-06-04T09:08:35.000Z</time>
      </trkpt>
      <trkpt lat="47.35096" lon="-2.34508">
        <ele>22</ele>
        <time>2020-06-04T09:08:36.000Z</time>
      </trkpt>
      <trkpt lat="47.35097" lon="-2.34511">
        <ele>22.39999961853</ele>
        <time>2020-06-04T09:08:37.000Z</time>
      </trkpt>
      <trkpt lat="47.35099" lon="-2.34514">
        <ele>23</ele>
        <time>2020-06-04T09:08:38.000Z</time>
      </trkpt>
      <trkpt lat="47.35105" lon="-2.34528">
        <ele>23</ele>
        <time>2020-06-04T09:08:42.000Z</time>
      </trkpt>
      <trkpt lat="47.35111" lon="-2.34535">
        <ele>23</ele>
        <time>2020-06-04T09:08:44.000Z</time>
      </trkpt>
      <trkpt lat="47.35118" lon="-2.34534">
        <ele>23</ele>
        <time>2020-06-04T09:08:46.000Z</time>
      </trkpt>
      <trkpt lat="47.35126" lon="-2.34532">
        <ele>23</ele>
        <time>2020-06-04T09:08:48.000Z</time>
      </trkpt>
      <trkpt lat="47.35136" lon="-2.34528">
        <ele>23.39999961853</ele>
        <time>2020-06-04T09:08:50.000Z</time>
      </trkpt>
      <trkpt lat="47.35141" lon="-2.34526">
        <ele>23.799999237061</ele>
        <time>2020-06-04T09:08:51.000Z</time>
      </trkpt>
      <trkpt lat="47.35146" lon="-2.34524">
        <ele>24.200000762939</ele>
        <time>2020-06-04T09:08:52.000Z</time>
      </trkpt>
      <trkpt lat="47.35152" lon="-2.34522">
        <ele>24.60000038147</ele>
        <time>2020-06-04T09:08:53.000Z</time>
      </trkpt>
      <trkpt lat="47.35157" lon="-2.3452">
        <ele>25</ele>
        <time>2020-06-04T09:08:54.000Z</time>
      </trkpt>
      <trkpt lat="47.35174" lon="-2.34514">
        <ele>25</ele>
        <time>2020-06-04T09:08:57.000Z</time>
      </trkpt>
      <trkpt lat="47.3518" lon="-2.34511">
        <ele>24.60000038147</ele>
        <time>2020-06-04T09:08:58.000Z</time>
      </trkpt>
      <trkpt lat="47.35186" lon="-2.34509">
        <ele>24.200000762939</ele>
        <time>2020-06-04T09:08:59.000Z</time>
      </trkpt>
      <trkpt lat="47.35191" lon="-2.34506">
        <ele>23.60000038147</ele>
        <time>2020-06-04T09:09:00.000Z</time>
      </trkpt>
      <trkpt lat="47.35198" lon="-2.34504">
        <ele>23.200000762939</ele>
        <time>2020-06-04T09:09:01.000Z</time>
      </trkpt>
      <trkpt lat="47.35204" lon="-2.34502">
        <ele>22.799999237061</ele>
        <time>2020-06-04T09:09:02.000Z</time>
      </trkpt>
      <trkpt lat="47.35216" lon="-2.34498">
        <ele>22.799999237061</ele>
        <time>2020-06-04T09:09:04.000Z</time>
      </trkpt>
      <trkpt lat="47.35239" lon="-2.34488">
        <ele>22.799999237061</ele>
        <time>2020-06-04T09:09:08.000Z</time>
      </trkpt>
      <trkpt lat="47.35244" lon="-2.34485">
        <ele>22.799999237061</ele>
        <time>2020-06-04T09:09:09.000Z</time>
      </trkpt>
      <trkpt lat="47.35268" lon="-2.34476">
        <ele>22.799999237061</ele>
        <time>2020-06-04T09:09:13.000Z</time>
      </trkpt>
      <trkpt lat="47.3528" lon="-2.34472">
        <ele>22.799999237061</ele>
        <time>2020-06-04T09:09:15.000Z</time>
      </trkpt>
      <trkpt lat="47.35285" lon="-2.34471">
        <ele>22.799999237061</ele>
        <time>2020-06-04T09:09:16.000Z</time>
      </trkpt>
      <trkpt lat="47.353" lon="-2.34472">
        <ele>22.799999237061</ele>
        <time>2020-06-04T09:09:19.000Z</time>
      </trkpt>
      <trkpt lat="47.35328" lon="-2.34484">
        <ele>22.799999237061</ele>
        <time>2020-06-04T09:09:25.000Z</time>
      </trkpt>
      <trkpt lat="47.35353" lon="-2.34511">
        <ele>22.799999237061</ele>
        <time>2020-06-04T09:09:31.000Z</time>
      </trkpt>
      <trkpt lat="47.35374" lon="-2.34549">
        <ele>22.799999237061</ele>
        <time>2020-06-04T09:09:37.000Z</time>
      </trkpt>
      <trkpt lat="47.35398" lon="-2.34603">
        <ele>22.799999237061</ele>
        <time>2020-06-04T09:09:45.000Z</time>
      </trkpt>
      <trkpt lat="47.35415" lon="-2.34652">
        <ele>22.799999237061</ele>
        <time>2020-06-04T09:09:52.000Z</time>
      </trkpt>
      <trkpt lat="47.35432" lon="-2.34693">
        <ele>22.799999237061</ele>
        <time>2020-06-04T09:09:59.000Z</time>
      </trkpt>
      <trkpt lat="47.35442" lon="-2.34706">
        <ele>22.799999237061</ele>
        <time>2020-06-04T09:10:03.000Z</time>
      </trkpt>
      <trkpt lat="47.35446" lon="-2.34713">
        <ele>22.799999237061</ele>
        <time>2020-06-04T09:10:06.000Z</time>
      </trkpt>
      <trkpt lat="47.35448" lon="-2.34711">
        <ele>22.799999237061</ele>
        <time>2020-06-04T09:10:07.000Z</time>
      </trkpt>
      <trkpt lat="47.35452" lon="-2.34696">
        <ele>22.799999237061</ele>
        <time>2020-06-04T09:10:10.000Z</time>
      </trkpt>
      <trkpt lat="47.35464" lon="-2.34662">
        <ele>22.799999237061</ele>
        <time>2020-06-04T09:10:15.000Z</time>
      </trkpt>
      <trkpt lat="47.35484" lon="-2.3461">
        <ele>22.799999237061</ele>
        <time>2020-06-04T09:10:21.000Z</time>
      </trkpt>
      <trkpt lat="47.35505" lon="-2.34563">
        <ele>22.39999961853</ele>
        <time>2020-06-04T09:10:27.000Z</time>
      </trkpt>
      <trkpt lat="47.35509" lon="-2.34555">
        <ele>22</ele>
        <time>2020-06-04T09:10:28.000Z</time>
      </trkpt>
      <trkpt lat="47.35512" lon="-2.34547">
        <ele>21.60000038147</ele>
        <time>2020-06-04T09:10:29.000Z</time>
      </trkpt>
      <trkpt lat="47.35515" lon="-2.34539">
        <ele>21.200000762939</ele>
        <time>2020-06-04T09:10:30.000Z</time>
      </trkpt>
      <trkpt lat="47.35518" lon="-2.3453">
        <ele>20.60000038147</ele>
        <time>2020-06-04T09:10:31.000Z</time>
      </trkpt>
      <trkpt lat="47.35524" lon="-2.34502">
        <ele>20.60000038147</ele>
        <time>2020-06-04T09:10:34.000Z</time>
      </trkpt>
      <trkpt lat="47.35531" lon="-2.34457">
        <ele>20.60000038147</ele>
        <time>2020-06-04T09:10:39.000Z</time>
      </trkpt>
      <trkpt lat="47.35542" lon="-2.34392">
        <ele>20.60000038147</ele>
        <time>2020-06-04T09:10:47.000Z</time>
      </trkpt>
      <trkpt lat="47.35552" lon="-2.34342">
        <ele>21.200000762939</ele>
        <time>2020-06-04T09:10:53.000Z</time>
      </trkpt>
      <trkpt lat="47.35553" lon="-2.34333">
        <ele>21.60000038147</ele>
        <time>2020-06-04T09:10:54.000Z</time>
      </trkpt>
      <trkpt lat="47.35555" lon="-2.34324">
        <ele>22</ele>
        <time>2020-06-04T09:10:55.000Z</time>
      </trkpt>
      <trkpt lat="47.35556" lon="-2.34316">
        <ele>22.39999961853</ele>
        <time>2020-06-04T09:10:56.000Z</time>
      </trkpt>
      <trkpt lat="47.35557" lon="-2.34308">
        <ele>22.799999237061</ele>
        <time>2020-06-04T09:10:57.000Z</time>
      </trkpt>
      <trkpt lat="47.35561" lon="-2.34268">
        <ele>22.799999237061</ele>
        <time>2020-06-04T09:11:02.000Z</time>
      </trkpt>
      <trkpt lat="47.35565" lon="-2.34204">
        <ele>22.799999237061</ele>
        <time>2020-06-04T09:11:10.000Z</time>
      </trkpt>
      <trkpt lat="47.35567" lon="-2.34185">
        <ele>22.799999237061</ele>
        <time>2020-06-04T09:11:13.000Z</time>
      </trkpt>
      <trkpt lat="47.35569" lon="-2.34181">
        <ele>22.799999237061</ele>
        <time>2020-06-04T09:11:14.000Z</time>
      </trkpt>
      <trkpt lat="47.35581" lon="-2.34178">
        <ele>22.799999237061</ele>
        <time>2020-06-04T09:11:17.000Z</time>
      </trkpt>
      <trkpt lat="47.35586" lon="-2.34178">
        <ele>22.799999237061</ele>
        <time>2020-06-04T09:11:18.000Z</time>
      </trkpt>
      <trkpt lat="47.35591" lon="-2.34179">
        <ele>23.200000762939</ele>
        <time>2020-06-04T09:11:19.000Z</time>
      </trkpt>
      <trkpt lat="47.35596" lon="-2.3418">
        <ele>23.799999237061</ele>
        <time>2020-06-04T09:11:20.000Z</time>
      </trkpt>
      <trkpt lat="47.35602" lon="-2.3418">
        <ele>24.200000762939</ele>
        <time>2020-06-04T09:11:21.000Z</time>
      </trkpt>
      <trkpt lat="47.35608" lon="-2.34181">
        <ele>25</ele>
        <time>2020-06-04T09:11:22.000Z</time>
      </trkpt>
      <trkpt lat="47.35625" lon="-2.34184">
        <ele>25.39999961853</ele>
        <time>2020-06-04T09:11:25.000Z</time>
      </trkpt>
      <trkpt lat="47.3563" lon="-2.34185">
        <ele>25.799999237061</ele>
        <time>2020-06-04T09:11:26.000Z</time>
      </trkpt>
      <trkpt lat="47.35636" lon="-2.34186">
        <ele>26.200000762939</ele>
        <time>2020-06-04T09:11:27.000Z</time>
      </trkpt>
      <trkpt lat="47.35641" lon="-2.34188">
        <ele>26.60000038147</ele>
        <time>2020-06-04T09:11:28.000Z</time>
      </trkpt>
      <trkpt lat="47.35646" lon="-2.34189">
        <ele>27</ele>
        <time>2020-06-04T09:11:29.000Z</time>
      </trkpt>
      <trkpt lat="47.35682" lon="-2.34201">
        <ele>27</ele>
        <time>2020-06-04T09:11:36.000Z</time>
      </trkpt>
      <trkpt lat="47.35702" lon="-2.34205">
        <ele>27</ele>
        <time>2020-06-04T09:11:40.000Z</time>
      </trkpt>
      <trkpt lat="47.35717" lon="-2.34205">
        <ele>27.39999961853</ele>
        <time>2020-06-04T09:11:43.000Z</time>
      </trkpt>
      <trkpt lat="47.35722" lon="-2.34204">
        <ele>28</ele>
        <time>2020-06-04T09:11:44.000Z</time>
      </trkpt>
      <trkpt lat="47.35727" lon="-2.34203">
        <ele>28.39999961853</ele>
        <time>2020-06-04T09:11:45.000Z</time>
      </trkpt>
      <trkpt lat="47.35731" lon="-2.34202">
        <ele>28.799999237061</ele>
        <time>2020-06-04T09:11:46.000Z</time>
      </trkpt>
      <trkpt lat="47.35736" lon="-2.34201">
        <ele>29.200000762939</ele>
        <time>2020-06-04T09:11:47.000Z</time>
      </trkpt>
      <trkpt lat="47.3575" lon="-2.34197">
        <ele>29.200000762939</ele>
        <time>2020-06-04T09:11:50.000Z</time>
      </trkpt>
      <trkpt lat="47.35759" lon="-2.34197">
        <ele>29.200000762939</ele>
        <time>2020-06-04T09:11:53.000Z</time>
      </trkpt>
      <trkpt lat="47.3576" lon="-2.34199">
        <ele>29.200000762939</ele>
        <time>2020-06-04T09:11:54.000Z</time>
      </trkpt>
      <trkpt lat="47.35762" lon="-2.34209">
        <ele>29.200000762939</ele>
        <time>2020-06-04T09:11:57.000Z</time>
      </trkpt>
      <trkpt lat="47.35763" lon="-2.34214">
        <ele>29.200000762939</ele>
        <time>2020-06-04T09:11:58.000Z</time>
      </trkpt>
      <trkpt lat="47.35763" lon="-2.34245">
        <ele>29.200000762939</ele>
        <time>2020-06-04T09:12:04.000Z</time>
      </trkpt>
      <trkpt lat="47.35763" lon="-2.34296">
        <ele>29.200000762939</ele>
        <time>2020-06-04T09:12:10.000Z</time>
      </trkpt>
      <trkpt lat="47.3577" lon="-2.34353">
        <ele>29.200000762939</ele>
        <time>2020-06-04T09:12:16.000Z</time>
      </trkpt>
      <trkpt lat="47.3578" lon="-2.34421">
        <ele>28.799999237061</ele>
        <time>2020-06-04T09:12:23.000Z</time>
      </trkpt>
      <trkpt lat="47.35781" lon="-2.34431">
        <ele>28.39999961853</ele>
        <time>2020-06-04T09:12:24.000Z</time>
      </trkpt>
      <trkpt lat="47.35783" lon="-2.34442">
        <ele>28</ele>
        <time>2020-06-04T09:12:25.000Z</time>
      </trkpt>
      <trkpt lat="47.35784" lon="-2.34453">
        <ele>27.60000038147</ele>
        <time>2020-06-04T09:12:26.000Z</time>
      </trkpt>
      <trkpt lat="47.35785" lon="-2.34463">
        <ele>27.200000762939</ele>
        <time>2020-06-04T09:12:27.000Z</time>
      </trkpt>
      <trkpt lat="47.3579" lon="-2.34494">
        <ele>27.200000762939</ele>
        <time>2020-06-04T09:12:30.000Z</time>
      </trkpt>
      <trkpt lat="47.35799" lon="-2.34563">
        <ele>27.200000762939</ele>
        <time>2020-06-04T09:12:37.000Z</time>
      </trkpt>
      <trkpt lat="47.35804" lon="-2.34584">
        <ele>27.200000762939</ele>
        <time>2020-06-04T09:12:39.000Z</time>
      </trkpt>
      <trkpt lat="47.35814" lon="-2.34612">
        <ele>27.200000762939</ele>
        <time>2020-06-04T09:12:42.000Z</time>
      </trkpt>
      <trkpt lat="47.35839" lon="-2.34668">
        <ele>27.200000762939</ele>
        <time>2020-06-04T09:12:49.000Z</time>
      </trkpt>
      <trkpt lat="47.35859" lon="-2.34719">
        <ele>27.200000762939</ele>
        <time>2020-06-04T09:12:56.000Z</time>
      </trkpt>
      <trkpt lat="47.35882" lon="-2.34773">
        <ele>27.200000762939</ele>
        <time>2020-06-04T09:13:03.000Z</time>
      </trkpt>
      <trkpt lat="47.35902" lon="-2.34822">
        <ele>27.200000762939</ele>
        <time>2020-06-04T09:13:09.000Z</time>
      </trkpt>
      <trkpt lat="47.35921" lon="-2.3486">
        <ele>27.200000762939</ele>
        <time>2020-06-04T09:13:14.000Z</time>
      </trkpt>
      <trkpt lat="47.35927" lon="-2.34864">
        <ele>27.200000762939</ele>
        <time>2020-06-04T09:13:15.000Z</time>
      </trkpt>
      <trkpt lat="47.35947" lon="-2.34867">
        <ele>27.200000762939</ele>
        <time>2020-06-04T09:13:18.000Z</time>
      </trkpt>
      <trkpt lat="47.35992" lon="-2.3487">
        <ele>27.200000762939</ele>
        <time>2020-06-04T09:13:25.000Z</time>
      </trkpt>
      <trkpt lat="47.36016" lon="-2.34873">
        <ele>27.200000762939</ele>
        <time>2020-06-04T09:13:29.000Z</time>
      </trkpt>
      <trkpt lat="47.36028" lon="-2.34874">
        <ele>27.200000762939</ele>
        <time>2020-06-04T09:13:31.000Z</time>
      </trkpt>
      <trkpt lat="47.36074" lon="-2.34878">
        <ele>27.200000762939</ele>
        <time>2020-06-04T09:13:39.000Z</time>
      </trkpt>
      <trkpt lat="47.36078" lon="-2.34879">
        <ele>27.200000762939</ele>
        <time>2020-06-04T09:13:40.000Z</time>
      </trkpt>
      <trkpt lat="47.36087" lon="-2.34889">
        <ele>27.200000762939</ele>
        <time>2020-06-04T09:13:43.000Z</time>
      </trkpt>
      <trkpt lat="47.36092" lon="-2.34916">
        <ele>27.200000762939</ele>
        <time>2020-06-04T09:13:47.000Z</time>
      </trkpt>
      <trkpt lat="47.36092" lon="-2.34926">
        <ele>27.200000762939</ele>
        <time>2020-06-04T09:13:48.000Z</time>
      </trkpt>
      <trkpt lat="47.36096" lon="-2.34962">
        <ele>27.200000762939</ele>
        <time>2020-06-04T09:13:52.000Z</time>
      </trkpt>
      <trkpt lat="47.36098" lon="-2.34971">
        <ele>27.200000762939</ele>
        <time>2020-06-04T09:13:53.000Z</time>
      </trkpt>
      <trkpt lat="47.36103" lon="-2.35024">
        <ele>27.200000762939</ele>
        <time>2020-06-04T09:13:59.000Z</time>
      </trkpt>
      <trkpt lat="47.36103" lon="-2.35033">
        <ele>27.200000762939</ele>
        <time>2020-06-04T09:14:00.000Z</time>
      </trkpt>
      <trkpt lat="47.36099" lon="-2.35084">
        <ele>26.799999237061</ele>
        <time>2020-06-04T09:14:06.000Z</time>
      </trkpt>
      <trkpt lat="47.36099" lon="-2.35093">
        <ele>26.39999961853</ele>
        <time>2020-06-04T09:14:07.000Z</time>
      </trkpt>
      <trkpt lat="47.36098" lon="-2.35102">
        <ele>26</ele>
        <time>2020-06-04T09:14:08.000Z</time>
      </trkpt>
      <trkpt lat="47.36097" lon="-2.35111">
        <ele>25.39999961853</ele>
        <time>2020-06-04T09:14:09.000Z</time>
      </trkpt>
      <trkpt lat="47.36096" lon="-2.35119">
        <ele>25</ele>
        <time>2020-06-04T09:14:10.000Z</time>
      </trkpt>
      <trkpt lat="47.36094" lon="-2.35147">
        <ele>25</ele>
        <time>2020-06-04T09:14:13.000Z</time>
      </trkpt>
      <trkpt lat="47.3609" lon="-2.3518">
        <ele>25</ele>
        <time>2020-06-04T09:14:17.000Z</time>
      </trkpt>
      <trkpt lat="47.36085" lon="-2.35195">
        <ele>25</ele>
        <time>2020-06-04T09:14:19.000Z</time>
      </trkpt>
      <trkpt lat="47.3607" lon="-2.35218">
        <ele>25</ele>
        <time>2020-06-04T09:14:23.000Z</time>
      </trkpt>
      <trkpt lat="47.36036" lon="-2.35264">
        <ele>25</ele>
        <time>2020-06-04T09:14:31.000Z</time>
      </trkpt>
      <trkpt lat="47.3601" lon="-2.353">
        <ele>25</ele>
        <time>2020-06-04T09:14:37.000Z</time>
      </trkpt>
      <trkpt lat="47.36005" lon="-2.35306">
        <ele>25</ele>
        <time>2020-06-04T09:14:38.000Z</time>
      </trkpt>
      <trkpt lat="47.3598" lon="-2.35339">
        <ele>25</ele>
        <time>2020-06-04T09:14:43.000Z</time>
      </trkpt>
      <trkpt lat="47.35954" lon="-2.35373">
        <ele>25</ele>
        <time>2020-06-04T09:14:48.000Z</time>
      </trkpt>
      <trkpt lat="47.35923" lon="-2.35407">
        <ele>25</ele>
        <time>2020-06-04T09:14:54.000Z</time>
      </trkpt>
      <trkpt lat="47.35916" lon="-2.35411">
        <ele>25</ele>
        <time>2020-06-04T09:14:55.000Z</time>
      </trkpt>
      <trkpt lat="47.35885" lon="-2.35433">
        <ele>25</ele>
        <time>2020-06-04T09:15:00.000Z</time>
      </trkpt>
      <trkpt lat="47.35847" lon="-2.35461">
        <ele>25</ele>
        <time>2020-06-04T09:15:06.000Z</time>
      </trkpt>
      <trkpt lat="47.35794" lon="-2.35487">
        <ele>25</ele>
        <time>2020-06-04T09:15:14.000Z</time>
      </trkpt>
      <trkpt lat="47.3575" lon="-2.3551">
        <ele>25</ele>
        <time>2020-06-04T09:15:21.000Z</time>
      </trkpt>
      <trkpt lat="47.35709" lon="-2.35529">
        <ele>25</ele>
        <time>2020-06-04T09:15:27.000Z</time>
      </trkpt>
      <trkpt lat="47.35671" lon="-2.35552">
        <ele>25</ele>
        <time>2020-06-04T09:15:33.000Z</time>
      </trkpt>
      <trkpt lat="47.35632" lon="-2.35583">
        <ele>25</ele>
        <time>2020-06-04T09:15:39.000Z</time>
      </trkpt>
      <trkpt lat="47.35626" lon="-2.35589">
        <ele>25</ele>
        <time>2020-06-04T09:15:40.000Z</time>
      </trkpt>
      <trkpt lat="47.35604" lon="-2.35614">
        <ele>25</ele>
        <time>2020-06-04T09:15:44.000Z</time>
      </trkpt>
      <trkpt lat="47.35576" lon="-2.35642">
        <ele>25</ele>
        <time>2020-06-04T09:15:49.000Z</time>
      </trkpt>
      <trkpt lat="47.35566" lon="-2.35651">
        <ele>25</ele>
        <time>2020-06-04T09:15:51.000Z</time>
      </trkpt>
      <trkpt lat="47.35549" lon="-2.35664">
        <ele>25.39999961853</ele>
        <time>2020-06-04T09:15:54.000Z</time>
      </trkpt>
      <trkpt lat="47.35544" lon="-2.35668">
        <ele>25.799999237061</ele>
        <time>2020-06-04T09:15:55.000Z</time>
      </trkpt>
      <trkpt lat="47.35539" lon="-2.35674">
        <ele>26.39999961853</ele>
        <time>2020-06-04T09:15:56.000Z</time>
      </trkpt>
      <trkpt lat="47.35534" lon="-2.35679">
        <ele>26.799999237061</ele>
        <time>2020-06-04T09:15:57.000Z</time>
      </trkpt>
      <trkpt lat="47.35529" lon="-2.35683">
        <ele>27.200000762939</ele>
        <time>2020-06-04T09:15:58.000Z</time>
      </trkpt>
      <trkpt lat="47.35497" lon="-2.3572">
        <ele>27.200000762939</ele>
        <time>2020-06-04T09:16:05.000Z</time>
      </trkpt>
      <trkpt lat="47.35488" lon="-2.35732">
        <ele>27.200000762939</ele>
        <time>2020-06-04T09:16:07.000Z</time>
      </trkpt>
      <trkpt lat="47.35472" lon="-2.35758">
        <ele>27.200000762939</ele>
        <time>2020-06-04T09:16:11.000Z</time>
      </trkpt>
      <trkpt lat="47.35451" lon="-2.35789">
        <ele>28</ele>
        <time>2020-06-04T09:16:16.000Z</time>
      </trkpt>
      <trkpt lat="47.35446" lon="-2.35795">
        <ele>28.39999961853</ele>
        <time>2020-06-04T09:16:17.000Z</time>
      </trkpt>
      <trkpt lat="47.35441" lon="-2.35802">
        <ele>28.799999237061</ele>
        <time>2020-06-04T09:16:18.000Z</time>
      </trkpt>
      <trkpt lat="47.35437" lon="-2.35808">
        <ele>29.200000762939</ele>
        <time>2020-06-04T09:16:19.000Z</time>
      </trkpt>
      <trkpt lat="47.35403" lon="-2.35853">
        <ele>29.200000762939</ele>
        <time>2020-06-04T09:16:26.000Z</time>
      </trkpt>
      <trkpt lat="47.35365" lon="-2.35898">
        <ele>29.200000762939</ele>
        <time>2020-06-04T09:16:33.000Z</time>
      </trkpt>
      <trkpt lat="47.35342" lon="-2.35924">
        <ele>29.200000762939</ele>
        <time>2020-06-04T09:16:37.000Z</time>
      </trkpt>
      <trkpt lat="47.35337" lon="-2.35933">
        <ele>29.200000762939</ele>
        <time>2020-06-04T09:16:38.000Z</time>
      </trkpt>
      <trkpt lat="47.35329" lon="-2.35951">
        <ele>28.799999237061</ele>
        <time>2020-06-04T09:16:40.000Z</time>
      </trkpt>
      <trkpt lat="47.35324" lon="-2.3596">
        <ele>28</ele>
        <time>2020-06-04T09:16:41.000Z</time>
      </trkpt>
      <trkpt lat="47.3532" lon="-2.35969">
        <ele>27.60000038147</ele>
        <time>2020-06-04T09:16:42.000Z</time>
      </trkpt>
      <trkpt lat="47.35315" lon="-2.35979">
        <ele>27.200000762939</ele>
        <time>2020-06-04T09:16:43.000Z</time>
      </trkpt>
      <trkpt lat="47.35311" lon="-2.35989">
        <ele>27.200000762939</ele>
        <time>2020-06-04T09:16:44.000Z</time>
      </trkpt>
      <trkpt lat="47.35298" lon="-2.36017">
        <ele>27.200000762939</ele>
        <time>2020-06-04T09:16:47.000Z</time>
      </trkpt>
      <trkpt lat="47.35286" lon="-2.36032">
        <ele>27.200000762939</ele>
        <time>2020-06-04T09:16:49.000Z</time>
      </trkpt>
      <trkpt lat="47.35263" lon="-2.36052">
        <ele>27.200000762939</ele>
        <time>2020-06-04T09:16:53.000Z</time>
      </trkpt>
      <trkpt lat="47.35257" lon="-2.36057">
        <ele>27.200000762939</ele>
        <time>2020-06-04T09:16:54.000Z</time>
      </trkpt>
      <trkpt lat="47.35215" lon="-2.36092">
        <ele>27.200000762939</ele>
        <time>2020-06-04T09:17:01.000Z</time>
      </trkpt>
      <trkpt lat="47.35177" lon="-2.36122">
        <ele>27.200000762939</ele>
        <time>2020-06-04T09:17:07.000Z</time>
      </trkpt>
      <trkpt lat="47.35136" lon="-2.3615">
        <ele>27.200000762939</ele>
        <time>2020-06-04T09:17:14.000Z</time>
      </trkpt>
      <trkpt lat="47.35101" lon="-2.3617">
        <ele>27.200000762939</ele>
        <time>2020-06-04T09:17:21.000Z</time>
      </trkpt>
      <trkpt lat="47.35084" lon="-2.36178">
        <ele>27.200000762939</ele>
        <time>2020-06-04T09:17:25.000Z</time>
      </trkpt>
      <trkpt lat="47.35073" lon="-2.36179">
        <ele>27.200000762939</ele>
        <time>2020-06-04T09:17:27.000Z</time>
      </trkpt>
      <trkpt lat="47.35039" lon="-2.36176">
        <ele>27.200000762939</ele>
        <time>2020-06-04T09:17:33.000Z</time>
      </trkpt>
      <trkpt lat="47.35034" lon="-2.36174">
        <ele>27.200000762939</ele>
        <time>2020-06-04T09:17:34.000Z</time>
      </trkpt>
      <trkpt lat="47.35027" lon="-2.36172">
        <ele>27.60000038147</ele>
        <time>2020-06-04T09:17:35.000Z</time>
      </trkpt>
      <trkpt lat="47.35022" lon="-2.3617">
        <ele>28</ele>
        <time>2020-06-04T09:17:36.000Z</time>
      </trkpt>
      <trkpt lat="47.35015" lon="-2.36169">
        <ele>28.39999961853</ele>
        <time>2020-06-04T09:17:37.000Z</time>
      </trkpt>
      <trkpt lat="47.3501" lon="-2.36168">
        <ele>28.799999237061</ele>
        <time>2020-06-04T09:17:38.000Z</time>
      </trkpt>
      <trkpt lat="47.35003" lon="-2.36168">
        <ele>29.200000762939</ele>
        <time>2020-06-04T09:17:39.000Z</time>
      </trkpt>
      <trkpt lat="47.34998" lon="-2.36169">
        <ele>29.200000762939</ele>
        <time>2020-06-04T09:17:40.000Z</time>
      </trkpt>
      <trkpt lat="47.34972" lon="-2.36184">
        <ele>29.200000762939</ele>
        <time>2020-06-04T09:17:45.000Z</time>
      </trkpt>
      <trkpt lat="47.3496" lon="-2.362">
        <ele>29.200000762939</ele>
        <time>2020-06-04T09:17:48.000Z</time>
      </trkpt>
      <trkpt lat="47.34951" lon="-2.36211">
        <ele>29.60000038147</ele>
        <time>2020-06-04T09:17:50.000Z</time>
      </trkpt>
      <trkpt lat="47.34947" lon="-2.36216">
        <ele>30</ele>
        <time>2020-06-04T09:17:51.000Z</time>
      </trkpt>
      <trkpt lat="47.34944" lon="-2.36221">
        <ele>30.60000038147</ele>
        <time>2020-06-04T09:17:52.000Z</time>
      </trkpt>
      <trkpt lat="47.34939" lon="-2.36226">
        <ele>31</ele>
        <time>2020-06-04T09:17:53.000Z</time>
      </trkpt>
      <trkpt lat="47.34935" lon="-2.36231">
        <ele>31.39999961853</ele>
        <time>2020-06-04T09:17:54.000Z</time>
      </trkpt>
      <trkpt lat="47.34927" lon="-2.36241">
        <ele>31.39999961853</ele>
        <time>2020-06-04T09:17:56.000Z</time>
      </trkpt>
      <trkpt lat="47.34911" lon="-2.36258">
        <ele>31.39999961853</ele>
        <time>2020-06-04T09:18:01.000Z</time>
      </trkpt>
      <trkpt lat="47.34898" lon="-2.3627">
        <ele>31.799999237061</ele>
        <time>2020-06-04T09:18:05.000Z</time>
      </trkpt>
      <trkpt lat="47.34894" lon="-2.36273">
        <ele>32.200000762939</ele>
        <time>2020-06-04T09:18:06.000Z</time>
      </trkpt>
      <trkpt lat="47.3489" lon="-2.36276">
        <ele>32.599998474121</ele>
        <time>2020-06-04T09:18:07.000Z</time>
      </trkpt>
      <trkpt lat="47.34886" lon="-2.36279">
        <ele>33</ele>
        <time>2020-06-04T09:18:08.000Z</time>
      </trkpt>
      <trkpt lat="47.34882" lon="-2.36282">
        <ele>33.400001525879</ele>
        <time>2020-06-04T09:18:09.000Z</time>
      </trkpt>
      <trkpt lat="47.34857" lon="-2.36298">
        <ele>33.400001525879</ele>
        <time>2020-06-04T09:18:15.000Z</time>
      </trkpt>
      <trkpt lat="47.3484" lon="-2.36311">
        <ele>33.400001525879</ele>
        <time>2020-06-04T09:18:21.000Z</time>
      </trkpt>
      <trkpt lat="47.34839" lon="-2.3632">
        <ele>33.400001525879</ele>
        <time>2020-06-04T09:18:24.000Z</time>
      </trkpt>
      <trkpt lat="47.34841" lon="-2.36322">
        <ele>33.400001525879</ele>
        <time>2020-06-04T09:18:25.000Z</time>
      </trkpt>
      <trkpt lat="47.34852" lon="-2.36334">
        <ele>33.400001525879</ele>
        <time>2020-06-04T09:18:29.000Z</time>
      </trkpt>
      <trkpt lat="47.34871" lon="-2.36342">
        <ele>33.400001525879</ele>
        <time>2020-06-04T09:18:34.000Z</time>
      </trkpt>
      <trkpt lat="47.34894" lon="-2.36357">
        <ele>33.400001525879</ele>
        <time>2020-06-04T09:18:41.000Z</time>
      </trkpt>
      <trkpt lat="47.3491" lon="-2.36368">
        <ele>33.400001525879</ele>
        <time>2020-06-04T09:18:48.000Z</time>
      </trkpt>
      <trkpt lat="47.34925" lon="-2.36378">
        <ele>33.400001525879</ele>
        <time>2020-06-04T09:18:55.000Z</time>
      </trkpt>
      <trkpt lat="47.34949" lon="-2.36391">
        <ele>33.400001525879</ele>
        <time>2020-06-04T09:19:02.000Z</time>
      </trkpt>
      <trkpt lat="47.34962" lon="-2.364">
        <ele>33</ele>
        <time>2020-06-04T09:19:05.000Z</time>
      </trkpt>
      <trkpt lat="47.34968" lon="-2.36404">
        <ele>32.599998474121</ele>
        <time>2020-06-04T09:19:06.000Z</time>
      </trkpt>
      <trkpt lat="47.34972" lon="-2.36407">
        <ele>32.200000762939</ele>
        <time>2020-06-04T09:19:07.000Z</time>
      </trkpt>
      <trkpt lat="47.34977" lon="-2.3641">
        <ele>31.200000762939</ele>
        <time>2020-06-04T09:19:08.000Z</time>
      </trkpt>
      <trkpt lat="47.35002" lon="-2.36431">
        <ele>30.799999237061</ele>
        <time>2020-06-04T09:19:13.000Z</time>
      </trkpt>
      <trkpt lat="47.35005" lon="-2.36436">
        <ele>30.39999961853</ele>
        <time>2020-06-04T09:19:14.000Z</time>
      </trkpt>
      <trkpt lat="47.35007" lon="-2.36442">
        <ele>30</ele>
        <time>2020-06-04T09:19:15.000Z</time>
      </trkpt>
      <trkpt lat="47.35009" lon="-2.36448">
        <ele>29.60000038147</ele>
        <time>2020-06-04T09:19:16.000Z</time>
      </trkpt>
      <trkpt lat="47.35011" lon="-2.36455">
        <ele>29.200000762939</ele>
        <time>2020-06-04T09:19:17.000Z</time>
      </trkpt>
      <trkpt lat="47.35013" lon="-2.36462">
        <ele>29.200000762939</ele>
        <time>2020-06-04T09:19:18.000Z</time>
      </trkpt>
      <trkpt lat="47.35014" lon="-2.36468">
        <ele>29.200000762939</ele>
        <time>2020-06-04T09:19:19.000Z</time>
      </trkpt>
      <trkpt lat="47.35024" lon="-2.36494">
        <ele>29.200000762939</ele>
        <time>2020-06-04T09:19:24.000Z</time>
      </trkpt>
      <trkpt lat="47.35038" lon="-2.36513">
        <ele>29.200000762939</ele>
        <time>2020-06-04T09:19:30.000Z</time>
      </trkpt>
      <trkpt lat="47.35053" lon="-2.36545">
        <ele>29.200000762939</ele>
        <time>2020-06-04T09:19:39.000Z</time>
      </trkpt>
      <trkpt lat="47.35061" lon="-2.36571">
        <ele>29.200000762939</ele>
        <time>2020-06-04T09:19:47.000Z</time>
      </trkpt>
      <trkpt lat="47.3507" lon="-2.36593">
        <ele>29.200000762939</ele>
        <time>2020-06-04T09:19:55.000Z</time>
      </trkpt>
      <trkpt lat="47.35075" lon="-2.36609">
        <ele>29.60000038147</ele>
        <time>2020-06-04T09:20:00.000Z</time>
      </trkpt>
      <trkpt lat="47.35076" lon="-2.36612">
        <ele>30</ele>
        <time>2020-06-04T09:20:01.000Z</time>
      </trkpt>
      <trkpt lat="47.35078" lon="-2.36616">
        <ele>30.39999961853</ele>
        <time>2020-06-04T09:20:02.000Z</time>
      </trkpt>
      <trkpt lat="47.35079" lon="-2.36619">
        <ele>30.799999237061</ele>
        <time>2020-06-04T09:20:03.000Z</time>
      </trkpt>
      <trkpt lat="47.3508" lon="-2.36623">
        <ele>31.200000762939</ele>
        <time>2020-06-04T09:20:04.000Z</time>
      </trkpt>
      <trkpt lat="47.35086" lon="-2.36639">
        <ele>31.200000762939</ele>
        <time>2020-06-04T09:20:09.000Z</time>
      </trkpt>
      <trkpt lat="47.35095" lon="-2.36667">
        <ele>31.200000762939</ele>
        <time>2020-06-04T09:20:17.000Z</time>
      </trkpt>
      <trkpt lat="47.35106" lon="-2.36703">
        <ele>31.200000762939</ele>
        <time>2020-06-04T09:20:26.000Z</time>
      </trkpt>
      <trkpt lat="47.35114" lon="-2.36729">
        <ele>31.60000038147</ele>
        <time>2020-06-04T09:20:32.000Z</time>
      </trkpt>
      <trkpt lat="47.35115" lon="-2.36733">
        <ele>32</ele>
        <time>2020-06-04T09:20:33.000Z</time>
      </trkpt>
      <trkpt lat="47.35116" lon="-2.36738">
        <ele>32.400001525879</ele>
        <time>2020-06-04T09:20:34.000Z</time>
      </trkpt>
      <trkpt lat="47.35117" lon="-2.36742">
        <ele>32.799999237061</ele>
        <time>2020-06-04T09:20:35.000Z</time>
      </trkpt>
      <trkpt lat="47.35118" lon="-2.36746">
        <ele>33.200000762939</ele>
        <time>2020-06-04T09:20:36.000Z</time>
      </trkpt>
      <trkpt lat="47.35124" lon="-2.36768">
        <ele>33.200000762939</ele>
        <time>2020-06-04T09:20:41.000Z</time>
      </trkpt>
      <trkpt lat="47.35129" lon="-2.36785">
        <ele>33.200000762939</ele>
        <time>2020-06-04T09:20:47.000Z</time>
      </trkpt>
      <trkpt lat="47.35134" lon="-2.36798">
        <ele>33.200000762939</ele>
        <time>2020-06-04T09:20:55.000Z</time>
      </trkpt>
      <trkpt lat="47.35134" lon="-2.36801">
        <ele>33.200000762939</ele>
        <time>2020-06-04T09:20:59.000Z</time>
      </trkpt>
      <trkpt lat="47.35135" lon="-2.36809">
        <ele>33.200000762939</ele>
        <time>2020-06-04T09:21:36.000Z</time>
      </trkpt>
      <trkpt lat="47.35135" lon="-2.36811">
        <ele>33.200000762939</ele>
        <time>2020-06-04T09:21:37.000Z</time>
      </trkpt>
      <trkpt lat="47.35139" lon="-2.36823">
        <ele>33.200000762939</ele>
        <time>2020-06-04T09:21:45.000Z</time>
      </trkpt>
      <trkpt lat="47.35139" lon="-2.36824">
        <ele>33.200000762939</ele>
        <time>2020-06-04T09:21:46.000Z</time>
      </trkpt>
      <trkpt lat="47.35137" lon="-2.36811">
        <ele>33.200000762939</ele>
        <time>2020-06-04T09:23:04.000Z</time>
      </trkpt>
      <trkpt lat="47.35136" lon="-2.36808">
        <ele>33.200000762939</ele>
        <time>2020-06-04T09:23:06.000Z</time>
      </trkpt>
      <trkpt lat="47.35133" lon="-2.36796">
        <ele>33.200000762939</ele>
        <time>2020-06-04T09:23:15.000Z</time>
      </trkpt>
      <trkpt lat="47.35133" lon="-2.36795">
        <ele>33.200000762939</ele>
        <time>2020-06-04T09:23:17.000Z</time>
      </trkpt>
      <trkpt lat="47.35133" lon="-2.36799">
        <ele>33.200000762939</ele>
        <time>2020-06-04T09:24:10.000Z</time>
      </trkpt>
      <trkpt lat="47.35134" lon="-2.36803">
        <ele>33.200000762939</ele>
        <time>2020-06-04T09:24:12.000Z</time>
      </trkpt>
      <trkpt lat="47.35139" lon="-2.3682">
        <ele>33.200000762939</ele>
        <time>2020-06-04T09:24:16.000Z</time>
      </trkpt>
      <trkpt lat="47.35143" lon="-2.36844">
        <ele>33.200000762939</ele>
        <time>2020-06-04T09:24:20.000Z</time>
      </trkpt>
      <trkpt lat="47.35145" lon="-2.36858">
        <ele>33.200000762939</ele>
        <time>2020-06-04T09:24:22.000Z</time>
      </trkpt>
      <trkpt lat="47.3515" lon="-2.36878">
        <ele>33.200000762939</ele>
        <time>2020-06-04T09:24:25.000Z</time>
      </trkpt>
      <trkpt lat="47.35157" lon="-2.36898">
        <ele>33.200000762939</ele>
        <time>2020-06-04T09:24:28.000Z</time>
      </trkpt>
      <trkpt lat="47.3517" lon="-2.36933">
        <ele>33.200000762939</ele>
        <time>2020-06-04T09:24:34.000Z</time>
      </trkpt>
      <trkpt lat="47.35172" lon="-2.36938">
        <ele>33.200000762939</ele>
        <time>2020-06-04T09:24:35.000Z</time>
      </trkpt>
      <trkpt lat="47.35191" lon="-2.36975">
        <ele>33.200000762939</ele>
        <time>2020-06-04T09:24:42.000Z</time>
      </trkpt>
      <trkpt lat="47.35208" lon="-2.37017">
        <ele>33.200000762939</ele>
        <time>2020-06-04T09:24:49.000Z</time>
      </trkpt>
      <trkpt lat="47.35219" lon="-2.37064">
        <ele>33.200000762939</ele>
        <time>2020-06-04T09:24:56.000Z</time>
      </trkpt>
      <trkpt lat="47.35228" lon="-2.3711">
        <ele>33.200000762939</ele>
        <time>2020-06-04T09:25:03.000Z</time>
      </trkpt>
      <trkpt lat="47.35239" lon="-2.37155">
        <ele>33.200000762939</ele>
        <time>2020-06-04T09:25:10.000Z</time>
      </trkpt>
      <trkpt lat="47.35247" lon="-2.37176">
        <ele>33.200000762939</ele>
        <time>2020-06-04T09:25:13.000Z</time>
      </trkpt>
      <trkpt lat="47.35261" lon="-2.37198">
        <ele>33.200000762939</ele>
        <time>2020-06-04T09:25:17.000Z</time>
      </trkpt>
      <trkpt lat="47.35275" lon="-2.37216">
        <ele>33.200000762939</ele>
        <time>2020-06-04T09:25:22.000Z</time>
      </trkpt>
      <trkpt lat="47.35277" lon="-2.37218">
        <ele>33.200000762939</ele>
        <time>2020-06-04T09:25:24.000Z</time>
      </trkpt>
      <trkpt lat="47.35277" lon="-2.37218">
        <ele>33.200000762939</ele>
        <time>2020-06-04T09:25:57.000Z</time>
      </trkpt>
      <trkpt lat="47.35279" lon="-2.3722">
        <ele>33.200000762939</ele>
        <time>2020-06-04T09:25:58.000Z</time>
      </trkpt>
      <trkpt lat="47.3528" lon="-2.37223">
        <ele>33.200000762939</ele>
        <time>2020-06-04T09:26:00.000Z</time>
      </trkpt>
      <trkpt lat="47.35281" lon="-2.37231">
        <ele>33.200000762939</ele>
        <time>2020-06-04T09:26:02.000Z</time>
      </trkpt>
      <trkpt lat="47.35281" lon="-2.3724">
        <ele>33.200000762939</ele>
        <time>2020-06-04T09:26:04.000Z</time>
      </trkpt>
      <trkpt lat="47.35282" lon="-2.37262">
        <ele>33.200000762939</ele>
        <time>2020-06-04T09:26:09.000Z</time>
      </trkpt>
      <trkpt lat="47.35284" lon="-2.37305">
        <ele>33.200000762939</ele>
        <time>2020-06-04T09:26:17.000Z</time>
      </trkpt>
      <trkpt lat="47.35283" lon="-2.37344">
        <ele>33.200000762939</ele>
        <time>2020-06-04T09:26:24.000Z</time>
      </trkpt>
      <trkpt lat="47.35285" lon="-2.37399">
        <ele>33.200000762939</ele>
        <time>2020-06-04T09:26:32.000Z</time>
      </trkpt>
      <trkpt lat="47.35288" lon="-2.37434">
        <ele>33.200000762939</ele>
        <time>2020-06-04T09:26:37.000Z</time>
      </trkpt>
      <trkpt lat="47.35288" lon="-2.37441">
        <ele>33.200000762939</ele>
        <time>2020-06-04T09:26:38.000Z</time>
      </trkpt>
      <trkpt lat="47.35292" lon="-2.37479">
        <ele>33.200000762939</ele>
        <time>2020-06-04T09:26:42.000Z</time>
      </trkpt>
      <trkpt lat="47.35299" lon="-2.37518">
        <ele>32.799999237061</ele>
        <time>2020-06-04T09:26:46.000Z</time>
      </trkpt>
      <trkpt lat="47.35301" lon="-2.37528">
        <ele>32.400001525879</ele>
        <time>2020-06-04T09:26:47.000Z</time>
      </trkpt>
      <trkpt lat="47.35303" lon="-2.37538">
        <ele>31.799999237061</ele>
        <time>2020-06-04T09:26:48.000Z</time>
      </trkpt>
      <trkpt lat="47.35306" lon="-2.37548">
        <ele>31.39999961853</ele>
        <time>2020-06-04T09:26:49.000Z</time>
      </trkpt>
      <trkpt lat="47.35308" lon="-2.37557">
        <ele>31</ele>
        <time>2020-06-04T09:26:50.000Z</time>
      </trkpt>
      <trkpt lat="47.35327" lon="-2.37629">
        <ele>31</ele>
        <time>2020-06-04T09:26:58.000Z</time>
      </trkpt>
      <trkpt lat="47.35342" lon="-2.3769">
        <ele>31</ele>
        <time>2020-06-04T09:27:05.000Z</time>
      </trkpt>
      <trkpt lat="47.35359" lon="-2.37761">
        <ele>30.60000038147</ele>
        <time>2020-06-04T09:27:13.000Z</time>
      </trkpt>
      <trkpt lat="47.35361" lon="-2.37769">
        <ele>30.200000762939</ele>
        <time>2020-06-04T09:27:14.000Z</time>
      </trkpt>
      <trkpt lat="47.3536" lon="-2.37777">
        <ele>29.799999237061</ele>
        <time>2020-06-04T09:27:15.000Z</time>
      </trkpt>
      <trkpt lat="47.35358" lon="-2.37784">
        <ele>29.39999961853</ele>
        <time>2020-06-04T09:27:16.000Z</time>
      </trkpt>
      <trkpt lat="47.35355" lon="-2.3779">
        <ele>29</ele>
        <time>2020-06-04T09:27:17.000Z</time>
      </trkpt>
      <trkpt lat="47.35344" lon="-2.37796">
        <ele>29</ele>
        <time>2020-06-04T09:27:19.000Z</time>
      </trkpt>
      <trkpt lat="47.35338" lon="-2.37798">
        <ele>29</ele>
        <time>2020-06-04T09:27:20.000Z</time>
      </trkpt>
      <trkpt lat="47.35309" lon="-2.37808">
        <ele>29</ele>
        <time>2020-06-04T09:27:24.000Z</time>
      </trkpt>
      <trkpt lat="47.35266" lon="-2.37827">
        <ele>29</ele>
        <time>2020-06-04T09:27:30.000Z</time>
      </trkpt>
      <trkpt lat="47.35234" lon="-2.37856">
        <ele>29</ele>
        <time>2020-06-04T09:27:35.000Z</time>
      </trkpt>
      <trkpt lat="47.35221" lon="-2.37866">
        <ele>28.60000038147</ele>
        <time>2020-06-04T09:27:37.000Z</time>
      </trkpt>
      <trkpt lat="47.35214" lon="-2.37871">
        <ele>28.200000762939</ele>
        <time>2020-06-04T09:27:38.000Z</time>
      </trkpt>
      <trkpt lat="47.35208" lon="-2.37875">
        <ele>27.799999237061</ele>
        <time>2020-06-04T09:27:39.000Z</time>
      </trkpt>
      <trkpt lat="47.35201" lon="-2.3788">
        <ele>27.39999961853</ele>
        <time>2020-06-04T09:27:40.000Z</time>
      </trkpt>
      <trkpt lat="47.35195" lon="-2.37885">
        <ele>27</ele>
        <time>2020-06-04T09:27:41.000Z</time>
      </trkpt>
      <trkpt lat="47.35145" lon="-2.37921">
        <ele>27</ele>
        <time>2020-06-04T09:27:49.000Z</time>
      </trkpt>
      <trkpt lat="47.35097" lon="-2.37959">
        <ele>27</ele>
        <time>2020-06-04T09:27:57.000Z</time>
      </trkpt>
      <trkpt lat="47.35063" lon="-2.37988">
        <ele>27</ele>
        <time>2020-06-04T09:28:03.000Z</time>
      </trkpt>
      <trkpt lat="47.3502" lon="-2.38023">
        <ele>27</ele>
        <time>2020-06-04T09:28:11.000Z</time>
      </trkpt>
      <trkpt lat="47.34978" lon="-2.38056">
        <ele>27</ele>
        <time>2020-06-04T09:28:19.000Z</time>
      </trkpt>
      <trkpt lat="47.34973" lon="-2.38055">
        <ele>27</ele>
        <time>2020-06-04T09:28:20.000Z</time>
      </trkpt>
      <trkpt lat="47.34963" lon="-2.3804">
        <ele>27</ele>
        <time>2020-06-04T09:28:23.000Z</time>
      </trkpt>
      <trkpt lat="47.34957" lon="-2.38027">
        <ele>27</ele>
        <time>2020-06-04T09:28:25.000Z</time>
      </trkpt>
      <trkpt lat="47.34945" lon="-2.38008">
        <ele>27</ele>
        <time>2020-06-04T09:28:28.000Z</time>
      </trkpt>
      <trkpt lat="47.34923" lon="-2.37987">
        <ele>27</ele>
        <time>2020-06-04T09:28:32.000Z</time>
      </trkpt>
      <trkpt lat="47.34881" lon="-2.37954">
        <ele>27</ele>
        <time>2020-06-04T09:28:39.000Z</time>
      </trkpt>
      <trkpt lat="47.34875" lon="-2.37949">
        <ele>27.39999961853</ele>
        <time>2020-06-04T09:28:40.000Z</time>
      </trkpt>
      <trkpt lat="47.34869" lon="-2.37944">
        <ele>27.799999237061</ele>
        <time>2020-06-04T09:28:41.000Z</time>
      </trkpt>
      <trkpt lat="47.34863" lon="-2.37939">
        <ele>28.200000762939</ele>
        <time>2020-06-04T09:28:42.000Z</time>
      </trkpt>
      <trkpt lat="47.34857" lon="-2.37933">
        <ele>28.60000038147</ele>
        <time>2020-06-04T09:28:43.000Z</time>
      </trkpt>
      <trkpt lat="47.34851" lon="-2.37928">
        <ele>29</ele>
        <time>2020-06-04T09:28:44.000Z</time>
      </trkpt>
      <trkpt lat="47.34845" lon="-2.37924">
        <ele>29</ele>
        <time>2020-06-04T09:28:45.000Z</time>
      </trkpt>
      <trkpt lat="47.34802" lon="-2.37891">
        <ele>29</ele>
        <time>2020-06-04T09:28:52.000Z</time>
      </trkpt>
      <trkpt lat="47.34764" lon="-2.37862">
        <ele>29</ele>
        <time>2020-06-04T09:28:59.000Z</time>
      </trkpt>
      <trkpt lat="47.34758" lon="-2.37861">
        <ele>29</ele>
        <time>2020-06-04T09:29:00.000Z</time>
      </trkpt>
      <trkpt lat="47.34749" lon="-2.37865">
        <ele>29</ele>
        <time>2020-06-04T09:29:02.000Z</time>
      </trkpt>
      <trkpt lat="47.34739" lon="-2.3789">
        <ele>29</ele>
        <time>2020-06-04T09:29:06.000Z</time>
      </trkpt>
      <trkpt lat="47.34723" lon="-2.37929">
        <ele>29</ele>
        <time>2020-06-04T09:29:12.000Z</time>
      </trkpt>
      <trkpt lat="47.34698" lon="-2.37963">
        <ele>29</ele>
        <time>2020-06-04T09:29:18.000Z</time>
      </trkpt>
      <trkpt lat="47.34666" lon="-2.37997">
        <ele>29</ele>
        <time>2020-06-04T09:29:25.000Z</time>
      </trkpt>
      <trkpt lat="47.34623" lon="-2.3803">
        <ele>29</ele>
        <time>2020-06-04T09:29:33.000Z</time>
      </trkpt>
      <trkpt lat="47.34589" lon="-2.38062">
        <ele>29</ele>
        <time>2020-06-04T09:29:40.000Z</time>
      </trkpt>
      <trkpt lat="47.34565" lon="-2.38083">
        <ele>29</ele>
        <time>2020-06-04T09:29:45.000Z</time>
      </trkpt>
      <trkpt lat="47.3456" lon="-2.38086">
        <ele>29.39999961853</ele>
        <time>2020-06-04T09:29:46.000Z</time>
      </trkpt>
      <trkpt lat="47.34556" lon="-2.38089">
        <ele>29.799999237061</ele>
        <time>2020-06-04T09:29:47.000Z</time>
      </trkpt>
      <trkpt lat="47.34551" lon="-2.38092">
        <ele>30.200000762939</ele>
        <time>2020-06-04T09:29:48.000Z</time>
      </trkpt>
      <trkpt lat="47.34547" lon="-2.38096">
        <ele>31</ele>
        <time>2020-06-04T09:29:49.000Z</time>
      </trkpt>
      <trkpt lat="47.3454" lon="-2.38107">
        <ele>31</ele>
        <time>2020-06-04T09:29:51.000Z</time>
      </trkpt>
      <trkpt lat="47.34531" lon="-2.38136">
        <ele>31</ele>
        <time>2020-06-04T09:29:55.000Z</time>
      </trkpt>
      <trkpt lat="47.3453" lon="-2.38144">
        <ele>31</ele>
        <time>2020-06-04T09:29:56.000Z</time>
      </trkpt>
      <trkpt lat="47.34525" lon="-2.38188">
        <ele>31</ele>
        <time>2020-06-04T09:30:01.000Z</time>
      </trkpt>
      <trkpt lat="47.34521" lon="-2.38241">
        <ele>31</ele>
        <time>2020-06-04T09:30:07.000Z</time>
      </trkpt>
      <trkpt lat="47.34517" lon="-2.38259">
        <ele>31</ele>
        <time>2020-06-04T09:30:09.000Z</time>
      </trkpt>
      <trkpt lat="47.34509" lon="-2.38275">
        <ele>31</ele>
        <time>2020-06-04T09:30:11.000Z</time>
      </trkpt>
      <trkpt lat="47.34486" lon="-2.38295">
        <ele>31</ele>
        <time>2020-06-04T09:30:15.000Z</time>
      </trkpt>
      <trkpt lat="47.34479" lon="-2.38298">
        <ele>31.39999961853</ele>
        <time>2020-06-04T09:30:16.000Z</time>
      </trkpt>
      <trkpt lat="47.34472" lon="-2.38302">
        <ele>32</ele>
        <time>2020-06-04T09:30:17.000Z</time>
      </trkpt>
      <trkpt lat="47.34466" lon="-2.38306">
        <ele>32.400001525879</ele>
        <time>2020-06-04T09:30:18.000Z</time>
      </trkpt>
      <trkpt lat="47.34459" lon="-2.3831">
        <ele>32.799999237061</ele>
        <time>2020-06-04T09:30:19.000Z</time>
      </trkpt>
      <trkpt lat="47.34452" lon="-2.38314">
        <ele>33.200000762939</ele>
        <time>2020-06-04T09:30:20.000Z</time>
      </trkpt>
      <trkpt lat="47.34446" lon="-2.38318">
        <ele>33.200000762939</ele>
        <time>2020-06-04T09:30:21.000Z</time>
      </trkpt>
      <trkpt lat="47.34401" lon="-2.38349">
        <ele>33.200000762939</ele>
        <time>2020-06-04T09:30:28.000Z</time>
      </trkpt>
      <trkpt lat="47.34366" lon="-2.38376">
        <ele>33.200000762939</ele>
        <time>2020-06-04T09:30:33.000Z</time>
      </trkpt>
      <trkpt lat="47.34352" lon="-2.38391">
        <ele>33.200000762939</ele>
        <time>2020-06-04T09:30:35.000Z</time>
      </trkpt>
      <trkpt lat="47.34339" lon="-2.3841">
        <ele>33.200000762939</ele>
        <time>2020-06-04T09:30:37.000Z</time>
      </trkpt>
      <trkpt lat="47.34329" lon="-2.38432">
        <ele>33.200000762939</ele>
        <time>2020-06-04T09:30:39.000Z</time>
      </trkpt>
      <trkpt lat="47.34321" lon="-2.38455">
        <ele>33.200000762939</ele>
        <time>2020-06-04T09:30:41.000Z</time>
      </trkpt>
      <trkpt lat="47.34309" lon="-2.38487">
        <ele>33.200000762939</ele>
        <time>2020-06-04T09:30:44.000Z</time>
      </trkpt>
      <trkpt lat="47.34305" lon="-2.38494">
        <ele>33.200000762939</ele>
        <time>2020-06-04T09:30:45.000Z</time>
      </trkpt>
      <trkpt lat="47.34289" lon="-2.38508">
        <ele>33.200000762939</ele>
        <time>2020-06-04T09:30:48.000Z</time>
      </trkpt>
      <trkpt lat="47.34283" lon="-2.3851">
        <ele>33.200000762939</ele>
        <time>2020-06-04T09:30:49.000Z</time>
      </trkpt>
      <trkpt lat="47.34255" lon="-2.38518">
        <ele>33.200000762939</ele>
        <time>2020-06-04T09:30:53.000Z</time>
      </trkpt>
      <trkpt lat="47.34215" lon="-2.38522">
        <ele>33.200000762939</ele>
        <time>2020-06-04T09:30:59.000Z</time>
      </trkpt>
      <trkpt lat="47.34202" lon="-2.38522">
        <ele>33.599998474121</ele>
        <time>2020-06-04T09:31:01.000Z</time>
      </trkpt>
      <trkpt lat="47.34195" lon="-2.38522">
        <ele>34</ele>
        <time>2020-06-04T09:31:02.000Z</time>
      </trkpt>
      <trkpt lat="47.34189" lon="-2.38522">
        <ele>35</ele>
        <time>2020-06-04T09:31:03.000Z</time>
      </trkpt>
      <trkpt lat="47.34183" lon="-2.38522">
        <ele>35.400001525879</ele>
        <time>2020-06-04T09:31:04.000Z</time>
      </trkpt>
      <trkpt lat="47.34176" lon="-2.38521">
        <ele>35.400001525879</ele>
        <time>2020-06-04T09:31:05.000Z</time>
      </trkpt>
      <trkpt lat="47.34164" lon="-2.3852">
        <ele>35.400001525879</ele>
        <time>2020-06-04T09:31:07.000Z</time>
      </trkpt>
      <trkpt lat="47.34141" lon="-2.38521">
        <ele>35.400001525879</ele>
        <time>2020-06-04T09:31:11.000Z</time>
      </trkpt>
      <trkpt lat="47.34135" lon="-2.38523">
        <ele>35.400001525879</ele>
        <time>2020-06-04T09:31:12.000Z</time>
      </trkpt>
      <trkpt lat="47.34124" lon="-2.38527">
        <ele>35.799999237061</ele>
        <time>2020-06-04T09:31:14.000Z</time>
      </trkpt>
      <trkpt lat="47.34119" lon="-2.38531">
        <ele>36.200000762939</ele>
        <time>2020-06-04T09:31:15.000Z</time>
      </trkpt>
      <trkpt lat="47.34114" lon="-2.38534">
        <ele>36.599998474121</ele>
        <time>2020-06-04T09:31:16.000Z</time>
      </trkpt>
      <trkpt lat="47.34109" lon="-2.38537">
        <ele>37</ele>
        <time>2020-06-04T09:31:17.000Z</time>
      </trkpt>
      <trkpt lat="47.34105" lon="-2.38541">
        <ele>37.400001525879</ele>
        <time>2020-06-04T09:31:18.000Z</time>
      </trkpt>
      <trkpt lat="47.34092" lon="-2.38557">
        <ele>37.400001525879</ele>
        <time>2020-06-04T09:31:21.000Z</time>
      </trkpt>
      <trkpt lat="47.34089" lon="-2.38564">
        <ele>37.400001525879</ele>
        <time>2020-06-04T09:31:22.000Z</time>
      </trkpt>
      <trkpt lat="47.34086" lon="-2.3857">
        <ele>37.400001525879</ele>
        <time>2020-06-04T09:31:23.000Z</time>
      </trkpt>
      <trkpt lat="47.34081" lon="-2.38586">
        <ele>37.400001525879</ele>
        <time>2020-06-04T09:31:25.000Z</time>
      </trkpt>
      <trkpt lat="47.34071" lon="-2.38616">
        <ele>37.400001525879</ele>
        <time>2020-06-04T09:31:29.000Z</time>
      </trkpt>
      <trkpt lat="47.34067" lon="-2.38623">
        <ele>37.400001525879</ele>
        <time>2020-06-04T09:31:30.000Z</time>
      </trkpt>
      <trkpt lat="47.34052" lon="-2.38647">
        <ele>37.799999237061</ele>
        <time>2020-06-04T09:31:34.000Z</time>
      </trkpt>
      <trkpt lat="47.34048" lon="-2.38653">
        <ele>38.200000762939</ele>
        <time>2020-06-04T09:31:35.000Z</time>
      </trkpt>
      <trkpt lat="47.34044" lon="-2.38659">
        <ele>38.599998474121</ele>
        <time>2020-06-04T09:31:36.000Z</time>
      </trkpt>
      <trkpt lat="47.3404" lon="-2.38664">
        <ele>39</ele>
        <time>2020-06-04T09:31:37.000Z</time>
      </trkpt>
      <trkpt lat="47.34036" lon="-2.38669">
        <ele>39.400001525879</ele>
        <time>2020-06-04T09:31:38.000Z</time>
      </trkpt>
      <trkpt lat="47.34015" lon="-2.38689">
        <ele>39.400001525879</ele>
        <time>2020-06-04T09:31:43.000Z</time>
      </trkpt>
      <trkpt lat="47.33991" lon="-2.38712">
        <ele>39.799999237061</ele>
        <time>2020-06-04T09:31:49.000Z</time>
      </trkpt>
      <trkpt lat="47.33987" lon="-2.38716">
        <ele>40.200000762939</ele>
        <time>2020-06-04T09:31:50.000Z</time>
      </trkpt>
      <trkpt lat="47.33984" lon="-2.38721">
        <ele>40.599998474121</ele>
        <time>2020-06-04T09:31:51.000Z</time>
      </trkpt>
      <trkpt lat="47.3398" lon="-2.38726">
        <ele>41</ele>
        <time>2020-06-04T09:31:52.000Z</time>
      </trkpt>
      <trkpt lat="47.33976" lon="-2.3873">
        <ele>41.599998474121</ele>
        <time>2020-06-04T09:31:53.000Z</time>
      </trkpt>
      <trkpt lat="47.3396" lon="-2.38749">
        <ele>41.599998474121</ele>
        <time>2020-06-04T09:31:57.000Z</time>
      </trkpt>
      <trkpt lat="47.33945" lon="-2.38767">
        <ele>41.599998474121</ele>
        <time>2020-06-04T09:32:01.000Z</time>
      </trkpt>
      <trkpt lat="47.33934" lon="-2.38782">
        <ele>41.599998474121</ele>
        <time>2020-06-04T09:32:04.000Z</time>
      </trkpt>
      <trkpt lat="47.33912" lon="-2.38804">
        <ele>42</ele>
        <time>2020-06-04T09:32:09.000Z</time>
      </trkpt>
      <trkpt lat="47.33908" lon="-2.38808">
        <ele>42.400001525879</ele>
        <time>2020-06-04T09:32:10.000Z</time>
      </trkpt>
      <trkpt lat="47.33903" lon="-2.38812">
        <ele>42.799999237061</ele>
        <time>2020-06-04T09:32:11.000Z</time>
      </trkpt>
      <trkpt lat="47.33899" lon="-2.38817">
        <ele>43.200000762939</ele>
        <time>2020-06-04T09:32:12.000Z</time>
      </trkpt>
      <trkpt lat="47.33894" lon="-2.38822">
        <ele>43.599998474121</ele>
        <time>2020-06-04T09:32:13.000Z</time>
      </trkpt>
      <trkpt lat="47.33872" lon="-2.38843">
        <ele>43.599998474121</ele>
        <time>2020-06-04T09:32:18.000Z</time>
      </trkpt>
      <trkpt lat="47.33868" lon="-2.38847">
        <ele>43.599998474121</ele>
        <time>2020-06-04T09:32:19.000Z</time>
      </trkpt>
      <trkpt lat="47.33841" lon="-2.38872">
        <ele>43.599998474121</ele>
        <time>2020-06-04T09:32:25.000Z</time>
      </trkpt>
      <trkpt lat="47.33832" lon="-2.38881">
        <ele>44</ele>
        <time>2020-06-04T09:32:27.000Z</time>
      </trkpt>
      <trkpt lat="47.33827" lon="-2.38884">
        <ele>44.400001525879</ele>
        <time>2020-06-04T09:32:28.000Z</time>
      </trkpt>
      <trkpt lat="47.33823" lon="-2.38888">
        <ele>44.799999237061</ele>
        <time>2020-06-04T09:32:29.000Z</time>
      </trkpt>
      <trkpt lat="47.33818" lon="-2.38892">
        <ele>45.200000762939</ele>
        <time>2020-06-04T09:32:30.000Z</time>
      </trkpt>
      <trkpt lat="47.33813" lon="-2.38896">
        <ele>45.599998474121</ele>
        <time>2020-06-04T09:32:31.000Z</time>
      </trkpt>
      <trkpt lat="47.33804" lon="-2.38905">
        <ele>45.599998474121</ele>
        <time>2020-06-04T09:32:33.000Z</time>
      </trkpt>
      <trkpt lat="47.33774" lon="-2.38944">
        <ele>45.599998474121</ele>
        <time>2020-06-04T09:32:40.000Z</time>
      </trkpt>
      <trkpt lat="47.33746" lon="-2.38999">
        <ele>45.599998474121</ele>
        <time>2020-06-04T09:32:48.000Z</time>
      </trkpt>
      <trkpt lat="47.33743" lon="-2.39016">
        <ele>46</ele>
        <time>2020-06-04T09:32:50.000Z</time>
      </trkpt>
      <trkpt lat="47.33741" lon="-2.39024">
        <ele>46.400001525879</ele>
        <time>2020-06-04T09:32:51.000Z</time>
      </trkpt>
      <trkpt lat="47.3374" lon="-2.39034">
        <ele>46.799999237061</ele>
        <time>2020-06-04T09:32:52.000Z</time>
      </trkpt>
      <trkpt lat="47.33739" lon="-2.39042">
        <ele>47.200000762939</ele>
        <time>2020-06-04T09:32:53.000Z</time>
      </trkpt>
      <trkpt lat="47.33738" lon="-2.39051">
        <ele>47.599998474121</ele>
        <time>2020-06-04T09:32:54.000Z</time>
      </trkpt>
      <trkpt lat="47.33734" lon="-2.39117">
        <ele>47.599998474121</ele>
        <time>2020-06-04T09:33:01.000Z</time>
      </trkpt>
      <trkpt lat="47.33732" lon="-2.39177">
        <ele>47.599998474121</ele>
        <time>2020-06-04T09:33:07.000Z</time>
      </trkpt>
      <trkpt lat="47.33729" lon="-2.39248">
        <ele>47.599998474121</ele>
        <time>2020-06-04T09:33:15.000Z</time>
      </trkpt>
      <trkpt lat="47.33725" lon="-2.39293">
        <ele>47.599998474121</ele>
        <time>2020-06-04T09:33:21.000Z</time>
      </trkpt>
      <trkpt lat="47.33722" lon="-2.39302">
        <ele>47.599998474121</ele>
        <time>2020-06-04T09:33:23.000Z</time>
      </trkpt>
      <trkpt lat="47.33716" lon="-2.3931">
        <ele>47.599998474121</ele>
        <time>2020-06-04T09:33:25.000Z</time>
      </trkpt>
      <trkpt lat="47.33712" lon="-2.3933">
        <ele>47.599998474121</ele>
        <time>2020-06-04T09:33:29.000Z</time>
      </trkpt>
      <trkpt lat="47.33711" lon="-2.39343">
        <ele>47.599998474121</ele>
        <time>2020-06-04T09:33:31.000Z</time>
      </trkpt>
      <trkpt lat="47.33709" lon="-2.39362">
        <ele>48</ele>
        <time>2020-06-04T09:33:34.000Z</time>
      </trkpt>
      <trkpt lat="47.33709" lon="-2.39368">
        <ele>48.400001525879</ele>
        <time>2020-06-04T09:33:35.000Z</time>
      </trkpt>
      <trkpt lat="47.33708" lon="-2.39374">
        <ele>48.799999237061</ele>
        <time>2020-06-04T09:33:36.000Z</time>
      </trkpt>
      <trkpt lat="47.33708" lon="-2.3938">
        <ele>49.200000762939</ele>
        <time>2020-06-04T09:33:37.000Z</time>
      </trkpt>
      <trkpt lat="47.33708" lon="-2.39385">
        <ele>49.599998474121</ele>
        <time>2020-06-04T09:33:38.000Z</time>
      </trkpt>
      <trkpt lat="47.33707" lon="-2.39396">
        <ele>49.599998474121</ele>
        <time>2020-06-04T09:33:40.000Z</time>
      </trkpt>
      <trkpt lat="47.33705" lon="-2.39436">
        <ele>49.599998474121</ele>
        <time>2020-06-04T09:33:47.000Z</time>
      </trkpt>
      <trkpt lat="47.33696" lon="-2.3947">
        <ele>49.599998474121</ele>
        <time>2020-06-04T09:33:54.000Z</time>
      </trkpt>
      <trkpt lat="47.33682" lon="-2.39505">
        <ele>49.599998474121</ele>
        <time>2020-06-04T09:34:01.000Z</time>
      </trkpt>
      <trkpt lat="47.33669" lon="-2.39548">
        <ele>49.599998474121</ele>
        <time>2020-06-04T09:34:09.000Z</time>
      </trkpt>
      <trkpt lat="47.3365" lon="-2.39602">
        <ele>49.599998474121</ele>
        <time>2020-06-04T09:34:17.000Z</time>
      </trkpt>
      <trkpt lat="47.33631" lon="-2.39652">
        <ele>49.599998474121</ele>
        <time>2020-06-04T09:34:23.000Z</time>
      </trkpt>
      <trkpt lat="47.3362" lon="-2.39668">
        <ele>49.599998474121</ele>
        <time>2020-06-04T09:34:25.000Z</time>
      </trkpt>
      <trkpt lat="47.33609" lon="-2.39684">
        <ele>49.599998474121</ele>
        <time>2020-06-04T09:34:27.000Z</time>
      </trkpt>
      <trkpt lat="47.33571" lon="-2.39744">
        <ele>49.599998474121</ele>
        <time>2020-06-04T09:34:34.000Z</time>
      </trkpt>
      <trkpt lat="47.33544" lon="-2.39773">
        <ele>49.599998474121</ele>
        <time>2020-06-04T09:34:38.000Z</time>
      </trkpt>
      <trkpt lat="47.33508" lon="-2.39822">
        <ele>49.599998474121</ele>
        <time>2020-06-04T09:34:44.000Z</time>
      </trkpt>
      <trkpt lat="47.33472" lon="-2.39876">
        <ele>49.599998474121</ele>
        <time>2020-06-04T09:34:51.000Z</time>
      </trkpt>
      <trkpt lat="47.3345" lon="-2.39904">
        <ele>50</ele>
        <time>2020-06-04T09:34:55.000Z</time>
      </trkpt>
      <trkpt lat="47.33445" lon="-2.3991">
        <ele>50.400001525879</ele>
        <time>2020-06-04T09:34:56.000Z</time>
      </trkpt>
      <trkpt lat="47.3344" lon="-2.39916">
        <ele>50.799999237061</ele>
        <time>2020-06-04T09:34:57.000Z</time>
      </trkpt>
      <trkpt lat="47.33436" lon="-2.39922">
        <ele>51.200000762939</ele>
        <time>2020-06-04T09:34:58.000Z</time>
      </trkpt>
      <trkpt lat="47.33432" lon="-2.39928">
        <ele>51.599998474121</ele>
        <time>2020-06-04T09:34:59.000Z</time>
      </trkpt>
      <trkpt lat="47.33411" lon="-2.39961">
        <ele>51.599998474121</ele>
        <time>2020-06-04T09:35:04.000Z</time>
      </trkpt>
      <trkpt lat="47.33407" lon="-2.39967">
        <ele>52</ele>
        <time>2020-06-04T09:35:05.000Z</time>
      </trkpt>
      <trkpt lat="47.33403" lon="-2.39974">
        <ele>52.400001525879</ele>
        <time>2020-06-04T09:35:06.000Z</time>
      </trkpt>
      <trkpt lat="47.33399" lon="-2.3998">
        <ele>53</ele>
        <time>2020-06-04T09:35:07.000Z</time>
      </trkpt>
      <trkpt lat="47.33395" lon="-2.39986">
        <ele>53.400001525879</ele>
        <time>2020-06-04T09:35:08.000Z</time>
      </trkpt>
      <trkpt lat="47.33391" lon="-2.39992">
        <ele>53.799999237061</ele>
        <time>2020-06-04T09:35:09.000Z</time>
      </trkpt>
      <trkpt lat="47.33379" lon="-2.40011">
        <ele>53.799999237061</ele>
        <time>2020-06-04T09:35:12.000Z</time>
      </trkpt>
      <trkpt lat="47.33365" lon="-2.40036">
        <ele>53.799999237061</ele>
        <time>2020-06-04T09:35:16.000Z</time>
      </trkpt>
      <trkpt lat="47.3336" lon="-2.40051">
        <ele>53.799999237061</ele>
        <time>2020-06-04T09:35:18.000Z</time>
      </trkpt>
      <trkpt lat="47.33358" lon="-2.40058">
        <ele>54.200000762939</ele>
        <time>2020-06-04T09:35:19.000Z</time>
      </trkpt>
      <trkpt lat="47.33356" lon="-2.40066">
        <ele>54.599998474121</ele>
        <time>2020-06-04T09:35:20.000Z</time>
      </trkpt>
      <trkpt lat="47.33355" lon="-2.40074">
        <ele>55</ele>
        <time>2020-06-04T09:35:21.000Z</time>
      </trkpt>
      <trkpt lat="47.33355" lon="-2.40082">
        <ele>55.400001525879</ele>
        <time>2020-06-04T09:35:22.000Z</time>
      </trkpt>
      <trkpt lat="47.33354" lon="-2.40091">
        <ele>55.799999237061</ele>
        <time>2020-06-04T09:35:23.000Z</time>
      </trkpt>
      <trkpt lat="47.33348" lon="-2.40162">
        <ele>55.799999237061</ele>
        <time>2020-06-04T09:35:31.000Z</time>
      </trkpt>
      <trkpt lat="47.33342" lon="-2.40224">
        <ele>55.799999237061</ele>
        <time>2020-06-04T09:35:38.000Z</time>
      </trkpt>
      <trkpt lat="47.3333" lon="-2.40312">
        <ele>55.799999237061</ele>
        <time>2020-06-04T09:35:47.000Z</time>
      </trkpt>
      <trkpt lat="47.33328" lon="-2.40322">
        <ele>55.799999237061</ele>
        <time>2020-06-04T09:35:48.000Z</time>
      </trkpt>
      <trkpt lat="47.33313" lon="-2.40371">
        <ele>55.799999237061</ele>
        <time>2020-06-04T09:35:53.000Z</time>
      </trkpt>
      <trkpt lat="47.33311" lon="-2.40382">
        <ele>55.400001525879</ele>
        <time>2020-06-04T09:35:54.000Z</time>
      </trkpt>
      <trkpt lat="47.33311" lon="-2.40392">
        <ele>55</ele>
        <time>2020-06-04T09:35:55.000Z</time>
      </trkpt>
      <trkpt lat="47.33311" lon="-2.40404">
        <ele>54.599998474121</ele>
        <time>2020-06-04T09:35:56.000Z</time>
      </trkpt>
      <trkpt lat="47.33311" lon="-2.40418">
        <ele>54</ele>
        <time>2020-06-04T09:35:57.000Z</time>
      </trkpt>
      <trkpt lat="47.3331" lon="-2.40431">
        <ele>53.599998474121</ele>
        <time>2020-06-04T09:35:58.000Z</time>
      </trkpt>
      <trkpt lat="47.33309" lon="-2.40446">
        <ele>53.200000762939</ele>
        <time>2020-06-04T09:35:59.000Z</time>
      </trkpt>
      <trkpt lat="47.33308" lon="-2.4046">
        <ele>52.200000762939</ele>
        <time>2020-06-04T09:36:00.000Z</time>
      </trkpt>
      <trkpt lat="47.33306" lon="-2.40474">
        <ele>51.799999237061</ele>
        <time>2020-06-04T09:36:01.000Z</time>
      </trkpt>
      <trkpt lat="47.33304" lon="-2.40488">
        <ele>51.200000762939</ele>
        <time>2020-06-04T09:36:02.000Z</time>
      </trkpt>
      <trkpt lat="47.33301" lon="-2.40501">
        <ele>51.200000762939</ele>
        <time>2020-06-04T09:36:03.000Z</time>
      </trkpt>
      <trkpt lat="47.33283" lon="-2.40545">
        <ele>51.200000762939</ele>
        <time>2020-06-04T09:36:07.000Z</time>
      </trkpt>
      <trkpt lat="47.33275" lon="-2.40567">
        <ele>51.200000762939</ele>
        <time>2020-06-04T09:36:09.000Z</time>
      </trkpt>
      <trkpt lat="47.33269" lon="-2.40589">
        <ele>51.200000762939</ele>
        <time>2020-06-04T09:36:11.000Z</time>
      </trkpt>
      <trkpt lat="47.33266" lon="-2.40598">
        <ele>51.200000762939</ele>
        <time>2020-06-04T09:36:12.000Z</time>
      </trkpt>
      <trkpt lat="47.33256" lon="-2.40627">
        <ele>51.200000762939</ele>
        <time>2020-06-04T09:36:15.000Z</time>
      </trkpt>
      <trkpt lat="47.33239" lon="-2.40689">
        <ele>51.200000762939</ele>
        <time>2020-06-04T09:36:22.000Z</time>
      </trkpt>
      <trkpt lat="47.33235" lon="-2.40714">
        <ele>52.200000762939</ele>
        <time>2020-06-04T09:36:25.000Z</time>
      </trkpt>
      <trkpt lat="47.33234" lon="-2.40723">
        <ele>52.799999237061</ele>
        <time>2020-06-04T09:36:26.000Z</time>
      </trkpt>
      <trkpt lat="47.33234" lon="-2.40732">
        <ele>53.200000762939</ele>
        <time>2020-06-04T09:36:27.000Z</time>
      </trkpt>
      <trkpt lat="47.33233" lon="-2.40741">
        <ele>53.599998474121</ele>
        <time>2020-06-04T09:36:28.000Z</time>
      </trkpt>
      <trkpt lat="47.33229" lon="-2.40775">
        <ele>53.599998474121</ele>
        <time>2020-06-04T09:36:32.000Z</time>
      </trkpt>
      <trkpt lat="47.33224" lon="-2.40789">
        <ele>53.599998474121</ele>
        <time>2020-06-04T09:36:34.000Z</time>
      </trkpt>
      <trkpt lat="47.33221" lon="-2.40796">
        <ele>53.599998474121</ele>
        <time>2020-06-04T09:36:35.000Z</time>
      </trkpt>
      <trkpt lat="47.33208" lon="-2.40819">
        <ele>53.599998474121</ele>
        <time>2020-06-04T09:36:39.000Z</time>
      </trkpt>
      <trkpt lat="47.33172" lon="-2.40874">
        <ele>53.599998474121</ele>
        <time>2020-06-04T09:36:49.000Z</time>
      </trkpt>
      <trkpt lat="47.33157" lon="-2.40898">
        <ele>54</ele>
        <time>2020-06-04T09:36:53.000Z</time>
      </trkpt>
      <trkpt lat="47.33154" lon="-2.40904">
        <ele>54.400001525879</ele>
        <time>2020-06-04T09:36:54.000Z</time>
      </trkpt>
      <trkpt lat="47.3315" lon="-2.40911">
        <ele>54.799999237061</ele>
        <time>2020-06-04T09:36:55.000Z</time>
      </trkpt>
      <trkpt lat="47.33147" lon="-2.40917">
        <ele>55.200000762939</ele>
        <time>2020-06-04T09:36:56.000Z</time>
      </trkpt>
      <trkpt lat="47.33143" lon="-2.40924">
        <ele>55.599998474121</ele>
        <time>2020-06-04T09:36:57.000Z</time>
      </trkpt>
      <trkpt lat="47.33123" lon="-2.40965">
        <ele>55.599998474121</ele>
        <time>2020-06-04T09:37:03.000Z</time>
      </trkpt>
      <trkpt lat="47.33104" lon="-2.41017">
        <ele>55.599998474121</ele>
        <time>2020-06-04T09:37:10.000Z</time>
      </trkpt>
      <trkpt lat="47.33091" lon="-2.41058">
        <ele>56.200000762939</ele>
        <time>2020-06-04T09:37:15.000Z</time>
      </trkpt>
      <trkpt lat="47.33088" lon="-2.41066">
        <ele>56.599998474121</ele>
        <time>2020-06-04T09:37:16.000Z</time>
      </trkpt>
      <trkpt lat="47.33085" lon="-2.41074">
        <ele>57</ele>
        <time>2020-06-04T09:37:17.000Z</time>
      </trkpt>
      <trkpt lat="47.33082" lon="-2.41082">
        <ele>57.400001525879</ele>
        <time>2020-06-04T09:37:18.000Z</time>
      </trkpt>
      <trkpt lat="47.33079" lon="-2.41091">
        <ele>57.799999237061</ele>
        <time>2020-06-04T09:37:19.000Z</time>
      </trkpt>
      <trkpt lat="47.33064" lon="-2.41131">
        <ele>57.799999237061</ele>
        <time>2020-06-04T09:37:24.000Z</time>
      </trkpt>
      <trkpt lat="47.33037" lon="-2.41181">
        <ele>57.799999237061</ele>
        <time>2020-06-04T09:37:31.000Z</time>
      </trkpt>
      <trkpt lat="47.3301" lon="-2.41227">
        <ele>57.799999237061</ele>
        <time>2020-06-04T09:37:38.000Z</time>
      </trkpt>
      <trkpt lat="47.32999" lon="-2.41245">
        <ele>57.799999237061</ele>
        <time>2020-06-04T09:37:42.000Z</time>
      </trkpt>
      <trkpt lat="47.32989" lon="-2.4125">
        <ele>58.200000762939</ele>
        <time>2020-06-04T09:37:44.000Z</time>
      </trkpt>
      <trkpt lat="47.32984" lon="-2.41252">
        <ele>58.599998474121</ele>
        <time>2020-06-04T09:37:45.000Z</time>
      </trkpt>
      <trkpt lat="47.32978" lon="-2.41255">
        <ele>59</ele>
        <time>2020-06-04T09:37:46.000Z</time>
      </trkpt>
      <trkpt lat="47.32972" lon="-2.41258">
        <ele>59.400001525879</ele>
        <time>2020-06-04T09:37:47.000Z</time>
      </trkpt>
      <trkpt lat="47.32966" lon="-2.41261">
        <ele>59.799999237061</ele>
        <time>2020-06-04T09:37:48.000Z</time>
      </trkpt>
      <trkpt lat="47.32953" lon="-2.41265">
        <ele>59.799999237061</ele>
        <time>2020-06-04T09:37:50.000Z</time>
      </trkpt>
      <trkpt lat="47.32917" lon="-2.41272">
        <ele>59.799999237061</ele>
        <time>2020-06-04T09:37:56.000Z</time>
      </trkpt>
      <trkpt lat="47.32883" lon="-2.41274">
        <ele>59.799999237061</ele>
        <time>2020-06-04T09:38:02.000Z</time>
      </trkpt>
      <trkpt lat="47.32844" lon="-2.4128">
        <ele>59.799999237061</ele>
        <time>2020-06-04T09:38:09.000Z</time>
      </trkpt>
      <trkpt lat="47.32821" lon="-2.41286">
        <ele>59.799999237061</ele>
        <time>2020-06-04T09:38:14.000Z</time>
      </trkpt>
      <trkpt lat="47.32816" lon="-2.41286">
        <ele>59.799999237061</ele>
        <time>2020-06-04T09:38:15.000Z</time>
      </trkpt>
      <trkpt lat="47.32794" lon="-2.41289">
        <ele>59.799999237061</ele>
        <time>2020-06-04T09:38:19.000Z</time>
      </trkpt>
      <trkpt lat="47.32765" lon="-2.41295">
        <ele>59.799999237061</ele>
        <time>2020-06-04T09:38:25.000Z</time>
      </trkpt>
      <trkpt lat="47.32745" lon="-2.41305">
        <ele>59.799999237061</ele>
        <time>2020-06-04T09:38:31.000Z</time>
      </trkpt>
      <trkpt lat="47.3274" lon="-2.41315">
        <ele>59.799999237061</ele>
        <time>2020-06-04T09:38:36.000Z</time>
      </trkpt>
      <trkpt lat="47.32731" lon="-2.41322">
        <ele>59.799999237061</ele>
        <time>2020-06-04T09:38:39.000Z</time>
      </trkpt>
      <trkpt lat="47.32727" lon="-2.41322">
        <ele>60.200000762939</ele>
        <time>2020-06-04T09:38:40.000Z</time>
      </trkpt>
      <trkpt lat="47.32722" lon="-2.41321">
        <ele>60.599998474121</ele>
        <time>2020-06-04T09:38:41.000Z</time>
      </trkpt>
      <trkpt lat="47.32717" lon="-2.41317">
        <ele>61</ele>
        <time>2020-06-04T09:38:42.000Z</time>
      </trkpt>
      <trkpt lat="47.32714" lon="-2.4131">
        <ele>61.400001525879</ele>
        <time>2020-06-04T09:38:43.000Z</time>
      </trkpt>
      <trkpt lat="47.32711" lon="-2.41301">
        <ele>61.799999237061</ele>
        <time>2020-06-04T09:38:44.000Z</time>
      </trkpt>
      <trkpt lat="47.32709" lon="-2.41292">
        <ele>61.799999237061</ele>
        <time>2020-06-04T09:38:45.000Z</time>
      </trkpt>
      <trkpt lat="47.32708" lon="-2.41282">
        <ele>61.799999237061</ele>
        <time>2020-06-04T09:38:46.000Z</time>
      </trkpt>
      <trkpt lat="47.32707" lon="-2.41273">
        <ele>62.400001525879</ele>
        <time>2020-06-04T09:38:47.000Z</time>
      </trkpt>
      <trkpt lat="47.32705" lon="-2.41264">
        <ele>62.799999237061</ele>
        <time>2020-06-04T09:38:48.000Z</time>
      </trkpt>
      <trkpt lat="47.32703" lon="-2.41255">
        <ele>63.200000762939</ele>
        <time>2020-06-04T09:38:49.000Z</time>
      </trkpt>
      <trkpt lat="47.32701" lon="-2.41247">
        <ele>63.599998474121</ele>
        <time>2020-06-04T09:38:50.000Z</time>
      </trkpt>
      <trkpt lat="47.32697" lon="-2.41238">
        <ele>64</ele>
        <time>2020-06-04T09:38:51.000Z</time>
      </trkpt>
      <trkpt lat="47.32693" lon="-2.41231">
        <ele>63.200000762939</ele>
        <time>2020-06-04T09:38:52.000Z</time>
      </trkpt>
      <trkpt lat="47.32688" lon="-2.41224">
        <ele>62.799999237061</ele>
        <time>2020-06-04T09:38:53.000Z</time>
      </trkpt>
      <trkpt lat="47.32684" lon="-2.41217">
        <ele>62.400001525879</ele>
        <time>2020-06-04T09:38:54.000Z</time>
      </trkpt>
      <trkpt lat="47.3268" lon="-2.41212">
        <ele>61.799999237061</ele>
        <time>2020-06-04T09:38:55.000Z</time>
      </trkpt>
      <trkpt lat="47.32675" lon="-2.41207">
        <ele>61.799999237061</ele>
        <time>2020-06-04T09:38:56.000Z</time>
      </trkpt>
      <trkpt lat="47.32642" lon="-2.4118">
        <ele>61.799999237061</ele>
        <time>2020-06-04T09:39:02.000Z</time>
      </trkpt>
      <trkpt lat="47.32631" lon="-2.41172">
        <ele>62.200000762939</ele>
        <time>2020-06-04T09:39:04.000Z</time>
      </trkpt>
      <trkpt lat="47.32625" lon="-2.41168">
        <ele>62.599998474121</ele>
        <time>2020-06-04T09:39:05.000Z</time>
      </trkpt>
      <trkpt lat="47.32619" lon="-2.41163">
        <ele>63</ele>
        <time>2020-06-04T09:39:06.000Z</time>
      </trkpt>
      <trkpt lat="47.32613" lon="-2.41159">
        <ele>63.400001525879</ele>
        <time>2020-06-04T09:39:07.000Z</time>
      </trkpt>
      <trkpt lat="47.32608" lon="-2.41154">
        <ele>63.799999237061</ele>
        <time>2020-06-04T09:39:08.000Z</time>
      </trkpt>
      <trkpt lat="47.32598" lon="-2.41143">
        <ele>63.799999237061</ele>
        <time>2020-06-04T09:39:10.000Z</time>
      </trkpt>
      <trkpt lat="47.32567" lon="-2.41105">
        <ele>64.800003051758</ele>
        <time>2020-06-04T09:39:17.000Z</time>
      </trkpt>
      <trkpt lat="47.32562" lon="-2.411">
        <ele>65.199996948242</ele>
        <time>2020-06-04T09:39:18.000Z</time>
      </trkpt>
      <trkpt lat="47.32557" lon="-2.41095">
        <ele>65.599998474121</ele>
        <time>2020-06-04T09:39:19.000Z</time>
      </trkpt>
      <trkpt lat="47.32552" lon="-2.4109">
        <ele>66</ele>
        <time>2020-06-04T09:39:20.000Z</time>
      </trkpt>
      <trkpt lat="47.32533" lon="-2.41072">
        <ele>66.400001525879</ele>
        <time>2020-06-04T09:39:24.000Z</time>
      </trkpt>
      <trkpt lat="47.32528" lon="-2.41069">
        <ele>67</ele>
        <time>2020-06-04T09:39:25.000Z</time>
      </trkpt>
      <trkpt lat="47.32523" lon="-2.41068">
        <ele>67.400001525879</ele>
        <time>2020-06-04T09:39:26.000Z</time>
      </trkpt>
      <trkpt lat="47.32518" lon="-2.41068">
        <ele>67.800003051758</ele>
        <time>2020-06-04T09:39:27.000Z</time>
      </trkpt>
      <trkpt lat="47.32514" lon="-2.41069">
        <ele>68.199996948242</ele>
        <time>2020-06-04T09:39:28.000Z</time>
      </trkpt>
      <trkpt lat="47.32507" lon="-2.41078">
        <ele>68.199996948242</ele>
        <time>2020-06-04T09:39:31.000Z</time>
      </trkpt>
      <trkpt lat="47.32497" lon="-2.41092">
        <ele>68.199996948242</ele>
        <time>2020-06-04T09:39:37.000Z</time>
      </trkpt>
      <trkpt lat="47.3249" lon="-2.41104">
        <ele>68.199996948242</ele>
        <time>2020-06-04T09:39:42.000Z</time>
      </trkpt>
      <trkpt lat="47.32478" lon="-2.41114">
        <ele>68.199996948242</ele>
        <time>2020-06-04T09:39:46.000Z</time>
      </trkpt>
      <trkpt lat="47.3247" lon="-2.41118">
        <ele>68.199996948242</ele>
        <time>2020-06-04T09:39:48.000Z</time>
      </trkpt>
      <trkpt lat="47.32462" lon="-2.41127">
        <ele>68.199996948242</ele>
        <time>2020-06-04T09:39:50.000Z</time>
      </trkpt>
      <trkpt lat="47.32441" lon="-2.41154">
        <ele>68.199996948242</ele>
        <time>2020-06-04T09:39:56.000Z</time>
      </trkpt>
      <trkpt lat="47.32436" lon="-2.41158">
        <ele>68.199996948242</ele>
        <time>2020-06-04T09:39:57.000Z</time>
      </trkpt>
      <trkpt lat="47.32432" lon="-2.4116">
        <ele>68.199996948242</ele>
        <time>2020-06-04T09:39:58.000Z</time>
      </trkpt>
      <trkpt lat="47.32426" lon="-2.41157">
        <ele>68.199996948242</ele>
        <time>2020-06-04T09:40:00.000Z</time>
      </trkpt>
      <trkpt lat="47.32422" lon="-2.41148">
        <ele>68.199996948242</ele>
        <time>2020-06-04T09:40:02.000Z</time>
      </trkpt>
      <trkpt lat="47.32416" lon="-2.41139">
        <ele>68.199996948242</ele>
        <time>2020-06-04T09:40:04.000Z</time>
      </trkpt>
      <trkpt lat="47.32403" lon="-2.41116">
        <ele>68.199996948242</ele>
        <time>2020-06-04T09:40:08.000Z</time>
      </trkpt>
      <trkpt lat="47.32397" lon="-2.41103">
        <ele>68.199996948242</ele>
        <time>2020-06-04T09:40:10.000Z</time>
      </trkpt>
      <trkpt lat="47.32389" lon="-2.41074">
        <ele>68.199996948242</ele>
        <time>2020-06-04T09:40:14.000Z</time>
      </trkpt>
      <trkpt lat="47.32389" lon="-2.41067">
        <ele>68.199996948242</ele>
        <time>2020-06-04T09:40:15.000Z</time>
      </trkpt>
      <trkpt lat="47.3239" lon="-2.41043">
        <ele>68.199996948242</ele>
        <time>2020-06-04T09:40:18.000Z</time>
      </trkpt>
      <trkpt lat="47.32388" lon="-2.41028">
        <ele>68.199996948242</ele>
        <time>2020-06-04T09:40:20.000Z</time>
      </trkpt>
      <trkpt lat="47.3238" lon="-2.40998">
        <ele>68.199996948242</ele>
        <time>2020-06-04T09:40:24.000Z</time>
      </trkpt>
      <trkpt lat="47.32378" lon="-2.4099">
        <ele>68.199996948242</ele>
        <time>2020-06-04T09:40:25.000Z</time>
      </trkpt>
      <trkpt lat="47.32366" lon="-2.4094">
        <ele>68.199996948242</ele>
        <time>2020-06-04T09:40:31.000Z</time>
      </trkpt>
      <trkpt lat="47.32352" lon="-2.4088">
        <ele>68.199996948242</ele>
        <time>2020-06-04T09:40:39.000Z</time>
      </trkpt>
      <trkpt lat="47.3235" lon="-2.40874">
        <ele>68.199996948242</ele>
        <time>2020-06-04T09:40:40.000Z</time>
      </trkpt>
      <trkpt lat="47.32338" lon="-2.40851">
        <ele>68.199996948242</ele>
        <time>2020-06-04T09:40:44.000Z</time>
      </trkpt>
      <trkpt lat="47.32335" lon="-2.40845">
        <ele>68.199996948242</ele>
        <time>2020-06-04T09:40:45.000Z</time>
      </trkpt>
      <trkpt lat="47.32334" lon="-2.40832">
        <ele>68.199996948242</ele>
        <time>2020-06-04T09:40:48.000Z</time>
      </trkpt>
      <trkpt lat="47.3234" lon="-2.40821">
        <ele>68.199996948242</ele>
        <time>2020-06-04T09:40:51.000Z</time>
      </trkpt>
      <trkpt lat="47.32355" lon="-2.40807">
        <ele>68.199996948242</ele>
        <time>2020-06-04T09:40:57.000Z</time>
      </trkpt>
      <trkpt lat="47.32357" lon="-2.40805">
        <ele>68.199996948242</ele>
        <time>2020-06-04T09:40:58.000Z</time>
      </trkpt>
      <trkpt lat="47.32367" lon="-2.40791">
        <ele>68.199996948242</ele>
        <time>2020-06-04T09:41:04.000Z</time>
      </trkpt>
      <trkpt lat="47.32364" lon="-2.40779">
        <ele>68.199996948242</ele>
        <time>2020-06-04T09:41:10.000Z</time>
      </trkpt>
      <trkpt lat="47.32364" lon="-2.40779">
        <ele>68.199996948242</ele>
        <time>2020-06-04T09:41:11.000Z</time>
      </trkpt>
      <trkpt lat="47.32372" lon="-2.40784">
        <ele>68.199996948242</ele>
        <time>2020-06-04T09:50:54.000Z</time>
      </trkpt>
      <trkpt lat="47.32373" lon="-2.40788">
        <ele>68.199996948242</ele>
        <time>2020-06-04T09:50:56.000Z</time>
      </trkpt>
      <trkpt lat="47.32373" lon="-2.408">
        <ele>68.199996948242</ele>
        <time>2020-06-04T09:51:02.000Z</time>
      </trkpt>
      <trkpt lat="47.32361" lon="-2.40813">
        <ele>68.199996948242</ele>
        <time>2020-06-04T09:51:07.000Z</time>
      </trkpt>
      <trkpt lat="47.32347" lon="-2.40826">
        <ele>68.199996948242</ele>
        <time>2020-06-04T09:51:14.000Z</time>
      </trkpt>
      <trkpt lat="47.32328" lon="-2.4084">
        <ele>68.199996948242</ele>
        <time>2020-06-04T09:51:20.000Z</time>
      </trkpt>
      <trkpt lat="47.32317" lon="-2.40834">
        <ele>68.199996948242</ele>
        <time>2020-06-04T09:51:23.000Z</time>
      </trkpt>
      <trkpt lat="47.32314" lon="-2.4083">
        <ele>68.199996948242</ele>
        <time>2020-06-04T09:51:24.000Z</time>
      </trkpt>
      <trkpt lat="47.323" lon="-2.40815">
        <ele>68.199996948242</ele>
        <time>2020-06-04T09:51:28.000Z</time>
      </trkpt>
      <trkpt lat="47.32289" lon="-2.40806">
        <ele>67.800003051758</ele>
        <time>2020-06-04T09:51:31.000Z</time>
      </trkpt>
      <trkpt lat="47.32287" lon="-2.40805">
        <ele>67.400001525879</ele>
        <time>2020-06-04T09:51:32.000Z</time>
      </trkpt>
      <trkpt lat="47.32286" lon="-2.40803">
        <ele>67</ele>
        <time>2020-06-04T09:51:33.000Z</time>
      </trkpt>
      <trkpt lat="47.32283" lon="-2.40801">
        <ele>66.599998474121</ele>
        <time>2020-06-04T09:51:34.000Z</time>
      </trkpt>
      <trkpt lat="47.32282" lon="-2.40798">
        <ele>66.199996948242</ele>
        <time>2020-06-04T09:51:35.000Z</time>
      </trkpt>
      <trkpt lat="47.32279" lon="-2.4079">
        <ele>66.199996948242</ele>
        <time>2020-06-04T09:51:37.000Z</time>
      </trkpt>
      <trkpt lat="47.32278" lon="-2.40776">
        <ele>66.199996948242</ele>
        <time>2020-06-04T09:51:39.000Z</time>
      </trkpt>
      <trkpt lat="47.32279" lon="-2.4076">
        <ele>66.199996948242</ele>
        <time>2020-06-04T09:51:41.000Z</time>
      </trkpt>
      <trkpt lat="47.3228" lon="-2.40751">
        <ele>66.199996948242</ele>
        <time>2020-06-04T09:51:42.000Z</time>
      </trkpt>
      <trkpt lat="47.32282" lon="-2.40708">
        <ele>66.199996948242</ele>
        <time>2020-06-04T09:51:47.000Z</time>
      </trkpt>
      <trkpt lat="47.32286" lon="-2.40654">
        <ele>66.199996948242</ele>
        <time>2020-06-04T09:51:54.000Z</time>
      </trkpt>
      <trkpt lat="47.32285" lon="-2.40628">
        <ele>66.199996948242</ele>
        <time>2020-06-04T09:51:58.000Z</time>
      </trkpt>
      <trkpt lat="47.32281" lon="-2.40623">
        <ele>66.199996948242</ele>
        <time>2020-06-04T09:51:59.000Z</time>
      </trkpt>
      <trkpt lat="47.32266" lon="-2.40619">
        <ele>66.199996948242</ele>
        <time>2020-06-04T09:52:02.000Z</time>
      </trkpt>
      <trkpt lat="47.32261" lon="-2.40618">
        <ele>66.199996948242</ele>
        <time>2020-06-04T09:52:03.000Z</time>
      </trkpt>
      <trkpt lat="47.32233" lon="-2.40617">
        <ele>66.199996948242</ele>
        <time>2020-06-04T09:52:08.000Z</time>
      </trkpt>
      <trkpt lat="47.32229" lon="-2.40623">
        <ele>66.199996948242</ele>
        <time>2020-06-04T09:52:09.000Z</time>
      </trkpt>
      <trkpt lat="47.32225" lon="-2.40647">
        <ele>66.199996948242</ele>
        <time>2020-06-04T09:52:12.000Z</time>
      </trkpt>
      <trkpt lat="47.32225" lon="-2.40657">
        <ele>66.199996948242</ele>
        <time>2020-06-04T09:52:13.000Z</time>
      </trkpt>
      <trkpt lat="47.32221" lon="-2.40706">
        <ele>66.199996948242</ele>
        <time>2020-06-04T09:52:18.000Z</time>
      </trkpt>
      <trkpt lat="47.32215" lon="-2.40773">
        <ele>66.199996948242</ele>
        <time>2020-06-04T09:52:26.000Z</time>
      </trkpt>
      <trkpt lat="47.32212" lon="-2.40799">
        <ele>66.199996948242</ele>
        <time>2020-06-04T09:52:31.000Z</time>
      </trkpt>
      <trkpt lat="47.3221" lon="-2.40799">
        <ele>66.199996948242</ele>
        <time>2020-06-04T09:52:32.000Z</time>
      </trkpt>
      <trkpt lat="47.32206" lon="-2.40796">
        <ele>66.199996948242</ele>
        <time>2020-06-04T09:52:34.000Z</time>
      </trkpt>
      <trkpt lat="47.32201" lon="-2.40791">
        <ele>66.199996948242</ele>
        <time>2020-06-04T09:52:37.000Z</time>
      </trkpt>
      <trkpt lat="47.32195" lon="-2.40783">
        <ele>66.199996948242</ele>
        <time>2020-06-04T09:52:40.000Z</time>
      </trkpt>
      <trkpt lat="47.32191" lon="-2.40776">
        <ele>66.199996948242</ele>
        <time>2020-06-04T09:52:41.000Z</time>
      </trkpt>
      <trkpt lat="47.32183" lon="-2.40764">
        <ele>66.199996948242</ele>
        <time>2020-06-04T09:52:43.000Z</time>
      </trkpt>
      <trkpt lat="47.32151" lon="-2.40723">
        <ele>66.199996948242</ele>
        <time>2020-06-04T09:52:49.000Z</time>
      </trkpt>
      <trkpt lat="47.32119" lon="-2.40687">
        <ele>66.199996948242</ele>
        <time>2020-06-04T09:52:55.000Z</time>
      </trkpt>
      <trkpt lat="47.3209" lon="-2.40653">
        <ele>66.199996948242</ele>
        <time>2020-06-04T09:53:02.000Z</time>
      </trkpt>
      <trkpt lat="47.32066" lon="-2.40629">
        <ele>66.199996948242</ele>
        <time>2020-06-04T09:53:08.000Z</time>
      </trkpt>
      <trkpt lat="47.32032" lon="-2.40597">
        <ele>66.199996948242</ele>
        <time>2020-06-04T09:53:16.000Z</time>
      </trkpt>
      <trkpt lat="47.32008" lon="-2.40576">
        <ele>66.199996948242</ele>
        <time>2020-06-04T09:53:22.000Z</time>
      </trkpt>
      <trkpt lat="47.31974" lon="-2.40542">
        <ele>65.599998474121</ele>
        <time>2020-06-04T09:53:30.000Z</time>
      </trkpt>
      <trkpt lat="47.3197" lon="-2.40538">
        <ele>65.199996948242</ele>
        <time>2020-06-04T09:53:31.000Z</time>
      </trkpt>
      <trkpt lat="47.31966" lon="-2.40533">
        <ele>64.800003051758</ele>
        <time>2020-06-04T09:53:32.000Z</time>
      </trkpt>
      <trkpt lat="47.3196" lon="-2.40529">
        <ele>64.400001525879</ele>
        <time>2020-06-04T09:53:33.000Z</time>
      </trkpt>
      <trkpt lat="47.31955" lon="-2.40525">
        <ele>64</ele>
        <time>2020-06-04T09:53:34.000Z</time>
      </trkpt>
      <trkpt lat="47.31941" lon="-2.40511">
        <ele>64</ele>
        <time>2020-06-04T09:53:37.000Z</time>
      </trkpt>
      <trkpt lat="47.31915" lon="-2.40491">
        <ele>64</ele>
        <time>2020-06-04T09:53:42.000Z</time>
      </trkpt>
      <trkpt lat="47.31904" lon="-2.40484">
        <ele>64</ele>
        <time>2020-06-04T09:53:44.000Z</time>
      </trkpt>
      <trkpt lat="47.31887" lon="-2.40471">
        <ele>63.599998474121</ele>
        <time>2020-06-04T09:53:47.000Z</time>
      </trkpt>
      <trkpt lat="47.31883" lon="-2.40467">
        <ele>63</ele>
        <time>2020-06-04T09:53:48.000Z</time>
      </trkpt>
      <trkpt lat="47.31879" lon="-2.40463">
        <ele>62.599998474121</ele>
        <time>2020-06-04T09:53:49.000Z</time>
      </trkpt>
      <trkpt lat="47.31875" lon="-2.40459">
        <ele>62.200000762939</ele>
        <time>2020-06-04T09:53:50.000Z</time>
      </trkpt>
      <trkpt lat="47.3187" lon="-2.40454">
        <ele>61.799999237061</ele>
        <time>2020-06-04T09:53:51.000Z</time>
      </trkpt>
      <trkpt lat="47.31833" lon="-2.40419">
        <ele>61.799999237061</ele>
        <time>2020-06-04T09:53:58.000Z</time>
      </trkpt>
      <trkpt lat="47.31796" lon="-2.40389">
        <ele>61.400001525879</ele>
        <time>2020-06-04T09:54:05.000Z</time>
      </trkpt>
      <trkpt lat="47.3179" lon="-2.40385">
        <ele>61</ele>
        <time>2020-06-04T09:54:06.000Z</time>
      </trkpt>
      <trkpt lat="47.31785" lon="-2.40382">
        <ele>60.200000762939</ele>
        <time>2020-06-04T09:54:07.000Z</time>
      </trkpt>
      <trkpt lat="47.31779" lon="-2.40378">
        <ele>59.799999237061</ele>
        <time>2020-06-04T09:54:08.000Z</time>
      </trkpt>
      <trkpt lat="47.31736" lon="-2.40356">
        <ele>59.799999237061</ele>
        <time>2020-06-04T09:54:13.000Z</time>
      </trkpt>
      <trkpt lat="47.31707" lon="-2.40338">
        <ele>59.799999237061</ele>
        <time>2020-06-04T09:54:18.000Z</time>
      </trkpt>
      <trkpt lat="47.317" lon="-2.40336">
        <ele>59.799999237061</ele>
        <time>2020-06-04T09:54:19.000Z</time>
      </trkpt>
      <trkpt lat="47.31681" lon="-2.40334">
        <ele>59.799999237061</ele>
        <time>2020-06-04T09:54:22.000Z</time>
      </trkpt>
      <trkpt lat="47.3168" lon="-2.40334">
        <ele>59.799999237061</ele>
        <time>2020-06-04T09:54:23.000Z</time>
      </trkpt>
      <trkpt lat="47.3168" lon="-2.40333">
        <ele>59.799999237061</ele>
        <time>2020-06-04T09:54:24.000Z</time>
      </trkpt>
      <trkpt lat="47.31667" lon="-2.40317">
        <ele>57.599998474121</ele>
        <time>2020-06-04T09:54:56.000Z</time>
      </trkpt>
      <trkpt lat="47.31663" lon="-2.40314">
        <ele>57.599998474121</ele>
        <time>2020-06-04T09:54:58.000Z</time>
      </trkpt>
      <trkpt lat="47.31646" lon="-2.40301">
        <ele>57.599998474121</ele>
        <time>2020-06-04T09:55:03.000Z</time>
      </trkpt>
      <trkpt lat="47.31612" lon="-2.40278">
        <ele>57.599998474121</ele>
        <time>2020-06-04T09:55:09.000Z</time>
      </trkpt>
      <trkpt lat="47.31585" lon="-2.40257">
        <ele>57.200000762939</ele>
        <time>2020-06-04T09:55:15.000Z</time>
      </trkpt>
      <trkpt lat="47.31581" lon="-2.40254">
        <ele>56.799999237061</ele>
        <time>2020-06-04T09:55:16.000Z</time>
      </trkpt>
      <trkpt lat="47.31577" lon="-2.40251">
        <ele>56.400001525879</ele>
        <time>2020-06-04T09:55:17.000Z</time>
      </trkpt>
      <trkpt lat="47.31573" lon="-2.40247">
        <ele>56</ele>
        <time>2020-06-04T09:55:18.000Z</time>
      </trkpt>
      <trkpt lat="47.31569" lon="-2.40243">
        <ele>55.599998474121</ele>
        <time>2020-06-04T09:55:19.000Z</time>
      </trkpt>
      <trkpt lat="47.31562" lon="-2.40236">
        <ele>55.599998474121</ele>
        <time>2020-06-04T09:55:21.000Z</time>
      </trkpt>
      <trkpt lat="47.31534" lon="-2.40215">
        <ele>55.599998474121</ele>
        <time>2020-06-04T09:55:28.000Z</time>
      </trkpt>
      <trkpt lat="47.31503" lon="-2.40194">
        <ele>55.599998474121</ele>
        <time>2020-06-04T09:55:34.000Z</time>
      </trkpt>
      <trkpt lat="47.31467" lon="-2.40169">
        <ele>55.599998474121</ele>
        <time>2020-06-04T09:55:39.000Z</time>
      </trkpt>
      <trkpt lat="47.31454" lon="-2.40158">
        <ele>55.200000762939</ele>
        <time>2020-06-04T09:55:41.000Z</time>
      </trkpt>
      <trkpt lat="47.31448" lon="-2.40154">
        <ele>54.799999237061</ele>
        <time>2020-06-04T09:55:42.000Z</time>
      </trkpt>
      <trkpt lat="47.31442" lon="-2.40149">
        <ele>54.400001525879</ele>
        <time>2020-06-04T09:55:43.000Z</time>
      </trkpt>
      <trkpt lat="47.31436" lon="-2.40144">
        <ele>53.799999237061</ele>
        <time>2020-06-04T09:55:44.000Z</time>
      </trkpt>
      <trkpt lat="47.3143" lon="-2.4014">
        <ele>53.400001525879</ele>
        <time>2020-06-04T09:55:45.000Z</time>
      </trkpt>
      <trkpt lat="47.31425" lon="-2.40136">
        <ele>53.400001525879</ele>
        <time>2020-06-04T09:55:46.000Z</time>
      </trkpt>
      <trkpt lat="47.31392" lon="-2.40114">
        <ele>53.400001525879</ele>
        <time>2020-06-04T09:55:52.000Z</time>
      </trkpt>
      <trkpt lat="47.31349" lon="-2.40087">
        <ele>53.400001525879</ele>
        <time>2020-06-04T09:56:00.000Z</time>
      </trkpt>
      <trkpt lat="47.31344" lon="-2.40085">
        <ele>53.400001525879</ele>
        <time>2020-06-04T09:56:01.000Z</time>
      </trkpt>
      <trkpt lat="47.31333" lon="-2.40079">
        <ele>53</ele>
        <time>2020-06-04T09:56:03.000Z</time>
      </trkpt>
      <trkpt lat="47.31326" lon="-2.40078">
        <ele>52.599998474121</ele>
        <time>2020-06-04T09:56:04.000Z</time>
      </trkpt>
      <trkpt lat="47.3132" lon="-2.40076">
        <ele>52.200000762939</ele>
        <time>2020-06-04T09:56:05.000Z</time>
      </trkpt>
      <trkpt lat="47.31314" lon="-2.40074">
        <ele>51.799999237061</ele>
        <time>2020-06-04T09:56:06.000Z</time>
      </trkpt>
      <trkpt lat="47.31308" lon="-2.40073">
        <ele>51.400001525879</ele>
        <time>2020-06-04T09:56:07.000Z</time>
      </trkpt>
      <trkpt lat="47.31269" lon="-2.40061">
        <ele>51.400001525879</ele>
        <time>2020-06-04T09:56:14.000Z</time>
      </trkpt>
      <trkpt lat="47.3125" lon="-2.40049">
        <ele>51.400001525879</ele>
        <time>2020-06-04T09:56:19.000Z</time>
      </trkpt>
      <trkpt lat="47.31238" lon="-2.40044">
        <ele>51.400001525879</ele>
        <time>2020-06-04T09:56:23.000Z</time>
      </trkpt>
      <trkpt lat="47.31237" lon="-2.40042">
        <ele>51.400001525879</ele>
        <time>2020-06-04T09:56:24.000Z</time>
      </trkpt>
      <trkpt lat="47.31232" lon="-2.40029">
        <ele>51.400001525879</ele>
        <time>2020-06-04T09:56:29.000Z</time>
      </trkpt>
      <trkpt lat="47.31226" lon="-2.40003">
        <ele>51.400001525879</ele>
        <time>2020-06-04T09:56:35.000Z</time>
      </trkpt>
      <trkpt lat="47.31218" lon="-2.39976">
        <ele>51.400001525879</ele>
        <time>2020-06-04T09:56:42.000Z</time>
      </trkpt>
      <trkpt lat="47.3121" lon="-2.39949">
        <ele>51.400001525879</ele>
        <time>2020-06-04T09:56:49.000Z</time>
      </trkpt>
      <trkpt lat="47.31209" lon="-2.39945">
        <ele>51.799999237061</ele>
        <time>2020-06-04T09:56:50.000Z</time>
      </trkpt>
      <trkpt lat="47.31208" lon="-2.39941">
        <ele>52.200000762939</ele>
        <time>2020-06-04T09:56:51.000Z</time>
      </trkpt>
      <trkpt lat="47.31207" lon="-2.39937">
        <ele>52.599998474121</ele>
        <time>2020-06-04T09:56:52.000Z</time>
      </trkpt>
      <trkpt lat="47.31206" lon="-2.39933">
        <ele>53</ele>
        <time>2020-06-04T09:56:53.000Z</time>
      </trkpt>
      <trkpt lat="47.31205" lon="-2.3993">
        <ele>53.400001525879</ele>
        <time>2020-06-04T09:56:54.000Z</time>
      </trkpt>
      <trkpt lat="47.31202" lon="-2.39924">
        <ele>53.400001525879</ele>
        <time>2020-06-04T09:56:56.000Z</time>
      </trkpt>
      <trkpt lat="47.31196" lon="-2.39896">
        <ele>54</ele>
        <time>2020-06-04T09:57:02.000Z</time>
      </trkpt>
      <trkpt lat="47.31195" lon="-2.39892">
        <ele>54.400001525879</ele>
        <time>2020-06-04T09:57:03.000Z</time>
      </trkpt>
      <trkpt lat="47.31193" lon="-2.39888">
        <ele>55</ele>
        <time>2020-06-04T09:57:04.000Z</time>
      </trkpt>
      <trkpt lat="47.31191" lon="-2.39884">
        <ele>55.400001525879</ele>
        <time>2020-06-04T09:57:05.000Z</time>
      </trkpt>
      <trkpt lat="47.31189" lon="-2.39878">
        <ele>56</ele>
        <time>2020-06-04T09:57:06.000Z</time>
      </trkpt>
      <trkpt lat="47.31187" lon="-2.39869">
        <ele>56</ele>
        <time>2020-06-04T09:57:07.000Z</time>
      </trkpt>
      <trkpt lat="47.31185" lon="-2.39861">
        <ele>56</ele>
        <time>2020-06-04T09:57:08.000Z</time>
      </trkpt>
      <trkpt lat="47.31181" lon="-2.39848">
        <ele>56</ele>
        <time>2020-06-04T09:57:10.000Z</time>
      </trkpt>
      <trkpt lat="47.31178" lon="-2.39842">
        <ele>56</ele>
        <time>2020-06-04T09:57:11.000Z</time>
      </trkpt>
      <trkpt lat="47.3117" lon="-2.39826">
        <ele>56</ele>
        <time>2020-06-04T09:57:14.000Z</time>
      </trkpt>
      <trkpt lat="47.31164" lon="-2.39814">
        <ele>56</ele>
        <time>2020-06-04T09:57:16.000Z</time>
      </trkpt>
      <trkpt lat="47.31144" lon="-2.39759">
        <ele>56</ele>
        <time>2020-06-04T09:57:25.000Z</time>
      </trkpt>
      <trkpt lat="47.31135" lon="-2.39735">
        <ele>56.400001525879</ele>
        <time>2020-06-04T09:57:29.000Z</time>
      </trkpt>
      <trkpt lat="47.31133" lon="-2.39729">
        <ele>56.799999237061</ele>
        <time>2020-06-04T09:57:30.000Z</time>
      </trkpt>
      <trkpt lat="47.31131" lon="-2.39723">
        <ele>57.200000762939</ele>
        <time>2020-06-04T09:57:31.000Z</time>
      </trkpt>
      <trkpt lat="47.31128" lon="-2.39717">
        <ele>57.799999237061</ele>
        <time>2020-06-04T09:57:32.000Z</time>
      </trkpt>
      <trkpt lat="47.31126" lon="-2.3971">
        <ele>58.200000762939</ele>
        <time>2020-06-04T09:57:33.000Z</time>
      </trkpt>
      <trkpt lat="47.31111" lon="-2.39666">
        <ele>58.200000762939</ele>
        <time>2020-06-04T09:57:40.000Z</time>
      </trkpt>
      <trkpt lat="47.31094" lon="-2.3962">
        <ele>58.200000762939</ele>
        <time>2020-06-04T09:57:47.000Z</time>
      </trkpt>
      <trkpt lat="47.31081" lon="-2.39585">
        <ele>58.599998474121</ele>
        <time>2020-06-04T09:57:52.000Z</time>
      </trkpt>
      <trkpt lat="47.31079" lon="-2.39578">
        <ele>59</ele>
        <time>2020-06-04T09:57:53.000Z</time>
      </trkpt>
      <trkpt lat="47.31076" lon="-2.3957">
        <ele>59.400001525879</ele>
        <time>2020-06-04T09:57:54.000Z</time>
      </trkpt>
      <trkpt lat="47.31073" lon="-2.39562">
        <ele>59.799999237061</ele>
        <time>2020-06-04T09:57:55.000Z</time>
      </trkpt>
      <trkpt lat="47.3107" lon="-2.39554">
        <ele>60.200000762939</ele>
        <time>2020-06-04T09:57:56.000Z</time>
      </trkpt>
      <trkpt lat="47.31054" lon="-2.39507">
        <ele>60.200000762939</ele>
        <time>2020-06-04T09:58:01.000Z</time>
      </trkpt>
      <trkpt lat="47.3104" lon="-2.39466">
        <ele>59.799999237061</ele>
        <time>2020-06-04T09:58:05.000Z</time>
      </trkpt>
      <trkpt lat="47.31037" lon="-2.39456">
        <ele>59.400001525879</ele>
        <time>2020-06-04T09:58:06.000Z</time>
      </trkpt>
      <trkpt lat="47.31033" lon="-2.39447">
        <ele>58.799999237061</ele>
        <time>2020-06-04T09:58:07.000Z</time>
      </trkpt>
      <trkpt lat="47.3103" lon="-2.39437">
        <ele>58.400001525879</ele>
        <time>2020-06-04T09:58:08.000Z</time>
      </trkpt>
      <trkpt lat="47.31027" lon="-2.39428">
        <ele>58</ele>
        <time>2020-06-04T09:58:09.000Z</time>
      </trkpt>
      <trkpt lat="47.31008" lon="-2.39376">
        <ele>58</ele>
        <time>2020-06-04T09:58:15.000Z</time>
      </trkpt>
      <trkpt lat="47.30984" lon="-2.39307">
        <ele>58</ele>
        <time>2020-06-04T09:58:23.000Z</time>
      </trkpt>
      <trkpt lat="47.30957" lon="-2.39234">
        <ele>58</ele>
        <time>2020-06-04T09:58:31.000Z</time>
      </trkpt>
      <trkpt lat="47.30927" lon="-2.39163">
        <ele>58</ele>
        <time>2020-06-04T09:58:39.000Z</time>
      </trkpt>
      <trkpt lat="47.30912" lon="-2.39124">
        <ele>58</ele>
        <time>2020-06-04T09:58:43.000Z</time>
      </trkpt>
      <trkpt lat="47.30898" lon="-2.39076">
        <ele>58.400001525879</ele>
        <time>2020-06-04T09:58:48.000Z</time>
      </trkpt>
      <trkpt lat="47.30896" lon="-2.39066">
        <ele>58.799999237061</ele>
        <time>2020-06-04T09:58:49.000Z</time>
      </trkpt>
      <trkpt lat="47.30896" lon="-2.39056">
        <ele>59.200000762939</ele>
        <time>2020-06-04T09:58:50.000Z</time>
      </trkpt>
      <trkpt lat="47.30896" lon="-2.39046">
        <ele>59.599998474121</ele>
        <time>2020-06-04T09:58:51.000Z</time>
      </trkpt>
      <trkpt lat="47.30896" lon="-2.39036">
        <ele>60</ele>
        <time>2020-06-04T09:58:52.000Z</time>
      </trkpt>
      <trkpt lat="47.309" lon="-2.38998">
        <ele>60</ele>
        <time>2020-06-04T09:58:56.000Z</time>
      </trkpt>
      <trkpt lat="47.30905" lon="-2.38971">
        <ele>60</ele>
        <time>2020-06-04T09:58:59.000Z</time>
      </trkpt>
      <trkpt lat="47.3091" lon="-2.38956">
        <ele>60</ele>
        <time>2020-06-04T09:59:01.000Z</time>
      </trkpt>
      <trkpt lat="47.30914" lon="-2.38949">
        <ele>60</ele>
        <time>2020-06-04T09:59:02.000Z</time>
      </trkpt>
      <trkpt lat="47.30924" lon="-2.38924">
        <ele>60</ele>
        <time>2020-06-04T09:59:05.000Z</time>
      </trkpt>
      <trkpt lat="47.30921" lon="-2.38897">
        <ele>60</ele>
        <time>2020-06-04T09:59:08.000Z</time>
      </trkpt>
      <trkpt lat="47.30917" lon="-2.3889">
        <ele>60</ele>
        <time>2020-06-04T09:59:09.000Z</time>
      </trkpt>
      <trkpt lat="47.30913" lon="-2.38886">
        <ele>60</ele>
        <time>2020-06-04T09:59:10.000Z</time>
      </trkpt>
      <trkpt lat="47.3091" lon="-2.38884">
        <ele>59.599998474121</ele>
        <time>2020-06-04T09:59:11.000Z</time>
      </trkpt>
      <trkpt lat="47.30907" lon="-2.38882">
        <ele>59.200000762939</ele>
        <time>2020-06-04T09:59:12.000Z</time>
      </trkpt>
      <trkpt lat="47.30903" lon="-2.38881">
        <ele>58.799999237061</ele>
        <time>2020-06-04T09:59:13.000Z</time>
      </trkpt>
      <trkpt lat="47.309" lon="-2.38882">
        <ele>58.400001525879</ele>
        <time>2020-06-04T09:59:14.000Z</time>
      </trkpt>
      <trkpt lat="47.30897" lon="-2.38884">
        <ele>57.799999237061</ele>
        <time>2020-06-04T09:59:15.000Z</time>
      </trkpt>
      <trkpt lat="47.30893" lon="-2.38885">
        <ele>57.799999237061</ele>
        <time>2020-06-04T09:59:16.000Z</time>
      </trkpt>
      <trkpt lat="47.30886" lon="-2.38888">
        <ele>57.799999237061</ele>
        <time>2020-06-04T09:59:18.000Z</time>
      </trkpt>
      <trkpt lat="47.3087" lon="-2.38886">
        <ele>57.799999237061</ele>
        <time>2020-06-04T09:59:21.000Z</time>
      </trkpt>
      <trkpt lat="47.3086" lon="-2.38886">
        <ele>57.799999237061</ele>
        <time>2020-06-04T09:59:23.000Z</time>
      </trkpt>
      <trkpt lat="47.30854" lon="-2.38889">
        <ele>57.799999237061</ele>
        <time>2020-06-04T09:59:24.000Z</time>
      </trkpt>
      <trkpt lat="47.30848" lon="-2.38892">
        <ele>57.799999237061</ele>
        <time>2020-06-04T09:59:25.000Z</time>
      </trkpt>
      <trkpt lat="47.30834" lon="-2.38903">
        <ele>57.400001525879</ele>
        <time>2020-06-04T09:59:27.000Z</time>
      </trkpt>
      <trkpt lat="47.30827" lon="-2.38908">
        <ele>56.599998474121</ele>
        <time>2020-06-04T09:59:28.000Z</time>
      </trkpt>
      <trkpt lat="47.3082" lon="-2.38914">
        <ele>56</ele>
        <time>2020-06-04T09:59:29.000Z</time>
      </trkpt>
      <trkpt lat="47.30813" lon="-2.3892">
        <ele>55.599998474121</ele>
        <time>2020-06-04T09:59:30.000Z</time>
      </trkpt>
      <trkpt lat="47.30798" lon="-2.38932">
        <ele>55.200000762939</ele>
        <time>2020-06-04T09:59:32.000Z</time>
      </trkpt>
      <trkpt lat="47.30791" lon="-2.38937">
        <ele>54.799999237061</ele>
        <time>2020-06-04T09:59:33.000Z</time>
      </trkpt>
      <trkpt lat="47.30784" lon="-2.38943">
        <ele>54.400001525879</ele>
        <time>2020-06-04T09:59:34.000Z</time>
      </trkpt>
      <trkpt lat="47.30777" lon="-2.38948">
        <ele>53.799999237061</ele>
        <time>2020-06-04T09:59:35.000Z</time>
      </trkpt>
      <trkpt lat="47.30771" lon="-2.38953">
        <ele>53.400001525879</ele>
        <time>2020-06-04T09:59:36.000Z</time>
      </trkpt>
      <trkpt lat="47.3076" lon="-2.38965">
        <ele>53.400001525879</ele>
        <time>2020-06-04T09:59:38.000Z</time>
      </trkpt>
      <trkpt lat="47.30756" lon="-2.38973">
        <ele>53.400001525879</ele>
        <time>2020-06-04T09:59:39.000Z</time>
      </trkpt>
      <trkpt lat="47.30743" lon="-2.38995">
        <ele>53.799999237061</ele>
        <time>2020-06-04T09:59:42.000Z</time>
      </trkpt>
      <trkpt lat="47.30738" lon="-2.38999">
        <ele>54.400001525879</ele>
        <time>2020-06-04T09:59:43.000Z</time>
      </trkpt>
      <trkpt lat="47.30732" lon="-2.39">
        <ele>54.799999237061</ele>
        <time>2020-06-04T09:59:44.000Z</time>
      </trkpt>
      <trkpt lat="47.30726" lon="-2.38998">
        <ele>55.200000762939</ele>
        <time>2020-06-04T09:59:45.000Z</time>
      </trkpt>
      <trkpt lat="47.30722" lon="-2.38994">
        <ele>55.599998474121</ele>
        <time>2020-06-04T09:59:46.000Z</time>
      </trkpt>
      <trkpt lat="47.30717" lon="-2.38988">
        <ele>55.599998474121</ele>
        <time>2020-06-04T09:59:47.000Z</time>
      </trkpt>
      <trkpt lat="47.30709" lon="-2.38974">
        <ele>55.599998474121</ele>
        <time>2020-06-04T09:59:49.000Z</time>
      </trkpt>
      <trkpt lat="47.307" lon="-2.38959">
        <ele>55.599998474121</ele>
        <time>2020-06-04T09:59:51.000Z</time>
      </trkpt>
      <trkpt lat="47.30697" lon="-2.38951">
        <ele>55.599998474121</ele>
        <time>2020-06-04T09:59:52.000Z</time>
      </trkpt>
      <trkpt lat="47.30692" lon="-2.38923">
        <ele>55.599998474121</ele>
        <time>2020-06-04T09:59:55.000Z</time>
      </trkpt>
      <trkpt lat="47.30692" lon="-2.38916">
        <ele>56</ele>
        <time>2020-06-04T09:59:56.000Z</time>
      </trkpt>
      <trkpt lat="47.3069" lon="-2.38912">
        <ele>56.400001525879</ele>
        <time>2020-06-04T09:59:57.000Z</time>
      </trkpt>
      <trkpt lat="47.30688" lon="-2.3891">
        <ele>56.799999237061</ele>
        <time>2020-06-04T09:59:58.000Z</time>
      </trkpt>
      <trkpt lat="47.30685" lon="-2.38912">
        <ele>57.200000762939</ele>
        <time>2020-06-04T09:59:59.000Z</time>
      </trkpt>
      <trkpt lat="47.3068" lon="-2.38916">
        <ele>57.599998474121</ele>
        <time>2020-06-04T10:00:00.000Z</time>
      </trkpt>
      <trkpt lat="47.30674" lon="-2.38921">
        <ele>57.599998474121</ele>
        <time>2020-06-04T10:00:01.000Z</time>
      </trkpt>
      <trkpt lat="47.30643" lon="-2.38951">
        <ele>57.599998474121</ele>
        <time>2020-06-04T10:00:06.000Z</time>
      </trkpt>
      <trkpt lat="47.30595" lon="-2.38999">
        <ele>57.599998474121</ele>
        <time>2020-06-04T10:00:13.000Z</time>
      </trkpt>
      <trkpt lat="47.30589" lon="-2.39007">
        <ele>57.599998474121</ele>
        <time>2020-06-04T10:00:14.000Z</time>
      </trkpt>
      <trkpt lat="47.30557" lon="-2.39046">
        <ele>57.200000762939</ele>
        <time>2020-06-04T10:00:19.000Z</time>
      </trkpt>
      <trkpt lat="47.3055" lon="-2.39054">
        <ele>56.799999237061</ele>
        <time>2020-06-04T10:00:20.000Z</time>
      </trkpt>
      <trkpt lat="47.30543" lon="-2.39062">
        <ele>56.400001525879</ele>
        <time>2020-06-04T10:00:21.000Z</time>
      </trkpt>
      <trkpt lat="47.30535" lon="-2.3907">
        <ele>56</ele>
        <time>2020-06-04T10:00:22.000Z</time>
      </trkpt>
      <trkpt lat="47.30528" lon="-2.39077">
        <ele>55.599998474121</ele>
        <time>2020-06-04T10:00:23.000Z</time>
      </trkpt>
      <trkpt lat="47.30489" lon="-2.39113">
        <ele>55.599998474121</ele>
        <time>2020-06-04T10:00:28.000Z</time>
      </trkpt>
      <trkpt lat="47.30482" lon="-2.3912">
        <ele>55</ele>
        <time>2020-06-04T10:00:29.000Z</time>
      </trkpt>
      <trkpt lat="47.30475" lon="-2.39128">
        <ele>54.599998474121</ele>
        <time>2020-06-04T10:00:30.000Z</time>
      </trkpt>
      <trkpt lat="47.30468" lon="-2.39136">
        <ele>54.200000762939</ele>
        <time>2020-06-04T10:00:31.000Z</time>
      </trkpt>
      <trkpt lat="47.3046" lon="-2.39144">
        <ele>53.799999237061</ele>
        <time>2020-06-04T10:00:32.000Z</time>
      </trkpt>
      <trkpt lat="47.30453" lon="-2.39152">
        <ele>53.400001525879</ele>
        <time>2020-06-04T10:00:33.000Z</time>
      </trkpt>
      <trkpt lat="47.30437" lon="-2.39167">
        <ele>53.400001525879</ele>
        <time>2020-06-04T10:00:35.000Z</time>
      </trkpt>
      <trkpt lat="47.3041" lon="-2.39174">
        <ele>53</ele>
        <time>2020-06-04T10:00:38.000Z</time>
      </trkpt>
      <trkpt lat="47.304" lon="-2.39171">
        <ele>52.599998474121</ele>
        <time>2020-06-04T10:00:39.000Z</time>
      </trkpt>
      <trkpt lat="47.30392" lon="-2.39165">
        <ele>52.200000762939</ele>
        <time>2020-06-04T10:00:40.000Z</time>
      </trkpt>
      <trkpt lat="47.30384" lon="-2.39157">
        <ele>51.799999237061</ele>
        <time>2020-06-04T10:00:41.000Z</time>
      </trkpt>
      <trkpt lat="47.30378" lon="-2.39147">
        <ele>51.400001525879</ele>
        <time>2020-06-04T10:00:42.000Z</time>
      </trkpt>
      <trkpt lat="47.30369" lon="-2.39125">
        <ele>51.400001525879</ele>
        <time>2020-06-04T10:00:44.000Z</time>
      </trkpt>
      <trkpt lat="47.30362" lon="-2.39102">
        <ele>51.400001525879</ele>
        <time>2020-06-04T10:00:46.000Z</time>
      </trkpt>
      <trkpt lat="47.30355" lon="-2.3907">
        <ele>51.400001525879</ele>
        <time>2020-06-04T10:00:49.000Z</time>
      </trkpt>
      <trkpt lat="47.30341" lon="-2.39011">
        <ele>51.400001525879</ele>
        <time>2020-06-04T10:00:55.000Z</time>
      </trkpt>
      <trkpt lat="47.30328" lon="-2.38976">
        <ele>51.400001525879</ele>
        <time>2020-06-04T10:00:59.000Z</time>
      </trkpt>
      <trkpt lat="47.3032" lon="-2.3896">
        <ele>51.400001525879</ele>
        <time>2020-06-04T10:01:01.000Z</time>
      </trkpt>
      <trkpt lat="47.30298" lon="-2.38922">
        <ele>51.400001525879</ele>
        <time>2020-06-04T10:01:06.000Z</time>
      </trkpt>
      <trkpt lat="47.3029" lon="-2.38905">
        <ele>51</ele>
        <time>2020-06-04T10:01:08.000Z</time>
      </trkpt>
      <trkpt lat="47.30287" lon="-2.38896">
        <ele>50.400001525879</ele>
        <time>2020-06-04T10:01:09.000Z</time>
      </trkpt>
      <trkpt lat="47.30284" lon="-2.38887">
        <ele>50</ele>
        <time>2020-06-04T10:01:10.000Z</time>
      </trkpt>
      <trkpt lat="47.30281" lon="-2.38878">
        <ele>49.599998474121</ele>
        <time>2020-06-04T10:01:11.000Z</time>
      </trkpt>
      <trkpt lat="47.30278" lon="-2.3887">
        <ele>49.200000762939</ele>
        <time>2020-06-04T10:01:12.000Z</time>
      </trkpt>
      <trkpt lat="47.30262" lon="-2.38827">
        <ele>48.799999237061</ele>
        <time>2020-06-04T10:01:17.000Z</time>
      </trkpt>
      <trkpt lat="47.30258" lon="-2.38819">
        <ele>48.400001525879</ele>
        <time>2020-06-04T10:01:18.000Z</time>
      </trkpt>
      <trkpt lat="47.30253" lon="-2.38811">
        <ele>48</ele>
        <time>2020-06-04T10:01:19.000Z</time>
      </trkpt>
      <trkpt lat="47.30248" lon="-2.38803">
        <ele>47.400001525879</ele>
        <time>2020-06-04T10:01:20.000Z</time>
      </trkpt>
      <trkpt lat="47.30244" lon="-2.38796">
        <ele>47</ele>
        <time>2020-06-04T10:01:21.000Z</time>
      </trkpt>
      <trkpt lat="47.30238" lon="-2.38789">
        <ele>46.599998474121</ele>
        <time>2020-06-04T10:01:22.000Z</time>
      </trkpt>
      <trkpt lat="47.30232" lon="-2.38782">
        <ele>46.200000762939</ele>
        <time>2020-06-04T10:01:23.000Z</time>
      </trkpt>
      <trkpt lat="47.30226" lon="-2.38776">
        <ele>45.799999237061</ele>
        <time>2020-06-04T10:01:24.000Z</time>
      </trkpt>
      <trkpt lat="47.3022" lon="-2.38771">
        <ele>45.400001525879</ele>
        <time>2020-06-04T10:01:25.000Z</time>
      </trkpt>
      <trkpt lat="47.30214" lon="-2.38767">
        <ele>44.799999237061</ele>
        <time>2020-06-04T10:01:26.000Z</time>
      </trkpt>
      <trkpt lat="47.30208" lon="-2.38763">
        <ele>44.200000762939</ele>
        <time>2020-06-04T10:01:27.000Z</time>
      </trkpt>
      <trkpt lat="47.302" lon="-2.38761">
        <ele>43.599998474121</ele>
        <time>2020-06-04T10:01:28.000Z</time>
      </trkpt>
      <trkpt lat="47.3019" lon="-2.38761">
        <ele>42.799999237061</ele>
        <time>2020-06-04T10:01:29.000Z</time>
      </trkpt>
      <trkpt lat="47.3018" lon="-2.38765">
        <ele>42.200000762939</ele>
        <time>2020-06-04T10:01:30.000Z</time>
      </trkpt>
      <trkpt lat="47.30172" lon="-2.38773">
        <ele>41.400001525879</ele>
        <time>2020-06-04T10:01:31.000Z</time>
      </trkpt>
      <trkpt lat="47.30164" lon="-2.38783">
        <ele>40.599998474121</ele>
        <time>2020-06-04T10:01:32.000Z</time>
      </trkpt>
      <trkpt lat="47.30157" lon="-2.38793">
        <ele>39.599998474121</ele>
        <time>2020-06-04T10:01:33.000Z</time>
      </trkpt>
      <trkpt lat="47.3015" lon="-2.38803">
        <ele>39</ele>
        <time>2020-06-04T10:01:34.000Z</time>
      </trkpt>
      <trkpt lat="47.30144" lon="-2.38815">
        <ele>38.400001525879</ele>
        <time>2020-06-04T10:01:35.000Z</time>
      </trkpt>
      <trkpt lat="47.30137" lon="-2.38827">
        <ele>37.799999237061</ele>
        <time>2020-06-04T10:01:36.000Z</time>
      </trkpt>
      <trkpt lat="47.30131" lon="-2.3884">
        <ele>37.400001525879</ele>
        <time>2020-06-04T10:01:37.000Z</time>
      </trkpt>
      <trkpt lat="47.30125" lon="-2.38852">
        <ele>36.799999237061</ele>
        <time>2020-06-04T10:01:38.000Z</time>
      </trkpt>
      <trkpt lat="47.30119" lon="-2.38864">
        <ele>36.200000762939</ele>
        <time>2020-06-04T10:01:39.000Z</time>
      </trkpt>
      <trkpt lat="47.30113" lon="-2.38876">
        <ele>35.799999237061</ele>
        <time>2020-06-04T10:01:40.000Z</time>
      </trkpt>
      <trkpt lat="47.30107" lon="-2.38888">
        <ele>35.799999237061</ele>
        <time>2020-06-04T10:01:41.000Z</time>
      </trkpt>
      <trkpt lat="47.301" lon="-2.38899">
        <ele>35.200000762939</ele>
        <time>2020-06-04T10:01:42.000Z</time>
      </trkpt>
      <trkpt lat="47.30092" lon="-2.38908">
        <ele>34.799999237061</ele>
        <time>2020-06-04T10:01:43.000Z</time>
      </trkpt>
      <trkpt lat="47.30084" lon="-2.38917">
        <ele>34.400001525879</ele>
        <time>2020-06-04T10:01:44.000Z</time>
      </trkpt>
      <trkpt lat="47.30075" lon="-2.38924">
        <ele>33.799999237061</ele>
        <time>2020-06-04T10:01:45.000Z</time>
      </trkpt>
      <trkpt lat="47.30066" lon="-2.38931">
        <ele>33.400001525879</ele>
        <time>2020-06-04T10:01:46.000Z</time>
      </trkpt>
      <trkpt lat="47.30058" lon="-2.38938">
        <ele>33</ele>
        <time>2020-06-04T10:01:47.000Z</time>
      </trkpt>
      <trkpt lat="47.3005" lon="-2.38944">
        <ele>32.400001525879</ele>
        <time>2020-06-04T10:01:48.000Z</time>
      </trkpt>
      <trkpt lat="47.30043" lon="-2.38949">
        <ele>32</ele>
        <time>2020-06-04T10:01:49.000Z</time>
      </trkpt>
      <trkpt lat="47.30038" lon="-2.38953">
        <ele>31.200000762939</ele>
        <time>2020-06-04T10:01:50.000Z</time>
      </trkpt>
      <trkpt lat="47.30032" lon="-2.38957">
        <ele>30.60000038147</ele>
        <time>2020-06-04T10:01:51.000Z</time>
      </trkpt>
      <trkpt lat="47.30028" lon="-2.3896">
        <ele>30</ele>
        <time>2020-06-04T10:01:52.000Z</time>
      </trkpt>
      <trkpt lat="47.30025" lon="-2.38962">
        <ele>29.39999961853</ele>
        <time>2020-06-04T10:01:53.000Z</time>
      </trkpt>
      <trkpt lat="47.30022" lon="-2.38963">
        <ele>28.60000038147</ele>
        <time>2020-06-04T10:01:54.000Z</time>
      </trkpt>
      <trkpt lat="47.30012" lon="-2.38963">
        <ele>28.60000038147</ele>
        <time>2020-06-04T10:01:57.000Z</time>
      </trkpt>
      <trkpt lat="47.30006" lon="-2.3896">
        <ele>28.60000038147</ele>
        <time>2020-06-04T10:01:59.000Z</time>
      </trkpt>
      <trkpt lat="47.30004" lon="-2.38956">
        <ele>28.60000038147</ele>
        <time>2020-06-04T10:02:00.000Z</time>
      </trkpt>
      <trkpt lat="47.3" lon="-2.38934">
        <ele>28.60000038147</ele>
        <time>2020-06-04T10:02:04.000Z</time>
      </trkpt>
      <trkpt lat="47.29999" lon="-2.3892">
        <ele>28.60000038147</ele>
        <time>2020-06-04T10:02:06.000Z</time>
      </trkpt>
      <trkpt lat="47.30002" lon="-2.38893">
        <ele>28.60000038147</ele>
        <time>2020-06-04T10:02:10.000Z</time>
      </trkpt>
      <trkpt lat="47.30005" lon="-2.38852">
        <ele>28.60000038147</ele>
        <time>2020-06-04T10:02:16.000Z</time>
      </trkpt>
      <trkpt lat="47.30006" lon="-2.38845">
        <ele>28.60000038147</ele>
        <time>2020-06-04T10:02:17.000Z</time>
      </trkpt>
      <trkpt lat="47.30006" lon="-2.38839">
        <ele>29</ele>
        <time>2020-06-04T10:02:18.000Z</time>
      </trkpt>
      <trkpt lat="47.30007" lon="-2.38832">
        <ele>29.60000038147</ele>
        <time>2020-06-04T10:02:19.000Z</time>
      </trkpt>
      <trkpt lat="47.30008" lon="-2.38825">
        <ele>30</ele>
        <time>2020-06-04T10:02:20.000Z</time>
      </trkpt>
      <trkpt lat="47.30008" lon="-2.38819">
        <ele>30.39999961853</ele>
        <time>2020-06-04T10:02:21.000Z</time>
      </trkpt>
      <trkpt lat="47.30009" lon="-2.38812">
        <ele>30.799999237061</ele>
        <time>2020-06-04T10:02:22.000Z</time>
      </trkpt>
      <trkpt lat="47.30012" lon="-2.38787">
        <ele>30.799999237061</ele>
        <time>2020-06-04T10:02:26.000Z</time>
      </trkpt>
      <trkpt lat="47.30013" lon="-2.38781">
        <ele>31.200000762939</ele>
        <time>2020-06-04T10:02:27.000Z</time>
      </trkpt>
      <trkpt lat="47.30013" lon="-2.38775">
        <ele>31.60000038147</ele>
        <time>2020-06-04T10:02:28.000Z</time>
      </trkpt>
      <trkpt lat="47.30014" lon="-2.3877">
        <ele>32</ele>
        <time>2020-06-04T10:02:29.000Z</time>
      </trkpt>
      <trkpt lat="47.30015" lon="-2.38764">
        <ele>32.400001525879</ele>
        <time>2020-06-04T10:02:30.000Z</time>
      </trkpt>
      <trkpt lat="47.30016" lon="-2.38759">
        <ele>32.799999237061</ele>
        <time>2020-06-04T10:02:31.000Z</time>
      </trkpt>
      <trkpt lat="47.30019" lon="-2.38741">
        <ele>32.799999237061</ele>
        <time>2020-06-04T10:02:34.000Z</time>
      </trkpt>
      <trkpt lat="47.30021" lon="-2.38729">
        <ele>33.400001525879</ele>
        <time>2020-06-04T10:02:36.000Z</time>
      </trkpt>
      <trkpt lat="47.30022" lon="-2.38723">
        <ele>33.799999237061</ele>
        <time>2020-06-04T10:02:37.000Z</time>
      </trkpt>
      <trkpt lat="47.30023" lon="-2.38717">
        <ele>34.200000762939</ele>
        <time>2020-06-04T10:02:38.000Z</time>
      </trkpt>
      <trkpt lat="47.30023" lon="-2.38712">
        <ele>34.599998474121</ele>
        <time>2020-06-04T10:02:39.000Z</time>
      </trkpt>
      <trkpt lat="47.30024" lon="-2.38706">
        <ele>35</ele>
        <time>2020-06-04T10:02:40.000Z</time>
      </trkpt>
      <trkpt lat="47.30027" lon="-2.38678">
        <ele>35.400001525879</ele>
        <time>2020-06-04T10:02:45.000Z</time>
      </trkpt>
      <trkpt lat="47.30027" lon="-2.38672">
        <ele>35.799999237061</ele>
        <time>2020-06-04T10:02:46.000Z</time>
      </trkpt>
      <trkpt lat="47.30027" lon="-2.38667">
        <ele>36.599998474121</ele>
        <time>2020-06-04T10:02:47.000Z</time>
      </trkpt>
      <trkpt lat="47.30027" lon="-2.38662">
        <ele>37.200000762939</ele>
        <time>2020-06-04T10:02:48.000Z</time>
      </trkpt>
      <trkpt lat="47.30027" lon="-2.38657">
        <ele>37.200000762939</ele>
        <time>2020-06-04T10:02:49.000Z</time>
      </trkpt>
      <trkpt lat="47.30024" lon="-2.38614">
        <ele>37.599998474121</ele>
        <time>2020-06-04T10:02:57.000Z</time>
      </trkpt>
      <trkpt lat="47.30024" lon="-2.38608">
        <ele>38</ele>
        <time>2020-06-04T10:02:58.000Z</time>
      </trkpt>
      <trkpt lat="47.30024" lon="-2.38602">
        <ele>38.400001525879</ele>
        <time>2020-06-04T10:02:59.000Z</time>
      </trkpt>
      <trkpt lat="47.30024" lon="-2.38597">
        <ele>38.799999237061</ele>
        <time>2020-06-04T10:03:00.000Z</time>
      </trkpt>
      <trkpt lat="47.30024" lon="-2.38591">
        <ele>39.200000762939</ele>
        <time>2020-06-04T10:03:01.000Z</time>
      </trkpt>
      <trkpt lat="47.3002" lon="-2.38557">
        <ele>39.599998474121</ele>
        <time>2020-06-04T10:03:07.000Z</time>
      </trkpt>
      <trkpt lat="47.30019" lon="-2.38552">
        <ele>40</ele>
        <time>2020-06-04T10:03:08.000Z</time>
      </trkpt>
      <trkpt lat="47.30019" lon="-2.38546">
        <ele>40.400001525879</ele>
        <time>2020-06-04T10:03:09.000Z</time>
      </trkpt>
      <trkpt lat="47.30018" lon="-2.38541">
        <ele>41</ele>
        <time>2020-06-04T10:03:10.000Z</time>
      </trkpt>
      <trkpt lat="47.30017" lon="-2.38536">
        <ele>41.400001525879</ele>
        <time>2020-06-04T10:03:11.000Z</time>
      </trkpt>
      <trkpt lat="47.30016" lon="-2.38526">
        <ele>41.799999237061</ele>
        <time>2020-06-04T10:03:13.000Z</time>
      </trkpt>
      <trkpt lat="47.30015" lon="-2.3852">
        <ele>42.200000762939</ele>
        <time>2020-06-04T10:03:14.000Z</time>
      </trkpt>
      <trkpt lat="47.30014" lon="-2.38515">
        <ele>42.599998474121</ele>
        <time>2020-06-04T10:03:15.000Z</time>
      </trkpt>
      <trkpt lat="47.30013" lon="-2.3851">
        <ele>43</ele>
        <time>2020-06-04T10:03:16.000Z</time>
      </trkpt>
      <trkpt lat="47.30013" lon="-2.38505">
        <ele>43.599998474121</ele>
        <time>2020-06-04T10:03:17.000Z</time>
      </trkpt>
      <trkpt lat="47.30008" lon="-2.38476">
        <ele>44</ele>
        <time>2020-06-04T10:03:22.000Z</time>
      </trkpt>
      <trkpt lat="47.30007" lon="-2.3847">
        <ele>44.400001525879</ele>
        <time>2020-06-04T10:03:23.000Z</time>
      </trkpt>
      <trkpt lat="47.30006" lon="-2.38464">
        <ele>44.799999237061</ele>
        <time>2020-06-04T10:03:24.000Z</time>
      </trkpt>
      <trkpt lat="47.30005" lon="-2.38458">
        <ele>45.200000762939</ele>
        <time>2020-06-04T10:03:25.000Z</time>
      </trkpt>
      <trkpt lat="47.30003" lon="-2.38451">
        <ele>45.599998474121</ele>
        <time>2020-06-04T10:03:26.000Z</time>
      </trkpt>
      <trkpt lat="47.30002" lon="-2.38445">
        <ele>45.599998474121</ele>
        <time>2020-06-04T10:03:27.000Z</time>
      </trkpt>
      <trkpt lat="47.29999" lon="-2.38423">
        <ele>45.599998474121</ele>
        <time>2020-06-04T10:03:30.000Z</time>
      </trkpt>
      <trkpt lat="47.29993" lon="-2.38357">
        <ele>45.599998474121</ele>
        <time>2020-06-04T10:03:38.000Z</time>
      </trkpt>
      <trkpt lat="47.29992" lon="-2.38292">
        <ele>45.599998474121</ele>
        <time>2020-06-04T10:03:46.000Z</time>
      </trkpt>
      <trkpt lat="47.2999" lon="-2.38219">
        <ele>45.599998474121</ele>
        <time>2020-06-04T10:03:54.000Z</time>
      </trkpt>
      <trkpt lat="47.29988" lon="-2.38144">
        <ele>45.200000762939</ele>
        <time>2020-06-04T10:04:02.000Z</time>
      </trkpt>
      <trkpt lat="47.29988" lon="-2.38134">
        <ele>44.799999237061</ele>
        <time>2020-06-04T10:04:03.000Z</time>
      </trkpt>
      <trkpt lat="47.29987" lon="-2.38125">
        <ele>44.400001525879</ele>
        <time>2020-06-04T10:04:04.000Z</time>
      </trkpt>
      <trkpt lat="47.29987" lon="-2.38115">
        <ele>44</ele>
        <time>2020-06-04T10:04:05.000Z</time>
      </trkpt>
      <trkpt lat="47.29987" lon="-2.38104">
        <ele>43.599998474121</ele>
        <time>2020-06-04T10:04:06.000Z</time>
      </trkpt>
      <trkpt lat="47.29988" lon="-2.3807">
        <ele>43.599998474121</ele>
        <time>2020-06-04T10:04:09.000Z</time>
      </trkpt>
      <trkpt lat="47.29987" lon="-2.38046">
        <ele>43.200000762939</ele>
        <time>2020-06-04T10:04:11.000Z</time>
      </trkpt>
      <trkpt lat="47.29987" lon="-2.38034">
        <ele>42.599998474121</ele>
        <time>2020-06-04T10:04:12.000Z</time>
      </trkpt>
      <trkpt lat="47.29987" lon="-2.38022">
        <ele>42</ele>
        <time>2020-06-04T10:04:13.000Z</time>
      </trkpt>
      <trkpt lat="47.29986" lon="-2.3801">
        <ele>41.599998474121</ele>
        <time>2020-06-04T10:04:14.000Z</time>
      </trkpt>
      <trkpt lat="47.29985" lon="-2.37998">
        <ele>41</ele>
        <time>2020-06-04T10:04:15.000Z</time>
      </trkpt>
      <trkpt lat="47.29985" lon="-2.37986">
        <ele>41</ele>
        <time>2020-06-04T10:04:16.000Z</time>
      </trkpt>
      <trkpt lat="47.29984" lon="-2.37965">
        <ele>41</ele>
        <time>2020-06-04T10:04:18.000Z</time>
      </trkpt>
      <trkpt lat="47.2998" lon="-2.37944">
        <ele>41</ele>
        <time>2020-06-04T10:04:20.000Z</time>
      </trkpt>
      <trkpt lat="47.29966" lon="-2.37921">
        <ele>41</ele>
        <time>2020-06-04T10:04:23.000Z</time>
      </trkpt>
      <trkpt lat="47.2996" lon="-2.37914">
        <ele>41</ele>
        <time>2020-06-04T10:04:24.000Z</time>
      </trkpt>
      <trkpt lat="47.29929" lon="-2.37878">
        <ele>41</ele>
        <time>2020-06-04T10:04:30.000Z</time>
      </trkpt>
      <trkpt lat="47.29904" lon="-2.37848">
        <ele>41</ele>
        <time>2020-06-04T10:04:36.000Z</time>
      </trkpt>
      <trkpt lat="47.2989" lon="-2.3783">
        <ele>41.599998474121</ele>
        <time>2020-06-04T10:04:40.000Z</time>
      </trkpt>
      <trkpt lat="47.29887" lon="-2.37826">
        <ele>42</ele>
        <time>2020-06-04T10:04:41.000Z</time>
      </trkpt>
      <trkpt lat="47.29884" lon="-2.37822">
        <ele>42.599998474121</ele>
        <time>2020-06-04T10:04:42.000Z</time>
      </trkpt>
      <trkpt lat="47.29881" lon="-2.37818">
        <ele>43</ele>
        <time>2020-06-04T10:04:43.000Z</time>
      </trkpt>
      <trkpt lat="47.29878" lon="-2.37815">
        <ele>43.400001525879</ele>
        <time>2020-06-04T10:04:44.000Z</time>
      </trkpt>
      <trkpt lat="47.29875" lon="-2.37812">
        <ele>44</ele>
        <time>2020-06-04T10:04:45.000Z</time>
      </trkpt>
      <trkpt lat="47.29872" lon="-2.37812">
        <ele>44.400001525879</ele>
        <time>2020-06-04T10:04:46.000Z</time>
      </trkpt>
      <trkpt lat="47.29868" lon="-2.37814">
        <ele>44.799999237061</ele>
        <time>2020-06-04T10:04:47.000Z</time>
      </trkpt>
      <trkpt lat="47.29866" lon="-2.37818">
        <ele>45.400001525879</ele>
        <time>2020-06-04T10:04:48.000Z</time>
      </trkpt>
      <trkpt lat="47.29864" lon="-2.37823">
        <ele>45.799999237061</ele>
        <time>2020-06-04T10:04:49.000Z</time>
      </trkpt>
      <trkpt lat="47.29862" lon="-2.37829">
        <ele>45.799999237061</ele>
        <time>2020-06-04T10:04:50.000Z</time>
      </trkpt>
      <trkpt lat="47.29853" lon="-2.37853">
        <ele>46.200000762939</ele>
        <time>2020-06-04T10:04:54.000Z</time>
      </trkpt>
      <trkpt lat="47.2985" lon="-2.37859">
        <ele>46.599998474121</ele>
        <time>2020-06-04T10:04:55.000Z</time>
      </trkpt>
      <trkpt lat="47.29847" lon="-2.37864">
        <ele>47</ele>
        <time>2020-06-04T10:04:56.000Z</time>
      </trkpt>
      <trkpt lat="47.29844" lon="-2.37869">
        <ele>47.400001525879</ele>
        <time>2020-06-04T10:04:57.000Z</time>
      </trkpt>
      <trkpt lat="47.2984" lon="-2.37874">
        <ele>47.799999237061</ele>
        <time>2020-06-04T10:04:58.000Z</time>
      </trkpt>
      <trkpt lat="47.29818" lon="-2.37892">
        <ele>47.799999237061</ele>
        <time>2020-06-04T10:05:03.000Z</time>
      </trkpt>
      <trkpt lat="47.29788" lon="-2.3791">
        <ele>47.799999237061</ele>
        <time>2020-06-04T10:05:10.000Z</time>
      </trkpt>
      <trkpt lat="47.29778" lon="-2.37918">
        <ele>47.799999237061</ele>
        <time>2020-06-04T10:05:12.000Z</time>
      </trkpt>
      <trkpt lat="47.29761" lon="-2.37931">
        <ele>47.799999237061</ele>
        <time>2020-06-04T10:05:15.000Z</time>
      </trkpt>
      <trkpt lat="47.29751" lon="-2.37941">
        <ele>47.799999237061</ele>
        <time>2020-06-04T10:05:17.000Z</time>
      </trkpt>
      <trkpt lat="47.29739" lon="-2.37961">
        <ele>47.799999237061</ele>
        <time>2020-06-04T10:05:20.000Z</time>
      </trkpt>
      <trkpt lat="47.29736" lon="-2.37968">
        <ele>47.799999237061</ele>
        <time>2020-06-04T10:05:21.000Z</time>
      </trkpt>
      <trkpt lat="47.2973" lon="-2.37982">
        <ele>47.400001525879</ele>
        <time>2020-06-04T10:05:23.000Z</time>
      </trkpt>
      <trkpt lat="47.29727" lon="-2.37989">
        <ele>46.799999237061</ele>
        <time>2020-06-04T10:05:24.000Z</time>
      </trkpt>
      <trkpt lat="47.29726" lon="-2.37998">
        <ele>46.400001525879</ele>
        <time>2020-06-04T10:05:25.000Z</time>
      </trkpt>
      <trkpt lat="47.29726" lon="-2.38006">
        <ele>45.799999237061</ele>
        <time>2020-06-04T10:05:26.000Z</time>
      </trkpt>
      <trkpt lat="47.29727" lon="-2.38015">
        <ele>45.200000762939</ele>
        <time>2020-06-04T10:05:27.000Z</time>
      </trkpt>
      <trkpt lat="47.29728" lon="-2.38023">
        <ele>44.400001525879</ele>
        <time>2020-06-04T10:05:28.000Z</time>
      </trkpt>
      <trkpt lat="47.29729" lon="-2.3803">
        <ele>43.799999237061</ele>
        <time>2020-06-04T10:05:29.000Z</time>
      </trkpt>
      <trkpt lat="47.2973" lon="-2.38036">
        <ele>42.799999237061</ele>
        <time>2020-06-04T10:05:30.000Z</time>
      </trkpt>
      <trkpt lat="47.29729" lon="-2.38039">
        <ele>42</ele>
        <time>2020-06-04T10:05:31.000Z</time>
      </trkpt>
      <trkpt lat="47.29728" lon="-2.3804">
        <ele>41</ele>
        <time>2020-06-04T10:05:32.000Z</time>
      </trkpt>
      <trkpt lat="47.29725" lon="-2.38042">
        <ele>40.200000762939</ele>
        <time>2020-06-04T10:05:33.000Z</time>
      </trkpt>
      <trkpt lat="47.29721" lon="-2.38044">
        <ele>39.400001525879</ele>
        <time>2020-06-04T10:05:34.000Z</time>
      </trkpt>
      <trkpt lat="47.29716" lon="-2.38049">
        <ele>38.599998474121</ele>
        <time>2020-06-04T10:05:35.000Z</time>
      </trkpt>
      <trkpt lat="47.2971" lon="-2.38054">
        <ele>37.799999237061</ele>
        <time>2020-06-04T10:05:36.000Z</time>
      </trkpt>
      <trkpt lat="47.29703" lon="-2.3806">
        <ele>37</ele>
        <time>2020-06-04T10:05:37.000Z</time>
      </trkpt>
      <trkpt lat="47.29695" lon="-2.38066">
        <ele>37</ele>
        <time>2020-06-04T10:05:38.000Z</time>
      </trkpt>
      <trkpt lat="47.29688" lon="-2.38073">
        <ele>36</ele>
        <time>2020-06-04T10:05:39.000Z</time>
      </trkpt>
      <trkpt lat="47.29679" lon="-2.38078">
        <ele>35.400001525879</ele>
        <time>2020-06-04T10:05:40.000Z</time>
      </trkpt>
      <trkpt lat="47.29671" lon="-2.38083">
        <ele>34.799999237061</ele>
        <time>2020-06-04T10:05:41.000Z</time>
      </trkpt>
      <trkpt lat="47.29662" lon="-2.38088">
        <ele>34.200000762939</ele>
        <time>2020-06-04T10:05:42.000Z</time>
      </trkpt>
      <trkpt lat="47.29653" lon="-2.38093">
        <ele>33.400001525879</ele>
        <time>2020-06-04T10:05:43.000Z</time>
      </trkpt>
      <trkpt lat="47.29644" lon="-2.38098">
        <ele>32.799999237061</ele>
        <time>2020-06-04T10:05:44.000Z</time>
      </trkpt>
      <trkpt lat="47.29635" lon="-2.38103">
        <ele>32.200000762939</ele>
        <time>2020-06-04T10:05:45.000Z</time>
      </trkpt>
      <trkpt lat="47.29627" lon="-2.38107">
        <ele>31.39999961853</ele>
        <time>2020-06-04T10:05:46.000Z</time>
      </trkpt>
      <trkpt lat="47.29619" lon="-2.38111">
        <ele>30.799999237061</ele>
        <time>2020-06-04T10:05:47.000Z</time>
      </trkpt>
      <trkpt lat="47.2961" lon="-2.38114">
        <ele>30.200000762939</ele>
        <time>2020-06-04T10:05:48.000Z</time>
      </trkpt>
      <trkpt lat="47.29602" lon="-2.38116">
        <ele>29.799999237061</ele>
        <time>2020-06-04T10:05:49.000Z</time>
      </trkpt>
      <trkpt lat="47.29593" lon="-2.38117">
        <ele>29.200000762939</ele>
        <time>2020-06-04T10:05:50.000Z</time>
      </trkpt>
      <trkpt lat="47.29584" lon="-2.38119">
        <ele>28.60000038147</ele>
        <time>2020-06-04T10:05:51.000Z</time>
      </trkpt>
      <trkpt lat="47.29575" lon="-2.38121">
        <ele>28</ele>
        <time>2020-06-04T10:05:52.000Z</time>
      </trkpt>
      <trkpt lat="47.29557" lon="-2.38124">
        <ele>27.60000038147</ele>
        <time>2020-06-04T10:05:54.000Z</time>
      </trkpt>
      <trkpt lat="47.29548" lon="-2.38125">
        <ele>27.200000762939</ele>
        <time>2020-06-04T10:05:55.000Z</time>
      </trkpt>
      <trkpt lat="47.29538" lon="-2.38125">
        <ele>26.799999237061</ele>
        <time>2020-06-04T10:05:56.000Z</time>
      </trkpt>
      <trkpt lat="47.29529" lon="-2.38125">
        <ele>26.39999961853</ele>
        <time>2020-06-04T10:05:57.000Z</time>
      </trkpt>
      <trkpt lat="47.2952" lon="-2.38125">
        <ele>26</ele>
        <time>2020-06-04T10:05:58.000Z</time>
      </trkpt>
      <trkpt lat="47.29511" lon="-2.38124">
        <ele>25.60000038147</ele>
        <time>2020-06-04T10:05:59.000Z</time>
      </trkpt>
      <trkpt lat="47.29502" lon="-2.38123">
        <ele>25.200000762939</ele>
        <time>2020-06-04T10:06:00.000Z</time>
      </trkpt>
      <trkpt lat="47.29493" lon="-2.38124">
        <ele>24.799999237061</ele>
        <time>2020-06-04T10:06:01.000Z</time>
      </trkpt>
      <trkpt lat="47.29485" lon="-2.38128">
        <ele>24.200000762939</ele>
        <time>2020-06-04T10:06:02.000Z</time>
      </trkpt>
      <trkpt lat="47.29477" lon="-2.38132">
        <ele>23.799999237061</ele>
        <time>2020-06-04T10:06:03.000Z</time>
      </trkpt>
      <trkpt lat="47.29469" lon="-2.38137">
        <ele>22.799999237061</ele>
        <time>2020-06-04T10:06:04.000Z</time>
      </trkpt>
      <trkpt lat="47.29462" lon="-2.38142">
        <ele>22.200000762939</ele>
        <time>2020-06-04T10:06:05.000Z</time>
      </trkpt>
      <trkpt lat="47.29456" lon="-2.38147">
        <ele>21.60000038147</ele>
        <time>2020-06-04T10:06:06.000Z</time>
      </trkpt>
      <trkpt lat="47.29446" lon="-2.38151">
        <ele>21.200000762939</ele>
        <time>2020-06-04T10:06:08.000Z</time>
      </trkpt>
      <trkpt lat="47.29443" lon="-2.3815">
        <ele>20.799999237061</ele>
        <time>2020-06-04T10:06:09.000Z</time>
      </trkpt>
      <trkpt lat="47.2944" lon="-2.38148">
        <ele>20.200000762939</ele>
        <time>2020-06-04T10:06:10.000Z</time>
      </trkpt>
      <trkpt lat="47.29438" lon="-2.38143">
        <ele>19.799999237061</ele>
        <time>2020-06-04T10:06:11.000Z</time>
      </trkpt>
      <trkpt lat="47.29435" lon="-2.38136">
        <ele>19.39999961853</ele>
        <time>2020-06-04T10:06:12.000Z</time>
      </trkpt>
      <trkpt lat="47.29427" lon="-2.38106">
        <ele>19.39999961853</ele>
        <time>2020-06-04T10:06:16.000Z</time>
      </trkpt>
      <trkpt lat="47.29408" lon="-2.38038">
        <ele>19.39999961853</ele>
        <time>2020-06-04T10:06:24.000Z</time>
      </trkpt>
      <trkpt lat="47.29391" lon="-2.37989">
        <ele>19.39999961853</ele>
        <time>2020-06-04T10:06:31.000Z</time>
      </trkpt>
      <trkpt lat="47.29373" lon="-2.37932">
        <ele>19.39999961853</ele>
        <time>2020-06-04T10:06:40.000Z</time>
      </trkpt>
      <trkpt lat="47.29356" lon="-2.37883">
        <ele>19.39999961853</ele>
        <time>2020-06-04T10:06:48.000Z</time>
      </trkpt>
      <trkpt lat="47.29353" lon="-2.37876">
        <ele>19.799999237061</ele>
        <time>2020-06-04T10:06:49.000Z</time>
      </trkpt>
      <trkpt lat="47.29351" lon="-2.37869">
        <ele>20.200000762939</ele>
        <time>2020-06-04T10:06:50.000Z</time>
      </trkpt>
      <trkpt lat="47.29348" lon="-2.37862">
        <ele>20.60000038147</ele>
        <time>2020-06-04T10:06:51.000Z</time>
      </trkpt>
      <trkpt lat="47.29346" lon="-2.37855">
        <ele>21</ele>
        <time>2020-06-04T10:06:52.000Z</time>
      </trkpt>
      <trkpt lat="47.29344" lon="-2.37847">
        <ele>21.39999961853</ele>
        <time>2020-06-04T10:06:53.000Z</time>
      </trkpt>
      <trkpt lat="47.29341" lon="-2.37831">
        <ele>21.799999237061</ele>
        <time>2020-06-04T10:06:55.000Z</time>
      </trkpt>
      <trkpt lat="47.29339" lon="-2.37823">
        <ele>22.200000762939</ele>
        <time>2020-06-04T10:06:56.000Z</time>
      </trkpt>
      <trkpt lat="47.29339" lon="-2.37815">
        <ele>22.60000038147</ele>
        <time>2020-06-04T10:06:57.000Z</time>
      </trkpt>
      <trkpt lat="47.29338" lon="-2.37807">
        <ele>23</ele>
        <time>2020-06-04T10:06:58.000Z</time>
      </trkpt>
      <trkpt lat="47.29337" lon="-2.37799">
        <ele>23.39999961853</ele>
        <time>2020-06-04T10:06:59.000Z</time>
      </trkpt>
      <trkpt lat="47.29336" lon="-2.37783">
        <ele>23.39999961853</ele>
        <time>2020-06-04T10:07:01.000Z</time>
      </trkpt>
      <trkpt lat="47.29333" lon="-2.37738">
        <ele>24</ele>
        <time>2020-06-04T10:07:07.000Z</time>
      </trkpt>
      <trkpt lat="47.29334" lon="-2.37731">
        <ele>24.39999961853</ele>
        <time>2020-06-04T10:07:08.000Z</time>
      </trkpt>
      <trkpt lat="47.29334" lon="-2.37724">
        <ele>24.799999237061</ele>
        <time>2020-06-04T10:07:09.000Z</time>
      </trkpt>
      <trkpt lat="47.29334" lon="-2.37718">
        <ele>25.39999961853</ele>
        <time>2020-06-04T10:07:10.000Z</time>
      </trkpt>
      <trkpt lat="47.29334" lon="-2.37712">
        <ele>25.799999237061</ele>
        <time>2020-06-04T10:07:11.000Z</time>
      </trkpt>
      <trkpt lat="47.29334" lon="-2.37699">
        <ele>26.200000762939</ele>
        <time>2020-06-04T10:07:13.000Z</time>
      </trkpt>
      <trkpt lat="47.29334" lon="-2.37693">
        <ele>26.60000038147</ele>
        <time>2020-06-04T10:07:14.000Z</time>
      </trkpt>
      <trkpt lat="47.29334" lon="-2.37687">
        <ele>27</ele>
        <time>2020-06-04T10:07:15.000Z</time>
      </trkpt>
      <trkpt lat="47.29334" lon="-2.3768">
        <ele>27.39999961853</ele>
        <time>2020-06-04T10:07:16.000Z</time>
      </trkpt>
      <trkpt lat="47.29334" lon="-2.37674">
        <ele>27.799999237061</ele>
        <time>2020-06-04T10:07:17.000Z</time>
      </trkpt>
      <trkpt lat="47.29331" lon="-2.37654">
        <ele>27.799999237061</ele>
        <time>2020-06-04T10:07:20.000Z</time>
      </trkpt>
      <trkpt lat="47.2933" lon="-2.37648">
        <ele>27.799999237061</ele>
        <time>2020-06-04T10:07:21.000Z</time>
      </trkpt>
      <trkpt lat="47.29328" lon="-2.37642">
        <ele>28.200000762939</ele>
        <time>2020-06-04T10:07:22.000Z</time>
      </trkpt>
      <trkpt lat="47.29326" lon="-2.37635">
        <ele>28.60000038147</ele>
        <time>2020-06-04T10:07:23.000Z</time>
      </trkpt>
      <trkpt lat="47.29324" lon="-2.37629">
        <ele>29</ele>
        <time>2020-06-04T10:07:24.000Z</time>
      </trkpt>
      <trkpt lat="47.29322" lon="-2.37622">
        <ele>29.39999961853</ele>
        <time>2020-06-04T10:07:25.000Z</time>
      </trkpt>
      <trkpt lat="47.29319" lon="-2.37616">
        <ele>29.799999237061</ele>
        <time>2020-06-04T10:07:26.000Z</time>
      </trkpt>
      <trkpt lat="47.29317" lon="-2.3761">
        <ele>29.799999237061</ele>
        <time>2020-06-04T10:07:27.000Z</time>
      </trkpt>
      <trkpt lat="47.29314" lon="-2.37604">
        <ele>29.799999237061</ele>
        <time>2020-06-04T10:07:28.000Z</time>
      </trkpt>
      <trkpt lat="47.293" lon="-2.37579">
        <ele>29.799999237061</ele>
        <time>2020-06-04T10:07:32.000Z</time>
      </trkpt>
      <trkpt lat="47.29275" lon="-2.37539">
        <ele>29.799999237061</ele>
        <time>2020-06-04T10:07:38.000Z</time>
      </trkpt>
      <trkpt lat="47.29255" lon="-2.3751">
        <ele>29.799999237061</ele>
        <time>2020-06-04T10:07:43.000Z</time>
      </trkpt>
      <trkpt lat="47.29232" lon="-2.37477">
        <ele>29.799999237061</ele>
        <time>2020-06-04T10:07:49.000Z</time>
      </trkpt>
      <trkpt lat="47.29215" lon="-2.37451">
        <ele>30.200000762939</ele>
        <time>2020-06-04T10:07:54.000Z</time>
      </trkpt>
      <trkpt lat="47.29211" lon="-2.37445">
        <ele>30.60000038147</ele>
        <time>2020-06-04T10:07:55.000Z</time>
      </trkpt>
      <trkpt lat="47.29208" lon="-2.37439">
        <ele>31</ele>
        <time>2020-06-04T10:07:56.000Z</time>
      </trkpt>
      <trkpt lat="47.29204" lon="-2.37433">
        <ele>31.39999961853</ele>
        <time>2020-06-04T10:07:57.000Z</time>
      </trkpt>
      <trkpt lat="47.29201" lon="-2.37428">
        <ele>32</ele>
        <time>2020-06-04T10:07:58.000Z</time>
      </trkpt>
      <trkpt lat="47.29177" lon="-2.37388">
        <ele>32</ele>
        <time>2020-06-04T10:08:05.000Z</time>
      </trkpt>
      <trkpt lat="47.29173" lon="-2.37382">
        <ele>32.400001525879</ele>
        <time>2020-06-04T10:08:06.000Z</time>
      </trkpt>
      <trkpt lat="47.2917" lon="-2.37376">
        <ele>32.799999237061</ele>
        <time>2020-06-04T10:08:07.000Z</time>
      </trkpt>
      <trkpt lat="47.29167" lon="-2.3737">
        <ele>33.599998474121</ele>
        <time>2020-06-04T10:08:08.000Z</time>
      </trkpt>
      <trkpt lat="47.29164" lon="-2.37364">
        <ele>34</ele>
        <time>2020-06-04T10:08:09.000Z</time>
      </trkpt>
      <trkpt lat="47.29154" lon="-2.37342">
        <ele>34</ele>
        <time>2020-06-04T10:08:12.000Z</time>
      </trkpt>
      <trkpt lat="47.29146" lon="-2.37323">
        <ele>34</ele>
        <time>2020-06-04T10:08:15.000Z</time>
      </trkpt>
      <trkpt lat="47.29142" lon="-2.37317">
        <ele>34</ele>
        <time>2020-06-04T10:08:16.000Z</time>
      </trkpt>
      <trkpt lat="47.29115" lon="-2.37287">
        <ele>34</ele>
        <time>2020-06-04T10:08:22.000Z</time>
      </trkpt>
      <trkpt lat="47.29079" lon="-2.3725">
        <ele>34</ele>
        <time>2020-06-04T10:08:29.000Z</time>
      </trkpt>
      <trkpt lat="47.29039" lon="-2.3721">
        <ele>34</ele>
        <time>2020-06-04T10:08:36.000Z</time>
      </trkpt>
      <trkpt lat="47.2902" lon="-2.37192">
        <ele>33.599998474121</ele>
        <time>2020-06-04T10:08:39.000Z</time>
      </trkpt>
      <trkpt lat="47.29014" lon="-2.37185">
        <ele>33.200000762939</ele>
        <time>2020-06-04T10:08:40.000Z</time>
      </trkpt>
      <trkpt lat="47.29009" lon="-2.37179">
        <ele>32.799999237061</ele>
        <time>2020-06-04T10:08:41.000Z</time>
      </trkpt>
      <trkpt lat="47.29005" lon="-2.37172">
        <ele>32.400001525879</ele>
        <time>2020-06-04T10:08:42.000Z</time>
      </trkpt>
      <trkpt lat="47.29003" lon="-2.37165">
        <ele>31.799999237061</ele>
        <time>2020-06-04T10:08:43.000Z</time>
      </trkpt>
      <trkpt lat="47.29002" lon="-2.37159">
        <ele>31.799999237061</ele>
        <time>2020-06-04T10:08:44.000Z</time>
      </trkpt>
      <trkpt lat="47.29" lon="-2.37145">
        <ele>31.799999237061</ele>
        <time>2020-06-04T10:08:46.000Z</time>
      </trkpt>
      <trkpt lat="47.28997" lon="-2.37134">
        <ele>31.799999237061</ele>
        <time>2020-06-04T10:08:48.000Z</time>
      </trkpt>
      <trkpt lat="47.28987" lon="-2.37112">
        <ele>31.799999237061</ele>
        <time>2020-06-04T10:08:52.000Z</time>
      </trkpt>
      <trkpt lat="47.28984" lon="-2.37107">
        <ele>31.799999237061</ele>
        <time>2020-06-04T10:08:53.000Z</time>
      </trkpt>
      <trkpt lat="47.28972" lon="-2.37077">
        <ele>31.799999237061</ele>
        <time>2020-06-04T10:08:58.000Z</time>
      </trkpt>
      <trkpt lat="47.28966" lon="-2.37057">
        <ele>32.400001525879</ele>
        <time>2020-06-04T10:09:01.000Z</time>
      </trkpt>
      <trkpt lat="47.28965" lon="-2.37051">
        <ele>32.799999237061</ele>
        <time>2020-06-04T10:09:02.000Z</time>
      </trkpt>
      <trkpt lat="47.28962" lon="-2.37044">
        <ele>33.200000762939</ele>
        <time>2020-06-04T10:09:03.000Z</time>
      </trkpt>
      <trkpt lat="47.2896" lon="-2.37038">
        <ele>33.599998474121</ele>
        <time>2020-06-04T10:09:04.000Z</time>
      </trkpt>
      <trkpt lat="47.28957" lon="-2.37032">
        <ele>34.200000762939</ele>
        <time>2020-06-04T10:09:05.000Z</time>
      </trkpt>
      <trkpt lat="47.28951" lon="-2.37021">
        <ele>34.200000762939</ele>
        <time>2020-06-04T10:09:07.000Z</time>
      </trkpt>
      <trkpt lat="47.28945" lon="-2.3701">
        <ele>34.200000762939</ele>
        <time>2020-06-04T10:09:09.000Z</time>
      </trkpt>
      <trkpt lat="47.28922" lon="-2.36969">
        <ele>34.200000762939</ele>
        <time>2020-06-04T10:09:16.000Z</time>
      </trkpt>
      <trkpt lat="47.28911" lon="-2.36952">
        <ele>34.599998474121</ele>
        <time>2020-06-04T10:09:19.000Z</time>
      </trkpt>
      <trkpt lat="47.28908" lon="-2.36947">
        <ele>35</ele>
        <time>2020-06-04T10:09:20.000Z</time>
      </trkpt>
      <trkpt lat="47.28906" lon="-2.36941">
        <ele>35.400001525879</ele>
        <time>2020-06-04T10:09:21.000Z</time>
      </trkpt>
      <trkpt lat="47.28904" lon="-2.36934">
        <ele>36.200000762939</ele>
        <time>2020-06-04T10:09:22.000Z</time>
      </trkpt>
      <trkpt lat="47.28908" lon="-2.36922">
        <ele>36.200000762939</ele>
        <time>2020-06-04T10:09:24.000Z</time>
      </trkpt>
      <trkpt lat="47.28914" lon="-2.36913">
        <ele>36.200000762939</ele>
        <time>2020-06-04T10:09:26.000Z</time>
      </trkpt>
      <trkpt lat="47.2892" lon="-2.36904">
        <ele>36.200000762939</ele>
        <time>2020-06-04T10:09:28.000Z</time>
      </trkpt>
      <trkpt lat="47.28922" lon="-2.36899">
        <ele>36.200000762939</ele>
        <time>2020-06-04T10:09:29.000Z</time>
      </trkpt>
      <trkpt lat="47.28937" lon="-2.36871">
        <ele>36.200000762939</ele>
        <time>2020-06-04T10:09:36.000Z</time>
      </trkpt>
      <trkpt lat="47.28939" lon="-2.36867">
        <ele>36.599998474121</ele>
        <time>2020-06-04T10:09:37.000Z</time>
      </trkpt>
      <trkpt lat="47.2894" lon="-2.36864">
        <ele>37</ele>
        <time>2020-06-04T10:09:38.000Z</time>
      </trkpt>
      <trkpt lat="47.2894" lon="-2.36861">
        <ele>37.400001525879</ele>
        <time>2020-06-04T10:09:39.000Z</time>
      </trkpt>
      <trkpt lat="47.2894" lon="-2.36858">
        <ele>37.799999237061</ele>
        <time>2020-06-04T10:09:40.000Z</time>
      </trkpt>
      <trkpt lat="47.28941" lon="-2.36855">
        <ele>38.200000762939</ele>
        <time>2020-06-04T10:09:41.000Z</time>
      </trkpt>
      <trkpt lat="47.28947" lon="-2.36841">
        <ele>38.200000762939</ele>
        <time>2020-06-04T10:09:46.000Z</time>
      </trkpt>
      <trkpt lat="47.28951" lon="-2.36833">
        <ele>38.599998474121</ele>
        <time>2020-06-04T10:09:49.000Z</time>
      </trkpt>
      <trkpt lat="47.28953" lon="-2.3683">
        <ele>39</ele>
        <time>2020-06-04T10:09:50.000Z</time>
      </trkpt>
      <trkpt lat="47.28953" lon="-2.36827">
        <ele>39.400001525879</ele>
        <time>2020-06-04T10:09:51.000Z</time>
      </trkpt>
      <trkpt lat="47.28951" lon="-2.36823">
        <ele>39.799999237061</ele>
        <time>2020-06-04T10:09:52.000Z</time>
      </trkpt>
      <trkpt lat="47.28949" lon="-2.3682">
        <ele>40.200000762939</ele>
        <time>2020-06-04T10:09:53.000Z</time>
      </trkpt>
      <trkpt lat="47.28937" lon="-2.36808">
        <ele>40.200000762939</ele>
        <time>2020-06-04T10:09:57.000Z</time>
      </trkpt>
      <trkpt lat="47.2892" lon="-2.36793">
        <ele>40.200000762939</ele>
        <time>2020-06-04T10:10:03.000Z</time>
      </trkpt>
      <trkpt lat="47.28902" lon="-2.36783">
        <ele>39.799999237061</ele>
        <time>2020-06-04T10:10:08.000Z</time>
      </trkpt>
      <trkpt lat="47.28898" lon="-2.36781">
        <ele>39.400001525879</ele>
        <time>2020-06-04T10:10:09.000Z</time>
      </trkpt>
      <trkpt lat="47.28893" lon="-2.36779">
        <ele>39</ele>
        <time>2020-06-04T10:10:10.000Z</time>
      </trkpt>
      <trkpt lat="47.28889" lon="-2.36779">
        <ele>38.599998474121</ele>
        <time>2020-06-04T10:10:11.000Z</time>
      </trkpt>
      <trkpt lat="47.28885" lon="-2.36778">
        <ele>38.200000762939</ele>
        <time>2020-06-04T10:10:12.000Z</time>
      </trkpt>
      <trkpt lat="47.28882" lon="-2.36777">
        <ele>38.200000762939</ele>
        <time>2020-06-04T10:10:13.000Z</time>
      </trkpt>
      <trkpt lat="47.28879" lon="-2.3678">
        <ele>37.599998474121</ele>
        <time>2020-06-04T10:10:14.000Z</time>
      </trkpt>
      <trkpt lat="47.28877" lon="-2.36783">
        <ele>37.200000762939</ele>
        <time>2020-06-04T10:10:15.000Z</time>
      </trkpt>
      <trkpt lat="47.28876" lon="-2.36786">
        <ele>36.799999237061</ele>
        <time>2020-06-04T10:10:16.000Z</time>
      </trkpt>
      <trkpt lat="47.28874" lon="-2.3679">
        <ele>36.400001525879</ele>
        <time>2020-06-04T10:10:17.000Z</time>
      </trkpt>
      <trkpt lat="47.28873" lon="-2.36794">
        <ele>36</ele>
        <time>2020-06-04T10:10:18.000Z</time>
      </trkpt>
      <trkpt lat="47.2887" lon="-2.36808">
        <ele>36</ele>
        <time>2020-06-04T10:10:23.000Z</time>
      </trkpt>
      <trkpt lat="47.28869" lon="-2.36809">
        <ele>36</ele>
        <time>2020-06-04T10:10:24.000Z</time>
      </trkpt>
      <trkpt lat="47.28867" lon="-2.3681">
        <ele>36</ele>
        <time>2020-06-04T10:12:23.000Z</time>
      </trkpt>
      <trkpt lat="47.28865" lon="-2.36815">
        <ele>36</ele>
        <time>2020-06-04T10:12:25.000Z</time>
      </trkpt>
      <trkpt lat="47.28857" lon="-2.36843">
        <ele>36</ele>
        <time>2020-06-04T10:12:31.000Z</time>
      </trkpt>
      <trkpt lat="47.28854" lon="-2.3686">
        <ele>35.599998474121</ele>
        <time>2020-06-04T10:12:34.000Z</time>
      </trkpt>
      <trkpt lat="47.28852" lon="-2.36867">
        <ele>35.200000762939</ele>
        <time>2020-06-04T10:12:35.000Z</time>
      </trkpt>
      <trkpt lat="47.28851" lon="-2.36873">
        <ele>34.799999237061</ele>
        <time>2020-06-04T10:12:36.000Z</time>
      </trkpt>
      <trkpt lat="47.2885" lon="-2.36878">
        <ele>34.400001525879</ele>
        <time>2020-06-04T10:12:37.000Z</time>
      </trkpt>
      <trkpt lat="47.28849" lon="-2.36881">
        <ele>34</ele>
        <time>2020-06-04T10:12:38.000Z</time>
      </trkpt>
      <trkpt lat="47.28846" lon="-2.36882">
        <ele>34</ele>
        <time>2020-06-04T10:12:39.000Z</time>
      </trkpt>
      <trkpt lat="47.28839" lon="-2.36877">
        <ele>34</ele>
        <time>2020-06-04T10:12:41.000Z</time>
      </trkpt>
      <trkpt lat="47.28831" lon="-2.36867">
        <ele>33.400001525879</ele>
        <time>2020-06-04T10:12:43.000Z</time>
      </trkpt>
      <trkpt lat="47.28828" lon="-2.36862">
        <ele>32.799999237061</ele>
        <time>2020-06-04T10:12:44.000Z</time>
      </trkpt>
      <trkpt lat="47.28826" lon="-2.36856">
        <ele>32.400001525879</ele>
        <time>2020-06-04T10:12:45.000Z</time>
      </trkpt>
      <trkpt lat="47.28824" lon="-2.3685">
        <ele>31.60000038147</ele>
        <time>2020-06-04T10:12:46.000Z</time>
      </trkpt>
      <trkpt lat="47.28822" lon="-2.36843">
        <ele>31</ele>
        <time>2020-06-04T10:12:47.000Z</time>
      </trkpt>
      <trkpt lat="47.28818" lon="-2.36836">
        <ele>30.200000762939</ele>
        <time>2020-06-04T10:12:48.000Z</time>
      </trkpt>
      <trkpt lat="47.28815" lon="-2.3683">
        <ele>29.60000038147</ele>
        <time>2020-06-04T10:12:49.000Z</time>
      </trkpt>
      <trkpt lat="47.28811" lon="-2.36825">
        <ele>29</ele>
        <time>2020-06-04T10:12:50.000Z</time>
      </trkpt>
      <trkpt lat="47.28808" lon="-2.36823">
        <ele>28.39999961853</ele>
        <time>2020-06-04T10:12:51.000Z</time>
      </trkpt>
      <trkpt lat="47.28803" lon="-2.36824">
        <ele>27.799999237061</ele>
        <time>2020-06-04T10:12:52.000Z</time>
      </trkpt>
      <trkpt lat="47.288" lon="-2.36826">
        <ele>27.200000762939</ele>
        <time>2020-06-04T10:12:53.000Z</time>
      </trkpt>
      <trkpt lat="47.28796" lon="-2.36831">
        <ele>26.60000038147</ele>
        <time>2020-06-04T10:12:54.000Z</time>
      </trkpt>
      <trkpt lat="47.28792" lon="-2.36835">
        <ele>26.60000038147</ele>
        <time>2020-06-04T10:12:55.000Z</time>
      </trkpt>
      <trkpt lat="47.28784" lon="-2.36853">
        <ele>26.60000038147</ele>
        <time>2020-06-04T10:12:58.000Z</time>
      </trkpt>
      <trkpt lat="47.28781" lon="-2.36859">
        <ele>26.200000762939</ele>
        <time>2020-06-04T10:12:59.000Z</time>
      </trkpt>
      <trkpt lat="47.2878" lon="-2.36866">
        <ele>25.799999237061</ele>
        <time>2020-06-04T10:13:00.000Z</time>
      </trkpt>
      <trkpt lat="47.28778" lon="-2.36873">
        <ele>25.200000762939</ele>
        <time>2020-06-04T10:13:01.000Z</time>
      </trkpt>
      <trkpt lat="47.28777" lon="-2.36879">
        <ele>24.799999237061</ele>
        <time>2020-06-04T10:13:02.000Z</time>
      </trkpt>
      <trkpt lat="47.28776" lon="-2.36886">
        <ele>24.39999961853</ele>
        <time>2020-06-04T10:13:03.000Z</time>
      </trkpt>
      <trkpt lat="47.28774" lon="-2.36896">
        <ele>24.39999961853</ele>
        <time>2020-06-04T10:13:05.000Z</time>
      </trkpt>
      <trkpt lat="47.28773" lon="-2.3691">
        <ele>24.39999961853</ele>
        <time>2020-06-04T10:13:10.000Z</time>
      </trkpt>
      <trkpt lat="47.2877" lon="-2.36912">
        <ele>24.39999961853</ele>
        <time>2020-06-04T10:13:14.000Z</time>
      </trkpt>
      <trkpt lat="47.28767" lon="-2.36911">
        <ele>24.39999961853</ele>
        <time>2020-06-04T10:13:16.000Z</time>
      </trkpt>
      <trkpt lat="47.28761" lon="-2.36912">
        <ele>24.39999961853</ele>
        <time>2020-06-04T10:13:19.000Z</time>
      </trkpt>
      <trkpt lat="47.28754" lon="-2.36915">
        <ele>24.799999237061</ele>
        <time>2020-06-04T10:13:22.000Z</time>
      </trkpt>
      <trkpt lat="47.28752" lon="-2.36915">
        <ele>25.200000762939</ele>
        <time>2020-06-04T10:13:23.000Z</time>
      </trkpt>
      <trkpt lat="47.2875" lon="-2.36916">
        <ele>25.60000038147</ele>
        <time>2020-06-04T10:13:24.000Z</time>
      </trkpt>
      <trkpt lat="47.28748" lon="-2.36916">
        <ele>26</ele>
        <time>2020-06-04T10:13:25.000Z</time>
      </trkpt>
      <trkpt lat="47.28746" lon="-2.36916">
        <ele>26.60000038147</ele>
        <time>2020-06-04T10:13:26.000Z</time>
      </trkpt>
      <trkpt lat="47.28744" lon="-2.36917">
        <ele>26.60000038147</ele>
        <time>2020-06-04T10:13:27.000Z</time>
      </trkpt>
      <trkpt lat="47.28737" lon="-2.3692">
        <ele>27</ele>
        <time>2020-06-04T10:13:30.000Z</time>
      </trkpt>
      <trkpt lat="47.28735" lon="-2.36921">
        <ele>27.39999961853</ele>
        <time>2020-06-04T10:13:31.000Z</time>
      </trkpt>
      <trkpt lat="47.28733" lon="-2.36921">
        <ele>27.799999237061</ele>
        <time>2020-06-04T10:13:32.000Z</time>
      </trkpt>
      <trkpt lat="47.2873" lon="-2.3692">
        <ele>28.200000762939</ele>
        <time>2020-06-04T10:13:33.000Z</time>
      </trkpt>
      <trkpt lat="47.28728" lon="-2.36919">
        <ele>28.60000038147</ele>
        <time>2020-06-04T10:13:34.000Z</time>
      </trkpt>
      <trkpt lat="47.28725" lon="-2.36915">
        <ele>29</ele>
        <time>2020-06-04T10:13:36.000Z</time>
      </trkpt>
      <trkpt lat="47.28723" lon="-2.36913">
        <ele>29.39999961853</ele>
        <time>2020-06-04T10:13:37.000Z</time>
      </trkpt>
      <trkpt lat="47.28722" lon="-2.3691">
        <ele>29.799999237061</ele>
        <time>2020-06-04T10:13:38.000Z</time>
      </trkpt>
      <trkpt lat="47.2872" lon="-2.36908">
        <ele>30.200000762939</ele>
        <time>2020-06-04T10:13:39.000Z</time>
      </trkpt>
      <trkpt lat="47.28719" lon="-2.36906">
        <ele>30.60000038147</ele>
        <time>2020-06-04T10:13:40.000Z</time>
      </trkpt>
      <trkpt lat="47.2871" lon="-2.36884">
        <ele>30.60000038147</ele>
        <time>2020-06-04T10:13:47.000Z</time>
      </trkpt>
      <trkpt lat="47.28707" lon="-2.36876">
        <ele>31</ele>
        <time>2020-06-04T10:13:49.000Z</time>
      </trkpt>
      <trkpt lat="47.28705" lon="-2.36872">
        <ele>31.39999961853</ele>
        <time>2020-06-04T10:13:50.000Z</time>
      </trkpt>
      <trkpt lat="47.28702" lon="-2.36868">
        <ele>31.799999237061</ele>
        <time>2020-06-04T10:13:51.000Z</time>
      </trkpt>
      <trkpt lat="47.28699" lon="-2.36862">
        <ele>32.200000762939</ele>
        <time>2020-06-04T10:13:52.000Z</time>
      </trkpt>
      <trkpt lat="47.28696" lon="-2.36857">
        <ele>32.599998474121</ele>
        <time>2020-06-04T10:13:53.000Z</time>
      </trkpt>
      <trkpt lat="47.28683" lon="-2.36824">
        <ele>32.599998474121</ele>
        <time>2020-06-04T10:14:00.000Z</time>
      </trkpt>
      <trkpt lat="47.28677" lon="-2.3681">
        <ele>33</ele>
        <time>2020-06-04T10:14:02.000Z</time>
      </trkpt>
      <trkpt lat="47.28674" lon="-2.36806">
        <ele>33.599998474121</ele>
        <time>2020-06-04T10:14:03.000Z</time>
      </trkpt>
      <trkpt lat="47.28672" lon="-2.36802">
        <ele>34</ele>
        <time>2020-06-04T10:14:04.000Z</time>
      </trkpt>
      <trkpt lat="47.28668" lon="-2.36799">
        <ele>34.400001525879</ele>
        <time>2020-06-04T10:14:05.000Z</time>
      </trkpt>
      <trkpt lat="47.28663" lon="-2.36799">
        <ele>34.799999237061</ele>
        <time>2020-06-04T10:14:06.000Z</time>
      </trkpt>
      <trkpt lat="47.28645" lon="-2.36812">
        <ele>34.799999237061</ele>
        <time>2020-06-04T10:14:10.000Z</time>
      </trkpt>
      <trkpt lat="47.2862" lon="-2.36841">
        <ele>34.799999237061</ele>
        <time>2020-06-04T10:14:15.000Z</time>
      </trkpt>
      <trkpt lat="47.28614" lon="-2.36844">
        <ele>34.799999237061</ele>
        <time>2020-06-04T10:14:16.000Z</time>
      </trkpt>
      <trkpt lat="47.28601" lon="-2.36842">
        <ele>33.799999237061</ele>
        <time>2020-06-04T10:14:18.000Z</time>
      </trkpt>
      <trkpt lat="47.28596" lon="-2.36837">
        <ele>33.400001525879</ele>
        <time>2020-06-04T10:14:19.000Z</time>
      </trkpt>
      <trkpt lat="47.28591" lon="-2.36831">
        <ele>33</ele>
        <time>2020-06-04T10:14:20.000Z</time>
      </trkpt>
      <trkpt lat="47.28587" lon="-2.36824">
        <ele>32.599998474121</ele>
        <time>2020-06-04T10:14:21.000Z</time>
      </trkpt>
      <trkpt lat="47.2858" lon="-2.3681">
        <ele>32.599998474121</ele>
        <time>2020-06-04T10:14:23.000Z</time>
      </trkpt>
      <trkpt lat="47.28556" lon="-2.36763">
        <ele>32.599998474121</ele>
        <time>2020-06-04T10:14:30.000Z</time>
      </trkpt>
      <trkpt lat="47.28545" lon="-2.3674">
        <ele>32.599998474121</ele>
        <time>2020-06-04T10:14:34.000Z</time>
      </trkpt>
      <trkpt lat="47.28539" lon="-2.36729">
        <ele>32.599998474121</ele>
        <time>2020-06-04T10:14:36.000Z</time>
      </trkpt>
      <trkpt lat="47.28535" lon="-2.36719">
        <ele>33</ele>
        <time>2020-06-04T10:14:38.000Z</time>
      </trkpt>
      <trkpt lat="47.28533" lon="-2.36714">
        <ele>33.599998474121</ele>
        <time>2020-06-04T10:14:39.000Z</time>
      </trkpt>
      <trkpt lat="47.28531" lon="-2.36709">
        <ele>34</ele>
        <time>2020-06-04T10:14:40.000Z</time>
      </trkpt>
      <trkpt lat="47.28529" lon="-2.36704">
        <ele>34.400001525879</ele>
        <time>2020-06-04T10:14:41.000Z</time>
      </trkpt>
      <trkpt lat="47.28527" lon="-2.36699">
        <ele>34.799999237061</ele>
        <time>2020-06-04T10:14:42.000Z</time>
      </trkpt>
      <trkpt lat="47.28525" lon="-2.36695">
        <ele>34.799999237061</ele>
        <time>2020-06-04T10:14:43.000Z</time>
      </trkpt>
      <trkpt lat="47.2852" lon="-2.36687">
        <ele>35.200000762939</ele>
        <time>2020-06-04T10:14:45.000Z</time>
      </trkpt>
      <trkpt lat="47.28517" lon="-2.36684">
        <ele>35.599998474121</ele>
        <time>2020-06-04T10:14:46.000Z</time>
      </trkpt>
      <trkpt lat="47.28514" lon="-2.36681">
        <ele>36</ele>
        <time>2020-06-04T10:14:47.000Z</time>
      </trkpt>
      <trkpt lat="47.28511" lon="-2.36678">
        <ele>36.599998474121</ele>
        <time>2020-06-04T10:14:48.000Z</time>
      </trkpt>
      <trkpt lat="47.28508" lon="-2.36674">
        <ele>37</ele>
        <time>2020-06-04T10:14:49.000Z</time>
      </trkpt>
      <trkpt lat="47.28495" lon="-2.36648">
        <ele>37</ele>
        <time>2020-06-04T10:14:54.000Z</time>
      </trkpt>
      <trkpt lat="47.28481" lon="-2.36603">
        <ele>37</ele>
        <time>2020-06-04T10:15:02.000Z</time>
      </trkpt>
      <trkpt lat="47.28476" lon="-2.36578">
        <ele>37</ele>
        <time>2020-06-04T10:15:06.000Z</time>
      </trkpt>
      <trkpt lat="47.28475" lon="-2.36565">
        <ele>37</ele>
        <time>2020-06-04T10:15:08.000Z</time>
      </trkpt>
      <trkpt lat="47.28483" lon="-2.36548">
        <ele>37</ele>
        <time>2020-06-04T10:15:11.000Z</time>
      </trkpt>
      <trkpt lat="47.2849" lon="-2.3654">
        <ele>37.400001525879</ele>
        <time>2020-06-04T10:15:13.000Z</time>
      </trkpt>
      <trkpt lat="47.28494" lon="-2.36536">
        <ele>37.799999237061</ele>
        <time>2020-06-04T10:15:14.000Z</time>
      </trkpt>
      <trkpt lat="47.28497" lon="-2.36533">
        <ele>38.200000762939</ele>
        <time>2020-06-04T10:15:15.000Z</time>
      </trkpt>
      <trkpt lat="47.285" lon="-2.36529">
        <ele>38.599998474121</ele>
        <time>2020-06-04T10:15:16.000Z</time>
      </trkpt>
      <trkpt lat="47.28503" lon="-2.36525">
        <ele>39</ele>
        <time>2020-06-04T10:15:17.000Z</time>
      </trkpt>
      <trkpt lat="47.28518" lon="-2.36507">
        <ele>39</ele>
        <time>2020-06-04T10:15:23.000Z</time>
      </trkpt>
      <trkpt lat="47.2852" lon="-2.36504">
        <ele>39.400001525879</ele>
        <time>2020-06-04T10:15:24.000Z</time>
      </trkpt>
      <trkpt lat="47.28522" lon="-2.36501">
        <ele>39.799999237061</ele>
        <time>2020-06-04T10:15:25.000Z</time>
      </trkpt>
      <trkpt lat="47.28524" lon="-2.36498">
        <ele>40.200000762939</ele>
        <time>2020-06-04T10:15:26.000Z</time>
      </trkpt>
      <trkpt lat="47.28524" lon="-2.36495">
        <ele>40.599998474121</ele>
        <time>2020-06-04T10:15:27.000Z</time>
      </trkpt>
      <trkpt lat="47.28523" lon="-2.36492">
        <ele>41</ele>
        <time>2020-06-04T10:15:28.000Z</time>
      </trkpt>
      <trkpt lat="47.2852" lon="-2.36471">
        <ele>41</ele>
        <time>2020-06-04T10:15:34.000Z</time>
      </trkpt>
      <trkpt lat="47.28515" lon="-2.36458">
        <ele>41</ele>
        <time>2020-06-04T10:15:37.000Z</time>
      </trkpt>
      <trkpt lat="47.28508" lon="-2.36448">
        <ele>41</ele>
        <time>2020-06-04T10:15:40.000Z</time>
      </trkpt>
      <trkpt lat="47.28493" lon="-2.36434">
        <ele>41</ele>
        <time>2020-06-04T10:15:44.000Z</time>
      </trkpt>
      <trkpt lat="47.28476" lon="-2.36419">
        <ele>41.400001525879</ele>
        <time>2020-06-04T10:15:49.000Z</time>
      </trkpt>
      <trkpt lat="47.28474" lon="-2.36416">
        <ele>41.799999237061</ele>
        <time>2020-06-04T10:15:50.000Z</time>
      </trkpt>
      <trkpt lat="47.28473" lon="-2.36413">
        <ele>42.400001525879</ele>
        <time>2020-06-04T10:15:51.000Z</time>
      </trkpt>
      <trkpt lat="47.2847" lon="-2.3641">
        <ele>42.799999237061</ele>
        <time>2020-06-04T10:15:52.000Z</time>
      </trkpt>
      <trkpt lat="47.28468" lon="-2.36406">
        <ele>43.400001525879</ele>
        <time>2020-06-04T10:15:53.000Z</time>
      </trkpt>
      <trkpt lat="47.28454" lon="-2.36389">
        <ele>43.400001525879</ele>
        <time>2020-06-04T10:15:57.000Z</time>
      </trkpt>
      <trkpt lat="47.28438" lon="-2.36375">
        <ele>43.400001525879</ele>
        <time>2020-06-04T10:16:00.000Z</time>
      </trkpt>
      <trkpt lat="47.28424" lon="-2.36362">
        <ele>43.400001525879</ele>
        <time>2020-06-04T10:16:03.000Z</time>
      </trkpt>
      <trkpt lat="47.2842" lon="-2.36358">
        <ele>42.799999237061</ele>
        <time>2020-06-04T10:16:04.000Z</time>
      </trkpt>
      <trkpt lat="47.28417" lon="-2.36353">
        <ele>42.400001525879</ele>
        <time>2020-06-04T10:16:05.000Z</time>
      </trkpt>
      <trkpt lat="47.28413" lon="-2.36348">
        <ele>42</ele>
        <time>2020-06-04T10:16:06.000Z</time>
      </trkpt>
      <trkpt lat="47.28409" lon="-2.36343">
        <ele>41.599998474121</ele>
        <time>2020-06-04T10:16:07.000Z</time>
      </trkpt>
      <trkpt lat="47.28405" lon="-2.36338">
        <ele>41.200000762939</ele>
        <time>2020-06-04T10:16:08.000Z</time>
      </trkpt>
      <trkpt lat="47.28396" lon="-2.3633">
        <ele>41.200000762939</ele>
        <time>2020-06-04T10:16:10.000Z</time>
      </trkpt>
      <trkpt lat="47.28378" lon="-2.36316">
        <ele>40.799999237061</ele>
        <time>2020-06-04T10:16:14.000Z</time>
      </trkpt>
      <trkpt lat="47.28375" lon="-2.36314">
        <ele>40.400001525879</ele>
        <time>2020-06-04T10:16:15.000Z</time>
      </trkpt>
      <trkpt lat="47.28372" lon="-2.36311">
        <ele>40</ele>
        <time>2020-06-04T10:16:16.000Z</time>
      </trkpt>
      <trkpt lat="47.28369" lon="-2.36307">
        <ele>39.599998474121</ele>
        <time>2020-06-04T10:16:17.000Z</time>
      </trkpt>
      <trkpt lat="47.28367" lon="-2.36304">
        <ele>39</ele>
        <time>2020-06-04T10:16:18.000Z</time>
      </trkpt>
      <trkpt lat="47.28362" lon="-2.36289">
        <ele>39</ele>
        <time>2020-06-04T10:16:21.000Z</time>
      </trkpt>
      <trkpt lat="47.28356" lon="-2.36282">
        <ele>38.599998474121</ele>
        <time>2020-06-04T10:16:23.000Z</time>
      </trkpt>
      <trkpt lat="47.28351" lon="-2.36279">
        <ele>38.200000762939</ele>
        <time>2020-06-04T10:16:24.000Z</time>
      </trkpt>
      <trkpt lat="47.28346" lon="-2.36277">
        <ele>37.799999237061</ele>
        <time>2020-06-04T10:16:25.000Z</time>
      </trkpt>
      <trkpt lat="47.28338" lon="-2.36274">
        <ele>37.400001525879</ele>
        <time>2020-06-04T10:16:26.000Z</time>
      </trkpt>
      <trkpt lat="47.2833" lon="-2.36271">
        <ele>37</ele>
        <time>2020-06-04T10:16:27.000Z</time>
      </trkpt>
      <trkpt lat="47.28323" lon="-2.36268">
        <ele>37</ele>
        <time>2020-06-04T10:16:28.000Z</time>
      </trkpt>
      <trkpt lat="47.28287" lon="-2.36254">
        <ele>36.599998474121</ele>
        <time>2020-06-04T10:16:34.000Z</time>
      </trkpt>
      <trkpt lat="47.28284" lon="-2.3625">
        <ele>36.200000762939</ele>
        <time>2020-06-04T10:16:35.000Z</time>
      </trkpt>
      <trkpt lat="47.28281" lon="-2.36246">
        <ele>35.799999237061</ele>
        <time>2020-06-04T10:16:36.000Z</time>
      </trkpt>
      <trkpt lat="47.2828" lon="-2.36241">
        <ele>35.200000762939</ele>
        <time>2020-06-04T10:16:37.000Z</time>
      </trkpt>
      <trkpt lat="47.28279" lon="-2.36237">
        <ele>34.799999237061</ele>
        <time>2020-06-04T10:16:38.000Z</time>
      </trkpt>
      <trkpt lat="47.28275" lon="-2.36227">
        <ele>34.799999237061</ele>
        <time>2020-06-04T10:16:40.000Z</time>
      </trkpt>
      <trkpt lat="47.28272" lon="-2.36211">
        <ele>34.799999237061</ele>
        <time>2020-06-04T10:16:43.000Z</time>
      </trkpt>
      <trkpt lat="47.28269" lon="-2.36171">
        <ele>34.799999237061</ele>
        <time>2020-06-04T10:16:50.000Z</time>
      </trkpt>
      <trkpt lat="47.28266" lon="-2.36158">
        <ele>34.799999237061</ele>
        <time>2020-06-04T10:16:52.000Z</time>
      </trkpt>
      <trkpt lat="47.28264" lon="-2.36151">
        <ele>35.200000762939</ele>
        <time>2020-06-04T10:16:53.000Z</time>
      </trkpt>
      <trkpt lat="47.28261" lon="-2.36144">
        <ele>35.599998474121</ele>
        <time>2020-06-04T10:16:54.000Z</time>
      </trkpt>
      <trkpt lat="47.28258" lon="-2.36138">
        <ele>36.200000762939</ele>
        <time>2020-06-04T10:16:55.000Z</time>
      </trkpt>
      <trkpt lat="47.28255" lon="-2.36133">
        <ele>36.599998474121</ele>
        <time>2020-06-04T10:16:56.000Z</time>
      </trkpt>
      <trkpt lat="47.28252" lon="-2.36127">
        <ele>37</ele>
        <time>2020-06-04T10:16:57.000Z</time>
      </trkpt>
      <trkpt lat="47.28248" lon="-2.36116">
        <ele>37</ele>
        <time>2020-06-04T10:16:59.000Z</time>
      </trkpt>
      <trkpt lat="47.28247" lon="-2.36094">
        <ele>37</ele>
        <time>2020-06-04T10:17:03.000Z</time>
      </trkpt>
      <trkpt lat="47.2825" lon="-2.36055">
        <ele>37</ele>
        <time>2020-06-04T10:17:08.000Z</time>
      </trkpt>
      <trkpt lat="47.28252" lon="-2.36031">
        <ele>37</ele>
        <time>2020-06-04T10:17:12.000Z</time>
      </trkpt>
      <trkpt lat="47.28245" lon="-2.36028">
        <ele>37</ele>
        <time>2020-06-04T10:17:15.000Z</time>
      </trkpt>
      <trkpt lat="47.28242" lon="-2.36029">
        <ele>37</ele>
        <time>2020-06-04T10:17:16.000Z</time>
      </trkpt>
      <trkpt lat="47.28232" lon="-2.36034">
        <ele>36.599998474121</ele>
        <time>2020-06-04T10:17:19.000Z</time>
      </trkpt>
      <trkpt lat="47.28229" lon="-2.36036">
        <ele>36.200000762939</ele>
        <time>2020-06-04T10:17:20.000Z</time>
      </trkpt>
      <trkpt lat="47.28226" lon="-2.36037">
        <ele>35.799999237061</ele>
        <time>2020-06-04T10:17:21.000Z</time>
      </trkpt>
      <trkpt lat="47.28224" lon="-2.36036">
        <ele>35.400001525879</ele>
        <time>2020-06-04T10:17:22.000Z</time>
      </trkpt>
      <trkpt lat="47.28222" lon="-2.36035">
        <ele>35</ele>
        <time>2020-06-04T10:17:23.000Z</time>
      </trkpt>
      <trkpt lat="47.28211" lon="-2.36029">
        <ele>35</ele>
        <time>2020-06-04T10:17:27.000Z</time>
      </trkpt>
      <trkpt lat="47.28199" lon="-2.36017">
        <ele>35</ele>
        <time>2020-06-04T10:17:32.000Z</time>
      </trkpt>
      <trkpt lat="47.28193" lon="-2.36008">
        <ele>35</ele>
        <time>2020-06-04T10:17:34.000Z</time>
      </trkpt>
      <trkpt lat="47.28189" lon="-2.35996">
        <ele>35</ele>
        <time>2020-06-04T10:17:36.000Z</time>
      </trkpt>
      <trkpt lat="47.2818" lon="-2.3596">
        <ele>35</ele>
        <time>2020-06-04T10:17:42.000Z</time>
      </trkpt>
      <trkpt lat="47.2818" lon="-2.35926">
        <ele>35.400001525879</ele>
        <time>2020-06-04T10:17:47.000Z</time>
      </trkpt>
      <trkpt lat="47.2818" lon="-2.3592">
        <ele>35.799999237061</ele>
        <time>2020-06-04T10:17:48.000Z</time>
      </trkpt>
      <trkpt lat="47.28179" lon="-2.35914">
        <ele>36.200000762939</ele>
        <time>2020-06-04T10:17:49.000Z</time>
      </trkpt>
      <trkpt lat="47.28178" lon="-2.35907">
        <ele>36.599998474121</ele>
        <time>2020-06-04T10:17:50.000Z</time>
      </trkpt>
      <trkpt lat="47.28177" lon="-2.35899">
        <ele>37</ele>
        <time>2020-06-04T10:17:51.000Z</time>
      </trkpt>
      <trkpt lat="47.28175" lon="-2.35885">
        <ele>37</ele>
        <time>2020-06-04T10:17:53.000Z</time>
      </trkpt>
      <trkpt lat="47.28174" lon="-2.35863">
        <ele>37</ele>
        <time>2020-06-04T10:17:58.000Z</time>
      </trkpt>
      <trkpt lat="47.28172" lon="-2.35859">
        <ele>37</ele>
        <time>2020-06-04T10:18:00.000Z</time>
      </trkpt>
      <trkpt lat="47.28164" lon="-2.35849">
        <ele>37</ele>
        <time>2020-06-04T10:18:04.000Z</time>
      </trkpt>
      <trkpt lat="47.28147" lon="-2.35823">
        <ele>37</ele>
        <time>2020-06-04T10:18:09.000Z</time>
      </trkpt>
      <trkpt lat="47.28133" lon="-2.35766">
        <ele>37</ele>
        <time>2020-06-04T10:18:14.000Z</time>
      </trkpt>
      <trkpt lat="47.28114" lon="-2.35756">
        <ele>37</ele>
        <time>2020-06-04T10:18:19.000Z</time>
      </trkpt>
      <trkpt lat="47.28101" lon="-2.35777">
        <ele>37</ele>
        <time>2020-06-04T10:18:23.000Z</time>
      </trkpt>
      <trkpt lat="47.28096" lon="-2.35788">
        <ele>37</ele>
        <time>2020-06-04T10:18:25.000Z</time>
      </trkpt>
      <trkpt lat="47.28081" lon="-2.35807">
        <ele>37</ele>
        <time>2020-06-04T10:18:30.000Z</time>
      </trkpt>
      <trkpt lat="47.28078" lon="-2.35802">
        <ele>37</ele>
        <time>2020-06-04T10:18:32.000Z</time>
      </trkpt>
      <trkpt lat="47.28079" lon="-2.35798">
        <ele>37</ele>
        <time>2020-06-04T10:18:33.000Z</time>
      </trkpt>
      <trkpt lat="47.28083" lon="-2.35785">
        <ele>37</ele>
        <time>2020-06-04T10:18:36.000Z</time>
      </trkpt>
      <trkpt lat="47.28085" lon="-2.3578">
        <ele>37.400001525879</ele>
        <time>2020-06-04T10:18:37.000Z</time>
      </trkpt>
      <trkpt lat="47.28086" lon="-2.35775">
        <ele>37.799999237061</ele>
        <time>2020-06-04T10:18:38.000Z</time>
      </trkpt>
      <trkpt lat="47.28086" lon="-2.35767">
        <ele>38.200000762939</ele>
        <time>2020-06-04T10:18:39.000Z</time>
      </trkpt>
      <trkpt lat="47.28086" lon="-2.35761">
        <ele>38.599998474121</ele>
        <time>2020-06-04T10:18:40.000Z</time>
      </trkpt>
      <trkpt lat="47.28086" lon="-2.35755">
        <ele>39</ele>
        <time>2020-06-04T10:18:41.000Z</time>
      </trkpt>
      <trkpt lat="47.28086" lon="-2.35749">
        <ele>39</ele>
        <time>2020-06-04T10:18:42.000Z</time>
      </trkpt>
      <trkpt lat="47.28093" lon="-2.35717">
        <ele>39</ele>
        <time>2020-06-04T10:18:49.000Z</time>
      </trkpt>
      <trkpt lat="47.28094" lon="-2.35712">
        <ele>39.400001525879</ele>
        <time>2020-06-04T10:18:50.000Z</time>
      </trkpt>
      <trkpt lat="47.28094" lon="-2.35707">
        <ele>40.400001525879</ele>
        <time>2020-06-04T10:18:51.000Z</time>
      </trkpt>
      <trkpt lat="47.28093" lon="-2.35703">
        <ele>40.799999237061</ele>
        <time>2020-06-04T10:18:52.000Z</time>
      </trkpt>
      <trkpt lat="47.28092" lon="-2.35698">
        <ele>41.200000762939</ele>
        <time>2020-06-04T10:18:53.000Z</time>
      </trkpt>
      <trkpt lat="47.2809" lon="-2.35693">
        <ele>41.200000762939</ele>
        <time>2020-06-04T10:18:54.000Z</time>
      </trkpt>
      <trkpt lat="47.28081" lon="-2.35649">
        <ele>40.799999237061</ele>
        <time>2020-06-04T10:19:00.000Z</time>
      </trkpt>
      <trkpt lat="47.28079" lon="-2.35641">
        <ele>40.200000762939</ele>
        <time>2020-06-04T10:19:01.000Z</time>
      </trkpt>
      <trkpt lat="47.28077" lon="-2.35634">
        <ele>39.799999237061</ele>
        <time>2020-06-04T10:19:02.000Z</time>
      </trkpt>
      <trkpt lat="47.28075" lon="-2.35626">
        <ele>39.200000762939</ele>
        <time>2020-06-04T10:19:03.000Z</time>
      </trkpt>
      <trkpt lat="47.28074" lon="-2.35618">
        <ele>38.599998474121</ele>
        <time>2020-06-04T10:19:04.000Z</time>
      </trkpt>
      <trkpt lat="47.28072" lon="-2.35609">
        <ele>38</ele>
        <time>2020-06-04T10:19:05.000Z</time>
      </trkpt>
      <trkpt lat="47.2807" lon="-2.35601">
        <ele>37.400001525879</ele>
        <time>2020-06-04T10:19:06.000Z</time>
      </trkpt>
      <trkpt lat="47.28068" lon="-2.35594">
        <ele>36.799999237061</ele>
        <time>2020-06-04T10:19:07.000Z</time>
      </trkpt>
      <trkpt lat="47.28059" lon="-2.35585">
        <ele>36.799999237061</ele>
        <time>2020-06-04T10:19:09.000Z</time>
      </trkpt>
      <trkpt lat="47.28048" lon="-2.35581">
        <ele>36.400001525879</ele>
        <time>2020-06-04T10:19:11.000Z</time>
      </trkpt>
      <trkpt lat="47.28042" lon="-2.3558">
        <ele>36</ele>
        <time>2020-06-04T10:19:12.000Z</time>
      </trkpt>
      <trkpt lat="47.28036" lon="-2.35577">
        <ele>35.599998474121</ele>
        <time>2020-06-04T10:19:13.000Z</time>
      </trkpt>
      <trkpt lat="47.2803" lon="-2.35572">
        <ele>35.200000762939</ele>
        <time>2020-06-04T10:19:14.000Z</time>
      </trkpt>
      <trkpt lat="47.28024" lon="-2.35569">
        <ele>34.799999237061</ele>
        <time>2020-06-04T10:19:15.000Z</time>
      </trkpt>
      <trkpt lat="47.28021" lon="-2.35568">
        <ele>34.799999237061</ele>
        <time>2020-06-04T10:19:16.000Z</time>
      </trkpt>
      <trkpt lat="47.28019" lon="-2.35567">
        <ele>33.799999237061</ele>
        <time>2020-06-04T10:19:18.000Z</time>
      </trkpt>
      <trkpt lat="47.28018" lon="-2.35567">
        <ele>33.400001525879</ele>
        <time>2020-06-04T10:19:19.000Z</time>
      </trkpt>
      <trkpt lat="47.28018" lon="-2.35566">
        <ele>32.599998474121</ele>
        <time>2020-06-04T10:19:27.000Z</time>
      </trkpt>
      <trkpt lat="47.28014" lon="-2.35566">
        <ele>32.599998474121</ele>
        <time>2020-06-04T10:19:29.000Z</time>
      </trkpt>
      <trkpt lat="47.28013" lon="-2.35565">
        <ele>32.599998474121</ele>
        <time>2020-06-04T10:19:31.000Z</time>
      </trkpt>
      <trkpt lat="47.28013" lon="-2.35565">
        <ele>32.599998474121</ele>
        <time>2020-06-04T10:20:13.000Z</time>
      </trkpt>
      <trkpt lat="47.28011" lon="-2.35564">
        <ele>32.599998474121</ele>
        <time>2020-06-04T10:20:14.000Z</time>
      </trkpt>
      <trkpt lat="47.27998" lon="-2.35564">
        <ele>32.599998474121</ele>
        <time>2020-06-04T10:20:18.000Z</time>
      </trkpt>
      <trkpt lat="47.27974" lon="-2.35571">
        <ele>32.599998474121</ele>
        <time>2020-06-04T10:20:24.000Z</time>
      </trkpt>
      <trkpt lat="47.27943" lon="-2.35582">
        <ele>32.599998474121</ele>
        <time>2020-06-04T10:20:32.000Z</time>
      </trkpt>
      <trkpt lat="47.27915" lon="-2.35589">
        <ele>32.599998474121</ele>
        <time>2020-06-04T10:20:39.000Z</time>
      </trkpt>
      <trkpt lat="47.2788" lon="-2.35598">
        <ele>32.599998474121</ele>
        <time>2020-06-04T10:20:46.000Z</time>
      </trkpt>
      <trkpt lat="47.2786" lon="-2.35604">
        <ele>32.200000762939</ele>
        <time>2020-06-04T10:20:49.000Z</time>
      </trkpt>
      <trkpt lat="47.27854" lon="-2.35606">
        <ele>31.60000038147</ele>
        <time>2020-06-04T10:20:50.000Z</time>
      </trkpt>
      <trkpt lat="47.27847" lon="-2.35608">
        <ele>31.200000762939</ele>
        <time>2020-06-04T10:20:51.000Z</time>
      </trkpt>
      <trkpt lat="47.27841" lon="-2.35611">
        <ele>30.799999237061</ele>
        <time>2020-06-04T10:20:52.000Z</time>
      </trkpt>
      <trkpt lat="47.27834" lon="-2.35613">
        <ele>30.39999961853</ele>
        <time>2020-06-04T10:20:53.000Z</time>
      </trkpt>
      <trkpt lat="47.27805" lon="-2.35622">
        <ele>29.799999237061</ele>
        <time>2020-06-04T10:20:57.000Z</time>
      </trkpt>
      <trkpt lat="47.27798" lon="-2.35624">
        <ele>29.39999961853</ele>
        <time>2020-06-04T10:20:58.000Z</time>
      </trkpt>
      <trkpt lat="47.2779" lon="-2.35627">
        <ele>29</ele>
        <time>2020-06-04T10:20:59.000Z</time>
      </trkpt>
      <trkpt lat="47.27783" lon="-2.35631">
        <ele>28.60000038147</ele>
        <time>2020-06-04T10:21:00.000Z</time>
      </trkpt>
      <trkpt lat="47.27775" lon="-2.35636">
        <ele>28.200000762939</ele>
        <time>2020-06-04T10:21:01.000Z</time>
      </trkpt>
      <trkpt lat="47.27768" lon="-2.35642">
        <ele>28.200000762939</ele>
        <time>2020-06-04T10:21:02.000Z</time>
      </trkpt>
      <trkpt lat="47.27756" lon="-2.35656">
        <ele>28.200000762939</ele>
        <time>2020-06-04T10:21:04.000Z</time>
      </trkpt>
      <trkpt lat="47.27745" lon="-2.3567">
        <ele>28.200000762939</ele>
        <time>2020-06-04T10:21:06.000Z</time>
      </trkpt>
      <trkpt lat="47.27709" lon="-2.35719">
        <ele>27.60000038147</ele>
        <time>2020-06-04T10:21:13.000Z</time>
      </trkpt>
      <trkpt lat="47.27703" lon="-2.35725">
        <ele>27.200000762939</ele>
        <time>2020-06-04T10:21:14.000Z</time>
      </trkpt>
      <trkpt lat="47.27697" lon="-2.35731">
        <ele>26.799999237061</ele>
        <time>2020-06-04T10:21:15.000Z</time>
      </trkpt>
      <trkpt lat="47.27691" lon="-2.35737">
        <ele>26.39999961853</ele>
        <time>2020-06-04T10:21:16.000Z</time>
      </trkpt>
      <trkpt lat="47.27685" lon="-2.35744">
        <ele>25.799999237061</ele>
        <time>2020-06-04T10:21:17.000Z</time>
      </trkpt>
      <trkpt lat="47.27674" lon="-2.3575">
        <ele>25.799999237061</ele>
        <time>2020-06-04T10:21:19.000Z</time>
      </trkpt>
      <trkpt lat="47.27665" lon="-2.35743">
        <ele>25.799999237061</ele>
        <time>2020-06-04T10:21:21.000Z</time>
      </trkpt>
      <trkpt lat="47.27656" lon="-2.35731">
        <ele>25.39999961853</ele>
        <time>2020-06-04T10:21:23.000Z</time>
      </trkpt>
      <trkpt lat="47.27651" lon="-2.35725">
        <ele>25</ele>
        <time>2020-06-04T10:21:24.000Z</time>
      </trkpt>
      <trkpt lat="47.27646" lon="-2.35719">
        <ele>24.60000038147</ele>
        <time>2020-06-04T10:21:25.000Z</time>
      </trkpt>
      <trkpt lat="47.2764" lon="-2.35714">
        <ele>24.200000762939</ele>
        <time>2020-06-04T10:21:26.000Z</time>
      </trkpt>
      <trkpt lat="47.27634" lon="-2.3571">
        <ele>23.799999237061</ele>
        <time>2020-06-04T10:21:27.000Z</time>
      </trkpt>
      <trkpt lat="47.27617" lon="-2.35707">
        <ele>23.799999237061</ele>
        <time>2020-06-04T10:21:29.000Z</time>
      </trkpt>
      <trkpt lat="47.2756" lon="-2.35696">
        <ele>23.799999237061</ele>
        <time>2020-06-04T10:21:36.000Z</time>
      </trkpt>
      <trkpt lat="47.27552" lon="-2.35694">
        <ele>23.799999237061</ele>
        <time>2020-06-04T10:21:37.000Z</time>
      </trkpt>
      <trkpt lat="47.27538" lon="-2.3569">
        <ele>23.200000762939</ele>
        <time>2020-06-04T10:21:39.000Z</time>
      </trkpt>
      <trkpt lat="47.27531" lon="-2.35688">
        <ele>22.799999237061</ele>
        <time>2020-06-04T10:21:40.000Z</time>
      </trkpt>
      <trkpt lat="47.27523" lon="-2.35686">
        <ele>22.200000762939</ele>
        <time>2020-06-04T10:21:41.000Z</time>
      </trkpt>
      <trkpt lat="47.27516" lon="-2.35684">
        <ele>21.799999237061</ele>
        <time>2020-06-04T10:21:42.000Z</time>
      </trkpt>
      <trkpt lat="47.27509" lon="-2.35683">
        <ele>21.39999961853</ele>
        <time>2020-06-04T10:21:43.000Z</time>
      </trkpt>
      <trkpt lat="47.27464" lon="-2.35674">
        <ele>20.799999237061</ele>
        <time>2020-06-04T10:21:49.000Z</time>
      </trkpt>
      <trkpt lat="47.27457" lon="-2.35672">
        <ele>20.39999961853</ele>
        <time>2020-06-04T10:21:50.000Z</time>
      </trkpt>
      <trkpt lat="47.2745" lon="-2.35671">
        <ele>20</ele>
        <time>2020-06-04T10:21:51.000Z</time>
      </trkpt>
      <trkpt lat="47.27444" lon="-2.35669">
        <ele>19.39999961853</ele>
        <time>2020-06-04T10:21:52.000Z</time>
      </trkpt>
      <trkpt lat="47.27437" lon="-2.35668">
        <ele>19</ele>
        <time>2020-06-04T10:21:53.000Z</time>
      </trkpt>
      <trkpt lat="47.27417" lon="-2.35664">
        <ele>19</ele>
        <time>2020-06-04T10:21:56.000Z</time>
      </trkpt>
      <trkpt lat="47.2741" lon="-2.35666">
        <ele>19</ele>
        <time>2020-06-04T10:21:57.000Z</time>
      </trkpt>
      <trkpt lat="47.27396" lon="-2.35671">
        <ele>19</ele>
        <time>2020-06-04T10:21:59.000Z</time>
      </trkpt>
      <trkpt lat="47.27359" lon="-2.35696">
        <ele>19</ele>
        <time>2020-06-04T10:22:05.000Z</time>
      </trkpt>
      <trkpt lat="47.2733" lon="-2.35719">
        <ele>19</ele>
        <time>2020-06-04T10:22:10.000Z</time>
      </trkpt>
      <trkpt lat="47.27325" lon="-2.35725">
        <ele>19</ele>
        <time>2020-06-04T10:22:11.000Z</time>
      </trkpt>
      <trkpt lat="47.2731" lon="-2.35738">
        <ele>19</ele>
        <time>2020-06-04T10:22:15.000Z</time>
      </trkpt>
      <trkpt lat="47.27303" lon="-2.35727">
        <ele>19</ele>
        <time>2020-06-04T10:22:17.000Z</time>
      </trkpt>
      <trkpt lat="47.27297" lon="-2.35711">
        <ele>19</ele>
        <time>2020-06-04T10:22:19.000Z</time>
      </trkpt>
      <trkpt lat="47.27293" lon="-2.35703">
        <ele>19</ele>
        <time>2020-06-04T10:22:20.000Z</time>
      </trkpt>
      <trkpt lat="47.27289" lon="-2.35695">
        <ele>19</ele>
        <time>2020-06-04T10:22:21.000Z</time>
      </trkpt>
      <trkpt lat="47.27258" lon="-2.35627">
        <ele>19</ele>
        <time>2020-06-04T10:22:29.000Z</time>
      </trkpt>
      <trkpt lat="47.2723" lon="-2.35564">
        <ele>19</ele>
        <time>2020-06-04T10:22:37.000Z</time>
      </trkpt>
      <trkpt lat="47.27223" lon="-2.35548">
        <ele>19.39999961853</ele>
        <time>2020-06-04T10:22:39.000Z</time>
      </trkpt>
      <trkpt lat="47.27219" lon="-2.3554">
        <ele>19.799999237061</ele>
        <time>2020-06-04T10:22:40.000Z</time>
      </trkpt>
      <trkpt lat="47.27216" lon="-2.35532">
        <ele>20.200000762939</ele>
        <time>2020-06-04T10:22:41.000Z</time>
      </trkpt>
      <trkpt lat="47.27212" lon="-2.35524">
        <ele>20.60000038147</ele>
        <time>2020-06-04T10:22:42.000Z</time>
      </trkpt>
      <trkpt lat="47.27209" lon="-2.35516">
        <ele>21</ele>
        <time>2020-06-04T10:22:43.000Z</time>
      </trkpt>
      <trkpt lat="47.27202" lon="-2.355">
        <ele>21</ele>
        <time>2020-06-04T10:22:45.000Z</time>
      </trkpt>
      <trkpt lat="47.27172" lon="-2.3544">
        <ele>21</ele>
        <time>2020-06-04T10:22:52.000Z</time>
      </trkpt>
      <trkpt lat="47.2714" lon="-2.35381">
        <ele>21</ele>
        <time>2020-06-04T10:22:59.000Z</time>
      </trkpt>
      <trkpt lat="47.27104" lon="-2.35321">
        <ele>21</ele>
        <time>2020-06-04T10:23:07.000Z</time>
      </trkpt>
      <trkpt lat="47.27099" lon="-2.35314">
        <ele>21</ele>
        <time>2020-06-04T10:23:08.000Z</time>
      </trkpt>
      <trkpt lat="47.27059" lon="-2.35251">
        <ele>21</ele>
        <time>2020-06-04T10:23:16.000Z</time>
      </trkpt>
      <trkpt lat="47.27022" lon="-2.35193">
        <ele>21</ele>
        <time>2020-06-04T10:23:23.000Z</time>
      </trkpt>
      <trkpt lat="47.27011" lon="-2.35176">
        <ele>21</ele>
        <time>2020-06-04T10:23:25.000Z</time>
      </trkpt>
      <trkpt lat="47.26972" lon="-2.35117">
        <ele>21</ele>
        <time>2020-06-04T10:23:32.000Z</time>
      </trkpt>
      <trkpt lat="47.26956" lon="-2.35092">
        <ele>21</ele>
        <time>2020-06-04T10:23:35.000Z</time>
      </trkpt>
      <trkpt lat="47.26917" lon="-2.35034">
        <ele>21</ele>
        <time>2020-06-04T10:23:42.000Z</time>
      </trkpt>
      <trkpt lat="47.26907" lon="-2.35019">
        <ele>21</ele>
        <time>2020-06-04T10:23:44.000Z</time>
      </trkpt>
      <trkpt lat="47.26869" lon="-2.3496">
        <ele>21</ele>
        <time>2020-06-04T10:23:51.000Z</time>
      </trkpt>
      <trkpt lat="47.26863" lon="-2.34952">
        <ele>21</ele>
        <time>2020-06-04T10:23:52.000Z</time>
      </trkpt>
      <trkpt lat="47.26823" lon="-2.34892">
        <ele>21</ele>
        <time>2020-06-04T10:23:59.000Z</time>
      </trkpt>
      <trkpt lat="47.26812" lon="-2.34875">
        <ele>21</ele>
        <time>2020-06-04T10:24:01.000Z</time>
      </trkpt>
      <trkpt lat="47.26771" lon="-2.34818">
        <ele>21</ele>
        <time>2020-06-04T10:24:08.000Z</time>
      </trkpt>
      <trkpt lat="47.26766" lon="-2.34811">
        <ele>21</ele>
        <time>2020-06-04T10:24:09.000Z</time>
      </trkpt>
      <trkpt lat="47.26732" lon="-2.34768">
        <ele>21</ele>
        <time>2020-06-04T10:24:15.000Z</time>
      </trkpt>
      <trkpt lat="47.26689" lon="-2.34715">
        <ele>21</ele>
        <time>2020-06-04T10:24:23.000Z</time>
      </trkpt>
      <trkpt lat="47.26665" lon="-2.34686">
        <ele>21</ele>
        <time>2020-06-04T10:24:28.000Z</time>
      </trkpt>
      <trkpt lat="47.2666" lon="-2.34679">
        <ele>21</ele>
        <time>2020-06-04T10:24:29.000Z</time>
      </trkpt>
      <trkpt lat="47.26632" lon="-2.34646">
        <ele>21</ele>
        <time>2020-06-04T10:24:34.000Z</time>
      </trkpt>
      <trkpt lat="47.26592" lon="-2.34596">
        <ele>21</ele>
        <time>2020-06-04T10:24:41.000Z</time>
      </trkpt>
      <trkpt lat="47.2655" lon="-2.3455">
        <ele>21</ele>
        <time>2020-06-04T10:24:49.000Z</time>
      </trkpt>
      <trkpt lat="47.2653" lon="-2.34529">
        <ele>21</ele>
        <time>2020-06-04T10:24:55.000Z</time>
      </trkpt>
      <trkpt lat="47.26515" lon="-2.34517">
        <ele>21</ele>
        <time>2020-06-04T10:24:58.000Z</time>
      </trkpt>
      <trkpt lat="47.26504" lon="-2.34509">
        <ele>21</ele>
        <time>2020-06-04T10:25:00.000Z</time>
      </trkpt>
      <trkpt lat="47.26456" lon="-2.34474">
        <ele>21</ele>
        <time>2020-06-04T10:25:08.000Z</time>
      </trkpt>
      <trkpt lat="47.26406" lon="-2.34439">
        <ele>21</ele>
        <time>2020-06-04T10:25:16.000Z</time>
      </trkpt>
      <trkpt lat="47.2638" lon="-2.34417">
        <ele>21</ele>
        <time>2020-06-04T10:25:22.000Z</time>
      </trkpt>
      <trkpt lat="47.26348" lon="-2.34388">
        <ele>21</ele>
        <time>2020-06-04T10:25:31.000Z</time>
      </trkpt>
      <trkpt lat="47.26337" lon="-2.3438">
        <ele>21</ele>
        <time>2020-06-04T10:25:34.000Z</time>
      </trkpt>
      <trkpt lat="47.26326" lon="-2.34376">
        <ele>21</ele>
        <time>2020-06-04T10:25:37.000Z</time>
      </trkpt>
      <trkpt lat="47.2632" lon="-2.34368">
        <ele>21</ele>
        <time>2020-06-04T10:25:39.000Z</time>
      </trkpt>
      <trkpt lat="47.26314" lon="-2.34358">
        <ele>21</ele>
        <time>2020-06-04T10:25:41.000Z</time>
      </trkpt>
      <trkpt lat="47.26302" lon="-2.34345">
        <ele>21</ele>
        <time>2020-06-04T10:25:44.000Z</time>
      </trkpt>
      <trkpt lat="47.26294" lon="-2.34337">
        <ele>21</ele>
        <time>2020-06-04T10:25:46.000Z</time>
      </trkpt>
      <trkpt lat="47.26267" lon="-2.34309">
        <ele>21</ele>
        <time>2020-06-04T10:25:53.000Z</time>
      </trkpt>
      <trkpt lat="47.26229" lon="-2.34269">
        <ele>21</ele>
        <time>2020-06-04T10:26:02.000Z</time>
      </trkpt>
      <trkpt lat="47.26189" lon="-2.34228">
        <ele>21</ele>
        <time>2020-06-04T10:26:11.000Z</time>
      </trkpt>
      <trkpt lat="47.26157" lon="-2.34194">
        <ele>21</ele>
        <time>2020-06-04T10:26:19.000Z</time>
      </trkpt>
      <trkpt lat="47.26144" lon="-2.34185">
        <ele>21</ele>
        <time>2020-06-04T10:26:22.000Z</time>
      </trkpt>
      <trkpt lat="47.26134" lon="-2.34183">
        <ele>21</ele>
        <time>2020-06-04T10:26:24.000Z</time>
      </trkpt>
      <trkpt lat="47.26129" lon="-2.3418">
        <ele>21</ele>
        <time>2020-06-04T10:26:25.000Z</time>
      </trkpt>
      <trkpt lat="47.26121" lon="-2.34168">
        <ele>21</ele>
        <time>2020-06-04T10:26:27.000Z</time>
      </trkpt>
      <trkpt lat="47.26116" lon="-2.34164">
        <ele>21</ele>
        <time>2020-06-04T10:26:28.000Z</time>
      </trkpt>
      <trkpt lat="47.26105" lon="-2.34157">
        <ele>21</ele>
        <time>2020-06-04T10:26:30.000Z</time>
      </trkpt>
      <trkpt lat="47.26051" lon="-2.34129">
        <ele>21</ele>
        <time>2020-06-04T10:26:39.000Z</time>
      </trkpt>
      <trkpt lat="47.26045" lon="-2.34126">
        <ele>21</ele>
        <time>2020-06-04T10:26:40.000Z</time>
      </trkpt>
      <trkpt lat="47.25991" lon="-2.341">
        <ele>21</ele>
        <time>2020-06-04T10:26:49.000Z</time>
      </trkpt>
      <trkpt lat="47.25985" lon="-2.34097">
        <ele>20.60000038147</ele>
        <time>2020-06-04T10:26:50.000Z</time>
      </trkpt>
      <trkpt lat="47.2598" lon="-2.34094">
        <ele>20.200000762939</ele>
        <time>2020-06-04T10:26:51.000Z</time>
      </trkpt>
      <trkpt lat="47.25974" lon="-2.34091">
        <ele>19.799999237061</ele>
        <time>2020-06-04T10:26:52.000Z</time>
      </trkpt>
      <trkpt lat="47.25969" lon="-2.34088">
        <ele>19.39999961853</ele>
        <time>2020-06-04T10:26:53.000Z</time>
      </trkpt>
      <trkpt lat="47.25963" lon="-2.34086">
        <ele>19</ele>
        <time>2020-06-04T10:26:54.000Z</time>
      </trkpt>
      <trkpt lat="47.25952" lon="-2.34082">
        <ele>19</ele>
        <time>2020-06-04T10:26:56.000Z</time>
      </trkpt>
      <trkpt lat="47.25912" lon="-2.34069">
        <ele>19</ele>
        <time>2020-06-04T10:27:03.000Z</time>
      </trkpt>
      <trkpt lat="47.25907" lon="-2.34065">
        <ele>19</ele>
        <time>2020-06-04T10:27:04.000Z</time>
      </trkpt>
      <trkpt lat="47.25899" lon="-2.34041">
        <ele>19</ele>
        <time>2020-06-04T10:27:07.000Z</time>
      </trkpt>
      <trkpt lat="47.25904" lon="-2.34016">
        <ele>19</ele>
        <time>2020-06-04T10:27:10.000Z</time>
      </trkpt>
      <trkpt lat="47.25907" lon="-2.34007">
        <ele>19</ele>
        <time>2020-06-04T10:27:11.000Z</time>
      </trkpt>
      <trkpt lat="47.25922" lon="-2.33959">
        <ele>19</ele>
        <time>2020-06-04T10:27:17.000Z</time>
      </trkpt>
      <trkpt lat="47.25943" lon="-2.33921">
        <ele>19</ele>
        <time>2020-06-04T10:27:23.000Z</time>
      </trkpt>
      <trkpt lat="47.25949" lon="-2.33892">
        <ele>19</ele>
        <time>2020-06-04T10:27:27.000Z</time>
      </trkpt>
      <trkpt lat="47.25958" lon="-2.33871">
        <ele>19</ele>
        <time>2020-06-04T10:27:31.000Z</time>
      </trkpt>
      <trkpt lat="47.25968" lon="-2.33835">
        <ele>19</ele>
        <time>2020-06-04T10:27:36.000Z</time>
      </trkpt>
      <trkpt lat="47.25983" lon="-2.33787">
        <ele>19</ele>
        <time>2020-06-04T10:27:42.000Z</time>
      </trkpt>
      <trkpt lat="47.26007" lon="-2.33717">
        <ele>19</ele>
        <time>2020-06-04T10:27:51.000Z</time>
      </trkpt>
      <trkpt lat="47.26021" lon="-2.33669">
        <ele>19</ele>
        <time>2020-06-04T10:27:57.000Z</time>
      </trkpt>
      <trkpt lat="47.26025" lon="-2.33646">
        <ele>19</ele>
        <time>2020-06-04T10:28:00.000Z</time>
      </trkpt>
      <trkpt lat="47.26024" lon="-2.33629">
        <ele>18.60000038147</ele>
        <time>2020-06-04T10:28:02.000Z</time>
      </trkpt>
      <trkpt lat="47.26023" lon="-2.33622">
        <ele>18</ele>
        <time>2020-06-04T10:28:03.000Z</time>
      </trkpt>
      <trkpt lat="47.26022" lon="-2.33614">
        <ele>17.60000038147</ele>
        <time>2020-06-04T10:28:04.000Z</time>
      </trkpt>
      <trkpt lat="47.2602" lon="-2.33606">
        <ele>17</ele>
        <time>2020-06-04T10:28:05.000Z</time>
      </trkpt>
      <trkpt lat="47.26019" lon="-2.33598">
        <ele>16.60000038147</ele>
        <time>2020-06-04T10:28:06.000Z</time>
      </trkpt>
      <trkpt lat="47.26015" lon="-2.33591">
        <ele>16.60000038147</ele>
        <time>2020-06-04T10:28:07.000Z</time>
      </trkpt>
      <trkpt lat="47.26012" lon="-2.33583">
        <ele>16.60000038147</ele>
        <time>2020-06-04T10:28:08.000Z</time>
      </trkpt>
      <trkpt lat="47.25995" lon="-2.33547">
        <ele>16.60000038147</ele>
        <time>2020-06-04T10:28:13.000Z</time>
      </trkpt>
      <trkpt lat="47.25991" lon="-2.3354">
        <ele>16.60000038147</ele>
        <time>2020-06-04T10:28:14.000Z</time>
      </trkpt>
      <trkpt lat="47.25981" lon="-2.33521">
        <ele>16.60000038147</ele>
        <time>2020-06-04T10:28:17.000Z</time>
      </trkpt>
      <trkpt lat="47.25979" lon="-2.33514">
        <ele>16.60000038147</ele>
        <time>2020-06-04T10:28:19.000Z</time>
      </trkpt>
      <trkpt lat="47.25968" lon="-2.33501">
        <ele>16.60000038147</ele>
        <time>2020-06-04T10:28:23.000Z</time>
      </trkpt>
      <trkpt lat="47.25965" lon="-2.33498">
        <ele>16.60000038147</ele>
        <time>2020-06-04T10:28:24.000Z</time>
      </trkpt>
      <trkpt lat="47.25966" lon="-2.33487">
        <ele>16.60000038147</ele>
        <time>2020-06-04T10:28:27.000Z</time>
      </trkpt>
      <trkpt lat="47.25978" lon="-2.33486">
        <ele>16.60000038147</ele>
        <time>2020-06-04T10:28:30.000Z</time>
      </trkpt>
      <trkpt lat="47.25989" lon="-2.33485">
        <ele>16.60000038147</ele>
        <time>2020-06-04T10:28:32.000Z</time>
      </trkpt>
      <trkpt lat="47.26005" lon="-2.33482">
        <ele>16.60000038147</ele>
        <time>2020-06-04T10:28:35.000Z</time>
      </trkpt>
      <trkpt lat="47.26032" lon="-2.33472">
        <ele>16.60000038147</ele>
        <time>2020-06-04T10:28:40.000Z</time>
      </trkpt>
      <trkpt lat="47.26036" lon="-2.33466">
        <ele>16.60000038147</ele>
        <time>2020-06-04T10:28:41.000Z</time>
      </trkpt>
      <trkpt lat="47.26045" lon="-2.33448">
        <ele>17</ele>
        <time>2020-06-04T10:28:44.000Z</time>
      </trkpt>
      <trkpt lat="47.26048" lon="-2.33443">
        <ele>17.39999961853</ele>
        <time>2020-06-04T10:28:45.000Z</time>
      </trkpt>
      <trkpt lat="47.26053" lon="-2.33438">
        <ele>18</ele>
        <time>2020-06-04T10:28:46.000Z</time>
      </trkpt>
      <trkpt lat="47.26057" lon="-2.33433">
        <ele>18.39999961853</ele>
        <time>2020-06-04T10:28:47.000Z</time>
      </trkpt>
      <trkpt lat="47.2606" lon="-2.33426">
        <ele>18.799999237061</ele>
        <time>2020-06-04T10:28:48.000Z</time>
      </trkpt>
      <trkpt lat="47.26065" lon="-2.33412">
        <ele>18.799999237061</ele>
        <time>2020-06-04T10:28:50.000Z</time>
      </trkpt>
      <trkpt lat="47.26068" lon="-2.33406">
        <ele>18.799999237061</ele>
        <time>2020-06-04T10:28:51.000Z</time>
      </trkpt>
      <trkpt lat="47.2608" lon="-2.33394">
        <ele>18.799999237061</ele>
        <time>2020-06-04T10:28:54.000Z</time>
      </trkpt>
      <trkpt lat="47.26085" lon="-2.33381">
        <ele>18.799999237061</ele>
        <time>2020-06-04T10:28:57.000Z</time>
      </trkpt>
      <trkpt lat="47.26082" lon="-2.33372">
        <ele>18.799999237061</ele>
        <time>2020-06-04T10:28:59.000Z</time>
      </trkpt>
      <trkpt lat="47.26078" lon="-2.33361">
        <ele>18.799999237061</ele>
        <time>2020-06-04T10:29:01.000Z</time>
      </trkpt>
      <trkpt lat="47.26067" lon="-2.33328">
        <ele>18.799999237061</ele>
        <time>2020-06-04T10:29:06.000Z</time>
      </trkpt>
      <trkpt lat="47.26044" lon="-2.33263">
        <ele>18.799999237061</ele>
        <time>2020-06-04T10:29:15.000Z</time>
      </trkpt>
      <trkpt lat="47.26019" lon="-2.33191">
        <ele>18.799999237061</ele>
        <time>2020-06-04T10:29:25.000Z</time>
      </trkpt>
      <trkpt lat="47.25996" lon="-2.33128">
        <ele>18.799999237061</ele>
        <time>2020-06-04T10:29:34.000Z</time>
      </trkpt>
      <trkpt lat="47.25972" lon="-2.33052">
        <ele>18.799999237061</ele>
        <time>2020-06-04T10:29:44.000Z</time>
      </trkpt>
      <trkpt lat="47.25951" lon="-2.32986">
        <ele>18.799999237061</ele>
        <time>2020-06-04T10:29:53.000Z</time>
      </trkpt>
      <trkpt lat="47.2593" lon="-2.32928">
        <ele>18.799999237061</ele>
        <time>2020-06-04T10:30:01.000Z</time>
      </trkpt>
      <trkpt lat="47.25905" lon="-2.32866">
        <ele>18.799999237061</ele>
        <time>2020-06-04T10:30:10.000Z</time>
      </trkpt>
      <trkpt lat="47.2588" lon="-2.32794">
        <ele>18.799999237061</ele>
        <time>2020-06-04T10:30:20.000Z</time>
      </trkpt>
      <trkpt lat="47.25859" lon="-2.32725">
        <ele>18.799999237061</ele>
        <time>2020-06-04T10:30:30.000Z</time>
      </trkpt>
      <trkpt lat="47.25842" lon="-2.32662">
        <ele>18.799999237061</ele>
        <time>2020-06-04T10:30:39.000Z</time>
      </trkpt>
      <trkpt lat="47.2583" lon="-2.32598">
        <ele>18.799999237061</ele>
        <time>2020-06-04T10:30:48.000Z</time>
      </trkpt>
      <trkpt lat="47.25817" lon="-2.32541">
        <ele>18.799999237061</ele>
        <time>2020-06-04T10:30:56.000Z</time>
      </trkpt>
      <trkpt lat="47.25808" lon="-2.32507">
        <ele>18.799999237061</ele>
        <time>2020-06-04T10:31:01.000Z</time>
      </trkpt>
      <trkpt lat="47.25809" lon="-2.325">
        <ele>18.799999237061</ele>
        <time>2020-06-04T10:31:02.000Z</time>
      </trkpt>
      <trkpt lat="47.25819" lon="-2.32481">
        <ele>18.799999237061</ele>
        <time>2020-06-04T10:31:06.000Z</time>
      </trkpt>
      <trkpt lat="47.25839" lon="-2.3248">
        <ele>18.799999237061</ele>
        <time>2020-06-04T10:31:10.000Z</time>
      </trkpt>
      <trkpt lat="47.25844" lon="-2.32481">
        <ele>18.799999237061</ele>
        <time>2020-06-04T10:31:11.000Z</time>
      </trkpt>
      <trkpt lat="47.25864" lon="-2.32483">
        <ele>18.799999237061</ele>
        <time>2020-06-04T10:31:15.000Z</time>
      </trkpt>
      <trkpt lat="47.25874" lon="-2.32485">
        <ele>18.799999237061</ele>
        <time>2020-06-04T10:31:17.000Z</time>
      </trkpt>
      <trkpt lat="47.25884" lon="-2.32483">
        <ele>18.799999237061</ele>
        <time>2020-06-04T10:31:19.000Z</time>
      </trkpt>
      <trkpt lat="47.2589" lon="-2.32473">
        <ele>18.799999237061</ele>
        <time>2020-06-04T10:31:21.000Z</time>
      </trkpt>
      <trkpt lat="47.25905" lon="-2.32449">
        <ele>18.799999237061</ele>
        <time>2020-06-04T10:31:26.000Z</time>
      </trkpt>
      <trkpt lat="47.25934" lon="-2.32411">
        <ele>18.799999237061</ele>
        <time>2020-06-04T10:31:33.000Z</time>
      </trkpt>
      <trkpt lat="47.25976" lon="-2.32359">
        <ele>18.799999237061</ele>
        <time>2020-06-04T10:31:43.000Z</time>
      </trkpt>
      <trkpt lat="47.26005" lon="-2.32322">
        <ele>18.799999237061</ele>
        <time>2020-06-04T10:31:50.000Z</time>
      </trkpt>
      <trkpt lat="47.26031" lon="-2.32292">
        <ele>18.799999237061</ele>
        <time>2020-06-04T10:31:56.000Z</time>
      </trkpt>
      <trkpt lat="47.26065" lon="-2.32252">
        <ele>18.799999237061</ele>
        <time>2020-06-04T10:32:04.000Z</time>
      </trkpt>
      <trkpt lat="47.26097" lon="-2.3221">
        <ele>18.799999237061</ele>
        <time>2020-06-04T10:32:12.000Z</time>
      </trkpt>
      <trkpt lat="47.26115" lon="-2.32168">
        <ele>18.799999237061</ele>
        <time>2020-06-04T10:32:18.000Z</time>
      </trkpt>
      <trkpt lat="47.26133" lon="-2.32118">
        <ele>18.799999237061</ele>
        <time>2020-06-04T10:32:25.000Z</time>
      </trkpt>
      <trkpt lat="47.26139" lon="-2.32096">
        <ele>18.39999961853</ele>
        <time>2020-06-04T10:32:28.000Z</time>
      </trkpt>
      <trkpt lat="47.26142" lon="-2.3209">
        <ele>18</ele>
        <time>2020-06-04T10:32:29.000Z</time>
      </trkpt>
      <trkpt lat="47.26144" lon="-2.32084">
        <ele>17.60000038147</ele>
        <time>2020-06-04T10:32:30.000Z</time>
      </trkpt>
      <trkpt lat="47.26146" lon="-2.32076">
        <ele>17.200000762939</ele>
        <time>2020-06-04T10:32:31.000Z</time>
      </trkpt>
      <trkpt lat="47.26148" lon="-2.32069">
        <ele>16.799999237061</ele>
        <time>2020-06-04T10:32:32.000Z</time>
      </trkpt>
      <trkpt lat="47.26159" lon="-2.32034">
        <ele>16.799999237061</ele>
        <time>2020-06-04T10:32:37.000Z</time>
      </trkpt>
      <trkpt lat="47.26166" lon="-2.32024">
        <ele>16.799999237061</ele>
        <time>2020-06-04T10:32:39.000Z</time>
      </trkpt>
      <trkpt lat="47.26182" lon="-2.32019">
        <ele>16.799999237061</ele>
        <time>2020-06-04T10:32:43.000Z</time>
      </trkpt>
      <trkpt lat="47.26192" lon="-2.32024">
        <ele>16.799999237061</ele>
        <time>2020-06-04T10:32:47.000Z</time>
      </trkpt>
      <trkpt lat="47.26194" lon="-2.32024">
        <ele>16.799999237061</ele>
        <time>2020-06-04T10:32:48.000Z</time>
      </trkpt>
      <trkpt lat="47.26198" lon="-2.32023">
        <ele>16.799999237061</ele>
        <time>2020-06-04T10:32:50.000Z</time>
      </trkpt>
      <trkpt lat="47.262" lon="-2.32017">
        <ele>16.799999237061</ele>
        <time>2020-06-04T10:32:52.000Z</time>
      </trkpt>
      <trkpt lat="47.26201" lon="-2.3201">
        <ele>16.799999237061</ele>
        <time>2020-06-04T10:32:54.000Z</time>
      </trkpt>
      <trkpt lat="47.26203" lon="-2.32006">
        <ele>16.799999237061</ele>
        <time>2020-06-04T10:32:56.000Z</time>
      </trkpt>
      <trkpt lat="47.26215" lon="-2.31995">
        <ele>16.799999237061</ele>
        <time>2020-06-04T10:33:01.000Z</time>
      </trkpt>
      <trkpt lat="47.26233" lon="-2.31982">
        <ele>16.799999237061</ele>
        <time>2020-06-04T10:33:07.000Z</time>
      </trkpt>
      <trkpt lat="47.2624" lon="-2.31975">
        <ele>16.799999237061</ele>
        <time>2020-06-04T10:33:09.000Z</time>
      </trkpt>
      <trkpt lat="47.26242" lon="-2.31969">
        <ele>16.799999237061</ele>
        <time>2020-06-04T10:33:10.000Z</time>
      </trkpt>
      <trkpt lat="47.26255" lon="-2.3194">
        <ele>16.799999237061</ele>
        <time>2020-06-04T10:33:16.000Z</time>
      </trkpt>
      <trkpt lat="47.26265" lon="-2.31925">
        <ele>16.799999237061</ele>
        <time>2020-06-04T10:33:21.000Z</time>
      </trkpt>
      <trkpt lat="47.26278" lon="-2.31908">
        <ele>16.799999237061</ele>
        <time>2020-06-04T10:33:25.000Z</time>
      </trkpt>
      <trkpt lat="47.26295" lon="-2.31892">
        <ele>16.799999237061</ele>
        <time>2020-06-04T10:33:30.000Z</time>
      </trkpt>
      <trkpt lat="47.26296" lon="-2.3188">
        <ele>16.799999237061</ele>
        <time>2020-06-04T10:33:32.000Z</time>
      </trkpt>
      <trkpt lat="47.26296" lon="-2.31867">
        <ele>16.799999237061</ele>
        <time>2020-06-04T10:33:34.000Z</time>
      </trkpt>
      <trkpt lat="47.26298" lon="-2.31832">
        <ele>16.799999237061</ele>
        <time>2020-06-04T10:33:39.000Z</time>
      </trkpt>
      <trkpt lat="47.26299" lon="-2.31826">
        <ele>16.799999237061</ele>
        <time>2020-06-04T10:33:40.000Z</time>
      </trkpt>
      <trkpt lat="47.26302" lon="-2.31777">
        <ele>16.799999237061</ele>
        <time>2020-06-04T10:33:47.000Z</time>
      </trkpt>
      <trkpt lat="47.263" lon="-2.31722">
        <ele>16.799999237061</ele>
        <time>2020-06-04T10:33:55.000Z</time>
      </trkpt>
      <trkpt lat="47.26311" lon="-2.31712">
        <ele>16.799999237061</ele>
        <time>2020-06-04T10:33:58.000Z</time>
      </trkpt>
      <trkpt lat="47.26315" lon="-2.3171">
        <ele>16.799999237061</ele>
        <time>2020-06-04T10:33:59.000Z</time>
      </trkpt>
      <trkpt lat="47.26332" lon="-2.31698">
        <ele>16.799999237061</ele>
        <time>2020-06-04T10:34:04.000Z</time>
      </trkpt>
      <trkpt lat="47.26332" lon="-2.31692">
        <ele>17.60000038147</ele>
        <time>2020-06-04T10:34:05.000Z</time>
      </trkpt>
      <trkpt lat="47.26334" lon="-2.31687">
        <ele>18.200000762939</ele>
        <time>2020-06-04T10:34:06.000Z</time>
      </trkpt>
      <trkpt lat="47.26337" lon="-2.31685">
        <ele>18.60000038147</ele>
        <time>2020-06-04T10:34:07.000Z</time>
      </trkpt>
      <trkpt lat="47.26339" lon="-2.31684">
        <ele>19</ele>
        <time>2020-06-04T10:34:08.000Z</time>
      </trkpt>
      <trkpt lat="47.26348" lon="-2.3168">
        <ele>19</ele>
        <time>2020-06-04T10:34:11.000Z</time>
      </trkpt>
      <trkpt lat="47.26358" lon="-2.31676">
        <ele>19.39999961853</ele>
        <time>2020-06-04T10:34:14.000Z</time>
      </trkpt>
      <trkpt lat="47.26361" lon="-2.31675">
        <ele>19.799999237061</ele>
        <time>2020-06-04T10:34:15.000Z</time>
      </trkpt>
      <trkpt lat="47.26364" lon="-2.31673">
        <ele>20.200000762939</ele>
        <time>2020-06-04T10:34:16.000Z</time>
      </trkpt>
      <trkpt lat="47.26367" lon="-2.31672">
        <ele>20.60000038147</ele>
        <time>2020-06-04T10:34:17.000Z</time>
      </trkpt>
      <trkpt lat="47.26371" lon="-2.31671">
        <ele>21</ele>
        <time>2020-06-04T10:34:18.000Z</time>
      </trkpt>
      <trkpt lat="47.26392" lon="-2.31662">
        <ele>21</ele>
        <time>2020-06-04T10:34:24.000Z</time>
      </trkpt>
      <trkpt lat="47.2641" lon="-2.31647">
        <ele>21</ele>
        <time>2020-06-04T10:34:31.000Z</time>
      </trkpt>
      <trkpt lat="47.26409" lon="-2.31629">
        <ele>21</ele>
        <time>2020-06-04T10:34:35.000Z</time>
      </trkpt>
      <trkpt lat="47.26409" lon="-2.31596">
        <ele>21</ele>
        <time>2020-06-04T10:34:42.000Z</time>
      </trkpt>
      <trkpt lat="47.26409" lon="-2.31572">
        <ele>21</ele>
        <time>2020-06-04T10:34:47.000Z</time>
      </trkpt>
      <trkpt lat="47.26412" lon="-2.31551">
        <ele>21</ele>
        <time>2020-06-04T10:34:53.000Z</time>
      </trkpt>
      <trkpt lat="47.26415" lon="-2.31552">
        <ele>21.39999961853</ele>
        <time>2020-06-04T10:34:55.000Z</time>
      </trkpt>
      <trkpt lat="47.26416" lon="-2.31552">
        <ele>21.799999237061</ele>
        <time>2020-06-04T10:34:56.000Z</time>
      </trkpt>
      <trkpt lat="47.26416" lon="-2.31552">
        <ele>22.200000762939</ele>
        <time>2020-06-04T10:34:57.000Z</time>
      </trkpt>
    </trkseg>
  </trk>
</gpx>